<?xml version='1.0' encoding='UTF-8'?><gpx version="1.1" creator="JPX - https://github.com/jenetics/jpx" xmlns="http://www.topografix.com/GPX/1/1"><trk><trkseg><trkpt lat="41.82686105534215" lon="12.612084397237034"><ele>95.0</ele><time>2026-03-30T08:23:39.435Z</time></trkpt><trkpt lat="41.82680602471529" lon="12.612149639251143"><ele>95.0</ele><time>2026-03-30T08:23:45.437Z</time></trkpt><trkpt lat="41.82684767802554" lon="12.612303959075405"><ele>95.0</ele><time>2026-03-30T08:23:48Z</time></trkpt><trkpt lat="41.82690125161879" lon="12.612433498109262"><ele>95.0</ele><time>2026-03-30T08:23:50Z</time></trkpt><trkpt lat="41.82695174201938" lon="12.612572899906855"><ele>95.0</ele><time>2026-03-30T08:23:52Z</time></trkpt><trkpt lat="41.82698052391889" lon="12.612652789909752"><ele>95.0</ele><time>2026-03-30T08:23:53Z</time></trkpt><trkpt lat="41.827016988194856" lon="12.612739342609277"><ele>95.0</ele><time>2026-03-30T08:23:54Z</time></trkpt><trkpt lat="41.82704999959482" lon="12.612824955559974"><ele>95.0</ele><time>2026-03-30T08:23:55Z</time></trkpt><trkpt lat="41.82708392067396" lon="12.612914363547135"><ele>95.0</ele><time>2026-03-30T08:23:56Z</time></trkpt><trkpt lat="41.82711732501702" lon="12.613008537550892"><ele>95.0</ele><time>2026-03-30T08:23:57Z</time></trkpt><trkpt lat="41.827150522935966" lon="12.613095289682482"><ele>95.0</ele><time>2026-03-30T08:23:58Z</time></trkpt><trkpt lat="41.82718412769885" lon="12.613178517374848"><ele>95.0</ele><time>2026-03-30T08:23:59Z</time></trkpt><trkpt lat="41.827226646192166" lon="12.61325348379686"><ele>95.28571428571429</ele><time>2026-03-30T08:24:00Z</time></trkpt><trkpt lat="41.827270187606" lon="12.613330354248854"><ele>95.57142857142858</ele><time>2026-03-30T08:24:01Z</time></trkpt><trkpt lat="41.827306928553774" lon="12.613401584445285"><ele>95.85714285714286</ele><time>2026-03-30T08:24:02Z</time></trkpt><trkpt lat="41.827351489500195" lon="12.61349698453971"><ele>96.14285714285714</ele><time>2026-03-30T08:24:04Z</time></trkpt><trkpt lat="41.827378933239224" lon="12.613583208615692"><ele>96.42857142857143</ele><time>2026-03-30T08:24:06Z</time></trkpt><trkpt lat="41.82731283701341" lon="12.613636951063022"><ele>96.71428571428571</ele><time>2026-03-30T08:24:08Z</time></trkpt><trkpt lat="41.82725247676506" lon="12.613700851160575"><ele>97.0</ele><time>2026-03-30T08:24:09Z</time></trkpt><trkpt lat="41.827196420973735" lon="12.613782525587913"><ele>97.16666666666667</ele><time>2026-03-30T08:24:10Z</time></trkpt><trkpt lat="41.82710298194389" lon="12.613832826922014"><ele>97.33333333333334</ele><time>2026-03-30T08:24:11Z</time></trkpt><trkpt lat="41.82704387942302" lon="12.613890498690086"><ele>97.5</ele><time>2026-03-30T08:24:12Z</time></trkpt><trkpt lat="41.826984483436476" lon="12.613935263153495"><ele>97.66666666666666</ele><time>2026-03-30T08:24:13Z</time></trkpt><trkpt lat="41.82693401284111" lon="12.613987095154831"><ele>97.83333333333333</ele><time>2026-03-30T08:24:14Z</time></trkpt><trkpt lat="41.826841798664695" lon="12.614085587071756"><ele>98.0</ele><time>2026-03-30T08:24:16Z</time></trkpt><trkpt lat="41.82674885516961" lon="12.614177715934654"><ele>98.0</ele><time>2026-03-30T08:24:18Z</time></trkpt><trkpt lat="41.82667082571832" lon="12.614260110399714"><ele>98.0</ele><time>2026-03-30T08:24:20Z</time></trkpt><trkpt lat="41.82658810234222" lon="12.614346656871321"><ele>98.0</ele><time>2026-03-30T08:24:22Z</time></trkpt><trkpt lat="41.826509584021174" lon="12.614421276536811"><ele>98.0</ele><time>2026-03-30T08:24:24Z</time></trkpt><trkpt lat="41.82643841167953" lon="12.614497417204351"><ele>98.0</ele><time>2026-03-30T08:24:26Z</time></trkpt><trkpt lat="41.82637627527665" lon="12.614570794346308"><ele>97.99999999999999</ele><time>2026-03-30T08:24:27.999Z</time></trkpt><trkpt lat="41.82639962714485" lon="12.614720062568106"><ele>98.0</ele><time>2026-03-30T08:24:29.999Z</time></trkpt><trkpt lat="41.82642313140455" lon="12.614807130984556"><ele>98.0</ele><time>2026-03-30T08:24:30.999Z</time></trkpt><trkpt lat="41.82645551430422" lon="12.614891632874308"><ele>98.0</ele><time>2026-03-30T08:24:31.999Z</time></trkpt><trkpt lat="41.82648789242493" lon="12.614976122263732"><ele>97.99999999999999</ele><time>2026-03-30T08:24:32.999Z</time></trkpt><trkpt lat="41.826533712958245" lon="12.615065337752242"><ele>98.0</ele><time>2026-03-30T08:24:33.999Z</time></trkpt><trkpt lat="41.826571498782926" lon="12.615157069386123"><ele>97.99999999999999</ele><time>2026-03-30T08:24:34.999Z</time></trkpt><trkpt lat="41.826607504778096" lon="12.615255830300281"><ele>98.0</ele><time>2026-03-30T08:24:35.999Z</time></trkpt><trkpt lat="41.826641360511644" lon="12.615356909893784"><ele>98.0</ele><time>2026-03-30T08:24:36.999Z</time></trkpt><trkpt lat="41.8266778202077" lon="12.615456912443936"><ele>98.0</ele><time>2026-03-30T08:24:37.999Z</time></trkpt><trkpt lat="41.826715500582395" lon="12.615557003638012"><ele>97.99999999999999</ele><time>2026-03-30T08:24:38.999Z</time></trkpt><trkpt lat="41.826752724330596" lon="12.615668602441104"><ele>98.0</ele><time>2026-03-30T08:24:39.999Z</time></trkpt><trkpt lat="41.82679280822701" lon="12.615782981254782"><ele>97.80000000000001</ele><time>2026-03-30T08:24:40.999Z</time></trkpt><trkpt lat="41.8268381245566" lon="12.615894776414299"><ele>97.6</ele><time>2026-03-30T08:24:41.999Z</time></trkpt><trkpt lat="41.82688551822822" lon="12.616009991493813"><ele>97.4</ele><time>2026-03-30T08:24:42.999Z</time></trkpt><trkpt lat="41.82692986391462" lon="12.616129252872225"><ele>97.19999999999999</ele><time>2026-03-30T08:24:43.999Z</time></trkpt><trkpt lat="41.826971347599496" lon="12.61624311641038"><ele>97.0</ele><time>2026-03-30T08:24:44.999Z</time></trkpt><trkpt lat="41.8270147507673" lon="12.616353547549586"><ele>97.33333333333334</ele><time>2026-03-30T08:24:45.999Z</time></trkpt><trkpt lat="41.82705783683388" lon="12.616460566615213"><ele>97.66666666666667</ele><time>2026-03-30T08:24:46.999Z</time></trkpt><trkpt lat="41.827098342939074" lon="12.616566918867735"><ele>98.0</ele><time>2026-03-30T08:24:47.999Z</time></trkpt><trkpt lat="41.82713920581327" lon="12.61667023748624"><ele>98.33333333333334</ele><time>2026-03-30T08:24:48.999Z</time></trkpt><trkpt lat="41.82717289737796" lon="12.616765628574685"><ele>98.66666666666667</ele><time>2026-03-30T08:24:49.999Z</time></trkpt><trkpt lat="41.827213368705635" lon="12.616859360080548"><ele>99.0</ele><time>2026-03-30T08:24:50.999Z</time></trkpt><trkpt lat="41.827244757473196" lon="12.616944574707574"><ele>97.80000000000001</ele><time>2026-03-30T08:24:51.999Z</time></trkpt><trkpt lat="41.82732784735854" lon="12.617129950603134"><ele>96.60000000000001</ele><time>2026-03-30T08:24:54.999Z</time></trkpt><trkpt lat="41.827363693635306" lon="12.617228029149885"><ele>95.4</ele><time>2026-03-30T08:24:56.999Z</time></trkpt><trkpt lat="41.827310252205365" lon="12.617314880768664"><ele>94.2</ele><time>2026-03-30T08:25:04.999Z</time></trkpt><trkpt lat="41.82724430708818" lon="12.617367228416201"><ele>93.0</ele><time>2026-03-30T08:25:06.999Z</time></trkpt><trkpt lat="41.82718308437913" lon="12.617403319882252"><ele>93.0</ele><time>2026-03-30T08:25:08.999Z</time></trkpt><trkpt lat="41.82712828824199" lon="12.61754137483393"><ele>93.0</ele><time>2026-03-30T08:25:12.999Z</time></trkpt><trkpt lat="41.827060087061284" lon="12.617590377131119"><ele>93.0</ele><time>2026-03-30T08:25:13.999Z</time></trkpt><trkpt lat="41.82699580589426" lon="12.617631863423506"><ele>93.0</ele><time>2026-03-30T08:25:14.999Z</time></trkpt><trkpt lat="41.82692814103261" lon="12.61768890038143"><ele>93.0</ele><time>2026-03-30T08:25:15.999Z</time></trkpt><trkpt lat="41.826846406910825" lon="12.617755158865162"><ele>93.0</ele><time>2026-03-30T08:25:16.999Z</time></trkpt><trkpt lat="41.826759510762926" lon="12.617815551029313"><ele>93.2</ele><time>2026-03-30T08:25:17.999Z</time></trkpt><trkpt lat="41.826679633972915" lon="12.617875686947928"><ele>93.4</ele><time>2026-03-30T08:25:18.999Z</time></trkpt><trkpt lat="41.82658905917291" lon="12.617941100540289"><ele>93.60000000000001</ele><time>2026-03-30T08:25:19.999Z</time></trkpt><trkpt lat="41.82649095683345" lon="12.618011433844853"><ele>93.80000000000001</ele><time>2026-03-30T08:25:20.999Z</time></trkpt><trkpt lat="41.82639390950295" lon="12.618068296867191"><ele>94.0</ele><time>2026-03-30T08:25:21.999Z</time></trkpt><trkpt lat="41.826291971701274" lon="12.618118396459856"><ele>94.0</ele><time>2026-03-30T08:25:22.999Z</time></trkpt><trkpt lat="41.82618402957558" lon="12.618150563355064"><ele>94.0</ele><time>2026-03-30T08:25:23.999Z</time></trkpt><trkpt lat="41.826075042135955" lon="12.618151660896036"><ele>94.0</ele><time>2026-03-30T08:25:24.999Z</time></trkpt><trkpt lat="41.82596167439445" lon="12.61813787414253"><ele>94.0</ele><time>2026-03-30T08:25:25.999Z</time></trkpt><trkpt lat="41.82585575897448" lon="12.618103655321498"><ele>94.0</ele><time>2026-03-30T08:25:26.999Z</time></trkpt><trkpt lat="41.8257474998386" lon="12.618061342455146"><ele>94.0</ele><time>2026-03-30T08:25:27.999Z</time></trkpt><trkpt lat="41.825647240528575" lon="12.618019899640437"><ele>94.0</ele><time>2026-03-30T08:25:28.999Z</time></trkpt><trkpt lat="41.82555754632598" lon="12.617977500177991"><ele>94.0</ele><time>2026-03-30T08:25:29.999Z</time></trkpt><trkpt lat="41.82548172350304" lon="12.617939566464129"><ele>94.0</ele><time>2026-03-30T08:25:30.999Z</time></trkpt><trkpt lat="41.82541305735718" lon="12.617904349011912"><ele>94.0</ele><time>2026-03-30T08:25:31.999Z</time></trkpt><trkpt lat="41.82535132523202" lon="12.61788046622885"><ele>94.0</ele><time>2026-03-30T08:25:32.999Z</time></trkpt><trkpt lat="41.825254913967356" lon="12.617838364279786"><ele>94.0</ele><time>2026-03-30T08:25:34.999Z</time></trkpt><trkpt lat="41.825175511629965" lon="12.617996031000297"><ele>94.0</ele><time>2026-03-30T08:25:39.999Z</time></trkpt><trkpt lat="41.825173555695905" lon="12.618085090587936"><ele>94.0</ele><time>2026-03-30T08:25:40.999Z</time></trkpt><trkpt lat="41.82514301850312" lon="12.618182726524015"><ele>94.0</ele><time>2026-03-30T08:25:41.999Z</time></trkpt><trkpt lat="41.82512198410885" lon="12.61830136131019"><ele>94.0</ele><time>2026-03-30T08:25:42.999Z</time></trkpt><trkpt lat="41.82510094222241" lon="12.618426316615857"><ele>93.66666666666666</ele><time>2026-03-30T08:25:43.999Z</time></trkpt><trkpt lat="41.82509664072542" lon="12.618550400920435"><ele>93.33333333333333</ele><time>2026-03-30T08:25:44.999Z</time></trkpt><trkpt lat="41.825073140603855" lon="12.618669098377987"><ele>93.0</ele><time>2026-03-30T08:25:45.999Z</time></trkpt><trkpt lat="41.825046479267385" lon="12.618778725629694"><ele>92.66666666666667</ele><time>2026-03-30T08:25:46.999Z</time></trkpt><trkpt lat="41.82502474868373" lon="12.618878002662917"><ele>92.33333333333334</ele><time>2026-03-30T08:25:47.999Z</time></trkpt><trkpt lat="41.82500240468706" lon="12.618976078677187"><ele>92.0</ele><time>2026-03-30T08:25:48.999Z</time></trkpt><trkpt lat="41.824985713841905" lon="12.619059284217624"><ele>91.8</ele><time>2026-03-30T08:25:50Z</time></trkpt><trkpt lat="41.824962895479835" lon="12.619178163796047"><ele>91.6</ele><time>2026-03-30T08:25:52Z</time></trkpt><trkpt lat="41.82494276142295" lon="12.619291426480144"><ele>91.39999999999999</ele><time>2026-03-30T08:25:55Z</time></trkpt><trkpt lat="41.82492918015924" lon="12.619396549172682"><ele>91.19999999999999</ele><time>2026-03-30T08:25:57Z</time></trkpt><trkpt lat="41.824905100287246" lon="12.619536193408308"><ele>91.0</ele><time>2026-03-30T08:25:59Z</time></trkpt><trkpt lat="41.82484932358598" lon="12.619659912333447"><ele>90.83333333333333</ele><time>2026-03-30T08:26:01Z</time></trkpt><trkpt lat="41.82478360926524" lon="12.619734071495431"><ele>90.66666666666666</ele><time>2026-03-30T08:26:03Z</time></trkpt><trkpt lat="41.82474359989503" lon="12.61980630951654"><ele>90.5</ele><time>2026-03-30T08:26:08Z</time></trkpt><trkpt lat="41.824653767584806" lon="12.619859443575018"><ele>90.33333333333333</ele><time>2026-03-30T08:26:11Z</time></trkpt><trkpt lat="41.82460365978148" lon="12.619924968419669"><ele>90.16666666666667</ele><time>2026-03-30T08:26:12Z</time></trkpt><trkpt lat="41.82455470096067" lon="12.619988145313625"><ele>90.0</ele><time>2026-03-30T08:26:13Z</time></trkpt><trkpt lat="41.82450669735439" lon="12.620044442129156"><ele>90.0</ele><time>2026-03-30T08:26:14Z</time></trkpt><trkpt lat="41.82439886674753" lon="12.620163631963846"><ele>90.0</ele><time>2026-03-30T08:26:16Z</time></trkpt><trkpt lat="41.8243308695402" lon="12.620211443627014"><ele>90.0</ele><time>2026-03-30T08:26:17Z</time></trkpt><trkpt lat="41.82427285536387" lon="12.620293520864942"><ele>90.0</ele><time>2026-03-30T08:26:18Z</time></trkpt><trkpt lat="41.824207582998596" lon="12.620369569058221"><ele>90.0</ele><time>2026-03-30T08:26:18.999Z</time></trkpt><trkpt lat="41.82412494413477" lon="12.62043085222224"><ele>91.0</ele><time>2026-03-30T08:26:19.999Z</time></trkpt><trkpt lat="41.82405117471959" lon="12.620508555615267"><ele>92.0</ele><time>2026-03-30T08:26:20.999Z</time></trkpt><trkpt lat="41.82399260237642" lon="12.620597961657825"><ele>93.0</ele><time>2026-03-30T08:26:21.999Z</time></trkpt><trkpt lat="41.82393135633741" lon="12.620658845918731"><ele>94.0</ele><time>2026-03-30T08:26:22.999Z</time></trkpt><trkpt lat="41.8238706950375" lon="12.620716514395035"><ele>95.0</ele><time>2026-03-30T08:26:23.999Z</time></trkpt><trkpt lat="41.82378404361623" lon="12.62080113740421"><ele>96.0</ele><time>2026-03-30T08:26:25.999Z</time></trkpt><trkpt lat="41.8238566178472" lon="12.620934894856441"><ele>96.0</ele><time>2026-03-30T08:26:29.999Z</time></trkpt><trkpt lat="41.82390237823887" lon="12.621000099130924"><ele>96.0</ele><time>2026-03-30T08:26:30.999Z</time></trkpt><trkpt lat="41.82395469446403" lon="12.62109160788212"><ele>96.0</ele><time>2026-03-30T08:26:31.999Z</time></trkpt><trkpt lat="41.823999632959634" lon="12.621180310778998"><ele>96.0</ele><time>2026-03-30T08:26:32.999Z</time></trkpt><trkpt lat="41.824051385494386" lon="12.621271501835269"><ele>96.0</ele><time>2026-03-30T08:26:33.999Z</time></trkpt><trkpt lat="41.824109077080365" lon="12.621367738061691"><ele>96.0</ele><time>2026-03-30T08:26:34.999Z</time></trkpt><trkpt lat="41.824170316359364" lon="12.62146674810493"><ele>96.0</ele><time>2026-03-30T08:26:35.999Z</time></trkpt><trkpt lat="41.82423438418609" lon="12.621574572302366"><ele>96.0</ele><time>2026-03-30T08:26:36.999Z</time></trkpt><trkpt lat="41.824300207258275" lon="12.621684669269312"><ele>96.0</ele><time>2026-03-30T08:26:37.999Z</time></trkpt><trkpt lat="41.824360405706926" lon="12.621793676752004"><ele>96.0</ele><time>2026-03-30T08:26:38.999Z</time></trkpt><trkpt lat="41.824422069443706" lon="12.621904220337772"><ele>96.0</ele><time>2026-03-30T08:26:39.999Z</time></trkpt><trkpt lat="41.82448735610155" lon="12.622012835987237"><ele>96.4</ele><time>2026-03-30T08:26:40.999Z</time></trkpt><trkpt lat="41.82455248110769" lon="12.622119012553233"><ele>96.8</ele><time>2026-03-30T08:26:41.999Z</time></trkpt><trkpt lat="41.8246165388658" lon="12.622228402170254"><ele>97.2</ele><time>2026-03-30T08:26:42.999Z</time></trkpt><trkpt lat="41.82468348228095" lon="12.622339641040048"><ele>97.60000000000001</ele><time>2026-03-30T08:26:43.999Z</time></trkpt><trkpt lat="41.824752850763474" lon="12.622453132782745"><ele>98.0</ele><time>2026-03-30T08:26:44.999Z</time></trkpt><trkpt lat="41.82481793330512" lon="12.622566962966651"><ele>98.0</ele><time>2026-03-30T08:26:45.999Z</time></trkpt><trkpt lat="41.82488517672451" lon="12.622677926979092"><ele>98.0</ele><time>2026-03-30T08:26:46.999Z</time></trkpt><trkpt lat="41.82495535962506" lon="12.622786047879353"><ele>98.0</ele><time>2026-03-30T08:26:47.999Z</time></trkpt><trkpt lat="41.82502869503048" lon="12.622900474487157"><ele>98.0</ele><time>2026-03-30T08:26:48.999Z</time></trkpt><trkpt lat="41.82509210289478" lon="12.62301784446636"><ele>98.0</ele><time>2026-03-30T08:26:49.999Z</time></trkpt><trkpt lat="41.825161195416825" lon="12.623131125364436"><ele>97.2</ele><time>2026-03-30T08:26:50.999Z</time></trkpt><trkpt lat="41.825223172538294" lon="12.623246819393344"><ele>96.4</ele><time>2026-03-30T08:26:51.999Z</time></trkpt><trkpt lat="41.82529213224072" lon="12.623357056805377"><ele>95.60000000000001</ele><time>2026-03-30T08:26:52.999Z</time></trkpt><trkpt lat="41.82535714470561" lon="12.623472438980436"><ele>94.80000000000001</ele><time>2026-03-30T08:26:53.999Z</time></trkpt><trkpt lat="41.82542279489558" lon="12.62358774263488"><ele>94.0</ele><time>2026-03-30T08:26:54.999Z</time></trkpt><trkpt lat="41.82548761016937" lon="12.623699982156776"><ele>93.6</ele><time>2026-03-30T08:26:55.999Z</time></trkpt><trkpt lat="41.82555408548274" lon="12.623809796943904"><ele>93.2</ele><time>2026-03-30T08:26:56.999Z</time></trkpt><trkpt lat="41.825618861629984" lon="12.62391730810149"><ele>92.8</ele><time>2026-03-30T08:26:57.999Z</time></trkpt><trkpt lat="41.8256842280527" lon="12.624027508171364"><ele>92.39999999999999</ele><time>2026-03-30T08:26:58.999Z</time></trkpt><trkpt lat="41.825751153406884" lon="12.624135455194903"><ele>92.0</ele><time>2026-03-30T08:26:59.999Z</time></trkpt><trkpt lat="41.825816705804804" lon="12.624246831998967"><ele>92.0</ele><time>2026-03-30T08:27:00.999Z</time></trkpt><trkpt lat="41.82588266667775" lon="12.624358669191535"><ele>92.0</ele><time>2026-03-30T08:27:01.999Z</time></trkpt><trkpt lat="41.82594671838519" lon="12.624470610399944"><ele>92.0</ele><time>2026-03-30T08:27:02.999Z</time></trkpt><trkpt lat="41.826012965095494" lon="12.62458447640205"><ele>92.0</ele><time>2026-03-30T08:27:03.999Z</time></trkpt><trkpt lat="41.82607943004223" lon="12.62469463373442"><ele>92.0</ele><time>2026-03-30T08:27:04.999Z</time></trkpt><trkpt lat="41.82614686590464" lon="12.624809139221703"><ele>91.8</ele><time>2026-03-30T08:27:05.999Z</time></trkpt><trkpt lat="41.82621171762924" lon="12.624925055213236"><ele>91.6</ele><time>2026-03-30T08:27:06.999Z</time></trkpt><trkpt lat="41.826284748008916" lon="12.625046599821587"><ele>91.39999999999999</ele><time>2026-03-30T08:27:07.999Z</time></trkpt><trkpt lat="41.82635405633445" lon="12.625164131483428"><ele>91.19999999999999</ele><time>2026-03-30T08:27:08.999Z</time></trkpt><trkpt lat="41.8264171389059" lon="12.625276198296215"><ele>91.0</ele><time>2026-03-30T08:27:09.999Z</time></trkpt><trkpt lat="41.82647682767746" lon="12.625378086292327"><ele>91.4</ele><time>2026-03-30T08:27:10.999Z</time></trkpt><trkpt lat="41.826540356918464" lon="12.625480665379929"><ele>91.8</ele><time>2026-03-30T08:27:11.999Z</time></trkpt><trkpt lat="41.826603093653816" lon="12.625583563013807"><ele>92.2</ele><time>2026-03-30T08:27:12.999Z</time></trkpt><trkpt lat="41.82666963287144" lon="12.62568878851648"><ele>92.60000000000001</ele><time>2026-03-30T08:27:13.999Z</time></trkpt><trkpt lat="41.82672605355503" lon="12.625787076589882"><ele>93.0</ele><time>2026-03-30T08:27:14.999Z</time></trkpt><trkpt lat="41.826764398159455" lon="12.625873015065142"><ele>92.60000000000001</ele><time>2026-03-30T08:27:15.999Z</time></trkpt><trkpt lat="41.82682640220078" lon="12.625964279479412"><ele>92.2</ele><time>2026-03-30T08:27:16.999Z</time></trkpt><trkpt lat="41.8268741811104" lon="12.626057587350713"><ele>91.8</ele><time>2026-03-30T08:27:17.999Z</time></trkpt><trkpt lat="41.82690962033239" lon="12.626132449566908"><ele>91.4</ele><time>2026-03-30T08:27:18.999Z</time></trkpt><trkpt lat="41.82696829361742" lon="12.626229468863858"><ele>91.0</ele><time>2026-03-30T08:27:20.999Z</time></trkpt><trkpt lat="41.82694756172373" lon="12.626406836851602"><ele>91.4</ele><time>2026-03-30T08:27:24.999Z</time></trkpt><trkpt lat="41.826905869321514" lon="12.626527669462991"><ele>91.8</ele><time>2026-03-30T08:27:25.999Z</time></trkpt><trkpt lat="41.82687103041605" lon="12.626648370682512"><ele>92.2</ele><time>2026-03-30T08:27:26.999Z</time></trkpt><trkpt lat="41.826827629702095" lon="12.62680173291285"><ele>92.60000000000001</ele><time>2026-03-30T08:27:27.999Z</time></trkpt><trkpt lat="41.826775538107206" lon="12.626960369769265"><ele>93.0</ele><time>2026-03-30T08:27:28.999Z</time></trkpt><trkpt lat="41.826719680634476" lon="12.627118734860684"><ele>93.66666666666667</ele><time>2026-03-30T08:27:29.999Z</time></trkpt><trkpt lat="41.82665340909271" lon="12.62730307564787"><ele>94.33333333333334</ele><time>2026-03-30T08:27:30.999Z</time></trkpt><trkpt lat="41.82657387874067" lon="12.627506960758168"><ele>95.0</ele><time>2026-03-30T08:27:31.999Z</time></trkpt><trkpt lat="41.82648364823353" lon="12.627708044841391"><ele>97.0</ele><time>2026-03-30T08:27:32.999Z</time></trkpt><trkpt lat="41.82638366788102" lon="12.627905320203793"><ele>99.0</ele><time>2026-03-30T08:27:33.999Z</time></trkpt><trkpt lat="41.8262812062322" lon="12.628113018169648"><ele>101.0</ele><time>2026-03-30T08:27:34.999Z</time></trkpt><trkpt lat="41.826169242004696" lon="12.628319705733006"><ele>101.0</ele><time>2026-03-30T08:27:35.999Z</time></trkpt><trkpt lat="41.82604572962775" lon="12.628521301850151"><ele>101.0</ele><time>2026-03-30T08:27:36.999Z</time></trkpt><trkpt lat="41.82592341054815" lon="12.628718368732233"><ele>101.0</ele><time>2026-03-30T08:27:37.999Z</time></trkpt><trkpt lat="41.82578931169138" lon="12.628914975600532"><ele>101.33333333333333</ele><time>2026-03-30T08:27:38.999Z</time></trkpt><trkpt lat="41.825646153716036" lon="12.629111097464914"><ele>101.66666666666666</ele><time>2026-03-30T08:27:39.999Z</time></trkpt><trkpt lat="41.82549925276413" lon="12.629305870706991"><ele>102.0</ele><time>2026-03-30T08:27:40.999Z</time></trkpt><trkpt lat="41.825344988882186" lon="12.62950766937827"><ele>102.0</ele><time>2026-03-30T08:27:41.999Z</time></trkpt><trkpt lat="41.825196123863975" lon="12.62970504733668"><ele>102.0</ele><time>2026-03-30T08:27:42.999Z</time></trkpt><trkpt lat="41.82504896840396" lon="12.629905149091107"><ele>102.0</ele><time>2026-03-30T08:27:43.999Z</time></trkpt><trkpt lat="41.82489876558188" lon="12.63010665169451"><ele>102.0</ele><time>2026-03-30T08:27:44.999Z</time></trkpt><trkpt lat="41.82475391145953" lon="12.630317318790931"><ele>102.0</ele><time>2026-03-30T08:27:45.999Z</time></trkpt><trkpt lat="41.82461805344698" lon="12.630537186219328"><ele>102.0</ele><time>2026-03-30T08:27:46.999Z</time></trkpt><trkpt lat="41.82447697537864" lon="12.630764966933269"><ele>102.0</ele><time>2026-03-30T08:27:47.999Z</time></trkpt><trkpt lat="41.8243429483119" lon="12.630996671713275"><ele>102.0</ele><time>2026-03-30T08:27:48.999Z</time></trkpt><trkpt lat="41.824206931230066" lon="12.631226563113326"><ele>102.0</ele><time>2026-03-30T08:27:49.999Z</time></trkpt><trkpt lat="41.82407288110725" lon="12.631462074708859"><ele>102.0</ele><time>2026-03-30T08:27:50.999Z</time></trkpt><trkpt lat="41.82395256456845" lon="12.631703687964045"><ele>102.0</ele><time>2026-03-30T08:27:51.999Z</time></trkpt><trkpt lat="41.82385748221297" lon="12.631949083112833"><ele>102.0</ele><time>2026-03-30T08:27:52.999Z</time></trkpt><trkpt lat="41.82378541261199" lon="12.632205763260718"><ele>103.33333333333334</ele><time>2026-03-30T08:27:53.999Z</time></trkpt><trkpt lat="41.82373389644398" lon="12.632469508621094"><ele>104.66666666666667</ele><time>2026-03-30T08:27:55Z</time></trkpt><trkpt lat="41.82369528438742" lon="12.632735151679737"><ele>106.0</ele><time>2026-03-30T08:27:56Z</time></trkpt><trkpt lat="41.823660416274684" lon="12.63299563774576"><ele>106.66666666666667</ele><time>2026-03-30T08:27:57Z</time></trkpt><trkpt lat="41.82362951122939" lon="12.633250140085773"><ele>107.33333333333334</ele><time>2026-03-30T08:27:58Z</time></trkpt><trkpt lat="41.82359672622508" lon="12.6334963075672"><ele>108.0</ele><time>2026-03-30T08:27:59Z</time></trkpt><trkpt lat="41.82356390624371" lon="12.633722950841511"><ele>108.25</ele><time>2026-03-30T08:28:00Z</time></trkpt><trkpt lat="41.82353789094584" lon="12.633931915276328"><ele>108.5</ele><time>2026-03-30T08:28:01Z</time></trkpt><trkpt lat="41.82351532789656" lon="12.634114106107333"><ele>108.75</ele><time>2026-03-30T08:28:02Z</time></trkpt><trkpt lat="41.82349522053772" lon="12.634267310387807"><ele>109.0</ele><time>2026-03-30T08:28:03Z</time></trkpt><trkpt lat="41.82347531709365" lon="12.634400826451785"><ele>109.33333333333334</ele><time>2026-03-30T08:28:04Z</time></trkpt><trkpt lat="41.82345698497115" lon="12.634513506486282"><ele>109.66666666666667</ele><time>2026-03-30T08:28:05Z</time></trkpt><trkpt lat="41.82344366111147" lon="12.634618033630048"><ele>110.0</ele><time>2026-03-30T08:28:06Z</time></trkpt><trkpt lat="41.82343032954863" lon="12.634710290607076"><ele>110.33333333333334</ele><time>2026-03-30T08:28:07Z</time></trkpt><trkpt lat="41.82340277435087" lon="12.634851687795706"><ele>110.66666666666667</ele><time>2026-03-30T08:28:09Z</time></trkpt><trkpt lat="41.82338431864246" lon="12.634932544103272"><ele>111.0</ele><time>2026-03-30T08:28:10.999Z</time></trkpt><trkpt lat="41.82335609990342" lon="12.63502717823866"><ele>111.0</ele><time>2026-03-30T08:28:13.999Z</time></trkpt><trkpt lat="41.823361419003255" lon="12.635113190134817"><ele>111.0</ele><time>2026-03-30T08:28:32.999Z</time></trkpt><trkpt lat="41.82334133739356" lon="12.635276402049133"><ele>111.0</ele><time>2026-03-30T08:28:34.999Z</time></trkpt><trkpt lat="41.82331438142063" lon="12.635371092818911"><ele>111.0</ele><time>2026-03-30T08:28:35.999Z</time></trkpt><trkpt lat="41.823301271940345" lon="12.63549838526977"><ele>111.0</ele><time>2026-03-30T08:28:36.999Z</time></trkpt><trkpt lat="41.8232841874386" lon="12.635646559905329"><ele>111.75</ele><time>2026-03-30T08:28:37.999Z</time></trkpt><trkpt lat="41.82326763172032" lon="12.635796371963156"><ele>112.5</ele><time>2026-03-30T08:28:38.999Z</time></trkpt><trkpt lat="41.82324554015735" lon="12.635959627276257"><ele>113.25</ele><time>2026-03-30T08:28:39.999Z</time></trkpt><trkpt lat="41.823223230522764" lon="12.636131273536916"><ele>114.0</ele><time>2026-03-30T08:28:40.999Z</time></trkpt><trkpt lat="41.82319627051088" lon="12.636321114662772"><ele>114.33333333333334</ele><time>2026-03-30T08:28:41.999Z</time></trkpt><trkpt lat="41.82316260416187" lon="12.636508154319898"><ele>114.66666666666667</ele><time>2026-03-30T08:28:42.999Z</time></trkpt><trkpt lat="41.823123419668356" lon="12.636705579007584"><ele>115.0</ele><time>2026-03-30T08:28:43.999Z</time></trkpt><trkpt lat="41.823070350838755" lon="12.636914213025307"><ele>115.33333333333334</ele><time>2026-03-30T08:28:44.999Z</time></trkpt><trkpt lat="41.8230147161852" lon="12.637113366583813"><ele>115.66666666666666</ele><time>2026-03-30T08:28:45.999Z</time></trkpt><trkpt lat="41.82295318059183" lon="12.637324170496274"><ele>116.0</ele><time>2026-03-30T08:28:46.999Z</time></trkpt><trkpt lat="41.822887070383615" lon="12.6375140123298"><ele>116.0</ele><time>2026-03-30T08:28:47.999Z</time></trkpt><trkpt lat="41.82281591731282" lon="12.637693754512135"><ele>116.0</ele><time>2026-03-30T08:28:48.999Z</time></trkpt><trkpt lat="41.82274982050195" lon="12.637861103889671"><ele>116.0</ele><time>2026-03-30T08:28:49.999Z</time></trkpt><trkpt lat="41.82268425880827" lon="12.638025571366137"><ele>116.0</ele><time>2026-03-30T08:28:50.999Z</time></trkpt><trkpt lat="41.82261774395479" lon="12.638185626839327"><ele>117.19999999999999</ele><time>2026-03-30T08:28:51.999Z</time></trkpt><trkpt lat="41.822553722849015" lon="12.638332709225784"><ele>118.39999999999999</ele><time>2026-03-30T08:28:52.999Z</time></trkpt><trkpt lat="41.82249568709072" lon="12.638461324379389"><ele>119.6</ele><time>2026-03-30T08:28:53.999Z</time></trkpt><trkpt lat="41.82244135319023" lon="12.638581462131217"><ele>120.8</ele><time>2026-03-30T08:28:54.999Z</time></trkpt><trkpt lat="41.82239785048415" lon="12.638691690834532"><ele>122.0</ele><time>2026-03-30T08:28:55.999Z</time></trkpt><trkpt lat="41.822365183391206" lon="12.638772692773113"><ele>122.0</ele><time>2026-03-30T08:28:56.999Z</time></trkpt><trkpt lat="41.822328733852686" lon="12.638856581954663"><ele>121.99999999999999</ele><time>2026-03-30T08:28:58.999Z</time></trkpt><trkpt lat="41.82226832931474" lon="12.638964483419457"><ele>121.99999999999999</ele><time>2026-03-30T08:29:00.999Z</time></trkpt><trkpt lat="41.82222382772047" lon="12.639067430533151"><ele>122.0</ele><time>2026-03-30T08:29:01.999Z</time></trkpt><trkpt lat="41.82218694659194" lon="12.639192839939577"><ele>122.0</ele><time>2026-03-30T08:29:02.999Z</time></trkpt><trkpt lat="41.82211272455112" lon="12.639326050940943"><ele>121.5</ele><time>2026-03-30T08:29:03.999Z</time></trkpt><trkpt lat="41.82204477072616" lon="12.639484012845658"><ele>121.0</ele><time>2026-03-30T08:29:04.999Z</time></trkpt><trkpt lat="41.821978900504575" lon="12.639641273663276"><ele>120.5</ele><time>2026-03-30T08:29:05.999Z</time></trkpt><trkpt lat="41.8219083722899" lon="12.639809717887177"><ele>120.0</ele><time>2026-03-30T08:29:06.999Z</time></trkpt><trkpt lat="41.82183256907805" lon="12.63997984590778"><ele>120.0</ele><time>2026-03-30T08:29:07.999Z</time></trkpt><trkpt lat="41.82175455218511" lon="12.640160549243877"><ele>120.0</ele><time>2026-03-30T08:29:08.999Z</time></trkpt><trkpt lat="41.82167702931155" lon="12.640330533543455"><ele>120.0</ele><time>2026-03-30T08:29:09.999Z</time></trkpt><trkpt lat="41.82159854672112" lon="12.640483408212521"><ele>120.0</ele><time>2026-03-30T08:29:10.999Z</time></trkpt><trkpt lat="41.821524480695544" lon="12.6406154375096"><ele>120.0</ele><time>2026-03-30T08:29:11.999Z</time></trkpt><trkpt lat="41.82146356737718" lon="12.640742477184"><ele>120.0</ele><time>2026-03-30T08:29:12.999Z</time></trkpt><trkpt lat="41.82141510851532" lon="12.640874705783274"><ele>120.0</ele><time>2026-03-30T08:29:13.999Z</time></trkpt><trkpt lat="41.82137746817686" lon="12.641023392276946"><ele>120.0</ele><time>2026-03-30T08:29:14.999Z</time></trkpt><trkpt lat="41.82136576088902" lon="12.64117289401727"><ele>120.2</ele><time>2026-03-30T08:29:15.999Z</time></trkpt><trkpt lat="41.82137698655416" lon="12.641318573094367"><ele>120.4</ele><time>2026-03-30T08:29:16.999Z</time></trkpt><trkpt lat="41.8214121036448" lon="12.641448350713532"><ele>120.6</ele><time>2026-03-30T08:29:17.999Z</time></trkpt><trkpt lat="41.821474376535" lon="12.641558803534558"><ele>120.8</ele><time>2026-03-30T08:29:18.999Z</time></trkpt><trkpt lat="41.82157158008103" lon="12.641661756733962"><ele>121.0</ele><time>2026-03-30T08:29:19.999Z</time></trkpt><trkpt lat="41.82168868031841" lon="12.641762782185012"><ele>121.0</ele><time>2026-03-30T08:29:20.999Z</time></trkpt><trkpt lat="41.82181502374319" lon="12.641883880575472"><ele>121.0</ele><time>2026-03-30T08:29:21.999Z</time></trkpt><trkpt lat="41.82194166851506" lon="12.642025013671484"><ele>121.0</ele><time>2026-03-30T08:29:22.999Z</time></trkpt><trkpt lat="41.82207781065528" lon="12.642173435547786"><ele>123.66666666666667</ele><time>2026-03-30T08:29:23.999Z</time></trkpt><trkpt lat="41.8222234837593" lon="12.642327954901814"><ele>126.33333333333334</ele><time>2026-03-30T08:29:24.999Z</time></trkpt><trkpt lat="41.82234409451223" lon="12.642440127192959"><ele>129.0</ele><time>2026-03-30T08:29:25.999Z</time></trkpt><trkpt lat="41.82243571186095" lon="12.642566304484296"><ele>129.0</ele><time>2026-03-30T08:29:26.999Z</time></trkpt><trkpt lat="41.82251805680706" lon="12.642717139113016"><ele>129.0</ele><time>2026-03-30T08:29:27.999Z</time></trkpt><trkpt lat="41.8225711863498" lon="12.642881768206498"><ele>129.0</ele><time>2026-03-30T08:29:28.999Z</time></trkpt><trkpt lat="41.82260319097028" lon="12.643058134208086"><ele>129.0</ele><time>2026-03-30T08:29:29.999Z</time></trkpt><trkpt lat="41.82262044020077" lon="12.643219480200383"><ele>130.0</ele><time>2026-03-30T08:29:30.999Z</time></trkpt><trkpt lat="41.822622632856984" lon="12.643362475881704"><ele>131.0</ele><time>2026-03-30T08:29:31.999Z</time></trkpt><trkpt lat="41.82262004151022" lon="12.64348463053086"><ele>132.0</ele><time>2026-03-30T08:29:32.999Z</time></trkpt><trkpt lat="41.822594694662364" lon="12.643580418498102"><ele>133.0</ele><time>2026-03-30T08:29:33.999Z</time></trkpt><trkpt lat="41.82267855607792" lon="12.64368686878227"><ele>134.0</ele><time>2026-03-30T08:29:34.999Z</time></trkpt><trkpt lat="41.822762634387786" lon="12.643775518141684"><ele>134.5</ele><time>2026-03-30T08:29:35.999Z</time></trkpt><trkpt lat="41.822874012415014" lon="12.643841844642957"><ele>135.0</ele><time>2026-03-30T08:29:36.999Z</time></trkpt><trkpt lat="41.823014741153244" lon="12.643905783198115"><ele>135.5</ele><time>2026-03-30T08:29:37.999Z</time></trkpt><trkpt lat="41.82317026401254" lon="12.64399035355901"><ele>136.0</ele><time>2026-03-30T08:29:38.999Z</time></trkpt><trkpt lat="41.823324800475895" lon="12.644086452636204"><ele>135.0</ele><time>2026-03-30T08:29:39.999Z</time></trkpt><trkpt lat="41.823493629013534" lon="12.644189508186866"><ele>134.0</ele><time>2026-03-30T08:29:40.999Z</time></trkpt><trkpt lat="41.823675109992266" lon="12.644289754174801"><ele>133.0</ele><time>2026-03-30T08:29:41.999Z</time></trkpt><trkpt lat="41.82386023853177" lon="12.644380352684184"><ele>133.33333333333334</ele><time>2026-03-30T08:29:42.999Z</time></trkpt><trkpt lat="41.824056221966835" lon="12.64446816724042"><ele>133.66666666666666</ele><time>2026-03-30T08:29:43.999Z</time></trkpt><trkpt lat="41.82424652619282" lon="12.644560537537387"><ele>134.0</ele><time>2026-03-30T08:29:44.999Z</time></trkpt><trkpt lat="41.824434194455584" lon="12.644660997981553"><ele>133.33333333333331</ele><time>2026-03-30T08:29:45.999Z</time></trkpt><trkpt lat="41.82461695412837" lon="12.644787920318379"><ele>132.66666666666666</ele><time>2026-03-30T08:29:46.999Z</time></trkpt><trkpt lat="41.82478571196709" lon="12.644928483902445"><ele>132.0</ele><time>2026-03-30T08:29:47.999Z</time></trkpt><trkpt lat="41.82494233609216" lon="12.645114904719462"><ele>131.33333333333334</ele><time>2026-03-30T08:29:48.999Z</time></trkpt><trkpt lat="41.82507791931577" lon="12.645321150593528"><ele>130.66666666666669</ele><time>2026-03-30T08:29:49.999Z</time></trkpt><trkpt lat="41.82522078341448" lon="12.645544699003223"><ele>130.0</ele><time>2026-03-30T08:29:50.998Z</time></trkpt><trkpt lat="41.82536353637758" lon="12.645761130051932"><ele>130.0</ele><time>2026-03-30T08:29:51.998Z</time></trkpt><trkpt lat="41.82550939738628" lon="12.645974935708653"><ele>130.0</ele><time>2026-03-30T08:29:52.998Z</time></trkpt><trkpt lat="41.825653631802055" lon="12.646181729836444"><ele>130.0</ele><time>2026-03-30T08:29:53.998Z</time></trkpt><trkpt lat="41.82579497408967" lon="12.646386905658948"><ele>130.0</ele><time>2026-03-30T08:29:54.998Z</time></trkpt><trkpt lat="41.825941225579044" lon="12.64659189956613"><ele>130.0</ele><time>2026-03-30T08:29:55.998Z</time></trkpt><trkpt lat="41.826092070020906" lon="12.646794295884023"><ele>130.0</ele><time>2026-03-30T08:29:56.998Z</time></trkpt><trkpt lat="41.82624545949422" lon="12.647012609832556"><ele>129.0</ele><time>2026-03-30T08:29:57.998Z</time></trkpt><trkpt lat="41.826392915971255" lon="12.647242701446649"><ele>128.0</ele><time>2026-03-30T08:29:58.998Z</time></trkpt><trkpt lat="41.826537720928854" lon="12.64747470606494"><ele>128.0</ele><time>2026-03-30T08:29:59.998Z</time></trkpt><trkpt lat="41.826681871978934" lon="12.647693485380843"><ele>128.0</ele><time>2026-03-30T08:30:00.999Z</time></trkpt><trkpt lat="41.82681751470917" lon="12.647891111495452"><ele>128.0</ele><time>2026-03-30T08:30:01.999Z</time></trkpt><trkpt lat="41.826947625159974" lon="12.648077651882447"><ele>127.66666666666666</ele><time>2026-03-30T08:30:02.999Z</time></trkpt><trkpt lat="41.82707068605542" lon="12.648251941631035"><ele>127.33333333333334</ele><time>2026-03-30T08:30:03.999Z</time></trkpt><trkpt lat="41.82718392373052" lon="12.648415433414563"><ele>127.0</ele><time>2026-03-30T08:30:04.999Z</time></trkpt><trkpt lat="41.8272971894132" lon="12.648580028351587"><ele>127.33333333333334</ele><time>2026-03-30T08:30:05.999Z</time></trkpt><trkpt lat="41.82741883371778" lon="12.64876046766784"><ele>127.66666666666666</ele><time>2026-03-30T08:30:06.999Z</time></trkpt><trkpt lat="41.82754317972749" lon="12.648943445590211"><ele>128.0</ele><time>2026-03-30T08:30:07.999Z</time></trkpt><trkpt lat="41.82767144256222" lon="12.64912758094786"><ele>128.66666666666666</ele><time>2026-03-30T08:30:08.999Z</time></trkpt><trkpt lat="41.82779721368988" lon="12.649314196516489"><ele>129.33333333333334</ele><time>2026-03-30T08:30:09.999Z</time></trkpt><trkpt lat="41.82792603628076" lon="12.64950655353701"><ele>130.0</ele><time>2026-03-30T08:30:10.999Z</time></trkpt><trkpt lat="41.82805625312609" lon="12.64969798255869"><ele>130.66666666666669</ele><time>2026-03-30T08:30:11.999Z</time></trkpt><trkpt lat="41.828185351214024" lon="12.64989106586893"><ele>131.33333333333334</ele><time>2026-03-30T08:30:12.999Z</time></trkpt><trkpt lat="41.82831345729658" lon="12.650086947597996"><ele>132.0</ele><time>2026-03-30T08:30:13.999Z</time></trkpt><trkpt lat="41.828437521932386" lon="12.650291622102694"><ele>131.33333333333334</ele><time>2026-03-30T08:30:14.999Z</time></trkpt><trkpt lat="41.82855919186843" lon="12.650493808661688"><ele>130.66666666666669</ele><time>2026-03-30T08:30:15.999Z</time></trkpt><trkpt lat="41.82868188294975" lon="12.650695241769517"><ele>130.0</ele><time>2026-03-30T08:30:16.999Z</time></trkpt><trkpt lat="41.828807333633065" lon="12.650890857708069"><ele>130.0</ele><time>2026-03-30T08:30:17.999Z</time></trkpt><trkpt lat="41.828928043060984" lon="12.651086022791674"><ele>130.0</ele><time>2026-03-30T08:30:18.999Z</time></trkpt><trkpt lat="41.8290448684876" lon="12.6512702663023"><ele>130.0</ele><time>2026-03-30T08:30:19.999Z</time></trkpt><trkpt lat="41.82917378413375" lon="12.651440416036095"><ele>127.66666666666667</ele><time>2026-03-30T08:30:20.999Z</time></trkpt><trkpt lat="41.8293238343645" lon="12.651600741963131"><ele>125.33333333333334</ele><time>2026-03-30T08:30:21.999Z</time></trkpt><trkpt lat="41.8294887778712" lon="12.651748122727538"><ele>123.0</ele><time>2026-03-30T08:30:22.999Z</time></trkpt><trkpt lat="41.82965912241211" lon="12.651882564301651"><ele>122.33333333333334</ele><time>2026-03-30T08:30:23.999Z</time></trkpt><trkpt lat="41.82983448156202" lon="12.652005106056725"><ele>121.66666666666667</ele><time>2026-03-30T08:30:24.999Z</time></trkpt><trkpt lat="41.83000175468184" lon="12.652114188263273"><ele>121.0</ele><time>2026-03-30T08:30:25.999Z</time></trkpt><trkpt lat="41.830167682090945" lon="12.652218174030521"><ele>120.0</ele><time>2026-03-30T08:30:26.999Z</time></trkpt><trkpt lat="41.830336631502455" lon="12.652311391823238"><ele>119.0</ele><time>2026-03-30T08:30:27.999Z</time></trkpt><trkpt lat="41.830503413214736" lon="12.652396344405542"><ele>118.0</ele><time>2026-03-30T08:30:28.999Z</time></trkpt><trkpt lat="41.830669047700205" lon="12.652482573006587"><ele>118.0</ele><time>2026-03-30T08:30:29.999Z</time></trkpt><trkpt lat="41.830832421830095" lon="12.65257688848897"><ele>118.0</ele><time>2026-03-30T08:30:30.999Z</time></trkpt><trkpt lat="41.830993373950925" lon="12.652678546174846"><ele>118.0</ele><time>2026-03-30T08:30:31.999Z</time></trkpt><trkpt lat="41.831154415803056" lon="12.652796203125094"><ele>117.66666666666667</ele><time>2026-03-30T08:30:32.999Z</time></trkpt><trkpt lat="41.83130822342748" lon="12.652937968975186"><ele>117.33333333333334</ele><time>2026-03-30T08:30:33.999Z</time></trkpt><trkpt lat="41.83145080204343" lon="12.653108394508884"><ele>117.0</ele><time>2026-03-30T08:30:34.999Z</time></trkpt><trkpt lat="41.831596534468865" lon="12.653288225703895"><ele>117.0</ele><time>2026-03-30T08:30:35.999Z</time></trkpt><trkpt lat="41.831747860451635" lon="12.653461784640664"><ele>117.0</ele><time>2026-03-30T08:30:36.999Z</time></trkpt><trkpt lat="41.83190318619601" lon="12.653632255898579"><ele>117.0</ele><time>2026-03-30T08:30:37.999Z</time></trkpt><trkpt lat="41.83206333523146" lon="12.653794963198473"><ele>117.0</ele><time>2026-03-30T08:30:38.999Z</time></trkpt><trkpt lat="41.83222657265906" lon="12.65396175594015"><ele>117.0</ele><time>2026-03-30T08:30:39.999Z</time></trkpt><trkpt lat="41.832395020738915" lon="12.654137025028325"><ele>117.0</ele><time>2026-03-30T08:30:40.999Z</time></trkpt><trkpt lat="41.83255888839801" lon="12.654315412284548"><ele>118.33333333333334</ele><time>2026-03-30T08:30:41.999Z</time></trkpt><trkpt lat="41.83271933933986" lon="12.65448702849261"><ele>119.66666666666667</ele><time>2026-03-30T08:30:42.999Z</time></trkpt><trkpt lat="41.832886828366824" lon="12.65466278955228"><ele>121.0</ele><time>2026-03-30T08:30:43.999Z</time></trkpt><trkpt lat="41.833040545627966" lon="12.654860129587723"><ele>121.0</ele><time>2026-03-30T08:30:44.999Z</time></trkpt><trkpt lat="41.833189929935436" lon="12.655060058450651"><ele>121.0</ele><time>2026-03-30T08:30:45.999Z</time></trkpt><trkpt lat="41.83334378673303" lon="12.655250001926099"><ele>121.0</ele><time>2026-03-30T08:30:46.999Z</time></trkpt><trkpt lat="41.83350018679539" lon="12.65545659389027"><ele>120.33333333333334</ele><time>2026-03-30T08:30:47.999Z</time></trkpt><trkpt lat="41.833649760627964" lon="12.65565413744146"><ele>119.66666666666666</ele><time>2026-03-30T08:30:48.999Z</time></trkpt><trkpt lat="41.83379201999868" lon="12.65585417291451"><ele>119.0</ele><time>2026-03-30T08:30:49.999Z</time></trkpt><trkpt lat="41.83396430807389" lon="12.656048147001515"><ele>118.5</ele><time>2026-03-30T08:30:50.999Z</time></trkpt><trkpt lat="41.83413469667508" lon="12.656248678827058"><ele>118.0</ele><time>2026-03-30T08:30:51.999Z</time></trkpt><trkpt lat="41.834297585242325" lon="12.656478630109115"><ele>117.5</ele><time>2026-03-30T08:30:52.999Z</time></trkpt><trkpt lat="41.83446672113851" lon="12.656694293605247"><ele>117.0</ele><time>2026-03-30T08:30:53.999Z</time></trkpt><trkpt lat="41.83463982615897" lon="12.656895727200496"><ele>115.66666666666666</ele><time>2026-03-30T08:30:54.999Z</time></trkpt><trkpt lat="41.83479141164972" lon="12.657109311086067"><ele>114.33333333333333</ele><time>2026-03-30T08:30:55.999Z</time></trkpt><trkpt lat="41.83493930324611" lon="12.657316450718875"><ele>113.0</ele><time>2026-03-30T08:30:56.999Z</time></trkpt><trkpt lat="41.83508159700934" lon="12.657510856735541"><ele>112.66666666666666</ele><time>2026-03-30T08:30:57.999Z</time></trkpt><trkpt lat="41.83522036110871" lon="12.657689124931323"><ele>112.33333333333334</ele><time>2026-03-30T08:30:58.999Z</time></trkpt><trkpt lat="41.83535183559967" lon="12.657846196272414"><ele>112.0</ele><time>2026-03-30T08:30:59.999Z</time></trkpt><trkpt lat="41.83548744888303" lon="12.657987063044972"><ele>113.0</ele><time>2026-03-30T08:31:00.999Z</time></trkpt><trkpt lat="41.83564340066318" lon="12.658096561882243"><ele>114.0</ele><time>2026-03-30T08:31:01.999Z</time></trkpt><trkpt lat="41.83579897464259" lon="12.658176727789362"><ele>115.0</ele><time>2026-03-30T08:31:02.999Z</time></trkpt><trkpt lat="41.835944439260444" lon="12.658258794260396"><ele>113.75</ele><time>2026-03-30T08:31:03.999Z</time></trkpt><trkpt lat="41.83608021428006" lon="12.658335210221326"><ele>112.5</ele><time>2026-03-30T08:31:04.999Z</time></trkpt><trkpt lat="41.83619549564453" lon="12.658409154166826"><ele>111.25</ele><time>2026-03-30T08:31:05.999Z</time></trkpt><trkpt lat="41.83630065747986" lon="12.658471968534863"><ele>110.0</ele><time>2026-03-30T08:31:06.999Z</time></trkpt><trkpt lat="41.836400147959466" lon="12.658538392682132"><ele>110.83333333333333</ele><time>2026-03-30T08:31:07.999Z</time></trkpt><trkpt lat="41.83650436902634" lon="12.658626664010063"><ele>111.66666666666666</ele><time>2026-03-30T08:31:09.999Z</time></trkpt><trkpt lat="41.83653082016905" lon="12.658711118741472"><ele>112.5</ele><time>2026-03-30T08:31:10.999Z</time></trkpt><trkpt lat="41.836548087955364" lon="12.65880573391839"><ele>113.33333333333334</ele><time>2026-03-30T08:31:11.999Z</time></trkpt><trkpt lat="41.83657641426516" lon="12.658898196943722"><ele>114.16666666666667</ele><time>2026-03-30T08:31:12.999Z</time></trkpt><trkpt lat="41.836622026285376" lon="12.65897711463373"><ele>115.0</ele><time>2026-03-30T08:31:13.999Z</time></trkpt><trkpt lat="41.83668479179603" lon="12.659022062803176"><ele>115.00000000000001</ele><time>2026-03-30T08:31:14.999Z</time></trkpt><trkpt lat="41.836763982026014" lon="12.659038831664583"><ele>115.0</ele><time>2026-03-30T08:31:15.999Z</time></trkpt><trkpt lat="41.83684626920421" lon="12.659034617025393"><ele>115.0</ele><time>2026-03-30T08:31:16.999Z</time></trkpt><trkpt lat="41.836921078356184" lon="12.659000740453694"><ele>115.0</ele><time>2026-03-30T08:31:17.999Z</time></trkpt><trkpt lat="41.83699410819671" lon="12.659090083987353"><ele>115.00000000000001</ele><time>2026-03-30T08:31:18.999Z</time></trkpt><trkpt lat="41.83705913026627" lon="12.65916893574881"><ele>115.0</ele><time>2026-03-30T08:31:19.999Z</time></trkpt><trkpt lat="41.83712625846592" lon="12.659261566007485"><ele>113.75</ele><time>2026-03-30T08:31:20.999Z</time></trkpt><trkpt lat="41.83719511224133" lon="12.659379727887005"><ele>112.5</ele><time>2026-03-30T08:31:21.999Z</time></trkpt><trkpt lat="41.83727440514838" lon="12.65950580309061"><ele>111.25</ele><time>2026-03-30T08:31:22.999Z</time></trkpt><trkpt lat="41.83735281888576" lon="12.659624851287306"><ele>110.0</ele><time>2026-03-30T08:31:23.999Z</time></trkpt><trkpt lat="41.837428925908014" lon="12.65973389974552"><ele>110.0</ele><time>2026-03-30T08:31:24.999Z</time></trkpt><trkpt lat="41.83750277585876" lon="12.659842020339013"><ele>110.0</ele><time>2026-03-30T08:31:25.999Z</time></trkpt><trkpt lat="41.837577484295856" lon="12.659958671200018"><ele>110.0</ele><time>2026-03-30T08:31:26.999Z</time></trkpt><trkpt lat="41.837653799718986" lon="12.660076955344191"><ele>110.0</ele><time>2026-03-30T08:31:27.999Z</time></trkpt><trkpt lat="41.83772672165875" lon="12.660194094812347"><ele>110.75</ele><time>2026-03-30T08:31:28.999Z</time></trkpt><trkpt lat="41.83780652511513" lon="12.660307594178697"><ele>111.5</ele><time>2026-03-30T08:31:29.999Z</time></trkpt><trkpt lat="41.83790278161401" lon="12.660391018054279"><ele>112.25</ele><time>2026-03-30T08:31:30.999Z</time></trkpt><trkpt lat="41.83801873934149" lon="12.660435951285477"><ele>113.0</ele><time>2026-03-30T08:31:31.999Z</time></trkpt><trkpt lat="41.83813585156408" lon="12.66045717203611"><ele>113.0</ele><time>2026-03-30T08:31:32.999Z</time></trkpt><trkpt lat="41.83826482665385" lon="12.66044276549327"><ele>113.0</ele><time>2026-03-30T08:31:33.999Z</time></trkpt><trkpt lat="41.83840422887232" lon="12.660401627084402"><ele>113.0</ele><time>2026-03-30T08:31:34.999Z</time></trkpt><trkpt lat="41.838555302872635" lon="12.660347263208982"><ele>113.0</ele><time>2026-03-30T08:31:35.999Z</time></trkpt><trkpt lat="41.838719509021736" lon="12.66030232618441"><ele>111.33333333333333</ele><time>2026-03-30T08:31:37Z</time></trkpt><trkpt lat="41.838887297224176" lon="12.660249761525286"><ele>109.66666666666666</ele><time>2026-03-30T08:31:38Z</time></trkpt><trkpt lat="41.83907285836533" lon="12.660193446446085"><ele>108.0</ele><time>2026-03-30T08:31:39Z</time></trkpt><trkpt lat="41.83926511519069" lon="12.660143365521495"><ele>109.33333333333334</ele><time>2026-03-30T08:31:40Z</time></trkpt><trkpt lat="41.839455851602146" lon="12.660099731038693"><ele>110.66666666666667</ele><time>2026-03-30T08:31:41Z</time></trkpt><trkpt lat="41.839646863220494" lon="12.66005873092438"><ele>112.0</ele><time>2026-03-30T08:31:42Z</time></trkpt><trkpt lat="41.839836338874655" lon="12.66001683786724"><ele>112.0</ele><time>2026-03-30T08:31:43Z</time></trkpt><trkpt lat="41.8400352335642" lon="12.660014753830204"><ele>112.0</ele><time>2026-03-30T08:31:44Z</time></trkpt><trkpt lat="41.840230933810396" lon="12.660007924463898"><ele>112.0</ele><time>2026-03-30T08:31:45Z</time></trkpt><trkpt lat="41.84042500397552" lon="12.66002998029969"><ele>112.0</ele><time>2026-03-30T08:31:46Z</time></trkpt><trkpt lat="41.84061026104042" lon="12.660071055320365"><ele>112.0</ele><time>2026-03-30T08:31:47Z</time></trkpt><trkpt lat="41.84078447806473" lon="12.660106823661975"><ele>112.0</ele><time>2026-03-30T08:31:48Z</time></trkpt><trkpt lat="41.84094449627945" lon="12.660172092043528"><ele>112.0</ele><time>2026-03-30T08:31:49Z</time></trkpt><trkpt lat="41.84108083645922" lon="12.660265413110121"><ele>112.0</ele><time>2026-03-30T08:31:50Z</time></trkpt><trkpt lat="41.84120836684744" lon="12.660345863756072"><ele>112.0</ele><time>2026-03-30T08:31:51Z</time></trkpt><trkpt lat="41.8413355597223" lon="12.660419149347188"><ele>112.0</ele><time>2026-03-30T08:31:52Z</time></trkpt><trkpt lat="41.841450599202616" lon="12.66049980340373"><ele>112.0</ele><time>2026-03-30T08:31:53Z</time></trkpt><trkpt lat="41.84155872789387" lon="12.660583068099434"><ele>112.0</ele><time>2026-03-30T08:31:54Z</time></trkpt><trkpt lat="41.84166202514449" lon="12.660662016808741"><ele>112.0</ele><time>2026-03-30T08:31:55Z</time></trkpt><trkpt lat="41.841765674878715" lon="12.660732758319535"><ele>112.0</ele><time>2026-03-30T08:31:56Z</time></trkpt><trkpt lat="41.84186513201705" lon="12.660800429679467"><ele>112.19999999999999</ele><time>2026-03-30T08:31:57Z</time></trkpt><trkpt lat="41.841955140002966" lon="12.660872595349709"><ele>112.39999999999999</ele><time>2026-03-30T08:31:58Z</time></trkpt><trkpt lat="41.84203983971177" lon="12.660943818981172"><ele>112.60000000000001</ele><time>2026-03-30T08:31:58.999Z</time></trkpt><trkpt lat="41.84211974844128" lon="12.661009367645155"><ele>112.80000000000001</ele><time>2026-03-30T08:31:59.999Z</time></trkpt><trkpt lat="41.842196067912354" lon="12.661075139704751"><ele>113.0</ele><time>2026-03-30T08:32:00.999Z</time></trkpt><trkpt lat="41.842271567418365" lon="12.661138914232616"><ele>113.4</ele><time>2026-03-30T08:32:01.999Z</time></trkpt><trkpt lat="41.84235986167883" lon="12.661221128350011"><ele>113.80000000000001</ele><time>2026-03-30T08:32:02.999Z</time></trkpt><trkpt lat="41.842448370103085" lon="12.661314793672059"><ele>114.2</ele><time>2026-03-30T08:32:03.999Z</time></trkpt><trkpt lat="41.842529007670485" lon="12.66141045273946"><ele>114.6</ele><time>2026-03-30T08:32:04.999Z</time></trkpt><trkpt lat="41.84259924612906" lon="12.661483923775341"><ele>115.0</ele><time>2026-03-30T08:32:05.999Z</time></trkpt><trkpt lat="41.842651850438166" lon="12.661538640310047"><ele>115.0</ele><time>2026-03-30T08:32:07Z</time></trkpt><trkpt lat="41.842705818783365" lon="12.661593448517024"><ele>115.0</ele><time>2026-03-30T08:32:09Z</time></trkpt><trkpt lat="41.84275912034045" lon="12.661697367717922"><ele>115.0</ele><time>2026-03-30T08:32:12Z</time></trkpt><trkpt lat="41.84287080680357" lon="12.661811353073666"><ele>115.0</ele><time>2026-03-30T08:32:14Z</time></trkpt><trkpt lat="41.84295214516193" lon="12.661888031885557"><ele>115.0</ele><time>2026-03-30T08:32:15Z</time></trkpt><trkpt lat="41.84303410433072" lon="12.661964311460855"><ele>115.0</ele><time>2026-03-30T08:32:16Z</time></trkpt><trkpt lat="41.843121399062035" lon="12.662048086655972"><ele>115.0</ele><time>2026-03-30T08:32:17Z</time></trkpt><trkpt lat="41.84322043629718" lon="12.662145859905971"><ele>115.0</ele><time>2026-03-30T08:32:18Z</time></trkpt><trkpt lat="41.84333427143793" lon="12.662261003933727"><ele>115.0</ele><time>2026-03-30T08:32:19Z</time></trkpt><trkpt lat="41.84344242824682" lon="12.662383709021723"><ele>114.66666666666667</ele><time>2026-03-30T08:32:20Z</time></trkpt><trkpt lat="41.84354583241516" lon="12.662536605958117"><ele>114.33333333333334</ele><time>2026-03-30T08:32:21Z</time></trkpt><trkpt lat="41.843670762532575" lon="12.66267856084811"><ele>114.0</ele><time>2026-03-30T08:32:22Z</time></trkpt><trkpt lat="41.843776938715735" lon="12.662841308505817"><ele>114.0</ele><time>2026-03-30T08:32:23Z</time></trkpt><trkpt lat="41.84387986242606" lon="12.662996543442897"><ele>114.0</ele><time>2026-03-30T08:32:24Z</time></trkpt><trkpt lat="41.84398233935494" lon="12.663134504986036"><ele>114.0</ele><time>2026-03-30T08:32:25Z</time></trkpt><trkpt lat="41.8440794937349" lon="12.663273678188881"><ele>114.0</ele><time>2026-03-30T08:32:26Z</time></trkpt><trkpt lat="41.84417020881107" lon="12.663430770272218"><ele>113.33333333333334</ele><time>2026-03-30T08:32:27Z</time></trkpt><trkpt lat="41.844264879281816" lon="12.663618952475028"><ele>112.66666666666667</ele><time>2026-03-30T08:32:28Z</time></trkpt><trkpt lat="41.84435482481999" lon="12.66382371246342"><ele>112.0</ele><time>2026-03-30T08:32:29Z</time></trkpt><trkpt lat="41.84444064311614" lon="12.664030934321703"><ele>112.0</ele><time>2026-03-30T08:32:30Z</time></trkpt><trkpt lat="41.84454061380632" lon="12.664239483134645"><ele>112.0</ele><time>2026-03-30T08:32:31Z</time></trkpt><trkpt lat="41.844657484632435" lon="12.664468237098978"><ele>112.0</ele><time>2026-03-30T08:32:32Z</time></trkpt><trkpt lat="41.84477304984107" lon="12.664708996745011"><ele>112.0</ele><time>2026-03-30T08:32:33Z</time></trkpt><trkpt lat="41.84487676559392" lon="12.664961234932504"><ele>112.0</ele><time>2026-03-30T08:32:34Z</time></trkpt><trkpt lat="41.84498108524188" lon="12.66520882309176"><ele>112.0</ele><time>2026-03-30T08:32:35Z</time></trkpt><trkpt lat="41.84510696393199" lon="12.66544474100404"><ele>110.0</ele><time>2026-03-30T08:32:36Z</time></trkpt><trkpt lat="41.84525566480363" lon="12.66567810285277"><ele>108.0</ele><time>2026-03-30T08:32:37Z</time></trkpt><trkpt lat="41.84540368864297" lon="12.665904354872538"><ele>107.0</ele><time>2026-03-30T08:32:38Z</time></trkpt><trkpt lat="41.84554707350752" lon="12.666129178398194"><ele>106.0</ele><time>2026-03-30T08:32:39Z</time></trkpt><trkpt lat="41.845689435606516" lon="12.66634452042573"><ele>105.0</ele><time>2026-03-30T08:32:40Z</time></trkpt><trkpt lat="41.845829798912725" lon="12.66653765130926"><ele>105.33333333333334</ele><time>2026-03-30T08:32:41Z</time></trkpt><trkpt lat="41.845975041022676" lon="12.666711593739752"><ele>105.66666666666667</ele><time>2026-03-30T08:32:42Z</time></trkpt><trkpt lat="41.84611331252891" lon="12.666858029517902"><ele>106.0</ele><time>2026-03-30T08:32:43Z</time></trkpt><trkpt lat="41.846221244490174" lon="12.66697377216509"><ele>106.0</ele><time>2026-03-30T08:32:44Z</time></trkpt><trkpt lat="41.84628266653489" lon="12.66704340405911"><ele>106.0</ele><time>2026-03-30T08:32:45Z</time></trkpt><trkpt lat="41.84641128306456" lon="12.66693124975738"><ele>106.0</ele><time>2026-03-30T08:32:57Z</time></trkpt><trkpt lat="41.84647868464763" lon="12.66685040993275"><ele>106.0</ele><time>2026-03-30T08:32:58Z</time></trkpt><trkpt lat="41.846553154914616" lon="12.66677608603795"><ele>106.0</ele><time>2026-03-30T08:32:59Z</time></trkpt><trkpt lat="41.846647451780406" lon="12.666685462769372"><ele>106.0</ele><time>2026-03-30T08:33:00Z</time></trkpt><trkpt lat="41.84674029751437" lon="12.666599203536322"><ele>106.0</ele><time>2026-03-30T08:33:01Z</time></trkpt><trkpt lat="41.84682307623843" lon="12.666526305231224"><ele>106.0</ele><time>2026-03-30T08:33:02Z</time></trkpt><trkpt lat="41.84691449762768" lon="12.66644508820708"><ele>106.0</ele><time>2026-03-30T08:33:03Z</time></trkpt><trkpt lat="41.84700979794689" lon="12.666360650251036"><ele>106.0</ele><time>2026-03-30T08:33:04Z</time></trkpt><trkpt lat="41.84709807629903" lon="12.66628048997042"><ele>106.33333333333334</ele><time>2026-03-30T08:33:05Z</time></trkpt><trkpt lat="41.84717535945588" lon="12.666211613945103"><ele>106.66666666666667</ele><time>2026-03-30T08:33:06Z</time></trkpt><trkpt lat="41.84724757607572" lon="12.66614733968852"><ele>107.0</ele><time>2026-03-30T08:33:07Z</time></trkpt><trkpt lat="41.84731385806936" lon="12.666085218591906"><ele>107.33333333333334</ele><time>2026-03-30T08:33:08Z</time></trkpt><trkpt lat="41.84737214457218" lon="12.666025552264914"><ele>107.66666666666667</ele><time>2026-03-30T08:33:09Z</time></trkpt><trkpt lat="41.84743353179542" lon="12.66598034051629"><ele>108.0</ele><time>2026-03-30T08:33:10Z</time></trkpt><trkpt lat="41.84754990973053" lon="12.666032741859846"><ele>108.0</ele><time>2026-03-30T08:33:12Z</time></trkpt><trkpt lat="41.847561052710475" lon="12.666143207005351"><ele>108.0</ele><time>2026-03-30T08:33:13Z</time></trkpt><trkpt lat="41.84761332738002" lon="12.666210880581675"><ele>108.0</ele><time>2026-03-30T08:33:14Z</time></trkpt><trkpt lat="41.84764786545414" lon="12.666303959350738"><ele>108.0</ele><time>2026-03-30T08:33:15Z</time></trkpt><trkpt lat="41.84769553936981" lon="12.666372698972468"><ele>108.0</ele><time>2026-03-30T08:33:16Z</time></trkpt><trkpt lat="41.84782048097692" lon="12.666324081115848"><ele>108.0</ele><time>2026-03-30T08:33:18Z</time></trkpt><trkpt lat="41.84788722980761" lon="12.66625133351812"><ele>107.5</ele><time>2026-03-30T08:33:19Z</time></trkpt><trkpt lat="41.84796946154857" lon="12.66616704151559"><ele>107.0</ele><time>2026-03-30T08:33:20Z</time></trkpt><trkpt lat="41.84806480366194" lon="12.666072310103687"><ele>106.5</ele><time>2026-03-30T08:33:21Z</time></trkpt><trkpt lat="41.84817185274848" lon="12.665973784791865"><ele>106.0</ele><time>2026-03-30T08:33:22Z</time></trkpt><trkpt lat="41.84827879614906" lon="12.665877992922026"><ele>105.5</ele><time>2026-03-30T08:33:23Z</time></trkpt><trkpt lat="41.848391372650376" lon="12.665778398378382"><ele>105.0</ele><time>2026-03-30T08:33:24Z</time></trkpt><trkpt lat="41.84850799022336" lon="12.66567752486825"><ele>104.5</ele><time>2026-03-30T08:33:25Z</time></trkpt><trkpt lat="41.84862376232267" lon="12.66557424162205"><ele>104.0</ele><time>2026-03-30T08:33:26Z</time></trkpt><trkpt lat="41.84873801661677" lon="12.665473742540636"><ele>103.25</ele><time>2026-03-30T08:33:27Z</time></trkpt><trkpt lat="41.84885000795258" lon="12.665364398119825"><ele>102.5</ele><time>2026-03-30T08:33:28Z</time></trkpt><trkpt lat="41.848961713232555" lon="12.665255422073372"><ele>101.75</ele><time>2026-03-30T08:33:29Z</time></trkpt><trkpt lat="41.84908401173242" lon="12.665148245741323"><ele>101.0</ele><time>2026-03-30T08:33:30Z</time></trkpt><trkpt lat="41.84920386517285" lon="12.665045133164998"><ele>101.0</ele><time>2026-03-30T08:33:31Z</time></trkpt><trkpt lat="41.8493169955577" lon="12.664938791291455"><ele>101.0</ele><time>2026-03-30T08:33:32Z</time></trkpt><trkpt lat="41.84941970845163" lon="12.664841571585736"><ele>101.0</ele><time>2026-03-30T08:33:33Z</time></trkpt><trkpt lat="41.849520997118425" lon="12.664750639098868"><ele>101.0</ele><time>2026-03-30T08:33:34Z</time></trkpt><trkpt lat="41.84963225653832" lon="12.664654177668389"><ele>101.0</ele><time>2026-03-30T08:33:35Z</time></trkpt><trkpt lat="41.849742827108415" lon="12.664556648822003"><ele>101.0</ele><time>2026-03-30T08:33:36Z</time></trkpt><trkpt lat="41.84985392039107" lon="12.664460005202098"><ele>101.0</ele><time>2026-03-30T08:33:37Z</time></trkpt><trkpt lat="41.84996221579664" lon="12.664357577774648"><ele>101.0</ele><time>2026-03-30T08:33:38Z</time></trkpt><trkpt lat="41.85006713183225" lon="12.664253783711647"><ele>100.25</ele><time>2026-03-30T08:33:39Z</time></trkpt><trkpt lat="41.850174575039475" lon="12.66415388645358"><ele>99.5</ele><time>2026-03-30T08:33:40Z</time></trkpt><trkpt lat="41.85028232950433" lon="12.66406144317332"><ele>98.75</ele><time>2026-03-30T08:33:41Z</time></trkpt><trkpt lat="41.850376805503295" lon="12.66397273888768"><ele>98.0</ele><time>2026-03-30T08:33:42Z</time></trkpt><trkpt lat="41.85047290822222" lon="12.6638764062064"><ele>98.0</ele><time>2026-03-30T08:33:43Z</time></trkpt><trkpt lat="41.85056861458845" lon="12.663783365590314"><ele>98.0</ele><time>2026-03-30T08:33:44Z</time></trkpt><trkpt lat="41.85066433701055" lon="12.66369607904555"><ele>98.0</ele><time>2026-03-30T08:33:45Z</time></trkpt><trkpt lat="41.85075631417399" lon="12.66360660312647"><ele>98.0</ele><time>2026-03-30T08:33:46Z</time></trkpt><trkpt lat="41.85084860168635" lon="12.663520393828968"><ele>97.75</ele><time>2026-03-30T08:33:47Z</time></trkpt><trkpt lat="41.850944455521926" lon="12.663435107862863"><ele>97.5</ele><time>2026-03-30T08:33:48Z</time></trkpt><trkpt lat="41.8510441020058" lon="12.663344752102697"><ele>97.25</ele><time>2026-03-30T08:33:49Z</time></trkpt><trkpt lat="41.85113981365726" lon="12.663254285454183"><ele>97.0</ele><time>2026-03-30T08:33:50Z</time></trkpt><trkpt lat="41.851237904199174" lon="12.663164397414652"><ele>97.0</ele><time>2026-03-30T08:33:51Z</time></trkpt><trkpt lat="41.85133793819532" lon="12.6630784555166"><ele>97.0</ele><time>2026-03-30T08:33:52Z</time></trkpt><trkpt lat="41.85143699195405" lon="12.662994960576357"><ele>97.0</ele><time>2026-03-30T08:33:53Z</time></trkpt><trkpt lat="41.851532856376345" lon="12.662912096686524"><ele>97.0</ele><time>2026-03-30T08:33:54Z</time></trkpt><trkpt lat="41.85162163260562" lon="12.662828586819536"><ele>96.6</ele><time>2026-03-30T08:33:54.999Z</time></trkpt><trkpt lat="41.85171042521596" lon="12.662747860008166"><ele>96.19999999999999</ele><time>2026-03-30T08:33:55.999Z</time></trkpt><trkpt lat="41.851794843506404" lon="12.662673058514914"><ele>95.8</ele><time>2026-03-30T08:33:56.999Z</time></trkpt><trkpt lat="41.85188180589696" lon="12.66259873696472"><ele>95.4</ele><time>2026-03-30T08:33:57.999Z</time></trkpt><trkpt lat="41.85195873620233" lon="12.662527515292695"><ele>95.0</ele><time>2026-03-30T08:33:58.999Z</time></trkpt><trkpt lat="41.85202704791851" lon="12.66246072912012"><ele>95.0</ele><time>2026-03-30T08:33:59.999Z</time></trkpt><trkpt lat="41.85208788984775" lon="12.662403826321906"><ele>95.0</ele><time>2026-03-30T08:34:00.999Z</time></trkpt><trkpt lat="41.8521483299163" lon="12.662357057138868"><ele>95.0</ele><time>2026-03-30T08:34:01.999Z</time></trkpt><trkpt lat="41.852213938907624" lon="12.662300221226959"><ele>95.0</ele><time>2026-03-30T08:34:02.999Z</time></trkpt><trkpt lat="41.85228018115139" lon="12.662232162286985"><ele>95.0</ele><time>2026-03-30T08:34:03.999Z</time></trkpt><trkpt lat="41.852348722689705" lon="12.662159535141093"><ele>95.0</ele><time>2026-03-30T08:34:04.999Z</time></trkpt><trkpt lat="41.85242344028115" lon="12.662087844596481"><ele>95.0</ele><time>2026-03-30T08:34:05.999Z</time></trkpt><trkpt lat="41.85248930939924" lon="12.662003689412998"><ele>95.0</ele><time>2026-03-30T08:34:06.999Z</time></trkpt><trkpt lat="41.85255173287244" lon="12.661917976991376"><ele>95.0</ele><time>2026-03-30T08:34:07.999Z</time></trkpt><trkpt lat="41.85261927368582" lon="12.66183115017965"><ele>95.0</ele><time>2026-03-30T08:34:08.999Z</time></trkpt><trkpt lat="41.85268228614448" lon="12.661749002548289"><ele>95.0</ele><time>2026-03-30T08:34:09.999Z</time></trkpt><trkpt lat="41.85274418167904" lon="12.661670764732316"><ele>95.0</ele><time>2026-03-30T08:34:10.999Z</time></trkpt><trkpt lat="41.85280161018954" lon="12.661597450493524"><ele>94.6</ele><time>2026-03-30T08:34:11.999Z</time></trkpt><trkpt lat="41.852849793822536" lon="12.661532797517538"><ele>94.2</ele><time>2026-03-30T08:34:13Z</time></trkpt><trkpt lat="41.85295073387674" lon="12.661417444532214"><ele>93.80000000000001</ele><time>2026-03-30T08:34:16Z</time></trkpt><trkpt lat="41.85303467606857" lon="12.661465077753801"><ele>93.4</ele><time>2026-03-30T08:34:18Z</time></trkpt><trkpt lat="41.853089696438545" lon="12.6615375876986"><ele>93.0</ele><time>2026-03-30T08:34:19Z</time></trkpt><trkpt lat="41.85314650894793" lon="12.6616195989265"><ele>93.0</ele><time>2026-03-30T08:34:20Z</time></trkpt><trkpt lat="41.8532076380406" lon="12.661705437928905"><ele>93.0</ele><time>2026-03-30T08:34:21Z</time></trkpt><trkpt lat="41.853262188424004" lon="12.661787469253127"><ele>93.0</ele><time>2026-03-30T08:34:22Z</time></trkpt><trkpt lat="41.853328430166535" lon="12.661879394699469"><ele>93.0</ele><time>2026-03-30T08:34:23Z</time></trkpt><trkpt lat="41.85340743002611" lon="12.661977774663216"><ele>93.0</ele><time>2026-03-30T08:34:24Z</time></trkpt><trkpt lat="41.853493097370595" lon="12.662103594913837"><ele>92.25</ele><time>2026-03-30T08:34:25Z</time></trkpt><trkpt lat="41.85359434163167" lon="12.662241129941448"><ele>91.5</ele><time>2026-03-30T08:34:26Z</time></trkpt><trkpt lat="41.85368819405654" lon="12.662352346397672"><ele>90.75</ele><time>2026-03-30T08:34:27Z</time></trkpt><trkpt lat="41.85376393436334" lon="12.662450933693034"><ele>90.0</ele><time>2026-03-30T08:34:28Z</time></trkpt><trkpt lat="41.853849840274684" lon="12.662558245465663"><ele>90.0</ele><time>2026-03-30T08:34:29Z</time></trkpt><trkpt lat="41.85393313516936" lon="12.66268076846628"><ele>90.0</ele><time>2026-03-30T08:34:30Z</time></trkpt><trkpt lat="41.854015612525515" lon="12.662803284487858"><ele>90.0</ele><time>2026-03-30T08:34:31Z</time></trkpt><trkpt lat="41.854096772356044" lon="12.662912016498526"><ele>90.0</ele><time>2026-03-30T08:34:32Z</time></trkpt><trkpt lat="41.854187647397275" lon="12.66302838197958"><ele>89.33333333333333</ele><time>2026-03-30T08:34:33Z</time></trkpt><trkpt lat="41.85428955206233" lon="12.6631560219889"><ele>88.66666666666666</ele><time>2026-03-30T08:34:34Z</time></trkpt><trkpt lat="41.85440322319418" lon="12.66331223092927"><ele>88.0</ele><time>2026-03-30T08:34:35Z</time></trkpt><trkpt lat="41.85452634699196" lon="12.663476519603362"><ele>89.66666666666666</ele><time>2026-03-30T08:34:36Z</time></trkpt><trkpt lat="41.85465607936532" lon="12.66365417931126"><ele>91.33333333333333</ele><time>2026-03-30T08:34:37Z</time></trkpt><trkpt lat="41.854780886318885" lon="12.663829092018023"><ele>93.0</ele><time>2026-03-30T08:34:38Z</time></trkpt><trkpt lat="41.854904864272754" lon="12.664005050891483"><ele>93.0</ele><time>2026-03-30T08:34:39Z</time></trkpt><trkpt lat="41.85502165477399" lon="12.664169887744688"><ele>93.0</ele><time>2026-03-30T08:34:40Z</time></trkpt><trkpt lat="41.855128118124775" lon="12.664312717361092"><ele>93.0</ele><time>2026-03-30T08:34:41Z</time></trkpt><trkpt lat="41.85521483621826" lon="12.664424490893266"><ele>93.0</ele><time>2026-03-30T08:34:42Z</time></trkpt><trkpt lat="41.855277982109854" lon="12.664509736047368"><ele>93.5</ele><time>2026-03-30T08:34:43Z</time></trkpt><trkpt lat="41.85533163631962" lon="12.664577215630926"><ele>94.0</ele><time>2026-03-30T08:34:44Z</time></trkpt><trkpt lat="41.85538736247336" lon="12.664644542919898"><ele>94.5</ele><time>2026-03-30T08:34:45Z</time></trkpt><trkpt lat="41.85545001015129" lon="12.664719162996635"><ele>95.0</ele><time>2026-03-30T08:34:46Z</time></trkpt><trkpt lat="41.85551940279491" lon="12.664805925989173"><ele>95.5</ele><time>2026-03-30T08:34:47Z</time></trkpt><trkpt lat="41.855594100142326" lon="12.664914588370749"><ele>96.0</ele><time>2026-03-30T08:34:48Z</time></trkpt><trkpt lat="41.85567956411956" lon="12.665031210713574"><ele>96.0</ele><time>2026-03-30T08:34:49Z</time></trkpt><trkpt lat="41.855775894806136" lon="12.665157805456412"><ele>96.0</ele><time>2026-03-30T08:34:50Z</time></trkpt><trkpt lat="41.855878318844475" lon="12.66529203370416"><ele>96.0</ele><time>2026-03-30T08:34:51Z</time></trkpt><trkpt lat="41.85598002441922" lon="12.665429100737926"><ele>96.0</ele><time>2026-03-30T08:34:52Z</time></trkpt><trkpt lat="41.85608233675344" lon="12.665569630960595"><ele>97.0</ele><time>2026-03-30T08:34:53Z</time></trkpt><trkpt lat="41.856182211942674" lon="12.66571041931247"><ele>98.0</ele><time>2026-03-30T08:34:54Z</time></trkpt><trkpt lat="41.85628356096225" lon="12.665851229797815"><ele>99.0</ele><time>2026-03-30T08:34:55Z</time></trkpt><trkpt lat="41.856378081364554" lon="12.665977920654944"><ele>100.0</ele><time>2026-03-30T08:34:56Z</time></trkpt><trkpt lat="41.85647232818375" lon="12.666101721953428"><ele>100.6</ele><time>2026-03-30T08:34:57Z</time></trkpt><trkpt lat="41.85655954222482" lon="12.666211727062953"><ele>101.2</ele><time>2026-03-30T08:34:58Z</time></trkpt><trkpt lat="41.856637110517894" lon="12.666317453104389"><ele>101.80000000000001</ele><time>2026-03-30T08:34:59Z</time></trkpt><trkpt lat="41.85670723412388" lon="12.666420028942774"><ele>102.4</ele><time>2026-03-30T08:35:00Z</time></trkpt><trkpt lat="41.85677739241193" lon="12.666519929119902"><ele>103.0</ele><time>2026-03-30T08:35:01Z</time></trkpt><trkpt lat="41.85684099034546" lon="12.666608025426962"><ele>103.00000000000001</ele><time>2026-03-30T08:35:02Z</time></trkpt><trkpt lat="41.856898086091775" lon="12.666684146409589"><ele>103.0</ele><time>2026-03-30T08:35:03Z</time></trkpt><trkpt lat="41.856968410001265" lon="12.666778226202672"><ele>103.0</ele><time>2026-03-30T08:35:05Z</time></trkpt><trkpt lat="41.85703729725745" lon="12.66685329809569"><ele>103.0</ele><time>2026-03-30T08:35:08Z</time></trkpt><trkpt lat="41.857090691517655" lon="12.666920919094474"><ele>103.00000000000001</ele><time>2026-03-30T08:35:09Z</time></trkpt><trkpt lat="41.85715016266368" lon="12.666998461185177"><ele>103.0</ele><time>2026-03-30T08:35:10Z</time></trkpt><trkpt lat="41.85722326014945" lon="12.66709745857011"><ele>103.2</ele><time>2026-03-30T08:35:11Z</time></trkpt><trkpt lat="41.85729185386354" lon="12.667194128844054"><ele>103.4</ele><time>2026-03-30T08:35:12Z</time></trkpt><trkpt lat="41.857368410429935" lon="12.667290709364767"><ele>103.60000000000001</ele><time>2026-03-30T08:35:13Z</time></trkpt><trkpt lat="41.857445482158084" lon="12.667392430394745"><ele>103.80000000000001</ele><time>2026-03-30T08:35:14Z</time></trkpt><trkpt lat="41.85751300326105" lon="12.667495320672746"><ele>104.0</ele><time>2026-03-30T08:35:15Z</time></trkpt><trkpt lat="41.857613752082216" lon="12.6676193445497"><ele>103.4</ele><time>2026-03-30T08:35:16Z</time></trkpt><trkpt lat="41.85769661081067" lon="12.667730587997085"><ele>102.80000000000001</ele><time>2026-03-30T08:35:17Z</time></trkpt><trkpt lat="41.85777888603101" lon="12.667843794683073"><ele>102.19999999999999</ele><time>2026-03-30T08:35:18Z</time></trkpt><trkpt lat="41.8578510324144" lon="12.66795282697078"><ele>101.6</ele><time>2026-03-30T08:35:19Z</time></trkpt><trkpt lat="41.85792357134349" lon="12.6680505428051"><ele>101.0</ele><time>2026-03-30T08:35:20Z</time></trkpt><trkpt lat="41.85799977965391" lon="12.668152080034245"><ele>100.4</ele><time>2026-03-30T08:35:21Z</time></trkpt><trkpt lat="41.85807156578213" lon="12.668255314115854"><ele>99.8</ele><time>2026-03-30T08:35:22Z</time></trkpt><trkpt lat="41.85814578418221" lon="12.668359473598267"><ele>99.2</ele><time>2026-03-30T08:35:23Z</time></trkpt><trkpt lat="41.858222294477386" lon="12.668458868625127"><ele>98.60000000000001</ele><time>2026-03-30T08:35:24Z</time></trkpt><trkpt lat="41.85829207421684" lon="12.668555801844906"><ele>98.0</ele><time>2026-03-30T08:35:25Z</time></trkpt><trkpt lat="41.85836225956564" lon="12.668648443144976"><ele>97.83333333333333</ele><time>2026-03-30T08:35:26Z</time></trkpt><trkpt lat="41.85842447350539" lon="12.668727941456456"><ele>97.66666666666666</ele><time>2026-03-30T08:35:27Z</time></trkpt><trkpt lat="41.858487960660696" lon="12.668803266407599"><ele>97.5</ele><time>2026-03-30T08:35:28Z</time></trkpt><trkpt lat="41.85853879158669" lon="12.668875196156934"><ele>97.33333333333334</ele><time>2026-03-30T08:35:29Z</time></trkpt><trkpt lat="41.85859960482518" lon="12.668977422353535"><ele>97.16666666666667</ele><time>2026-03-30T08:35:31Z</time></trkpt><trkpt lat="41.858645687936104" lon="12.669043419765373"><ele>97.0</ele><time>2026-03-30T08:35:35Z</time></trkpt><trkpt lat="41.85875128210528" lon="12.669187569741272"><ele>97.0</ele><time>2026-03-30T08:35:37Z</time></trkpt><trkpt lat="41.858819812093664" lon="12.669287973188592"><ele>97.0</ele><time>2026-03-30T08:35:38Z</time></trkpt><trkpt lat="41.85889084810776" lon="12.669382723860233"><ele>97.0</ele><time>2026-03-30T08:35:39Z</time></trkpt><trkpt lat="41.85897074186165" lon="12.669485315121962"><ele>97.0</ele><time>2026-03-30T08:35:40Z</time></trkpt><trkpt lat="41.8590504145635" lon="12.669600134925322"><ele>97.0</ele><time>2026-03-30T08:35:41Z</time></trkpt><trkpt lat="41.85913169806692" lon="12.669717483665353"><ele>97.75</ele><time>2026-03-30T08:35:42Z</time></trkpt><trkpt lat="41.85921892144187" lon="12.669835479707029"><ele>98.5</ele><time>2026-03-30T08:35:43Z</time></trkpt><trkpt lat="41.85931122561589" lon="12.669958659859697"><ele>99.25</ele><time>2026-03-30T08:35:44Z</time></trkpt><trkpt lat="41.85940137685119" lon="12.670078516855082"><ele>100.0</ele><time>2026-03-30T08:35:45Z</time></trkpt><trkpt lat="41.85949634280393" lon="12.670200416262984"><ele>100.25</ele><time>2026-03-30T08:35:46Z</time></trkpt><trkpt lat="41.85958211165284" lon="12.670320277396371"><ele>100.5</ele><time>2026-03-30T08:35:47Z</time></trkpt><trkpt lat="41.85966583645856" lon="12.670428751257784"><ele>100.75</ele><time>2026-03-30T08:35:48Z</time></trkpt><trkpt lat="41.85974464948797" lon="12.670533342761011"><ele>101.0</ele><time>2026-03-30T08:35:49Z</time></trkpt><trkpt lat="41.85982163662778" lon="12.670633129128072"><ele>101.0</ele><time>2026-03-30T08:35:50Z</time></trkpt><trkpt lat="41.85989078622515" lon="12.67072754793318"><ele>101.0</ele><time>2026-03-30T08:35:51Z</time></trkpt><trkpt lat="41.859962451364794" lon="12.670818422860739"><ele>101.0</ele><time>2026-03-30T08:35:52Z</time></trkpt><trkpt lat="41.86003290383384" lon="12.670908854845527"><ele>101.0</ele><time>2026-03-30T08:35:53Z</time></trkpt><trkpt lat="41.86009163724973" lon="12.670995213404778"><ele>101.0</ele><time>2026-03-30T08:35:53.999Z</time></trkpt><trkpt lat="41.86014641563888" lon="12.671072552759306"><ele>100.99999999999999</ele><time>2026-03-30T08:35:54.999Z</time></trkpt><trkpt lat="41.86019663661683" lon="12.671137086788091"><ele>101.0</ele><time>2026-03-30T08:35:55.999Z</time></trkpt><trkpt lat="41.86024301444789" lon="12.671201439583134"><ele>101.0</ele><time>2026-03-30T08:35:56.999Z</time></trkpt><trkpt lat="41.86031613032812" lon="12.671300954461545"><ele>101.0</ele><time>2026-03-30T08:35:58.999Z</time></trkpt><trkpt lat="41.860373705627694" lon="12.671361955788736"><ele>100.99999999999999</ele><time>2026-03-30T08:36:01.999Z</time></trkpt><trkpt lat="41.860463079248404" lon="12.671471710569666"><ele>101.0</ele><time>2026-03-30T08:36:03.999Z</time></trkpt><trkpt lat="41.86051029467728" lon="12.671533910671252"><ele>101.0</ele><time>2026-03-30T08:36:04.999Z</time></trkpt><trkpt lat="41.86059304533754" lon="12.671641187264697"><ele>101.0</ele><time>2026-03-30T08:36:06.999Z</time></trkpt><trkpt lat="41.860642563974224" lon="12.671711794245162"><ele>101.0</ele><time>2026-03-30T08:36:07.999Z</time></trkpt><trkpt lat="41.86070052805042" lon="12.671799268586554"><ele>101.0</ele><time>2026-03-30T08:36:08.999Z</time></trkpt><trkpt lat="41.86076809921002" lon="12.671889202591698"><ele>101.0</ele><time>2026-03-30T08:36:09.999Z</time></trkpt><trkpt lat="41.86083558778746" lon="12.671973315932137"><ele>100.4</ele><time>2026-03-30T08:36:10.999Z</time></trkpt><trkpt lat="41.86090220444019" lon="12.672066897542615"><ele>99.8</ele><time>2026-03-30T08:36:11.999Z</time></trkpt><trkpt lat="41.86097129089157" lon="12.672165952282816"><ele>99.2</ele><time>2026-03-30T08:36:12.999Z</time></trkpt><trkpt lat="41.86103738342478" lon="12.67225740585788"><ele>98.60000000000001</ele><time>2026-03-30T08:36:13.999Z</time></trkpt><trkpt lat="41.861100642736574" lon="12.672339660430248"><ele>98.0</ele><time>2026-03-30T08:36:14.999Z</time></trkpt><trkpt lat="41.86116246327097" lon="12.672422847775408"><ele>97.42857142857143</ele><time>2026-03-30T08:36:15.999Z</time></trkpt><trkpt lat="41.861219167580195" lon="12.672501891310578"><ele>96.85714285714286</ele><time>2026-03-30T08:36:16.999Z</time></trkpt><trkpt lat="41.86126793775731" lon="12.672572519221264"><ele>96.28571428571428</ele><time>2026-03-30T08:36:17.999Z</time></trkpt><trkpt lat="41.86131172386425" lon="12.672633934617739"><ele>95.71428571428572</ele><time>2026-03-30T08:36:19Z</time></trkpt><trkpt lat="41.86137037958833" lon="12.672725593760266"><ele>95.14285714285714</ele><time>2026-03-30T08:36:21Z</time></trkpt><trkpt lat="41.8614117467787" lon="12.672794440187156"><ele>94.57142857142857</ele><time>2026-03-30T08:36:22Z</time></trkpt><trkpt lat="41.86146343089994" lon="12.67285737645362"><ele>94.0</ele><time>2026-03-30T08:36:23Z</time></trkpt><trkpt lat="41.86152006165125" lon="12.672918323207393"><ele>93.66666666666666</ele><time>2026-03-30T08:36:24Z</time></trkpt><trkpt lat="41.8615739332869" lon="12.672989663852722"><ele>93.33333333333333</ele><time>2026-03-30T08:36:25Z</time></trkpt><trkpt lat="41.86163340763216" lon="12.673071287548638"><ele>93.0</ele><time>2026-03-30T08:36:26Z</time></trkpt><trkpt lat="41.861692614523754" lon="12.673151616108106"><ele>92.66666666666667</ele><time>2026-03-30T08:36:27Z</time></trkpt><trkpt lat="41.86175426396984" lon="12.673231094483171"><ele>92.33333333333334</ele><time>2026-03-30T08:36:28Z</time></trkpt><trkpt lat="41.861817353814" lon="12.673304045752614"><ele>92.0</ele><time>2026-03-30T08:36:29Z</time></trkpt><trkpt lat="41.861873361371735" lon="12.67337982333964"><ele>92.0</ele><time>2026-03-30T08:36:30Z</time></trkpt><trkpt lat="41.86192411236546" lon="12.673455835215496"><ele>92.0</ele><time>2026-03-30T08:36:31Z</time></trkpt><trkpt lat="41.86197388681124" lon="12.673530738214922"><ele>92.0</ele><time>2026-03-30T08:36:32Z</time></trkpt><trkpt lat="41.862025888135754" lon="12.673599524100164"><ele>92.0</ele><time>2026-03-30T08:36:33Z</time></trkpt><trkpt lat="41.86207655428796" lon="12.673661284495685"><ele>92.0</ele><time>2026-03-30T08:36:34Z</time></trkpt><trkpt lat="41.86212273363831" lon="12.673725053573627"><ele>92.0</ele><time>2026-03-30T08:36:35Z</time></trkpt><trkpt lat="41.8621629698478" lon="12.673795825694048"><ele>92.0</ele><time>2026-03-30T08:36:36Z</time></trkpt><trkpt lat="41.86218524804778" lon="12.67387693580831"><ele>91.83333333333334</ele><time>2026-03-30T08:36:37Z</time></trkpt><trkpt lat="41.86218640623343" lon="12.67402628019038"><ele>91.66666666666667</ele><time>2026-03-30T08:36:39Z</time></trkpt><trkpt lat="41.862178264539025" lon="12.674138637067538"><ele>91.5</ele><time>2026-03-30T08:36:41Z</time></trkpt><trkpt lat="41.8620881523512" lon="12.674179145263508"><ele>91.33333333333333</ele><time>2026-03-30T08:36:42Z</time></trkpt><trkpt lat="41.86201813808526" lon="12.674227089578075"><ele>91.16666666666666</ele><time>2026-03-30T08:36:43Z</time></trkpt><trkpt lat="41.86194432690845" lon="12.674265950573178"><ele>91.0</ele><time>2026-03-30T08:36:44Z</time></trkpt><trkpt lat="41.861882896565" lon="12.674302414639337"><ele>91.0</ele><time>2026-03-30T08:36:45Z</time></trkpt><trkpt lat="41.86182516787649" lon="12.674342157328454"><ele>91.0</ele><time>2026-03-30T08:36:46Z</time></trkpt><trkpt lat="41.86171656853615" lon="12.674387586889138"><ele>91.0</ele><time>2026-03-30T08:36:48Z</time></trkpt><trkpt lat="41.86164383888325" lon="12.67446348031836"><ele>91.0</ele><time>2026-03-30T08:36:50Z</time></trkpt><trkpt lat="41.861651804916384" lon="12.674556398640457"><ele>91.0</ele><time>2026-03-30T08:36:51Z</time></trkpt><trkpt lat="41.861674911393514" lon="12.674636360478981"><ele>91.0</ele><time>2026-03-30T08:36:52Z</time></trkpt><trkpt lat="41.86170432165844" lon="12.674719133546972"><ele>91.14285714285714</ele><time>2026-03-30T08:36:53Z</time></trkpt><trkpt lat="41.86173920922377" lon="12.67480917646385"><ele>91.28571428571428</ele><time>2026-03-30T08:36:54Z</time></trkpt><trkpt lat="41.86177265054011" lon="12.67489252464942"><ele>91.42857142857143</ele><time>2026-03-30T08:36:55Z</time></trkpt><trkpt lat="41.861803955866094" lon="12.67497721229696"><ele>91.57142857142857</ele><time>2026-03-30T08:36:56Z</time></trkpt><trkpt lat="41.861833258964815" lon="12.675059913784487"><ele>91.71428571428571</ele><time>2026-03-30T08:36:57Z</time></trkpt><trkpt lat="41.86186427498643" lon="12.675147783775213"><ele>91.85714285714286</ele><time>2026-03-30T08:36:58Z</time></trkpt><trkpt lat="41.86189757958568" lon="12.675243891801955"><ele>92.0</ele><time>2026-03-30T08:36:59Z</time></trkpt><trkpt lat="41.861934886410936" lon="12.675351426419786"><ele>92.0</ele><time>2026-03-30T08:37:00Z</time></trkpt><trkpt lat="41.861976833838256" lon="12.675458322046385"><ele>92.0</ele><time>2026-03-30T08:37:01Z</time></trkpt><trkpt lat="41.862011447686825" lon="12.675567620937931"><ele>92.0</ele><time>2026-03-30T08:37:02Z</time></trkpt><trkpt lat="41.86204043550767" lon="12.675658643132659"><ele>92.0</ele><time>2026-03-30T08:37:03Z</time></trkpt><trkpt lat="41.86206940479768" lon="12.675751941131079"><ele>92.0</ele><time>2026-03-30T08:37:04Z</time></trkpt><trkpt lat="41.86209362854599" lon="12.675836090347259"><ele>92.0</ele><time>2026-03-30T08:37:05Z</time></trkpt><trkpt lat="41.86211831877396" lon="12.67591615857663"><ele>92.0</ele><time>2026-03-30T08:37:06Z</time></trkpt><trkpt lat="41.86218770767021" lon="12.676050302397043"><ele>92.0</ele><time>2026-03-30T08:37:09Z</time></trkpt><trkpt lat="41.862309079128245" lon="12.676004791611614"><ele>92.0</ele><time>2026-03-30T08:37:13Z</time></trkpt><trkpt lat="41.86238313564922" lon="12.675909673582698"><ele>92.0</ele><time>2026-03-30T08:37:14Z</time></trkpt><trkpt lat="41.86244750535478" lon="12.675829037601625"><ele>92.0</ele><time>2026-03-30T08:37:15Z</time></trkpt><trkpt lat="41.862529110191545" lon="12.675755513604086"><ele>92.0</ele><time>2026-03-30T08:37:16Z</time></trkpt><trkpt lat="41.862612654401396" lon="12.675657210638098"><ele>92.0</ele><time>2026-03-30T08:37:17Z</time></trkpt><trkpt lat="41.862689304018424" lon="12.675560919745521"><ele>92.0</ele><time>2026-03-30T08:37:18Z</time></trkpt><trkpt lat="41.86275503327848" lon="12.675475720941035"><ele>92.0</ele><time>2026-03-30T08:37:19Z</time></trkpt><trkpt lat="41.86282123889631" lon="12.675388883701025"><ele>92.0</ele><time>2026-03-30T08:37:20Z</time></trkpt><trkpt lat="41.8628884621987" lon="12.675299249407317"><ele>91.5</ele><time>2026-03-30T08:37:21Z</time></trkpt><trkpt lat="41.86295497013893" lon="12.675208468077475"><ele>91.0</ele><time>2026-03-30T08:37:22Z</time></trkpt><trkpt lat="41.86302127863043" lon="12.675118131819199"><ele>90.5</ele><time>2026-03-30T08:37:23Z</time></trkpt><trkpt lat="41.86308005376113" lon="12.675030231398722"><ele>90.0</ele><time>2026-03-30T08:37:24Z</time></trkpt><trkpt lat="41.86313520012523" lon="12.67495380024153"><ele>89.5</ele><time>2026-03-30T08:37:25Z</time></trkpt><trkpt lat="41.8631905932963" lon="12.6748857160548"><ele>89.0</ele><time>2026-03-30T08:37:26Z</time></trkpt><trkpt lat="41.86323986723668" lon="12.674811674611414"><ele>89.0</ele><time>2026-03-30T08:37:27Z</time></trkpt><trkpt lat="41.86329240426072" lon="12.67475504501719"><ele>89.0</ele><time>2026-03-30T08:37:28Z</time></trkpt><trkpt lat="41.86334635909791" lon="12.674708388083626"><ele>89.0</ele><time>2026-03-30T08:37:29Z</time></trkpt><trkpt lat="41.86345269500068" lon="12.674658680648827"><ele>89.0</ele><time>2026-03-30T08:37:31Z</time></trkpt><trkpt lat="41.86353732695435" lon="12.6746358488679"><ele>89.0</ele><time>2026-03-30T08:37:33Z</time></trkpt><trkpt lat="41.86360234529919" lon="12.674603666558388"><ele>89.0</ele><time>2026-03-30T08:37:35Z</time></trkpt><trkpt lat="41.86368951371597" lon="12.67456276294586"><ele>88.83333333333334</ele><time>2026-03-30T08:37:38Z</time></trkpt><trkpt lat="41.86376389775982" lon="12.674538856006693"><ele>88.66666666666667</ele><time>2026-03-30T08:37:41Z</time></trkpt><trkpt lat="41.863833300150795" lon="12.674555002342819"><ele>88.5</ele><time>2026-03-30T08:37:45Z</time></trkpt><trkpt lat="41.863843285357916" lon="12.674713478997319"><ele>88.33333333333333</ele><time>2026-03-30T08:37:48Z</time></trkpt><trkpt lat="41.86380450763422" lon="12.674817510121846"><ele>88.16666666666666</ele><time>2026-03-30T08:37:49Z</time></trkpt><trkpt lat="41.86378864818378" lon="12.674916378847923"><ele>88.0</ele><time>2026-03-30T08:37:50Z</time></trkpt><trkpt lat="41.86377456719535" lon="12.67501919307238"><ele>88.0</ele><time>2026-03-30T08:37:51Z</time></trkpt><trkpt lat="41.86375421443402" lon="12.675137941147963"><ele>88.0</ele><time>2026-03-30T08:37:52Z</time></trkpt><trkpt lat="41.863741705957125" lon="12.675250521692247"><ele>88.0</ele><time>2026-03-30T08:37:53Z</time></trkpt><trkpt lat="41.86372501313815" lon="12.675362632832146"><ele>88.0</ele><time>2026-03-30T08:37:54Z</time></trkpt><trkpt lat="41.86370612099706" lon="12.675478658251016"><ele>88.0</ele><time>2026-03-30T08:37:55Z</time></trkpt><trkpt lat="41.86368859231833" lon="12.675587587044475"><ele>88.0</ele><time>2026-03-30T08:37:56Z</time></trkpt><trkpt lat="41.86367274474784" lon="12.675682807091128"><ele>89.66666666666666</ele><time>2026-03-30T08:37:57Z</time></trkpt><trkpt lat="41.86365282671654" lon="12.675808600204643"><ele>91.33333333333333</ele><time>2026-03-30T08:37:59Z</time></trkpt><trkpt lat="41.86369867136176" lon="12.676010270141767"><ele>93.0</ele><time>2026-03-30T08:38:01Z</time></trkpt><trkpt lat="41.86392786603013" lon="12.675849027560698"><ele>93.0</ele><time>2026-03-30T08:38:02Z</time></trkpt><trkpt lat="41.86388475869153" lon="12.675657803417451"><ele>93.0</ele><time>2026-03-30T08:38:03Z</time></trkpt><trkpt lat="41.863920918937886" lon="12.675558717422819"><ele>93.0</ele><time>2026-03-30T08:38:03.999Z</time></trkpt><trkpt lat="41.86395268613246" lon="12.675468714984225"><ele>93.0</ele><time>2026-03-30T08:38:04.999Z</time></trkpt><trkpt lat="41.86399536158712" lon="12.67537294858211"><ele>93.0</ele><time>2026-03-30T08:38:06.999Z</time></trkpt><trkpt lat="41.864090488238496" lon="12.675323974251516"><ele>93.0</ele><time>2026-03-30T08:38:09.999Z</time></trkpt><trkpt lat="41.86423111233586" lon="12.675379138558519"><ele>93.0</ele><time>2026-03-30T08:38:11.999Z</time></trkpt><trkpt lat="41.86433859752951" lon="12.675445265693586"><ele>93.0</ele><time>2026-03-30T08:38:12.999Z</time></trkpt><trkpt lat="41.86440140086312" lon="12.675569326298199"><ele>93.0</ele><time>2026-03-30T08:38:13.999Z</time></trkpt><trkpt lat="41.86450675845947" lon="12.675639707916423"><ele>93.4</ele><time>2026-03-30T08:38:14.999Z</time></trkpt><trkpt lat="41.86460902624454" lon="12.675672858700247"><ele>93.80000000000001</ele><time>2026-03-30T08:38:15.999Z</time></trkpt><trkpt lat="41.86466758833003" lon="12.675707297984601"><ele>94.2</ele><time>2026-03-30T08:38:16.999Z</time></trkpt><trkpt lat="41.864782754207916" lon="12.675741646136144"><ele>94.6</ele><time>2026-03-30T08:38:18.999Z</time></trkpt><trkpt lat="41.86487243402864" lon="12.675719536783866"><ele>95.0</ele><time>2026-03-30T08:38:20.999Z</time></trkpt><trkpt lat="41.8649657323314" lon="12.675697025840766"><ele>95.0</ele><time>2026-03-30T08:38:22.999Z</time></trkpt><trkpt lat="41.86509656675062" lon="12.675646102925992"><ele>95.0</ele><time>2026-03-30T08:38:25Z</time></trkpt><trkpt lat="41.8651751792925" lon="12.6756045058286"><ele>95.0</ele><time>2026-03-30T08:38:26Z</time></trkpt><trkpt lat="41.86526670183851" lon="12.675562232324705"><ele>95.0</ele><time>2026-03-30T08:38:27Z</time></trkpt><trkpt lat="41.86538236650436" lon="12.675512614278038"><ele>95.0</ele><time>2026-03-30T08:38:28Z</time></trkpt><trkpt lat="41.865504257657136" lon="12.675464161194178"><ele>96.0</ele><time>2026-03-30T08:38:29Z</time></trkpt><trkpt lat="41.86563109429128" lon="12.67542528602943"><ele>97.0</ele><time>2026-03-30T08:38:30Z</time></trkpt><trkpt lat="41.86575785404873" lon="12.675394055372088"><ele>98.0</ele><time>2026-03-30T08:38:31Z</time></trkpt><trkpt lat="41.86586341689909" lon="12.675351514385188"><ele>99.0</ele><time>2026-03-30T08:38:32Z</time></trkpt><trkpt lat="41.865964569231416" lon="12.675318408339093"><ele>99.0</ele><time>2026-03-30T08:38:33Z</time></trkpt><trkpt lat="41.866059543258935" lon="12.675283967739372"><ele>99.0</ele><time>2026-03-30T08:38:34Z</time></trkpt><trkpt lat="41.8661532678693" lon="12.675256436683746"><ele>99.0</ele><time>2026-03-30T08:38:35Z</time></trkpt><trkpt lat="41.86625362963221" lon="12.675221717222659"><ele>99.0</ele><time>2026-03-30T08:38:36Z</time></trkpt><trkpt lat="41.866355235601425" lon="12.675181138594702"><ele>99.0</ele><time>2026-03-30T08:38:37Z</time></trkpt><trkpt lat="41.866455485730306" lon="12.675142137894145"><ele>98.6</ele><time>2026-03-30T08:38:38Z</time></trkpt><trkpt lat="41.86655673892316" lon="12.675104757689121"><ele>98.2</ele><time>2026-03-30T08:38:39Z</time></trkpt><trkpt lat="41.86665580048188" lon="12.675068743033027"><ele>97.8</ele><time>2026-03-30T08:38:40Z</time></trkpt><trkpt lat="41.86675383125799" lon="12.675035297919544"><ele>97.39999999999999</ele><time>2026-03-30T08:38:41Z</time></trkpt><trkpt lat="41.86685466598689" lon="12.675002438624976"><ele>97.0</ele><time>2026-03-30T08:38:42Z</time></trkpt><trkpt lat="41.866949954015794" lon="12.67496859478992"><ele>97.0</ele><time>2026-03-30T08:38:43Z</time></trkpt><trkpt lat="41.867051315870434" lon="12.674929168560123"><ele>97.0</ele><time>2026-03-30T08:38:44Z</time></trkpt><trkpt lat="41.867152716728384" lon="12.674894882456842"><ele>97.0</ele><time>2026-03-30T08:38:45Z</time></trkpt><trkpt lat="41.86725700335661" lon="12.674852298023122"><ele>97.0</ele><time>2026-03-30T08:38:46Z</time></trkpt><trkpt lat="41.86735796880446" lon="12.674813113586135"><ele>97.0</ele><time>2026-03-30T08:38:47Z</time></trkpt><trkpt lat="41.86745161934449" lon="12.674771095008738"><ele>97.0</ele><time>2026-03-30T08:38:48Z</time></trkpt><trkpt lat="41.86754456621703" lon="12.67472982553277"><ele>97.0</ele><time>2026-03-30T08:38:49Z</time></trkpt><trkpt lat="41.86763793852618" lon="12.674692432421532"><ele>97.0</ele><time>2026-03-30T08:38:50Z</time></trkpt><trkpt lat="41.8677294420463" lon="12.674647580654945"><ele>97.0</ele><time>2026-03-30T08:38:51Z</time></trkpt><trkpt lat="41.86781813842801" lon="12.674606079406644"><ele>97.0</ele><time>2026-03-30T08:38:52Z</time></trkpt><trkpt lat="41.867903364506915" lon="12.674563533786957"><ele>96.6</ele><time>2026-03-30T08:38:53Z</time></trkpt><trkpt lat="41.86799140729666" lon="12.674521133845758"><ele>96.19999999999999</ele><time>2026-03-30T08:38:54Z</time></trkpt><trkpt lat="41.868080905098175" lon="12.674479111296844"><ele>95.8</ele><time>2026-03-30T08:38:55Z</time></trkpt><trkpt lat="41.868165131350786" lon="12.674434597848236"><ele>95.4</ele><time>2026-03-30T08:38:56Z</time></trkpt><trkpt lat="41.86825239251455" lon="12.67439658339361"><ele>95.0</ele><time>2026-03-30T08:38:57Z</time></trkpt><trkpt lat="41.86833955076456" lon="12.674355510605738"><ele>94.4</ele><time>2026-03-30T08:38:58Z</time></trkpt><trkpt lat="41.868425995832226" lon="12.674314072712772"><ele>93.8</ele><time>2026-03-30T08:38:59Z</time></trkpt><trkpt lat="41.868514797556045" lon="12.67426996358982"><ele>93.19999999999999</ele><time>2026-03-30T08:39:00Z</time></trkpt><trkpt lat="41.86860112728088" lon="12.674226407994905"><ele>92.6</ele><time>2026-03-30T08:39:01Z</time></trkpt><trkpt lat="41.868691516335815" lon="12.67418467384515"><ele>92.0</ele><time>2026-03-30T08:39:02Z</time></trkpt><trkpt lat="41.86878460558701" lon="12.67414097090313"><ele>91.6</ele><time>2026-03-30T08:39:03Z</time></trkpt><trkpt lat="41.868881028916704" lon="12.674099119140358"><ele>91.19999999999999</ele><time>2026-03-30T08:39:04Z</time></trkpt><trkpt lat="41.868976693063466" lon="12.674055276472401"><ele>90.8</ele><time>2026-03-30T08:39:05Z</time></trkpt><trkpt lat="41.86907222755082" lon="12.674008478570254"><ele>90.4</ele><time>2026-03-30T08:39:06Z</time></trkpt><trkpt lat="41.86915317098561" lon="12.673978891647593"><ele>90.0</ele><time>2026-03-30T08:39:07Z</time></trkpt><trkpt lat="41.86922300821271" lon="12.673953865226384"><ele>90.0</ele><time>2026-03-30T08:39:08Z</time></trkpt><trkpt lat="41.869347311218895" lon="12.673957648490864"><ele>90.0</ele><time>2026-03-30T08:39:10Z</time></trkpt><trkpt lat="41.86944396705058" lon="12.673918834662814"><ele>90.0</ele><time>2026-03-30T08:39:12Z</time></trkpt><trkpt lat="41.86950957693382" lon="12.67391429275686"><ele>90.0</ele><time>2026-03-30T08:39:16Z</time></trkpt><trkpt lat="41.86956001169553" lon="12.673965941944926"><ele>90.0</ele><time>2026-03-30T08:39:18Z</time></trkpt><trkpt lat="41.869588490380636" lon="12.674092097717"><ele>90.0</ele><time>2026-03-30T08:39:20Z</time></trkpt><trkpt lat="41.86960581779929" lon="12.674182586755142"><ele>90.0</ele><time>2026-03-30T08:39:22Z</time></trkpt><trkpt lat="41.86966244706387" lon="12.67428152339625"><ele>90.0</ele><time>2026-03-30T08:40:34Z</time></trkpt><trkpt lat="41.86969801523364" lon="12.674361750430753"><ele>90.0</ele><time>2026-03-30T08:40:35Z</time></trkpt><trkpt lat="41.8697375651958" lon="12.674453295816955"><ele>90.0</ele><time>2026-03-30T08:40:36Z</time></trkpt><trkpt lat="41.86977367326844" lon="12.674539672106949"><ele>90.0</ele><time>2026-03-30T08:40:37Z</time></trkpt><trkpt lat="41.86981486078218" lon="12.67463675859866"><ele>89.75</ele><time>2026-03-30T08:40:38Z</time></trkpt><trkpt lat="41.8698593768563" lon="12.674740508398413"><ele>89.5</ele><time>2026-03-30T08:40:39Z</time></trkpt><trkpt lat="41.869903771030955" lon="12.674843818035626"><ele>89.25</ele><time>2026-03-30T08:40:40Z</time></trkpt><trkpt lat="41.86997840430733" lon="12.675070583498865"><ele>89.0</ele><time>2026-03-30T08:40:41Z</time></trkpt><trkpt lat="41.870035608270925" lon="12.675208576485547"><ele>87.75</ele><time>2026-03-30T08:40:42Z</time></trkpt><trkpt lat="41.870090486359075" lon="12.675344623028925"><ele>86.5</ele><time>2026-03-30T08:40:43Z</time></trkpt><trkpt lat="41.8701473826192" lon="12.675484604069169"><ele>85.25</ele><time>2026-03-30T08:40:44Z</time></trkpt><trkpt lat="41.8702025004859" lon="12.675616864250154"><ele>84.0</ele><time>2026-03-30T08:40:45Z</time></trkpt><trkpt lat="41.87025500536219" lon="12.675746957377854"><ele>84.0</ele><time>2026-03-30T08:40:46Z</time></trkpt><trkpt lat="41.87030649027181" lon="12.675870543921326"><ele>84.0</ele><time>2026-03-30T08:40:47Z</time></trkpt><trkpt lat="41.87035278797767" lon="12.675985938244432"><ele>84.0</ele><time>2026-03-30T08:40:48Z</time></trkpt><trkpt lat="41.87039585328552" lon="12.67609609667245"><ele>84.0</ele><time>2026-03-30T08:40:49Z</time></trkpt><trkpt lat="41.87044327735964" lon="12.676205949524588"><ele>84.0</ele><time>2026-03-30T08:40:50Z</time></trkpt><trkpt lat="41.870491879813436" lon="12.676316905955263"><ele>83.0</ele><time>2026-03-30T08:40:51Z</time></trkpt><trkpt lat="41.870538258701636" lon="12.676427532523057"><ele>82.0</ele><time>2026-03-30T08:40:52Z</time></trkpt><trkpt lat="41.87058686171535" lon="12.676534226299076"><ele>81.0</ele><time>2026-03-30T08:40:53Z</time></trkpt><trkpt lat="41.87063194144178" lon="12.6766454461956"><ele>80.0</ele><time>2026-03-30T08:40:54Z</time></trkpt><trkpt lat="41.870675610382285" lon="12.676761668840596"><ele>79.0</ele><time>2026-03-30T08:40:55Z</time></trkpt><trkpt lat="41.87072174825797" lon="12.676868443585082"><ele>79.2</ele><time>2026-03-30T08:40:56Z</time></trkpt><trkpt lat="41.87076854330952" lon="12.676982049395844"><ele>79.4</ele><time>2026-03-30T08:40:57Z</time></trkpt><trkpt lat="41.87081359640551" lon="12.677099216972755"><ele>79.6</ele><time>2026-03-30T08:40:58Z</time></trkpt><trkpt lat="41.87085905580194" lon="12.677216541269019"><ele>79.8</ele><time>2026-03-30T08:40:59Z</time></trkpt><trkpt lat="41.870902067229416" lon="12.677331812388257"><ele>80.0</ele><time>2026-03-30T08:41:00Z</time></trkpt><trkpt lat="41.87094332373306" lon="12.677449508255505"><ele>80.2</ele><time>2026-03-30T08:41:01Z</time></trkpt><trkpt lat="41.870984545932494" lon="12.677568148949316"><ele>80.4</ele><time>2026-03-30T08:41:02Z</time></trkpt><trkpt lat="41.87102561190237" lon="12.677681569519038"><ele>80.6</ele><time>2026-03-30T08:41:03Z</time></trkpt><trkpt lat="41.87106862741165" lon="12.677797247891316"><ele>80.8</ele><time>2026-03-30T08:41:04Z</time></trkpt><trkpt lat="41.87110979237596" lon="12.677907161281343"><ele>81.0</ele><time>2026-03-30T08:41:05Z</time></trkpt><trkpt lat="41.87115403062411" lon="12.678010302351742"><ele>80.5</ele><time>2026-03-30T08:41:06Z</time></trkpt><trkpt lat="41.871197829907246" lon="12.678102549052461"><ele>80.0</ele><time>2026-03-30T08:41:07Z</time></trkpt><trkpt lat="41.8712390364582" lon="12.67819826657894"><ele>79.5</ele><time>2026-03-30T08:41:08Z</time></trkpt><trkpt lat="41.871285249778964" lon="12.678301524026356"><ele>79.0</ele><time>2026-03-30T08:41:09Z</time></trkpt><trkpt lat="41.87132952122412" lon="12.678410313581914"><ele>78.5</ele><time>2026-03-30T08:41:10Z</time></trkpt><trkpt lat="41.87137586951718" lon="12.678514253626192"><ele>78.0</ele><time>2026-03-30T08:41:11Z</time></trkpt><trkpt lat="41.871417473821204" lon="12.67861215077167"><ele>78.0</ele><time>2026-03-30T08:41:12Z</time></trkpt><trkpt lat="41.871447217076174" lon="12.67869999388018"><ele>78.0</ele><time>2026-03-30T08:41:13Z</time></trkpt><trkpt lat="41.87148713457932" lon="12.678820035298108"><ele>78.0</ele><time>2026-03-30T08:41:15Z</time></trkpt><trkpt lat="41.87141948198098" lon="12.678935615697252"><ele>78.0</ele><time>2026-03-30T08:41:18Z</time></trkpt><trkpt lat="41.87138570526148" lon="12.6790524729559"><ele>78.0</ele><time>2026-03-30T08:41:20Z</time></trkpt><trkpt lat="41.87135678785964" lon="12.679189755023089"><ele>78.0</ele><time>2026-03-30T08:41:22Z</time></trkpt><trkpt lat="41.871386278268545" lon="12.679331354430493"><ele>78.0</ele><time>2026-03-30T08:41:24Z</time></trkpt><trkpt lat="41.871426479730815" lon="12.679471201677442"><ele>78.0</ele><time>2026-03-30T08:41:26Z</time></trkpt><trkpt lat="41.87147311537465" lon="12.67960743420159"><ele>78.0</ele><time>2026-03-30T08:41:28Z</time></trkpt><trkpt lat="41.871513279241" lon="12.679710070428904"><ele>78.0</ele><time>2026-03-30T08:41:29Z</time></trkpt><trkpt lat="41.87156586089449" lon="12.67984259996589"><ele>79.0</ele><time>2026-03-30T08:41:30Z</time></trkpt><trkpt lat="41.871622746142634" lon="12.679983097394246"><ele>80.0</ele><time>2026-03-30T08:41:31Z</time></trkpt><trkpt lat="41.87169260643558" lon="12.680135500688605"><ele>81.0</ele><time>2026-03-30T08:41:32Z</time></trkpt><trkpt lat="41.871754601092434" lon="12.680308487642893"><ele>82.0</ele><time>2026-03-30T08:41:33Z</time></trkpt><trkpt lat="41.87182116060731" lon="12.680486999856443"><ele>83.25</ele><time>2026-03-30T08:41:34Z</time></trkpt><trkpt lat="41.87188632780192" lon="12.68066757181883"><ele>84.5</ele><time>2026-03-30T08:41:35Z</time></trkpt><trkpt lat="41.87195843774661" lon="12.680835052055674"><ele>85.75</ele><time>2026-03-30T08:41:36Z</time></trkpt><trkpt lat="41.8720307053282" lon="12.681013407610024"><ele>87.0</ele><time>2026-03-30T08:41:37Z</time></trkpt><trkpt lat="41.87209817529026" lon="12.681192386137175"><ele>87.25</ele><time>2026-03-30T08:41:38Z</time></trkpt><trkpt lat="41.87215982372464" lon="12.681370036886877"><ele>87.5</ele><time>2026-03-30T08:41:39Z</time></trkpt><trkpt lat="41.87221737767649" lon="12.681542771790593"><ele>87.75</ele><time>2026-03-30T08:41:40Z</time></trkpt><trkpt lat="41.87226839122771" lon="12.681703370769853"><ele>88.0</ele><time>2026-03-30T08:41:41Z</time></trkpt><trkpt lat="41.87230841994032" lon="12.681864234863662"><ele>88.0</ele><time>2026-03-30T08:41:42Z</time></trkpt><trkpt lat="41.87234334978243" lon="12.682030430815589"><ele>88.0</ele><time>2026-03-30T08:41:43Z</time></trkpt><trkpt lat="41.872374371336825" lon="12.682190784333525"><ele>88.0</ele><time>2026-03-30T08:41:44Z</time></trkpt><trkpt lat="41.87239830905353" lon="12.68235258228306"><ele>88.0</ele><time>2026-03-30T08:41:45Z</time></trkpt><trkpt lat="41.8724171808178" lon="12.682510433765806"><ele>88.0</ele><time>2026-03-30T08:41:46Z</time></trkpt><trkpt lat="41.87242583694999" lon="12.682667010729963"><ele>88.0</ele><time>2026-03-30T08:41:47Z</time></trkpt><trkpt lat="41.872416048861744" lon="12.682820807043637"><ele>88.0</ele><time>2026-03-30T08:41:48Z</time></trkpt><trkpt lat="41.87238747199752" lon="12.682986432001536"><ele>88.0</ele><time>2026-03-30T08:41:49Z</time></trkpt><trkpt lat="41.87234996901772" lon="12.683156344741962"><ele>88.0</ele><time>2026-03-30T08:41:50Z</time></trkpt><trkpt lat="41.87231649218351" lon="12.683331334337916"><ele>88.0</ele><time>2026-03-30T08:41:50.999Z</time></trkpt><trkpt lat="41.87228087974266" lon="12.68351133256686"><ele>88.0</ele><time>2026-03-30T08:41:51.999Z</time></trkpt><trkpt lat="41.872244998452594" lon="12.683687041138283"><ele>88.0</ele><time>2026-03-30T08:41:52.999Z</time></trkpt><trkpt lat="41.87221058063883" lon="12.683864128613811"><ele>88.0</ele><time>2026-03-30T08:41:53.999Z</time></trkpt><trkpt lat="41.87217450900193" lon="12.6840420134198"><ele>88.0</ele><time>2026-03-30T08:41:54.999Z</time></trkpt><trkpt lat="41.872137828222" lon="12.684219999406608"><ele>88.0</ele><time>2026-03-30T08:41:55.999Z</time></trkpt><trkpt lat="41.87210065538445" lon="12.684399327455912"><ele>88.0</ele><time>2026-03-30T08:41:56.999Z</time></trkpt><trkpt lat="41.87206086026155" lon="12.684578687957647"><ele>88.25</ele><time>2026-03-30T08:41:57.999Z</time></trkpt><trkpt lat="41.87201941295037" lon="12.684761043715952"><ele>88.5</ele><time>2026-03-30T08:41:58.999Z</time></trkpt><trkpt lat="41.87198126825403" lon="12.684939324993513"><ele>88.75</ele><time>2026-03-30T08:41:59.999Z</time></trkpt><trkpt lat="41.87194742141878" lon="12.68511613255932"><ele>89.0</ele><time>2026-03-30T08:42:00.999Z</time></trkpt><trkpt lat="41.87191278774422" lon="12.685295398513874"><ele>89.25</ele><time>2026-03-30T08:42:01.999Z</time></trkpt><trkpt lat="41.8718786174581" lon="12.685456375642001"><ele>89.5</ele><time>2026-03-30T08:42:02.999Z</time></trkpt><trkpt lat="41.87184565342239" lon="12.685611628564226"><ele>89.75</ele><time>2026-03-30T08:42:03.999Z</time></trkpt><trkpt lat="41.87182027431774" lon="12.685764941032886"><ele>90.0</ele><time>2026-03-30T08:42:04.999Z</time></trkpt><trkpt lat="41.871795237124275" lon="12.685914049378662"><ele>89.6</ele><time>2026-03-30T08:42:05.999Z</time></trkpt><trkpt lat="41.871771422352246" lon="12.68605571492959"><ele>89.2</ele><time>2026-03-30T08:42:06.999Z</time></trkpt><trkpt lat="41.87174672377206" lon="12.686192621176046"><ele>88.80000000000001</ele><time>2026-03-30T08:42:07.999Z</time></trkpt><trkpt lat="41.87172034112819" lon="12.686326177906192"><ele>88.4</ele><time>2026-03-30T08:42:08.999Z</time></trkpt><trkpt lat="41.87169004985538" lon="12.686458276254701"><ele>88.0</ele><time>2026-03-30T08:42:09.999Z</time></trkpt><trkpt lat="41.871662568369864" lon="12.686596722221438"><ele>88.0</ele><time>2026-03-30T08:42:10.999Z</time></trkpt><trkpt lat="41.87163163961637" lon="12.686743061018042"><ele>88.0</ele><time>2026-03-30T08:42:11.999Z</time></trkpt><trkpt lat="41.871600986422656" lon="12.686872772486883"><ele>88.0</ele><time>2026-03-30T08:42:12.999Z</time></trkpt><trkpt lat="41.8715768567616" lon="12.686980052662555"><ele>88.0</ele><time>2026-03-30T08:42:13.999Z</time></trkpt><trkpt lat="41.87156272308401" lon="12.687068564869394"><ele>88.0</ele><time>2026-03-30T08:42:14.999Z</time></trkpt><trkpt lat="41.871524897932225" lon="12.687189671841724"><ele>88.0</ele><time>2026-03-30T08:42:16.999Z</time></trkpt><trkpt lat="41.87171484581619" lon="12.687312744858591"><ele>88.0</ele><time>2026-03-30T08:42:17.999Z</time></trkpt><trkpt lat="41.87180347539678" lon="12.687388927607644"><ele>88.0</ele><time>2026-03-30T08:42:18.999Z</time></trkpt><trkpt lat="41.87188615123199" lon="12.68746823932551"><ele>88.0</ele><time>2026-03-30T08:42:19.999Z</time></trkpt><trkpt lat="41.87196290241981" lon="12.687547780534295"><ele>88.0</ele><time>2026-03-30T08:42:20.999Z</time></trkpt><trkpt lat="41.87203823390204" lon="12.687641894808001"><ele>88.0</ele><time>2026-03-30T08:42:21.999Z</time></trkpt><trkpt lat="41.87210650801801" lon="12.68774183109264"><ele>88.0</ele><time>2026-03-30T08:42:22.999Z</time></trkpt><trkpt lat="41.87218015381278" lon="12.687834530900592"><ele>88.0</ele><time>2026-03-30T08:42:23.999Z</time></trkpt><trkpt lat="41.87226902358876" lon="12.687909995631044"><ele>88.0</ele><time>2026-03-30T08:42:24.999Z</time></trkpt><trkpt lat="41.872370975179734" lon="12.687973821431584"><ele>86.75</ele><time>2026-03-30T08:42:25.999Z</time></trkpt><trkpt lat="41.87247833667581" lon="12.688054921409826"><ele>85.5</ele><time>2026-03-30T08:42:26.999Z</time></trkpt><trkpt lat="41.87257730323326" lon="12.688157471895428"><ele>84.25</ele><time>2026-03-30T08:42:27.999Z</time></trkpt><trkpt lat="41.87267221185942" lon="12.688262442171167"><ele>83.0</ele><time>2026-03-30T08:42:28.999Z</time></trkpt><trkpt lat="41.87276549823644" lon="12.688358002418303"><ele>82.0</ele><time>2026-03-30T08:42:29.999Z</time></trkpt><trkpt lat="41.87286365335877" lon="12.68844742186949"><ele>81.0</ele><time>2026-03-30T08:42:30.999Z</time></trkpt><trkpt lat="41.87295555224475" lon="12.68853298952185"><ele>80.0</ele><time>2026-03-30T08:42:31.999Z</time></trkpt><trkpt lat="41.87305025139464" lon="12.688628895620925"><ele>79.0</ele><time>2026-03-30T08:42:32.999Z</time></trkpt><trkpt lat="41.87314760695378" lon="12.68871399889595"><ele>77.5</ele><time>2026-03-30T08:42:33.999Z</time></trkpt><trkpt lat="41.87325445579368" lon="12.688775346871935"><ele>76.0</ele><time>2026-03-30T08:42:34.999Z</time></trkpt><trkpt lat="41.87335293058655" lon="12.688851850946424"><ele>74.5</ele><time>2026-03-30T08:42:35.999Z</time></trkpt><trkpt lat="41.87344989263771" lon="12.688949579183607"><ele>73.0</ele><time>2026-03-30T08:42:37Z</time></trkpt><trkpt lat="41.87355270966456" lon="12.689049827749141"><ele>72.5</ele><time>2026-03-30T08:42:38Z</time></trkpt><trkpt lat="41.873658342651574" lon="12.689150229764277"><ele>72.0</ele><time>2026-03-30T08:42:39Z</time></trkpt><trkpt lat="41.87376737143979" lon="12.68923825892514"><ele>71.5</ele><time>2026-03-30T08:42:40Z</time></trkpt><trkpt lat="41.87387327199275" lon="12.689321088628393"><ele>71.0</ele><time>2026-03-30T08:42:41Z</time></trkpt><trkpt lat="41.8739627613816" lon="12.689406234772242"><ele>70.5</ele><time>2026-03-30T08:42:42Z</time></trkpt><trkpt lat="41.874052566571564" lon="12.68949906276127"><ele>70.0</ele><time>2026-03-30T08:42:43Z</time></trkpt><trkpt lat="41.8741471286927" lon="12.689599211348876"><ele>69.5</ele><time>2026-03-30T08:42:44Z</time></trkpt><trkpt lat="41.87424410433127" lon="12.689707833748155"><ele>69.0</ele><time>2026-03-30T08:42:45Z</time></trkpt><trkpt lat="41.87434258295467" lon="12.68982438078943"><ele>69.0</ele><time>2026-03-30T08:42:46Z</time></trkpt><trkpt lat="41.87444770815115" lon="12.689925275521801"><ele>69.0</ele><time>2026-03-30T08:42:47Z</time></trkpt><trkpt lat="41.8745618978332" lon="12.69001190788285"><ele>69.0</ele><time>2026-03-30T08:42:48Z</time></trkpt><trkpt lat="41.87466888567423" lon="12.690109772791656"><ele>69.0</ele><time>2026-03-30T08:42:49Z</time></trkpt><trkpt lat="41.87476477287828" lon="12.690211632762248"><ele>69.4</ele><time>2026-03-30T08:42:50Z</time></trkpt><trkpt lat="41.8748572776653" lon="12.690294876975312"><ele>69.80000000000001</ele><time>2026-03-30T08:42:51Z</time></trkpt><trkpt lat="41.8749415239723" lon="12.690375134222473"><ele>70.19999999999999</ele><time>2026-03-30T08:42:52Z</time></trkpt><trkpt lat="41.875013648971276" lon="12.690452504263364"><ele>70.6</ele><time>2026-03-30T08:42:53Z</time></trkpt><trkpt lat="41.875083069233504" lon="12.690524248866641"><ele>71.0</ele><time>2026-03-30T08:42:54Z</time></trkpt><trkpt lat="41.87514094849077" lon="12.690573612690434"><ele>70.16666666666667</ele><time>2026-03-30T08:42:55Z</time></trkpt><trkpt lat="41.87519836437783" lon="12.690618571606661"><ele>69.33333333333334</ele><time>2026-03-30T08:42:56Z</time></trkpt><trkpt lat="41.87527607232164" lon="12.690703664857638"><ele>68.5</ele><time>2026-03-30T08:42:58Z</time></trkpt><trkpt lat="41.87532580318398" lon="12.69078671935831"><ele>67.66666666666667</ele><time>2026-03-30T08:43:01Z</time></trkpt><trkpt lat="41.87527568029718" lon="12.690908574604498"><ele>66.83333333333333</ele><time>2026-03-30T08:43:04Z</time></trkpt><trkpt lat="41.87522325264945" lon="12.690988025559479"><ele>66.0</ele><time>2026-03-30T08:43:05Z</time></trkpt><trkpt lat="41.875181249872" lon="12.69107651042687"><ele>66.16666666666667</ele><time>2026-03-30T08:43:06Z</time></trkpt><trkpt lat="41.875140064308624" lon="12.6911494861674"><ele>66.33333333333333</ele><time>2026-03-30T08:43:07Z</time></trkpt><trkpt lat="41.87509531218686" lon="12.691219629900163"><ele>66.5</ele><time>2026-03-30T08:43:08Z</time></trkpt><trkpt lat="41.87504687776888" lon="12.691291170392983"><ele>66.66666666666666</ele><time>2026-03-30T08:43:09Z</time></trkpt><trkpt lat="41.87498111530893" lon="12.691412460907838"><ele>66.83333333333333</ele><time>2026-03-30T08:43:11Z</time></trkpt><trkpt lat="41.87493451518816" lon="12.691485576238904"><ele>67.0</ele><time>2026-03-30T08:43:14Z</time></trkpt><trkpt lat="41.87503863829757" lon="12.691625330632352"><ele>67.0</ele><time>2026-03-30T08:43:17Z</time></trkpt><trkpt lat="41.87512688157357" lon="12.691638264531596"><ele>67.0</ele><time>2026-03-30T08:43:18Z</time></trkpt><trkpt lat="41.875218913422984" lon="12.69166366441226"><ele>67.0</ele><time>2026-03-30T08:43:19Z</time></trkpt><trkpt lat="41.875316610046916" lon="12.691694301737105"><ele>67.0</ele><time>2026-03-30T08:43:20Z</time></trkpt><trkpt lat="41.875437892345495" lon="12.691745775939081"><ele>67.0</ele><time>2026-03-30T08:43:21Z</time></trkpt><trkpt lat="41.87556056726015" lon="12.69180143679599"><ele>67.0</ele><time>2026-03-30T08:43:22Z</time></trkpt><trkpt lat="41.87569285771014" lon="12.691867697158985"><ele>67.0</ele><time>2026-03-30T08:43:23Z</time></trkpt><trkpt lat="41.875808091622346" lon="12.69194333053569"><ele>67.0</ele><time>2026-03-30T08:43:24Z</time></trkpt><trkpt lat="41.87596383434803" lon="12.69202530979086"><ele>67.0</ele><time>2026-03-30T08:43:25Z</time></trkpt><trkpt lat="41.87612520034756" lon="12.692112221450214"><ele>65.66666666666666</ele><time>2026-03-30T08:43:26Z</time></trkpt><trkpt lat="41.876287622623785" lon="12.692201149414544"><ele>64.33333333333333</ele><time>2026-03-30T08:43:27Z</time></trkpt><trkpt lat="41.876463018250014" lon="12.69229241138896"><ele>63.0</ele><time>2026-03-30T08:43:28Z</time></trkpt><trkpt lat="41.87664241018577" lon="12.692387394122969"><ele>61.66666666666667</ele><time>2026-03-30T08:43:29Z</time></trkpt><trkpt lat="41.87683262913329" lon="12.692489409693591"><ele>60.333333333333336</ele><time>2026-03-30T08:43:30Z</time></trkpt><trkpt lat="41.87701970580889" lon="12.692590658622796"><ele>59.0</ele><time>2026-03-30T08:43:31Z</time></trkpt><trkpt lat="41.87721341117683" lon="12.692693396033869"><ele>59.333333333333336</ele><time>2026-03-30T08:43:32Z</time></trkpt><trkpt lat="41.877409233505105" lon="12.692798778869"><ele>59.66666666666667</ele><time>2026-03-30T08:43:33Z</time></trkpt><trkpt lat="41.87760561876393" lon="12.69290716156895"><ele>60.0</ele><time>2026-03-30T08:43:34Z</time></trkpt><trkpt lat="41.877809940734934" lon="12.693014629267159"><ele>59.33333333333333</ele><time>2026-03-30T08:43:35Z</time></trkpt><trkpt lat="41.87801279823179" lon="12.693125752716556"><ele>58.666666666666664</ele><time>2026-03-30T08:43:36Z</time></trkpt><trkpt lat="41.87821358185258" lon="12.693236246435736"><ele>58.0</ele><time>2026-03-30T08:43:37Z</time></trkpt><trkpt lat="41.878414399327376" lon="12.693345274163645"><ele>58.33333333333333</ele><time>2026-03-30T08:43:38Z</time></trkpt><trkpt lat="41.87861554033623" lon="12.693455374949986"><ele>58.66666666666667</ele><time>2026-03-30T08:43:39Z</time></trkpt><trkpt lat="41.87881874478156" lon="12.693572066500666"><ele>59.0</ele><time>2026-03-30T08:43:40Z</time></trkpt><trkpt lat="41.879022654114785" lon="12.693684693355124"><ele>59.0</ele><time>2026-03-30T08:43:41Z</time></trkpt><trkpt lat="41.879230456664324" lon="12.693791470660384"><ele>59.0</ele><time>2026-03-30T08:43:42Z</time></trkpt><trkpt lat="41.87943838835368" lon="12.693902230876077"><ele>59.0</ele><time>2026-03-30T08:43:43Z</time></trkpt><trkpt lat="41.87964773964479" lon="12.694014865896856"><ele>59.333333333333336</ele><time>2026-03-30T08:43:43.999Z</time></trkpt><trkpt lat="41.87985634870121" lon="12.694126241854153"><ele>59.66666666666667</ele><time>2026-03-30T08:43:44.999Z</time></trkpt><trkpt lat="41.88006170442387" lon="12.69423802333989"><ele>60.0</ele><time>2026-03-30T08:43:45.999Z</time></trkpt><trkpt lat="41.880270643600994" lon="12.694354467582688"><ele>59.66666666666667</ele><time>2026-03-30T08:43:46.999Z</time></trkpt><trkpt lat="41.88047479134013" lon="12.69446629175031"><ele>59.333333333333336</ele><time>2026-03-30T08:43:47.999Z</time></trkpt><trkpt lat="41.880674984016075" lon="12.694574953909255"><ele>59.0</ele><time>2026-03-30T08:43:48.999Z</time></trkpt><trkpt lat="41.880875274289316" lon="12.694670364538077"><ele>59.333333333333336</ele><time>2026-03-30T08:43:49.999Z</time></trkpt><trkpt lat="41.88108508323066" lon="12.694750599532462"><ele>59.66666666666667</ele><time>2026-03-30T08:43:50.999Z</time></trkpt><trkpt lat="41.88130085451557" lon="12.69481182402715"><ele>60.0</ele><time>2026-03-30T08:43:51.999Z</time></trkpt><trkpt lat="41.88151640818232" lon="12.694864606735019"><ele>60.0</ele><time>2026-03-30T08:43:52.999Z</time></trkpt><trkpt lat="41.881731978487956" lon="12.694920159980997"><ele>60.0</ele><time>2026-03-30T08:43:53.999Z</time></trkpt><trkpt lat="41.881942263572626" lon="12.694978629686666"><ele>60.0</ele><time>2026-03-30T08:43:54.999Z</time></trkpt><trkpt lat="41.8821526832615" lon="12.695032893440839"><ele>60.0</ele><time>2026-03-30T08:43:55.999Z</time></trkpt><trkpt lat="41.88236339372444" lon="12.695086271121571"><ele>60.0</ele><time>2026-03-30T08:43:56.999Z</time></trkpt><trkpt lat="41.88256490614624" lon="12.695135181040092"><ele>60.0</ele><time>2026-03-30T08:43:57.999Z</time></trkpt><trkpt lat="41.8827599973757" lon="12.695186800975154"><ele>59.33333333333333</ele><time>2026-03-30T08:43:58.999Z</time></trkpt><trkpt lat="41.882934652477694" lon="12.695241642874002"><ele>58.666666666666664</ele><time>2026-03-30T08:43:59.999Z</time></trkpt><trkpt lat="41.883138886525956" lon="12.695291921848387"><ele>58.0</ele><time>2026-03-30T08:44:00.999Z</time></trkpt><trkpt lat="41.883319443772635" lon="12.69533385719813"><ele>57.25</ele><time>2026-03-30T08:44:01.999Z</time></trkpt><trkpt lat="41.883476875239225" lon="12.69537459549596"><ele>56.5</ele><time>2026-03-30T08:44:02.999Z</time></trkpt><trkpt lat="41.8836174141781" lon="12.69540817225399"><ele>55.75</ele><time>2026-03-30T08:44:03.999Z</time></trkpt><trkpt lat="41.88375765584994" lon="12.695441886256907"><ele>55.0</ele><time>2026-03-30T08:44:04.999Z</time></trkpt><trkpt lat="41.88390786433391" lon="12.695477599600478"><ele>55.0</ele><time>2026-03-30T08:44:05.999Z</time></trkpt><trkpt lat="41.884046747104" lon="12.695523084175067"><ele>55.0</ele><time>2026-03-30T08:44:06.999Z</time></trkpt><trkpt lat="41.884171129390126" lon="12.695559704734851"><ele>55.0</ele><time>2026-03-30T08:44:07.999Z</time></trkpt><trkpt lat="41.88427174017168" lon="12.695585034359272"><ele>55.0</ele><time>2026-03-30T08:44:08.999Z</time></trkpt><trkpt lat="41.88435849168356" lon="12.695603742776072"><ele>54.6</ele><time>2026-03-30T08:44:09.999Z</time></trkpt><trkpt lat="41.884428553927954" lon="12.695620251175454"><ele>54.2</ele><time>2026-03-30T08:44:10.999Z</time></trkpt><trkpt lat="41.884493154443106" lon="12.695635671618524"><ele>53.8</ele><time>2026-03-30T08:44:11.999Z</time></trkpt><trkpt lat="41.88458656124865" lon="12.69564831466301"><ele>53.4</ele><time>2026-03-30T08:44:12.999Z</time></trkpt><trkpt lat="41.8847225183865" lon="12.695664089617178"><ele>53.0</ele><time>2026-03-30T08:44:13.999Z</time></trkpt><trkpt lat="41.88485108221576" lon="12.695686819446298"><ele>53.00000000000001</ele><time>2026-03-30T08:44:14.999Z</time></trkpt><trkpt lat="41.884967333643" lon="12.695712964249022"><ele>53.0</ele><time>2026-03-30T08:44:15.999Z</time></trkpt><trkpt lat="41.885061559514504" lon="12.695721373047485"><ele>53.0</ele><time>2026-03-30T08:44:16.999Z</time></trkpt><trkpt lat="41.88513555073424" lon="12.69572723980017"><ele>53.0</ele><time>2026-03-30T08:44:17.999Z</time></trkpt><trkpt lat="41.88521355463535" lon="12.69575170735934"><ele>53.00000000000001</ele><time>2026-03-30T08:44:19.999Z</time></trkpt><trkpt lat="41.8852836753181" lon="12.695789044405796"><ele>53.0</ele><time>2026-03-30T08:44:23.999Z</time></trkpt><trkpt lat="41.8853522941109" lon="12.69579133162646"><ele>52.5</ele><time>2026-03-30T08:44:24.999Z</time></trkpt><trkpt lat="41.885451265070756" lon="12.695786364069138"><ele>52.0</ele><time>2026-03-30T08:44:25.999Z</time></trkpt><trkpt lat="41.88556992646051" lon="12.695795365553165"><ele>51.5</ele><time>2026-03-30T08:44:26.999Z</time></trkpt><trkpt lat="41.88568791459796" lon="12.695807723859165"><ele>51.0</ele><time>2026-03-30T08:44:27.999Z</time></trkpt><trkpt lat="41.88581778634786" lon="12.695823144214858"><ele>51.33333333333333</ele><time>2026-03-30T08:44:28.999Z</time></trkpt><trkpt lat="41.88596249639053" lon="12.695842887119973"><ele>51.666666666666664</ele><time>2026-03-30T08:44:29.999Z</time></trkpt><trkpt lat="41.88611340803039" lon="12.69586314903516"><ele>52.0</ele><time>2026-03-30T08:44:30.999Z</time></trkpt><trkpt lat="41.88627601717077" lon="12.69588391805245"><ele>52.0</ele><time>2026-03-30T08:44:31.999Z</time></trkpt><trkpt lat="41.886439441401016" lon="12.695900494218062"><ele>52.0</ele><time>2026-03-30T08:44:32.999Z</time></trkpt><trkpt lat="41.88660104413376" lon="12.69591557414957"><ele>52.0</ele><time>2026-03-30T08:44:33.999Z</time></trkpt><trkpt lat="41.886741114247656" lon="12.695928889382179"><ele>52.25</ele><time>2026-03-30T08:44:34.999Z</time></trkpt><trkpt lat="41.8868721525536" lon="12.695943205928906"><ele>52.5</ele><time>2026-03-30T08:44:35.999Z</time></trkpt><trkpt lat="41.886996587640915" lon="12.695953603013638"><ele>52.75</ele><time>2026-03-30T08:44:36.999Z</time></trkpt><trkpt lat="41.88711364624721" lon="12.695964414916393"><ele>53.0</ele><time>2026-03-30T08:44:37.999Z</time></trkpt><trkpt lat="41.887247364197044" lon="12.695974598177205"><ele>53.0</ele><time>2026-03-30T08:44:38.999Z</time></trkpt><trkpt lat="41.887383027274396" lon="12.695984417156325"><ele>53.0</ele><time>2026-03-30T08:44:39.999Z</time></trkpt><trkpt lat="41.88751764419966" lon="12.695990568741628"><ele>53.0</ele><time>2026-03-30T08:44:40.999Z</time></trkpt><trkpt lat="41.88764638117267" lon="12.69599144020411"><ele>53.0</ele><time>2026-03-30T08:44:41.999Z</time></trkpt><trkpt lat="41.88776413012048" lon="12.69597971251392"><ele>53.2</ele><time>2026-03-30T08:44:43Z</time></trkpt><trkpt lat="41.887870954501906" lon="12.695957909196684"><ele>53.4</ele><time>2026-03-30T08:44:44Z</time></trkpt><trkpt lat="41.88797279848813" lon="12.695932277379764"><ele>53.60000000000001</ele><time>2026-03-30T08:44:45Z</time></trkpt><trkpt lat="41.888066105411184" lon="12.695913821347453"><ele>53.800000000000004</ele><time>2026-03-30T08:44:46Z</time></trkpt><trkpt lat="41.88815700479685" lon="12.695897324365047"><ele>54.0</ele><time>2026-03-30T08:44:47Z</time></trkpt><trkpt lat="41.888241029682476" lon="12.695880987549437"><ele>54.0</ele><time>2026-03-30T08:44:48Z</time></trkpt><trkpt lat="41.888316752488024" lon="12.695863821633264"><ele>54.0</ele><time>2026-03-30T08:44:49Z</time></trkpt><trkpt lat="41.88838416115539" lon="12.695853214242476"><ele>54.0</ele><time>2026-03-30T08:44:50Z</time></trkpt><trkpt lat="41.888456664026954" lon="12.695842941129959"><ele>54.0</ele><time>2026-03-30T08:44:52Z</time></trkpt><trkpt lat="41.888560608796546" lon="12.695836992492586"><ele>54.0</ele><time>2026-03-30T08:45:19Z</time></trkpt><trkpt lat="41.88863107661295" lon="12.695822913686362"><ele>54.0</ele><time>2026-03-30T08:45:20Z</time></trkpt><trkpt lat="41.88872103400325" lon="12.695797170940427"><ele>53.5</ele><time>2026-03-30T08:45:21Z</time></trkpt><trkpt lat="41.88881991747331" lon="12.69575965173247"><ele>53.0</ele><time>2026-03-30T08:45:22Z</time></trkpt><trkpt lat="41.88892282326142" lon="12.69571364917859"><ele>52.5</ele><time>2026-03-30T08:45:23Z</time></trkpt><trkpt lat="41.88903555687507" lon="12.695651557225064"><ele>52.0</ele><time>2026-03-30T08:45:24Z</time></trkpt><trkpt lat="41.88915464977649" lon="12.695584596530262"><ele>52.0</ele><time>2026-03-30T08:45:25Z</time></trkpt><trkpt lat="41.889275492370786" lon="12.69551652245152"><ele>52.0</ele><time>2026-03-30T08:45:26Z</time></trkpt><trkpt lat="41.88939195893163" lon="12.69545219881676"><ele>52.0</ele><time>2026-03-30T08:45:27Z</time></trkpt><trkpt lat="41.88950228329283" lon="12.695389159590686"><ele>52.0</ele><time>2026-03-30T08:45:28Z</time></trkpt><trkpt lat="41.88960329702199" lon="12.695327167675432"><ele>51.99999999999999</ele><time>2026-03-30T08:45:29Z</time></trkpt><trkpt lat="41.8896938335785" lon="12.695269003726766"><ele>52.0</ele><time>2026-03-30T08:45:30Z</time></trkpt><trkpt lat="41.889781562051304" lon="12.695205013062859"><ele>52.0</ele><time>2026-03-30T08:45:31Z</time></trkpt><trkpt lat="41.889864244244464" lon="12.695159214291929"><ele>52.0</ele><time>2026-03-30T08:45:32Z</time></trkpt><trkpt lat="41.88993583517118" lon="12.69512257276771"><ele>51.99999999999999</ele><time>2026-03-30T08:45:33Z</time></trkpt><trkpt lat="41.88999852200727" lon="12.69509265758091"><ele>52.0</ele><time>2026-03-30T08:45:34Z</time></trkpt><trkpt lat="41.89007444388372" lon="12.695080657606322"><ele>51.8</ele><time>2026-03-30T08:45:36Z</time></trkpt><trkpt lat="41.89015435798023" lon="12.695102030490723"><ele>51.6</ele><time>2026-03-30T08:45:42Z</time></trkpt><trkpt lat="41.8901984852644" lon="12.695199649294203"><ele>51.4</ele><time>2026-03-30T08:45:44Z</time></trkpt><trkpt lat="41.89026937946011" lon="12.695363093810085"><ele>51.199999999999996</ele><time>2026-03-30T08:45:46Z</time></trkpt><trkpt lat="41.89030420506009" lon="12.695511522815906"><ele>51.0</ele><time>2026-03-30T08:45:47Z</time></trkpt><trkpt lat="41.89034004744292" lon="12.69568092476817"><ele>51.0</ele><time>2026-03-30T08:45:48Z</time></trkpt><trkpt lat="41.890367908202485" lon="12.695848332168445"><ele>51.0</ele><time>2026-03-30T08:45:49Z</time></trkpt><trkpt lat="41.89038664711885" lon="12.69602093534369"><ele>51.0</ele><time>2026-03-30T08:45:50Z</time></trkpt><trkpt lat="41.89040269480798" lon="12.69620842602792"><ele>51.0</ele><time>2026-03-30T08:45:51Z</time></trkpt><trkpt lat="41.89041913597071" lon="12.696402272751087"><ele>50.75</ele><time>2026-03-30T08:45:51.999Z</time></trkpt><trkpt lat="41.89043980706368" lon="12.696594735151018"><ele>50.5</ele><time>2026-03-30T08:45:52.999Z</time></trkpt><trkpt lat="41.890461764805984" lon="12.696783949398144"><ele>50.25</ele><time>2026-03-30T08:45:53.999Z</time></trkpt><trkpt lat="41.89048290986072" lon="12.696968008434796"><ele>50.0</ele><time>2026-03-30T08:45:54.999Z</time></trkpt><trkpt lat="41.890512727164946" lon="12.69714365421449"><ele>50.0</ele><time>2026-03-30T08:45:55.999Z</time></trkpt><trkpt lat="41.89056675723196" lon="12.697285949968801"><ele>50.0</ele><time>2026-03-30T08:45:56.999Z</time></trkpt><trkpt lat="41.89062994894407" lon="12.697400598911829"><ele>50.0</ele><time>2026-03-30T08:45:57.999Z</time></trkpt><trkpt lat="41.89068169588553" lon="12.697482802227638"><ele>50.0</ele><time>2026-03-30T08:45:58.999Z</time></trkpt><trkpt lat="41.89072648735329" lon="12.697583060021623"><ele>50.0</ele><time>2026-03-30T08:45:59.999Z</time></trkpt><trkpt lat="41.8907569964746" lon="12.697668436896958"><ele>50.4</ele><time>2026-03-30T08:46:00.999Z</time></trkpt><trkpt lat="41.89082405178609" lon="12.697838702717558"><ele>50.8</ele><time>2026-03-30T08:46:02.999Z</time></trkpt><trkpt lat="41.89085055759464" lon="12.697942191250473"><ele>51.2</ele><time>2026-03-30T08:46:03.999Z</time></trkpt><trkpt lat="41.890896898928546" lon="12.69807233713502"><ele>51.6</ele><time>2026-03-30T08:46:04.999Z</time></trkpt><trkpt lat="41.890946732616726" lon="12.698177209586428"><ele>52.0</ele><time>2026-03-30T08:46:05.999Z</time></trkpt><trkpt lat="41.89097494323273" lon="12.69825878382145"><ele>52.83333333333333</ele><time>2026-03-30T08:46:06.999Z</time></trkpt><trkpt lat="41.891002019173705" lon="12.698337309650663"><ele>53.666666666666664</ele><time>2026-03-30T08:46:07.999Z</time></trkpt><trkpt lat="41.891038393480294" lon="12.69843363997031"><ele>54.5</ele><time>2026-03-30T08:46:08.999Z</time></trkpt><trkpt lat="41.89106742760118" lon="12.698535172317342"><ele>55.33333333333333</ele><time>2026-03-30T08:46:09.999Z</time></trkpt><trkpt lat="41.891099388756615" lon="12.69864291410387"><ele>56.166666666666664</ele><time>2026-03-30T08:46:10.999Z</time></trkpt><trkpt lat="41.8911338142386" lon="12.698757996919111"><ele>57.0</ele><time>2026-03-30T08:46:11.999Z</time></trkpt><trkpt lat="41.89117334181594" lon="12.698882505166974"><ele>57.25</ele><time>2026-03-30T08:46:12.999Z</time></trkpt><trkpt lat="41.8912126759108" lon="12.69902580570897"><ele>57.5</ele><time>2026-03-30T08:46:13.999Z</time></trkpt><trkpt lat="41.89125256472145" lon="12.69915679454354"><ele>57.75</ele><time>2026-03-30T08:46:14.999Z</time></trkpt><trkpt lat="41.89130012975327" lon="12.699298712820074"><ele>58.0</ele><time>2026-03-30T08:46:15.999Z</time></trkpt><trkpt lat="41.89135102342209" lon="12.699449452077513"><ele>58.5</ele><time>2026-03-30T08:46:16.999Z</time></trkpt><trkpt lat="41.891406117396784" lon="12.69959900802424"><ele>59.0</ele><time>2026-03-30T08:46:17.999Z</time></trkpt><trkpt lat="41.8914622706464" lon="12.699771974816507"><ele>59.5</ele><time>2026-03-30T08:46:18.999Z</time></trkpt><trkpt lat="41.89152078552264" lon="12.699942405412934"><ele>60.0</ele><time>2026-03-30T08:46:19.999Z</time></trkpt><trkpt lat="41.89157653218353" lon="12.700118998902731"><ele>60.0</ele><time>2026-03-30T08:46:20.999Z</time></trkpt><trkpt lat="41.89162726319719" lon="12.700279988021633"><ele>60.0</ele><time>2026-03-30T08:46:21.999Z</time></trkpt><trkpt lat="41.89167765064292" lon="12.700426943871022"><ele>60.0</ele><time>2026-03-30T08:46:22.999Z</time></trkpt><trkpt lat="41.89173677872536" lon="12.700549060365603"><ele>60.0</ele><time>2026-03-30T08:46:23.999Z</time></trkpt><trkpt lat="41.89181738646985" lon="12.700645484697823"><ele>60.75</ele><time>2026-03-30T08:46:24.999Z</time></trkpt><trkpt lat="41.8919072101081" lon="12.700720421552502"><ele>61.5</ele><time>2026-03-30T08:46:25.999Z</time></trkpt><trkpt lat="41.892031971704206" lon="12.700753387641015"><ele>62.25</ele><time>2026-03-30T08:46:26.999Z</time></trkpt><trkpt lat="41.89214961350401" lon="12.700789835875936"><ele>63.0</ele><time>2026-03-30T08:46:27.999Z</time></trkpt><trkpt lat="41.892267859349616" lon="12.700833415802377"><ele>63.0</ele><time>2026-03-30T08:46:28.999Z</time></trkpt><trkpt lat="41.892383510702565" lon="12.700883245570992"><ele>63.0</ele><time>2026-03-30T08:46:29.999Z</time></trkpt><trkpt lat="41.89250151206781" lon="12.700934264876176"><ele>63.0</ele><time>2026-03-30T08:46:30.999Z</time></trkpt><trkpt lat="41.8926198553367" lon="12.700985185542514"><ele>63.0</ele><time>2026-03-30T08:46:31.999Z</time></trkpt><trkpt lat="41.89274308864921" lon="12.70104148348187"><ele>63.25</ele><time>2026-03-30T08:46:32.999Z</time></trkpt><trkpt lat="41.8928685181567" lon="12.70110749772697"><ele>63.5</ele><time>2026-03-30T08:46:33.999Z</time></trkpt><trkpt lat="41.89299734043252" lon="12.701186305465326"><ele>63.75</ele><time>2026-03-30T08:46:34.999Z</time></trkpt><trkpt lat="41.893123402436785" lon="12.701269435793758"><ele>64.0</ele><time>2026-03-30T08:46:35.999Z</time></trkpt><trkpt lat="41.89323917105429" lon="12.701342844249584"><ele>63.99999999999999</ele><time>2026-03-30T08:46:36.999Z</time></trkpt><trkpt lat="41.89333288801988" lon="12.701401701156707"><ele>64.0</ele><time>2026-03-30T08:46:37.999Z</time></trkpt><trkpt lat="41.893406048069785" lon="12.701448342518873"><ele>64.0</ele><time>2026-03-30T08:46:38.999Z</time></trkpt><trkpt lat="41.89346096056301" lon="12.701531460841467"><ele>64.0</ele><time>2026-03-30T08:46:40.999Z</time></trkpt><trkpt lat="41.893517793060745" lon="12.701589500680655"><ele>63.99999999999999</ele><time>2026-03-30T08:46:43.999Z</time></trkpt><trkpt lat="41.89358850587853" lon="12.701637246887037"><ele>64.0</ele><time>2026-03-30T08:46:46.999Z</time></trkpt><trkpt lat="41.893672248965906" lon="12.701670149058854"><ele>64.0</ele><time>2026-03-30T08:46:51Z</time></trkpt><trkpt lat="41.8937710194589" lon="12.701766188338755"><ele>64.0</ele><time>2026-03-30T08:46:53Z</time></trkpt><trkpt lat="41.89384791067552" lon="12.701830867611035"><ele>64.0</ele><time>2026-03-30T08:46:54Z</time></trkpt><trkpt lat="41.89392755527271" lon="12.701888332195187"><ele>64.0</ele><time>2026-03-30T08:46:55Z</time></trkpt><trkpt lat="41.89401454394052" lon="12.701952983477105"><ele>64.0</ele><time>2026-03-30T08:46:56Z</time></trkpt><trkpt lat="41.89411225788644" lon="12.702027962398867"><ele>64.0</ele><time>2026-03-30T08:46:57Z</time></trkpt><trkpt lat="41.894219448622025" lon="12.702114476690447"><ele>64.0</ele><time>2026-03-30T08:46:58Z</time></trkpt><trkpt lat="41.894325698917754" lon="12.702200238814093"><ele>64.0</ele><time>2026-03-30T08:46:59Z</time></trkpt><trkpt lat="41.89443008184016" lon="12.702285459281173"><ele>64.0</ele><time>2026-03-30T08:47:00Z</time></trkpt><trkpt lat="41.89452837611862" lon="12.702367228622448"><ele>64.0</ele><time>2026-03-30T08:47:01Z</time></trkpt><trkpt lat="41.894623236367266" lon="12.702447135210504"><ele>64.0</ele><time>2026-03-30T08:47:02Z</time></trkpt><trkpt lat="41.894714052783485" lon="12.702527700295601"><ele>64.0</ele><time>2026-03-30T08:47:03Z</time></trkpt><trkpt lat="41.894800898201915" lon="12.702605271690187"><ele>64.0</ele><time>2026-03-30T08:47:04Z</time></trkpt><trkpt lat="41.89488625420109" lon="12.702677332655053"><ele>64.0</ele><time>2026-03-30T08:47:05Z</time></trkpt><trkpt lat="41.89495628335056" lon="12.702732706037999"><ele>63.25</ele><time>2026-03-30T08:47:06Z</time></trkpt><trkpt lat="41.895021019718236" lon="12.702794376281243"><ele>62.5</ele><time>2026-03-30T08:47:07Z</time></trkpt><trkpt lat="41.89510136794397" lon="12.702859112048236"><ele>61.75</ele><time>2026-03-30T08:47:08Z</time></trkpt><trkpt lat="41.8952186006561" lon="12.702933491981543"><ele>61.0</ele><time>2026-03-30T08:47:09Z</time></trkpt><trkpt lat="41.89535123417207" lon="12.70302930870893"><ele>61.0</ele><time>2026-03-30T08:47:10Z</time></trkpt><trkpt lat="41.89549779179446" lon="12.703140584544947"><ele>61.0</ele><time>2026-03-30T08:47:11Z</time></trkpt><trkpt lat="41.89564959744098" lon="12.703254063134267"><ele>61.0</ele><time>2026-03-30T08:47:12Z</time></trkpt><trkpt lat="41.89580609847799" lon="12.703370040567899"><ele>61.33333333333333</ele><time>2026-03-30T08:47:13Z</time></trkpt><trkpt lat="41.89596761596504" lon="12.703491212228098"><ele>61.66666666666667</ele><time>2026-03-30T08:47:14Z</time></trkpt><trkpt lat="41.89613453398354" lon="12.703617233151917"><ele>62.0</ele><time>2026-03-30T08:47:15Z</time></trkpt><trkpt lat="41.896305429267066" lon="12.703746409504456"><ele>61.66666666666667</ele><time>2026-03-30T08:47:16Z</time></trkpt><trkpt lat="41.896478405291504" lon="12.703876476323446"><ele>61.33333333333333</ele><time>2026-03-30T08:47:17Z</time></trkpt><trkpt lat="41.89665310591312" lon="12.70400860616152"><ele>61.0</ele><time>2026-03-30T08:47:18Z</time></trkpt><trkpt lat="41.89682964074426" lon="12.704143398030979"><ele>61.0</ele><time>2026-03-30T08:47:19Z</time></trkpt><trkpt lat="41.89700528404274" lon="12.704278418539724"><ele>61.0</ele><time>2026-03-30T08:47:20Z</time></trkpt><trkpt lat="41.897181343553974" lon="12.704411151676073"><ele>61.0</ele><time>2026-03-30T08:47:21Z</time></trkpt><trkpt lat="41.89735415921052" lon="12.704542029883582"><ele>62.0</ele><time>2026-03-30T08:47:22Z</time></trkpt><trkpt lat="41.89752994140788" lon="12.704677412947852"><ele>63.0</ele><time>2026-03-30T08:47:23Z</time></trkpt><trkpt lat="41.89771005344561" lon="12.704810396171789"><ele>64.0</ele><time>2026-03-30T08:47:24Z</time></trkpt><trkpt lat="41.89789765620685" lon="12.70494304542405"><ele>64.0</ele><time>2026-03-30T08:47:25Z</time></trkpt><trkpt lat="41.89808996804936" lon="12.705084904860303"><ele>64.0</ele><time>2026-03-30T08:47:26Z</time></trkpt><trkpt lat="41.898284712742445" lon="12.705231690475749"><ele>64.0</ele><time>2026-03-30T08:47:27Z</time></trkpt><trkpt lat="41.898480369962165" lon="12.705378432294154"><ele>66.0</ele><time>2026-03-30T08:47:28Z</time></trkpt><trkpt lat="41.898669031206" lon="12.705519402920002"><ele>68.0</ele><time>2026-03-30T08:47:29Z</time></trkpt><trkpt lat="41.89885423218925" lon="12.70565566275391"><ele>70.0</ele><time>2026-03-30T08:47:30Z</time></trkpt><trkpt lat="41.89903355337897" lon="12.705791720163159"><ele>70.0</ele><time>2026-03-30T08:47:31Z</time></trkpt><trkpt lat="41.89921180917701" lon="12.70593021232373"><ele>70.0</ele><time>2026-03-30T08:47:32Z</time></trkpt><trkpt lat="41.8993959150216" lon="12.706070569863314"><ele>70.0</ele><time>2026-03-30T08:47:33Z</time></trkpt><trkpt lat="41.899585611860594" lon="12.706213029344495"><ele>72.5</ele><time>2026-03-30T08:47:34Z</time></trkpt><trkpt lat="41.89978135040214" lon="12.706365069420011"><ele>75.0</ele><time>2026-03-30T08:47:35Z</time></trkpt><trkpt lat="41.8999767394845" lon="12.70652000998544"><ele>73.5</ele><time>2026-03-30T08:47:36Z</time></trkpt><trkpt lat="41.90017257023016" lon="12.706677945649368"><ele>72.0</ele><time>2026-03-30T08:47:37Z</time></trkpt><trkpt lat="41.90037041968669" lon="12.706833928393323"><ele>73.0</ele><time>2026-03-30T08:47:38Z</time></trkpt><trkpt lat="41.9005760192928" lon="12.706977336207617"><ele>74.0</ele><time>2026-03-30T08:47:39Z</time></trkpt><trkpt lat="41.900781173947045" lon="12.707116970343073"><ele>72.5</ele><time>2026-03-30T08:47:40Z</time></trkpt><trkpt lat="41.90098822630121" lon="12.707250206251821"><ele>71.0</ele><time>2026-03-30T08:47:41Z</time></trkpt><trkpt lat="41.90119819999818" lon="12.707386701736407"><ele>71.0</ele><time>2026-03-30T08:47:42Z</time></trkpt><trkpt lat="41.90141030253578" lon="12.707525521785254"><ele>71.0</ele><time>2026-03-30T08:47:43Z</time></trkpt><trkpt lat="41.901620831515196" lon="12.707666154177371"><ele>69.5</ele><time>2026-03-30T08:47:44Z</time></trkpt><trkpt lat="41.901839917985185" lon="12.707817152479102"><ele>68.0</ele><time>2026-03-30T08:47:45Z</time></trkpt><trkpt lat="41.90208681301333" lon="12.707973710375175"><ele>68.0</ele><time>2026-03-30T08:47:46Z</time></trkpt><trkpt lat="41.902306557403406" lon="12.708146064013867"><ele>68.0</ele><time>2026-03-30T08:47:47Z</time></trkpt><trkpt lat="41.902475618686516" lon="12.70824599193875"><ele>68.0</ele><time>2026-03-30T08:47:48Z</time></trkpt><trkpt lat="41.90268018485916" lon="12.708381983170115"><ele>68.5</ele><time>2026-03-30T08:47:49Z</time></trkpt><trkpt lat="41.90289794502537" lon="12.708531561587877"><ele>69.0</ele><time>2026-03-30T08:47:50Z</time></trkpt><trkpt lat="41.903104888812315" lon="12.708677397188715"><ele>69.0</ele><time>2026-03-30T08:47:51Z</time></trkpt><trkpt lat="41.903313136766485" lon="12.708824788162728"><ele>69.0</ele><time>2026-03-30T08:47:52Z</time></trkpt><trkpt lat="41.90352240129466" lon="12.708971724384678"><ele>69.0</ele><time>2026-03-30T08:47:53Z</time></trkpt><trkpt lat="41.90373285316486" lon="12.709120214544207"><ele>69.0</ele><time>2026-03-30T08:47:54Z</time></trkpt><trkpt lat="41.90394408559731" lon="12.709267442801973"><ele>67.5</ele><time>2026-03-30T08:47:54.999Z</time></trkpt><trkpt lat="41.90415085015479" lon="12.709419128867607"><ele>66.0</ele><time>2026-03-30T08:47:55.999Z</time></trkpt><trkpt lat="41.904356105904576" lon="12.70957260731706"><ele>66.0</ele><time>2026-03-30T08:47:56.999Z</time></trkpt><trkpt lat="41.90456984588143" lon="12.709733042462418"><ele>66.0</ele><time>2026-03-30T08:47:57.999Z</time></trkpt><trkpt lat="41.904761131873904" lon="12.709889977545489"><ele>66.0</ele><time>2026-03-30T08:47:58.999Z</time></trkpt><trkpt lat="41.904936588897165" lon="12.710038939739261"><ele>66.0</ele><time>2026-03-30T08:47:59.999Z</time></trkpt><trkpt lat="41.90509588007164" lon="12.710190084445783"><ele>66.0</ele><time>2026-03-30T08:48:00.999Z</time></trkpt><trkpt lat="41.90523371037095" lon="12.710344790673135"><ele>64.66666666666667</ele><time>2026-03-30T08:48:01.999Z</time></trkpt><trkpt lat="41.90534161813956" lon="12.71052491042956"><ele>63.333333333333336</ele><time>2026-03-30T08:48:02.999Z</time></trkpt><trkpt lat="41.90542546371542" lon="12.710739141708473"><ele>62.0</ele><time>2026-03-30T08:48:03.999Z</time></trkpt><trkpt lat="41.90548676983382" lon="12.710985460248272"><ele>63.0</ele><time>2026-03-30T08:48:04.999Z</time></trkpt><trkpt lat="41.90553088517791" lon="12.711227477407718"><ele>64.0</ele><time>2026-03-30T08:48:05.999Z</time></trkpt><trkpt lat="41.90556851224596" lon="12.7114416866713"><ele>65.0</ele><time>2026-03-30T08:48:06.999Z</time></trkpt><trkpt lat="41.90560149923341" lon="12.711631804408333"><ele>65.0</ele><time>2026-03-30T08:48:07.999Z</time></trkpt><trkpt lat="41.905631586185706" lon="12.71179732082252"><ele>65.0</ele><time>2026-03-30T08:48:08.999Z</time></trkpt><trkpt lat="41.90565978682154" lon="12.711939368611946"><ele>65.0</ele><time>2026-03-30T08:48:09.999Z</time></trkpt><trkpt lat="41.90567961244927" lon="12.712047508544849"><ele>65.0</ele><time>2026-03-30T08:48:10.999Z</time></trkpt><trkpt lat="41.90569253089197" lon="12.712130766795061"><ele>65.0</ele><time>2026-03-30T08:48:11.999Z</time></trkpt><trkpt lat="41.90570749291145" lon="12.712217916550747"><ele>65.0</ele><time>2026-03-30T08:48:14.999Z</time></trkpt><trkpt lat="41.9057451604256" lon="12.712378381525564"><ele>65.0</ele><time>2026-03-30T08:48:30.999Z</time></trkpt><trkpt lat="41.90576699351193" lon="12.712492743231474"><ele>65.0</ele><time>2026-03-30T08:48:31.999Z</time></trkpt><trkpt lat="41.90579297283543" lon="12.712618649943359"><ele>65.0</ele><time>2026-03-30T08:48:32.999Z</time></trkpt><trkpt lat="41.90582188790374" lon="12.712772103536826"><ele>65.0</ele><time>2026-03-30T08:48:33.999Z</time></trkpt><trkpt lat="41.90585795899151" lon="12.712954423868183"><ele>65.0</ele><time>2026-03-30T08:48:34.999Z</time></trkpt><trkpt lat="41.90589533337655" lon="12.713143557372273"><ele>64.66666666666667</ele><time>2026-03-30T08:48:35.999Z</time></trkpt><trkpt lat="41.90593850333829" lon="12.713374562539169"><ele>64.33333333333333</ele><time>2026-03-30T08:48:36.999Z</time></trkpt><trkpt lat="41.90598284562765" lon="12.713596040713112"><ele>64.0</ele><time>2026-03-30T08:48:37.999Z</time></trkpt><trkpt lat="41.90603045928577" lon="12.713848051485902"><ele>64.66666666666666</ele><time>2026-03-30T08:48:38.999Z</time></trkpt><trkpt lat="41.9060824864144" lon="12.714125069058774"><ele>65.33333333333333</ele><time>2026-03-30T08:48:39.999Z</time></trkpt><trkpt lat="41.90613518783893" lon="12.714402517718925"><ele>66.0</ele><time>2026-03-30T08:48:40.999Z</time></trkpt><trkpt lat="41.90618433839996" lon="12.714627289597107"><ele>64.66666666666667</ele><time>2026-03-30T08:48:41.999Z</time></trkpt><trkpt lat="41.90623897012878" lon="12.714909344855586"><ele>63.333333333333336</ele><time>2026-03-30T08:48:42.999Z</time></trkpt><trkpt lat="41.90629685983274" lon="12.71520385186168"><ele>62.0</ele><time>2026-03-30T08:48:43.999Z</time></trkpt><trkpt lat="41.90635738616556" lon="12.715503419440454"><ele>60.0</ele><time>2026-03-30T08:48:44.999Z</time></trkpt><trkpt lat="41.9064177487118" lon="12.715806455830306"><ele>58.0</ele><time>2026-03-30T08:48:45.999Z</time></trkpt><trkpt lat="41.90648265843783" lon="12.716104418742239"><ele>57.0</ele><time>2026-03-30T08:48:46.999Z</time></trkpt><trkpt lat="41.90654420170837" lon="12.716411728064017"><ele>56.0</ele><time>2026-03-30T08:48:47.999Z</time></trkpt><trkpt lat="41.90660450383377" lon="12.716717330204805"><ele>57.0</ele><time>2026-03-30T08:48:48.999Z</time></trkpt><trkpt lat="41.90666231507393" lon="12.717019355518389"><ele>58.0</ele><time>2026-03-30T08:48:49.999Z</time></trkpt><trkpt lat="41.90672126605574" lon="12.717324755532346"><ele>59.0</ele><time>2026-03-30T08:48:50.999Z</time></trkpt><trkpt lat="41.90677908737896" lon="12.717624109713755"><ele>60.0</ele><time>2026-03-30T08:48:51.999Z</time></trkpt><trkpt lat="41.90683774493965" lon="12.717920192895177"><ele>63.0</ele><time>2026-03-30T08:48:52.999Z</time></trkpt><trkpt lat="41.90689424997391" lon="12.718212529394679"><ele>66.0</ele><time>2026-03-30T08:48:53.999Z</time></trkpt><trkpt lat="41.90694837003853" lon="12.71850036032025"><ele>69.0</ele><time>2026-03-30T08:48:55Z</time></trkpt><trkpt lat="41.90700327392538" lon="12.71877994155268"><ele>68.66666666666667</ele><time>2026-03-30T08:48:56Z</time></trkpt><trkpt lat="41.90706304422765" lon="12.719055016305262"><ele>68.33333333333334</ele><time>2026-03-30T08:48:57Z</time></trkpt><trkpt lat="41.90712322241437" lon="12.719334602120822"><ele>68.0</ele><time>2026-03-30T08:48:58Z</time></trkpt><trkpt lat="41.907183746883575" lon="12.719617746626025"><ele>68.0</ele><time>2026-03-30T08:48:59Z</time></trkpt><trkpt lat="41.907242951181175" lon="12.71990029989735"><ele>68.0</ele><time>2026-03-30T08:49:00Z</time></trkpt><trkpt lat="41.907297671858714" lon="12.720184367957524"><ele>68.0</ele><time>2026-03-30T08:49:01Z</time></trkpt><trkpt lat="41.90735163661385" lon="12.720468617848422"><ele>67.0</ele><time>2026-03-30T08:49:02Z</time></trkpt><trkpt lat="41.90740543226116" lon="12.720761342894406"><ele>66.0</ele><time>2026-03-30T08:49:03Z</time></trkpt><trkpt lat="41.907459493218326" lon="12.721051783908385"><ele>65.0</ele><time>2026-03-30T08:49:04Z</time></trkpt><trkpt lat="41.90751771966109" lon="12.72133944901681"><ele>64.0</ele><time>2026-03-30T08:49:05Z</time></trkpt><trkpt lat="41.90757149787964" lon="12.721619277281622"><ele>63.0</ele><time>2026-03-30T08:49:06Z</time></trkpt><trkpt lat="41.907627284593026" lon="12.721893084452386"><ele>62.0</ele><time>2026-03-30T08:49:07Z</time></trkpt><trkpt lat="41.90768698530543" lon="12.722160741260666"><ele>61.333333333333336</ele><time>2026-03-30T08:49:08Z</time></trkpt><trkpt lat="41.90775429522689" lon="12.722426561253585"><ele>60.66666666666667</ele><time>2026-03-30T08:49:09Z</time></trkpt><trkpt lat="41.907829233406375" lon="12.72267394945551"><ele>60.0</ele><time>2026-03-30T08:49:10Z</time></trkpt><trkpt lat="41.907925485782776" lon="12.722898022914215"><ele>60.0</ele><time>2026-03-30T08:49:11Z</time></trkpt><trkpt lat="41.90805551242056" lon="12.72311345051484"><ele>60.0</ele><time>2026-03-30T08:49:12Z</time></trkpt><trkpt lat="41.908211030368136" lon="12.723312503492139"><ele>60.0</ele><time>2026-03-30T08:49:13Z</time></trkpt><trkpt lat="41.90837976832365" lon="12.723508101454282"><ele>58.0</ele><time>2026-03-30T08:49:14Z</time></trkpt><trkpt lat="41.90854774015298" lon="12.723712316205585"><ele>56.0</ele><time>2026-03-30T08:49:15Z</time></trkpt><trkpt lat="41.90871802910624" lon="12.723924928317993"><ele>56.0</ele><time>2026-03-30T08:49:16Z</time></trkpt><trkpt lat="41.90889347644183" lon="12.72414620473666"><ele>56.0</ele><time>2026-03-30T08:49:17Z</time></trkpt><trkpt lat="41.90906581657331" lon="12.724362087201722"><ele>53.0</ele><time>2026-03-30T08:49:18Z</time></trkpt><trkpt lat="41.90924896340377" lon="12.724591445679836"><ele>50.0</ele><time>2026-03-30T08:49:19Z</time></trkpt><trkpt lat="41.90943125229358" lon="12.7248179224429"><ele>50.0</ele><time>2026-03-30T08:49:20Z</time></trkpt><trkpt lat="41.90961042057921" lon="12.725043667514072"><ele>50.0</ele><time>2026-03-30T08:49:21Z</time></trkpt><trkpt lat="41.90978764595424" lon="12.725268312311478"><ele>49.0</ele><time>2026-03-30T08:49:22Z</time></trkpt><trkpt lat="41.909961888873205" lon="12.72549650636712"><ele>48.0</ele><time>2026-03-30T08:49:23Z</time></trkpt><trkpt lat="41.910131658670984" lon="12.725725592019872"><ele>48.0</ele><time>2026-03-30T08:49:24Z</time></trkpt><trkpt lat="41.910294924479594" lon="12.725948659376655"><ele>48.0</ele><time>2026-03-30T08:49:25Z</time></trkpt><trkpt lat="41.91045803749479" lon="12.726174301758764"><ele>47.0</ele><time>2026-03-30T08:49:26Z</time></trkpt><trkpt lat="41.91061965259103" lon="12.726403753578587"><ele>46.0</ele><time>2026-03-30T08:49:27Z</time></trkpt><trkpt lat="41.91077472602705" lon="12.72663129453162"><ele>46.0</ele><time>2026-03-30T08:49:28Z</time></trkpt><trkpt lat="41.91092600818967" lon="12.72685698784923"><ele>46.0</ele><time>2026-03-30T08:49:29Z</time></trkpt><trkpt lat="41.91107456084584" lon="12.727084689261913"><ele>46.0</ele><time>2026-03-30T08:49:30Z</time></trkpt><trkpt lat="41.911216288652945" lon="12.727309661080408"><ele>46.0</ele><time>2026-03-30T08:49:31Z</time></trkpt><trkpt lat="41.91135228731976" lon="12.727533060472652"><ele>46.0</ele><time>2026-03-30T08:49:32Z</time></trkpt><trkpt lat="41.91148689800093" lon="12.727764458246932"><ele>45.66666666666667</ele><time>2026-03-30T08:49:33Z</time></trkpt><trkpt lat="41.91161105237892" lon="12.727991754821433"><ele>45.333333333333336</ele><time>2026-03-30T08:49:34Z</time></trkpt><trkpt lat="41.911723120442645" lon="12.728202475268715"><ele>45.0</ele><time>2026-03-30T08:49:35Z</time></trkpt><trkpt lat="41.91182619845937" lon="12.728400800087792"><ele>45.333333333333336</ele><time>2026-03-30T08:49:36Z</time></trkpt><trkpt lat="41.91192471412031" lon="12.728588336368995"><ele>45.66666666666667</ele><time>2026-03-30T08:49:37Z</time></trkpt><trkpt lat="41.91201706560391" lon="12.728761419082842"><ele>46.0</ele><time>2026-03-30T08:49:38Z</time></trkpt><trkpt lat="41.91211332188756" lon="12.728937325422242"><ele>46.0</ele><time>2026-03-30T08:49:39Z</time></trkpt><trkpt lat="41.912210113587896" lon="12.729123632122826"><ele>46.0</ele><time>2026-03-30T08:49:40Z</time></trkpt><trkpt lat="41.91231619056197" lon="12.72931441232322"><ele>46.0</ele><time>2026-03-30T08:49:41Z</time></trkpt><trkpt lat="41.91242646871179" lon="12.729519554240552"><ele>46.333333333333336</ele><time>2026-03-30T08:49:42Z</time></trkpt><trkpt lat="41.91253600024456" lon="12.729743268759316"><ele>46.666666666666664</ele><time>2026-03-30T08:49:43Z</time></trkpt><trkpt lat="41.91262712141146" lon="12.729949679455398"><ele>47.0</ele><time>2026-03-30T08:49:44Z</time></trkpt><trkpt lat="41.9127109123335" lon="12.730122134809545"><ele>46.75</ele><time>2026-03-30T08:49:45Z</time></trkpt><trkpt lat="41.91279009733173" lon="12.730267963418543"><ele>46.5</ele><time>2026-03-30T08:49:46Z</time></trkpt><trkpt lat="41.91285692391645" lon="12.730388476705556"><ele>46.25</ele><time>2026-03-30T08:49:47Z</time></trkpt><trkpt lat="41.9129131696049" lon="12.73049830804452"><ele>46.0</ele><time>2026-03-30T08:49:48Z</time></trkpt><trkpt lat="41.91296681644602" lon="12.730639329196705"><ele>46.0</ele><time>2026-03-30T08:49:49Z</time></trkpt><trkpt lat="41.91303892536942" lon="12.730812231979773"><ele>46.0</ele><time>2026-03-30T08:49:50Z</time></trkpt><trkpt lat="41.91312274697844" lon="12.730980513122915"><ele>46.0</ele><time>2026-03-30T08:49:51Z</time></trkpt><trkpt lat="41.9131938983466" lon="12.731113206582496"><ele>46.0</ele><time>2026-03-30T08:49:52Z</time></trkpt><trkpt lat="41.91324088064287" lon="12.73119738527432"><ele>46.199999999999996</ele><time>2026-03-30T08:49:53Z</time></trkpt><trkpt lat="41.91331107401677" lon="12.731309553436134"><ele>46.4</ele><time>2026-03-30T08:49:55Z</time></trkpt><trkpt lat="41.91333117689303" lon="12.731395081391215"><ele>46.6</ele><time>2026-03-30T08:49:56Z</time></trkpt><trkpt lat="41.91338514253568" lon="12.731523569769072"><ele>46.8</ele><time>2026-03-30T08:49:56.999Z</time></trkpt><trkpt lat="41.913465249758445" lon="12.731672643545556"><ele>47.0</ele><time>2026-03-30T08:49:57.999Z</time></trkpt><trkpt lat="41.91354491155076" lon="12.731828215695543"><ele>46.0</ele><time>2026-03-30T08:49:58.999Z</time></trkpt><trkpt lat="41.91362636538572" lon="12.731999910506856"><ele>45.0</ele><time>2026-03-30T08:49:59.999Z</time></trkpt><trkpt lat="41.91371279770303" lon="12.732183971824243"><ele>44.0</ele><time>2026-03-30T08:50:00.999Z</time></trkpt><trkpt lat="41.913806145933904" lon="12.732370835572707"><ele>44.0</ele><time>2026-03-30T08:50:01.999Z</time></trkpt><trkpt lat="41.913902296640835" lon="12.73256640918642"><ele>44.0</ele><time>2026-03-30T08:50:02.999Z</time></trkpt><trkpt lat="41.91400063174132" lon="12.732767966522358"><ele>44.0</ele><time>2026-03-30T08:50:03.999Z</time></trkpt><trkpt lat="41.91410048994802" lon="12.732972803913276"><ele>44.33333333333333</ele><time>2026-03-30T08:50:04.999Z</time></trkpt><trkpt lat="41.914200752202916" lon="12.733177593800862"><ele>44.666666666666664</ele><time>2026-03-30T08:50:05.999Z</time></trkpt><trkpt lat="41.91430145536625" lon="12.733383103959723"><ele>45.0</ele><time>2026-03-30T08:50:06.999Z</time></trkpt><trkpt lat="41.914404102582814" lon="12.73359403551312"><ele>44.333333333333336</ele><time>2026-03-30T08:50:07.999Z</time></trkpt><trkpt lat="41.91450573114934" lon="12.733805299972989"><ele>43.66666666666667</ele><time>2026-03-30T08:50:08.999Z</time></trkpt><trkpt lat="41.91460677559029" lon="12.734013809336336"><ele>43.0</ele><time>2026-03-30T08:50:09.999Z</time></trkpt><trkpt lat="41.91471022267" lon="12.734225371428561"><ele>43.0</ele><time>2026-03-30T08:50:10.999Z</time></trkpt><trkpt lat="41.91481630115382" lon="12.734440331494223"><ele>43.0</ele><time>2026-03-30T08:50:11.999Z</time></trkpt><trkpt lat="41.91492391647019" lon="12.734658760761763"><ele>43.0</ele><time>2026-03-30T08:50:12.999Z</time></trkpt><trkpt lat="41.915034785519914" lon="12.734884984553048"><ele>42.66666666666667</ele><time>2026-03-30T08:50:13.999Z</time></trkpt><trkpt lat="41.91515420464853" lon="12.735114726976906"><ele>42.333333333333336</ele><time>2026-03-30T08:50:14.999Z</time></trkpt><trkpt lat="41.91527542817396" lon="12.735338149994863"><ele>42.0</ele><time>2026-03-30T08:50:15.999Z</time></trkpt><trkpt lat="41.915402638019266" lon="12.735558422230135"><ele>41.666666666666664</ele><time>2026-03-30T08:50:16.999Z</time></trkpt><trkpt lat="41.9155388064196" lon="12.735780710746754"><ele>41.33333333333333</ele><time>2026-03-30T08:50:17.999Z</time></trkpt><trkpt lat="41.915675296451056" lon="12.735999816353972"><ele>41.0</ele><time>2026-03-30T08:50:18.999Z</time></trkpt><trkpt lat="41.91581805992653" lon="12.736225186049086"><ele>42.0</ele><time>2026-03-30T08:50:19.999Z</time></trkpt><trkpt lat="41.91596199239415" lon="12.73645265400509"><ele>43.0</ele><time>2026-03-30T08:50:20.999Z</time></trkpt><trkpt lat="41.916104379225686" lon="12.736680180721821"><ele>44.0</ele><time>2026-03-30T08:50:21.999Z</time></trkpt><trkpt lat="41.916250668276724" lon="12.736912578973842"><ele>45.33333333333333</ele><time>2026-03-30T08:50:22.999Z</time></trkpt><trkpt lat="41.916391938216044" lon="12.737146093753173"><ele>46.666666666666664</ele><time>2026-03-30T08:50:23.999Z</time></trkpt><trkpt lat="41.916523392563626" lon="12.737386280739765"><ele>48.0</ele><time>2026-03-30T08:50:24.999Z</time></trkpt><trkpt lat="41.916653699863836" lon="12.737633782554578"><ele>49.0</ele><time>2026-03-30T08:50:25.999Z</time></trkpt><trkpt lat="41.91678532093241" lon="12.737878443702172"><ele>50.0</ele><time>2026-03-30T08:50:26.999Z</time></trkpt><trkpt lat="41.91691533083096" lon="12.738117408515526"><ele>51.0</ele><time>2026-03-30T08:50:27.999Z</time></trkpt><trkpt lat="41.91704143709298" lon="12.738352446182319"><ele>51.66666666666667</ele><time>2026-03-30T08:50:28.999Z</time></trkpt><trkpt lat="41.917164370825496" lon="12.738584580812047"><ele>52.333333333333336</ele><time>2026-03-30T08:50:29.999Z</time></trkpt><trkpt lat="41.917282566160424" lon="12.738805767557098"><ele>53.0</ele><time>2026-03-30T08:50:30.999Z</time></trkpt><trkpt lat="41.91739580383311" lon="12.7390134988302"><ele>53.0</ele><time>2026-03-30T08:50:31.999Z</time></trkpt><trkpt lat="41.91750012086326" lon="12.739206950280613"><ele>53.0</ele><time>2026-03-30T08:50:32.999Z</time></trkpt><trkpt lat="41.917600436891455" lon="12.739380979305226"><ele>53.0</ele><time>2026-03-30T08:50:33.999Z</time></trkpt><trkpt lat="41.91769727132273" lon="12.739550610525264"><ele>54.333333333333336</ele><time>2026-03-30T08:50:34.999Z</time></trkpt><trkpt lat="41.91779174055274" lon="12.73972485616314"><ele>55.66666666666667</ele><time>2026-03-30T08:50:35.999Z</time></trkpt><trkpt lat="41.917892352249304" lon="12.739909375706263"><ele>57.0</ele><time>2026-03-30T08:50:36.999Z</time></trkpt><trkpt lat="41.917992490825455" lon="12.740105367948573"><ele>57.33333333333333</ele><time>2026-03-30T08:50:37.999Z</time></trkpt><trkpt lat="41.91809257215673" lon="12.74031676037517"><ele>57.666666666666664</ele><time>2026-03-30T08:50:38.999Z</time></trkpt><trkpt lat="41.91819129761823" lon="12.740538475555153"><ele>58.0</ele><time>2026-03-30T08:50:39.999Z</time></trkpt><trkpt lat="41.91828717863552" lon="12.74077093464689"><ele>58.0</ele><time>2026-03-30T08:50:40.999Z</time></trkpt><trkpt lat="41.91836761060085" lon="12.741008239356146"><ele>58.0</ele><time>2026-03-30T08:50:41.999Z</time></trkpt><trkpt lat="41.91843870711275" lon="12.74125703128589"><ele>58.0</ele><time>2026-03-30T08:50:42.999Z</time></trkpt><trkpt lat="41.9185012552247" lon="12.741499106005604"><ele>58.666666666666664</ele><time>2026-03-30T08:50:43.999Z</time></trkpt><trkpt lat="41.918568900448236" lon="12.741753241018833"><ele>59.33333333333333</ele><time>2026-03-30T08:50:44.999Z</time></trkpt><trkpt lat="41.91861828007035" lon="12.7420298764882"><ele>60.0</ele><time>2026-03-30T08:50:45.999Z</time></trkpt><trkpt lat="41.91870203619779" lon="12.742309282440875"><ele>60.66666666666667</ele><time>2026-03-30T08:50:46.999Z</time></trkpt><trkpt lat="41.918761809307746" lon="12.74259356143676"><ele>61.333333333333336</ele><time>2026-03-30T08:50:47.999Z</time></trkpt><trkpt lat="41.91882524871789" lon="12.742882538816298"><ele>62.0</ele><time>2026-03-30T08:50:48.999Z</time></trkpt><trkpt lat="41.91889309389015" lon="12.743159628800907"><ele>62.66666666666667</ele><time>2026-03-30T08:50:49.999Z</time></trkpt><trkpt lat="41.91896871483031" lon="12.743430277733914"><ele>63.33333333333333</ele><time>2026-03-30T08:50:50.999Z</time></trkpt><trkpt lat="41.919045878992236" lon="12.743699162044315"><ele>64.0</ele><time>2026-03-30T08:50:51.999Z</time></trkpt><trkpt lat="41.91912751066802" lon="12.743972220371845"><ele>64.66666666666666</ele><time>2026-03-30T08:50:52.999Z</time></trkpt><trkpt lat="41.91921233053146" lon="12.744246890602506"><ele>65.33333333333333</ele><time>2026-03-30T08:50:53.999Z</time></trkpt><trkpt lat="41.91929617176039" lon="12.744521095480206"><ele>66.0</ele><time>2026-03-30T08:50:54.999Z</time></trkpt><trkpt lat="41.91937880620993" lon="12.744796148209677"><ele>66.0</ele><time>2026-03-30T08:50:55.999Z</time></trkpt><trkpt lat="41.919465574952945" lon="12.745079331095901"><ele>66.0</ele><time>2026-03-30T08:50:56.999Z</time></trkpt><trkpt lat="41.91955449918596" lon="12.745362916947947"><ele>66.33333333333333</ele><time>2026-03-30T08:50:57.999Z</time></trkpt><trkpt lat="41.919610842188426" lon="12.74561277608752"><ele>66.66666666666666</ele><time>2026-03-30T08:50:58.999Z</time></trkpt><trkpt lat="41.919712294718224" lon="12.745887145725094"><ele>67.0</ele><time>2026-03-30T08:50:59.999Z</time></trkpt><trkpt lat="41.9198056160752" lon="12.74616606391505"><ele>68.33333333333333</ele><time>2026-03-30T08:51:01Z</time></trkpt><trkpt lat="41.91989081679005" lon="12.746451344168685"><ele>69.66666666666667</ele><time>2026-03-30T08:51:02Z</time></trkpt><trkpt lat="41.91997299417025" lon="12.746723802918323"><ele>71.0</ele><time>2026-03-30T08:51:03Z</time></trkpt><trkpt lat="41.92005688337531" lon="12.746982343490865"><ele>70.66666666666667</ele><time>2026-03-30T08:51:04Z</time></trkpt><trkpt lat="41.92015121588256" lon="12.74721664980979"><ele>70.33333333333333</ele><time>2026-03-30T08:51:05Z</time></trkpt><trkpt lat="41.92025310312729" lon="12.74743445900773"><ele>70.0</ele><time>2026-03-30T08:51:06Z</time></trkpt><trkpt lat="41.920360462644666" lon="12.747628689581235"><ele>70.0</ele><time>2026-03-30T08:51:07Z</time></trkpt><trkpt lat="41.92045695502201" lon="12.74782170214515"><ele>70.0</ele><time>2026-03-30T08:51:08Z</time></trkpt><trkpt lat="41.92055259545388" lon="12.748011086526223"><ele>70.0</ele><time>2026-03-30T08:51:09Z</time></trkpt><trkpt lat="41.92064336271908" lon="12.748199326819668"><ele>70.0</ele><time>2026-03-30T08:51:10Z</time></trkpt><trkpt lat="41.92073628694191" lon="12.748404809398297"><ele>70.0</ele><time>2026-03-30T08:51:11Z</time></trkpt><trkpt lat="41.920813529735106" lon="12.748611347332764"><ele>70.0</ele><time>2026-03-30T08:51:12Z</time></trkpt><trkpt lat="41.9208552739507" lon="12.748827567631787"><ele>67.66666666666666</ele><time>2026-03-30T08:51:13Z</time></trkpt><trkpt lat="41.92090343954281" lon="12.749066307235637"><ele>65.33333333333333</ele><time>2026-03-30T08:51:14Z</time></trkpt><trkpt lat="41.920950110113886" lon="12.749320123937167"><ele>63.0</ele><time>2026-03-30T08:51:15Z</time></trkpt><trkpt lat="41.92101358006772" lon="12.749589234962524"><ele>61.0</ele><time>2026-03-30T08:51:16Z</time></trkpt><trkpt lat="41.92105549089823" lon="12.749875039803518"><ele>59.0</ele><time>2026-03-30T08:51:17Z</time></trkpt><trkpt lat="41.92109760475455" lon="12.750165321741976"><ele>57.0</ele><time>2026-03-30T08:51:18Z</time></trkpt><trkpt lat="41.92114694828673" lon="12.750449617772054"><ele>56.0</ele><time>2026-03-30T08:51:19Z</time></trkpt><trkpt lat="41.92119724497492" lon="12.750724338850073"><ele>55.0</ele><time>2026-03-30T08:51:20Z</time></trkpt><trkpt lat="41.92124640089955" lon="12.750980706744556"><ele>54.0</ele><time>2026-03-30T08:51:21Z</time></trkpt><trkpt lat="41.921292394935115" lon="12.751234841914062"><ele>52.33333333333333</ele><time>2026-03-30T08:51:22Z</time></trkpt><trkpt lat="41.92133337225544" lon="12.751492177064522"><ele>50.666666666666664</ele><time>2026-03-30T08:51:23Z</time></trkpt><trkpt lat="41.921370918840275" lon="12.751739374736479"><ele>49.0</ele><time>2026-03-30T08:51:24Z</time></trkpt><trkpt lat="41.92140855886361" lon="12.751984667635773"><ele>48.666666666666664</ele><time>2026-03-30T08:51:25Z</time></trkpt><trkpt lat="41.921442242015246" lon="12.75221314231412"><ele>48.33333333333333</ele><time>2026-03-30T08:51:26Z</time></trkpt><trkpt lat="41.921467283181784" lon="12.752431200950657"><ele>48.0</ele><time>2026-03-30T08:51:27Z</time></trkpt><trkpt lat="41.92148088536104" lon="12.752627345449017"><ele>49.33333333333333</ele><time>2026-03-30T08:51:28Z</time></trkpt><trkpt lat="41.92149756772361" lon="12.752813849159773"><ele>50.666666666666664</ele><time>2026-03-30T08:51:29Z</time></trkpt><trkpt lat="41.921538909257386" lon="12.752998828969233"><ele>52.0</ele><time>2026-03-30T08:51:30Z</time></trkpt><trkpt lat="41.921749068007394" lon="12.753330633466197"><ele>52.666666666666664</ele><time>2026-03-30T08:51:32Z</time></trkpt><trkpt lat="41.92190023073011" lon="12.75347363804222"><ele>53.33333333333333</ele><time>2026-03-30T08:51:33Z</time></trkpt><trkpt lat="41.922061531634604" lon="12.753623112176244"><ele>54.0</ele><time>2026-03-30T08:51:34Z</time></trkpt><trkpt lat="41.92221475050244" lon="12.753777903452132"><ele>55.33333333333333</ele><time>2026-03-30T08:51:35Z</time></trkpt><trkpt lat="41.92236619729165" lon="12.753924984340909"><ele>56.666666666666664</ele><time>2026-03-30T08:51:36Z</time></trkpt><trkpt lat="41.922522839574164" lon="12.7540807191401"><ele>58.0</ele><time>2026-03-30T08:51:37Z</time></trkpt><trkpt lat="41.92268230382133" lon="12.754234366828607"><ele>61.666666666666664</ele><time>2026-03-30T08:51:38Z</time></trkpt><trkpt lat="41.9228419536171" lon="12.754388318858627"><ele>65.33333333333333</ele><time>2026-03-30T08:51:39Z</time></trkpt><trkpt lat="41.923003975048026" lon="12.75454413025803"><ele>69.0</ele><time>2026-03-30T08:51:40Z</time></trkpt><trkpt lat="41.92316339381926" lon="12.754693141031177"><ele>69.0</ele><time>2026-03-30T08:51:41Z</time></trkpt><trkpt lat="41.92332680082302" lon="12.754846523873727"><ele>69.0</ele><time>2026-03-30T08:51:42Z</time></trkpt><trkpt lat="41.9234833681801" lon="12.75500248136349"><ele>69.0</ele><time>2026-03-30T08:51:43Z</time></trkpt><trkpt lat="41.92364090377944" lon="12.755159862653901"><ele>73.0</ele><time>2026-03-30T08:51:44Z</time></trkpt><trkpt lat="41.92379920215254" lon="12.755313521246826"><ele>77.0</ele><time>2026-03-30T08:51:45Z</time></trkpt><trkpt lat="41.92395391836218" lon="12.755460180788319"><ele>81.0</ele><time>2026-03-30T08:51:46Z</time></trkpt><trkpt lat="41.92411007528304" lon="12.755605696903414"><ele>83.0</ele><time>2026-03-30T08:51:47Z</time></trkpt><trkpt lat="41.92425638905953" lon="12.755736743502256"><ele>85.0</ele><time>2026-03-30T08:51:48Z</time></trkpt><trkpt lat="41.92440258238559" lon="12.755836093544438"><ele>87.0</ele><time>2026-03-30T08:51:49Z</time></trkpt><trkpt lat="41.924562838036124" lon="12.755893980106627"><ele>87.0</ele><time>2026-03-30T08:51:50Z</time></trkpt><trkpt lat="41.92473388318542" lon="12.755907544354228"><ele>87.0</ele><time>2026-03-30T08:51:51Z</time></trkpt><trkpt lat="41.92489626345809" lon="12.755853655496663"><ele>87.0</ele><time>2026-03-30T08:51:52Z</time></trkpt><trkpt lat="41.92506292323602" lon="12.755754946519062"><ele>85.66666666666667</ele><time>2026-03-30T08:51:53Z</time></trkpt><trkpt lat="41.925227331251435" lon="12.755627852781574"><ele>84.33333333333334</ele><time>2026-03-30T08:51:54Z</time></trkpt><trkpt lat="41.92538891050218" lon="12.755502562511746"><ele>83.0</ele><time>2026-03-30T08:51:55Z</time></trkpt><trkpt lat="41.92555791314642" lon="12.75538206977099"><ele>83.0</ele><time>2026-03-30T08:51:56Z</time></trkpt><trkpt lat="41.925735285500174" lon="12.75527228560017"><ele>83.0</ele><time>2026-03-30T08:51:57Z</time></trkpt><trkpt lat="41.92592262960449" lon="12.755165398121974"><ele>83.0</ele><time>2026-03-30T08:51:58Z</time></trkpt><trkpt lat="41.92611176276207" lon="12.755062376044645"><ele>80.66666666666667</ele><time>2026-03-30T08:51:59Z</time></trkpt><trkpt lat="41.92630878041208" lon="12.754959070029537"><ele>78.33333333333333</ele><time>2026-03-30T08:52:00Z</time></trkpt><trkpt lat="41.926500376472326" lon="12.754861200373021"><ele>76.0</ele><time>2026-03-30T08:52:01Z</time></trkpt><trkpt lat="41.92669262458733" lon="12.754762795726737"><ele>75.66666666666666</ele><time>2026-03-30T08:52:01.999Z</time></trkpt><trkpt lat="41.926882248469035" lon="12.75466446316201"><ele>75.33333333333333</ele><time>2026-03-30T08:52:02.999Z</time></trkpt><trkpt lat="41.9270683741946" lon="12.754568116994028"><ele>75.0</ele><time>2026-03-30T08:52:03.999Z</time></trkpt><trkpt lat="41.927255342776476" lon="12.754467373038745"><ele>75.0</ele><time>2026-03-30T08:52:04.999Z</time></trkpt><trkpt lat="41.9274358280948" lon="12.75437284545807"><ele>75.0</ele><time>2026-03-30T08:52:05.999Z</time></trkpt><trkpt lat="41.927606072426094" lon="12.75428310167515"><ele>75.0</ele><time>2026-03-30T08:52:06.999Z</time></trkpt><trkpt lat="41.92775778256731" lon="12.754208570349478"><ele>71.66666666666667</ele><time>2026-03-30T08:52:07.999Z</time></trkpt><trkpt lat="41.92791651095201" lon="12.754171398495675"><ele>68.33333333333334</ele><time>2026-03-30T08:52:08.999Z</time></trkpt><trkpt lat="41.92807160210164" lon="12.754139185122757"><ele>65.0</ele><time>2026-03-30T08:52:09.999Z</time></trkpt><trkpt lat="41.92821715291312" lon="12.754152153982155"><ele>65.0</ele><time>2026-03-30T08:52:10.999Z</time></trkpt><trkpt lat="41.92839066948121" lon="12.754224623295237"><ele>65.0</ele><time>2026-03-30T08:52:11.999Z</time></trkpt><trkpt lat="41.92856288413693" lon="12.754304506579265"><ele>65.0</ele><time>2026-03-30T08:52:12.999Z</time></trkpt><trkpt lat="41.928723591642324" lon="12.754404463330404"><ele>63.0</ele><time>2026-03-30T08:52:13.999Z</time></trkpt><trkpt lat="41.928884463191594" lon="12.754500292090384"><ele>61.0</ele><time>2026-03-30T08:52:14.999Z</time></trkpt><trkpt lat="41.9290388814639" lon="12.754597023898244"><ele>59.0</ele><time>2026-03-30T08:52:15.999Z</time></trkpt><trkpt lat="41.929193525313245" lon="12.754691064777656"><ele>59.333333333333336</ele><time>2026-03-30T08:52:16.999Z</time></trkpt><trkpt lat="41.929343021640676" lon="12.754779814994436"><ele>59.66666666666667</ele><time>2026-03-30T08:52:17.999Z</time></trkpt><trkpt lat="41.92948941486835" lon="12.754867840317987"><ele>60.0</ele><time>2026-03-30T08:52:18.999Z</time></trkpt><trkpt lat="41.92963565014241" lon="12.754952835636537"><ele>60.0</ele><time>2026-03-30T08:52:19.999Z</time></trkpt><trkpt lat="41.929783324671085" lon="12.755025822780915"><ele>60.0</ele><time>2026-03-30T08:52:20.999Z</time></trkpt><trkpt lat="41.92993037825477" lon="12.75506365139275"><ele>60.0</ele><time>2026-03-30T08:52:21.999Z</time></trkpt><trkpt lat="41.93008400125445" lon="12.755061533434821"><ele>59.66666666666667</ele><time>2026-03-30T08:52:22.999Z</time></trkpt><trkpt lat="41.93024060414291" lon="12.755002009944135"><ele>59.333333333333336</ele><time>2026-03-30T08:52:23.999Z</time></trkpt><trkpt lat="41.930398444957596" lon="12.754943297832833"><ele>59.0</ele><time>2026-03-30T08:52:24.999Z</time></trkpt><trkpt lat="41.93054679123792" lon="12.754872658259522"><ele>59.0</ele><time>2026-03-30T08:52:25.999Z</time></trkpt><trkpt lat="41.93069044172534" lon="12.754791047928617"><ele>59.0</ele><time>2026-03-30T08:52:26.999Z</time></trkpt><trkpt lat="41.93081842715079" lon="12.754707124242508"><ele>59.0</ele><time>2026-03-30T08:52:27.999Z</time></trkpt><trkpt lat="41.93094428926641" lon="12.754614938640977"><ele>59.0</ele><time>2026-03-30T08:52:28.999Z</time></trkpt><trkpt lat="41.93106154586527" lon="12.754532307814312"><ele>58.75</ele><time>2026-03-30T08:52:29.999Z</time></trkpt><trkpt lat="41.931185539696244" lon="12.754453764882522"><ele>58.5</ele><time>2026-03-30T08:52:30.999Z</time></trkpt><trkpt lat="41.931310787737054" lon="12.754378092360115"><ele>58.25</ele><time>2026-03-30T08:52:31.999Z</time></trkpt><trkpt lat="41.93143316474335" lon="12.75433969375879"><ele>58.0</ele><time>2026-03-30T08:52:32.999Z</time></trkpt><trkpt lat="41.93154419683904" lon="12.754366340339738"><ele>58.0</ele><time>2026-03-30T08:52:33.999Z</time></trkpt><trkpt lat="41.93164118397839" lon="12.75438515712776"><ele>58.0</ele><time>2026-03-30T08:52:34.999Z</time></trkpt><trkpt lat="41.93183829620452" lon="12.754360446729459"><ele>58.0</ele><time>2026-03-30T08:52:35.999Z</time></trkpt><trkpt lat="41.931965567734174" lon="12.754446808558617"><ele>58.0</ele><time>2026-03-30T08:52:36.999Z</time></trkpt><trkpt lat="41.93208631305636" lon="12.754533266562094"><ele>57.5</ele><time>2026-03-30T08:52:37.999Z</time></trkpt><trkpt lat="41.93218797132298" lon="12.754617694767038"><ele>57.0</ele><time>2026-03-30T08:52:38.999Z</time></trkpt><trkpt lat="41.932288504254295" lon="12.754688602721156"><ele>56.5</ele><time>2026-03-30T08:52:39.999Z</time></trkpt><trkpt lat="41.93238619467368" lon="12.754752790834747"><ele>56.0</ele><time>2026-03-30T08:52:40.999Z</time></trkpt><trkpt lat="41.93248964394663" lon="12.754816235640611"><ele>55.75</ele><time>2026-03-30T08:52:41.999Z</time></trkpt><trkpt lat="41.93260335474208" lon="12.754888614815457"><ele>55.5</ele><time>2026-03-30T08:52:42.999Z</time></trkpt><trkpt lat="41.932735060276215" lon="12.754967926267225"><ele>55.25</ele><time>2026-03-30T08:52:43.999Z</time></trkpt><trkpt lat="41.93287626383533" lon="12.755031434321019"><ele>55.0</ele><time>2026-03-30T08:52:44.999Z</time></trkpt><trkpt lat="41.933017635026516" lon="12.755088185452903"><ele>55.0</ele><time>2026-03-30T08:52:45.999Z</time></trkpt><trkpt lat="41.933174138395195" lon="12.755126269418394"><ele>55.0</ele><time>2026-03-30T08:52:46.999Z</time></trkpt><trkpt lat="41.933341858396425" lon="12.755152078785605"><ele>55.0</ele><time>2026-03-30T08:52:47.999Z</time></trkpt><trkpt lat="41.93352834497317" lon="12.75514115552866"><ele>56.33333333333333</ele><time>2026-03-30T08:52:48.999Z</time></trkpt><trkpt lat="41.93372233447048" lon="12.755097929067043"><ele>57.66666666666667</ele><time>2026-03-30T08:52:49.999Z</time></trkpt><trkpt lat="41.933911836091966" lon="12.755052834308055"><ele>59.0</ele><time>2026-03-30T08:52:50.999Z</time></trkpt><trkpt lat="41.9341079609505" lon="12.754988886618339"><ele>60.333333333333336</ele><time>2026-03-30T08:52:51.999Z</time></trkpt><trkpt lat="41.93431005248193" lon="12.754942703827496"><ele>61.66666666666667</ele><time>2026-03-30T08:52:52.999Z</time></trkpt><trkpt lat="41.93451255238049" lon="12.75490656737078"><ele>63.0</ele><time>2026-03-30T08:52:53.999Z</time></trkpt><trkpt lat="41.93471763026407" lon="12.754873267022997"><ele>63.0</ele><time>2026-03-30T08:52:54.999Z</time></trkpt><trkpt lat="41.93492304904821" lon="12.754827673110125"><ele>63.0</ele><time>2026-03-30T08:52:55.999Z</time></trkpt><trkpt lat="41.935122289162074" lon="12.754770402436206"><ele>63.0</ele><time>2026-03-30T08:52:56.999Z</time></trkpt><trkpt lat="41.93531205576863" lon="12.754716869897727"><ele>61.66666666666667</ele><time>2026-03-30T08:52:57.999Z</time></trkpt><trkpt lat="41.93550429358247" lon="12.754673581961825"><ele>60.333333333333336</ele><time>2026-03-30T08:52:58.999Z</time></trkpt><trkpt lat="41.93569655430993" lon="12.754634040852636"><ele>59.0</ele><time>2026-03-30T08:52:59.999Z</time></trkpt><trkpt lat="41.935899351952784" lon="12.754609813776929"><ele>56.0</ele><time>2026-03-30T08:53:00.999Z</time></trkpt><trkpt lat="41.93609767806511" lon="12.754618057921391"><ele>53.0</ele><time>2026-03-30T08:53:01.999Z</time></trkpt><trkpt lat="41.93629417814829" lon="12.754656126097652"><ele>50.0</ele><time>2026-03-30T08:53:02.999Z</time></trkpt><trkpt lat="41.93649063749431" lon="12.754717133419714"><ele>50.0</ele><time>2026-03-30T08:53:03.999Z</time></trkpt><trkpt lat="41.936675818646265" lon="12.754794652013963"><ele>50.0</ele><time>2026-03-30T08:53:04.999Z</time></trkpt><trkpt lat="41.9368483266798" lon="12.754874341445438"><ele>50.0</ele><time>2026-03-30T08:53:05.999Z</time></trkpt><trkpt lat="41.93700730176235" lon="12.754952018958079"><ele>49.66666666666667</ele><time>2026-03-30T08:53:07Z</time></trkpt><trkpt lat="41.93717325267538" lon="12.755019783540266"><ele>49.33333333333333</ele><time>2026-03-30T08:53:08Z</time></trkpt><trkpt lat="41.937329141318216" lon="12.755070603153765"><ele>49.0</ele><time>2026-03-30T08:53:09Z</time></trkpt><trkpt lat="41.93748112648902" lon="12.755120998907241"><ele>49.33333333333333</ele><time>2026-03-30T08:53:10Z</time></trkpt><trkpt lat="41.93764479051842" lon="12.75517191045138"><ele>49.66666666666667</ele><time>2026-03-30T08:53:11Z</time></trkpt><trkpt lat="41.93782315106132" lon="12.755223346361012"><ele>50.0</ele><time>2026-03-30T08:53:12Z</time></trkpt><trkpt lat="41.93801122766201" lon="12.755262005500953"><ele>50.66666666666667</ele><time>2026-03-30T08:53:13Z</time></trkpt><trkpt lat="41.93820666177405" lon="12.75528796973926"><ele>51.33333333333333</ele><time>2026-03-30T08:53:14Z</time></trkpt><trkpt lat="41.93839974979872" lon="12.755294569159759"><ele>52.0</ele><time>2026-03-30T08:53:15Z</time></trkpt><trkpt lat="41.9385808804143" lon="12.755299639229431"><ele>52.0</ele><time>2026-03-30T08:53:16Z</time></trkpt><trkpt lat="41.938743880529316" lon="12.755312362330532"><ele>52.0</ele><time>2026-03-30T08:53:17Z</time></trkpt><trkpt lat="41.93889671622609" lon="12.755323623386815"><ele>52.0</ele><time>2026-03-30T08:53:18Z</time></trkpt><trkpt lat="41.93904504340384" lon="12.755341745938367"><ele>52.0</ele><time>2026-03-30T08:53:19Z</time></trkpt><trkpt lat="41.93917208282587" lon="12.755353574280031"><ele>52.0</ele><time>2026-03-30T08:53:20Z</time></trkpt><trkpt lat="41.9392830948735" lon="12.755366708636421"><ele>52.0</ele><time>2026-03-30T08:53:21Z</time></trkpt><trkpt lat="41.93936115923019" lon="12.755382133088695"><ele>52.0</ele><time>2026-03-30T08:53:22Z</time></trkpt><trkpt lat="41.93944042877952" lon="12.755432197156075"><ele>52.0</ele><time>2026-03-30T08:53:24Z</time></trkpt><trkpt lat="41.93949268248891" lon="12.75565406788066"><ele>52.400000000000006</ele><time>2026-03-30T08:53:27Z</time></trkpt><trkpt lat="41.93951274809372" lon="12.755802996350829"><ele>52.800000000000004</ele><time>2026-03-30T08:53:29Z</time></trkpt><trkpt lat="41.93949822471659" lon="12.755955040713937"><ele>53.2</ele><time>2026-03-30T08:53:31Z</time></trkpt><trkpt lat="41.939481743167555" lon="12.756067343668843"><ele>53.6</ele><time>2026-03-30T08:53:33Z</time></trkpt><trkpt lat="41.93954411978201" lon="12.75614222777532"><ele>54.0</ele><time>2026-03-30T08:53:35Z</time></trkpt><trkpt lat="41.939617733432236" lon="12.756100925202457"><ele>54.0</ele><time>2026-03-30T08:53:36Z</time></trkpt><trkpt lat="41.939695834351824" lon="12.7560768836241"><ele>54.00000000000001</ele><time>2026-03-30T08:53:37Z</time></trkpt><trkpt lat="41.939802361844166" lon="12.756076143835498"><ele>54.00000000000001</ele><time>2026-03-30T08:53:38Z</time></trkpt><trkpt lat="41.939912974591074" lon="12.756079580213074"><ele>54.0</ele><time>2026-03-30T08:53:39Z</time></trkpt><trkpt lat="41.94002219750912" lon="12.75608210669865"><ele>54.0</ele><time>2026-03-30T08:53:40Z</time></trkpt><trkpt lat="41.940134291618676" lon="12.756086128974893"><ele>54.75</ele><time>2026-03-30T08:53:41Z</time></trkpt><trkpt lat="41.94025627422176" lon="12.756092261481534"><ele>55.5</ele><time>2026-03-30T08:53:42Z</time></trkpt><trkpt lat="41.940383274368585" lon="12.756104430261871"><ele>56.25</ele><time>2026-03-30T08:53:43Z</time></trkpt><trkpt lat="41.94049997081338" lon="12.756110563027002"><ele>57.0</ele><time>2026-03-30T08:53:44Z</time></trkpt><trkpt lat="41.94061789049178" lon="12.756113888434722"><ele>57.0</ele><time>2026-03-30T08:53:45Z</time></trkpt><trkpt lat="41.940731118438315" lon="12.756121333378022"><ele>57.0</ele><time>2026-03-30T08:53:46Z</time></trkpt><trkpt lat="41.94084179679055" lon="12.75613501703099"><ele>57.0</ele><time>2026-03-30T08:53:47Z</time></trkpt><trkpt lat="41.94093442102258" lon="12.756165278039813"><ele>57.0</ele><time>2026-03-30T08:53:48Z</time></trkpt><trkpt lat="41.94101552719682" lon="12.756217794735122"><ele>57.0</ele><time>2026-03-30T08:53:49Z</time></trkpt><trkpt lat="41.941069658967095" lon="12.756294089481356"><ele>57.5</ele><time>2026-03-30T08:53:50Z</time></trkpt><trkpt lat="41.94110982118854" lon="12.756390859038957"><ele>58.0</ele><time>2026-03-30T08:53:51Z</time></trkpt><trkpt lat="41.94113217773681" lon="12.756499270616045"><ele>58.5</ele><time>2026-03-30T08:53:52Z</time></trkpt><trkpt lat="41.94113264999821" lon="12.75662598705174"><ele>59.0</ele><time>2026-03-30T08:53:53Z</time></trkpt><trkpt lat="41.9411195125204" lon="12.7567464988919"><ele>59.5</ele><time>2026-03-30T08:53:54Z</time></trkpt><trkpt lat="41.94110320798644" lon="12.756854740994395"><ele>60.0</ele><time>2026-03-30T08:53:55Z</time></trkpt><trkpt lat="41.94108867120852" lon="12.756978501308485"><ele>61.33333333333333</ele><time>2026-03-30T08:53:57Z</time></trkpt><trkpt lat="41.941000590724194" lon="12.757120825145652"><ele>62.666666666666664</ele><time>2026-03-30T08:53:58Z</time></trkpt><trkpt lat="41.941198402593535" lon="12.757151098733722"><ele>64.0</ele><time>2026-03-30T08:53:59Z</time></trkpt><trkpt lat="41.9413593293046" lon="12.756913830507797"><ele>63.33333333333333</ele><time>2026-03-30T08:54:01Z</time></trkpt><trkpt lat="41.94144390471589" lon="12.756862595298184"><ele>62.666666666666664</ele><time>2026-03-30T08:54:02Z</time></trkpt><trkpt lat="41.9415286085634" lon="12.756788712783719"><ele>62.0</ele><time>2026-03-30T08:54:03Z</time></trkpt><trkpt lat="41.94159725958243" lon="12.756707994612308"><ele>61.33333333333333</ele><time>2026-03-30T08:54:03.999Z</time></trkpt><trkpt lat="41.9416326321778" lon="12.756599476501757"><ele>60.666666666666664</ele><time>2026-03-30T08:54:04.999Z</time></trkpt><trkpt lat="41.94165450575236" lon="12.756503448801944"><ele>60.0</ele><time>2026-03-30T08:54:05.999Z</time></trkpt><trkpt lat="41.941679438134464" lon="12.756401795976668"><ele>60.0</ele><time>2026-03-30T08:54:06.999Z</time></trkpt><trkpt lat="41.94168906034237" lon="12.756305917535457"><ele>60.0</ele><time>2026-03-30T08:54:07.999Z</time></trkpt><trkpt lat="41.941722100497195" lon="12.756170448942209"><ele>60.0</ele><time>2026-03-30T08:54:09.999Z</time></trkpt><trkpt lat="41.941802818661856" lon="12.756060679914379"><ele>60.0</ele><time>2026-03-30T08:54:11.999Z</time></trkpt><trkpt lat="41.94187440201103" lon="12.756045241377286"><ele>60.0</ele><time>2026-03-30T08:54:12.999Z</time></trkpt><trkpt lat="41.9419404002195" lon="12.756035465021345"><ele>60.0</ele><time>2026-03-30T08:54:13.999Z</time></trkpt><trkpt lat="41.942003673476435" lon="12.75606261776529"><ele>59.0</ele><time>2026-03-30T08:54:14.999Z</time></trkpt><trkpt lat="41.942096338512165" lon="12.756109194246879"><ele>58.0</ele><time>2026-03-30T08:54:16.999Z</time></trkpt><trkpt lat="41.94218218347791" lon="12.756209761981072"><ele>57.0</ele><time>2026-03-30T08:54:18.999Z</time></trkpt><trkpt lat="41.942204831664704" lon="12.756295147585279"><ele>56.0</ele><time>2026-03-30T08:54:19.999Z</time></trkpt><trkpt lat="41.94221840210511" lon="12.756391705382892"><ele>55.0</ele><time>2026-03-30T08:54:20.999Z</time></trkpt><trkpt lat="41.9422153317158" lon="12.756490660203394"><ele>54.0</ele><time>2026-03-30T08:54:21.999Z</time></trkpt><trkpt lat="41.9422010705948" lon="12.756584539282485"><ele>54.0</ele><time>2026-03-30T08:54:22.999Z</time></trkpt><trkpt lat="41.94217808914539" lon="12.756669187947553"><ele>54.0</ele><time>2026-03-30T08:54:23.999Z</time></trkpt><trkpt lat="41.94214973740181" lon="12.75674721814586"><ele>54.0</ele><time>2026-03-30T08:54:24.999Z</time></trkpt><trkpt lat="41.94211122921362" lon="12.756820783680396"><ele>54.0</ele><time>2026-03-30T08:54:25.999Z</time></trkpt><trkpt lat="41.94206577897053" lon="12.75688243268059"><ele>54.0</ele><time>2026-03-30T08:54:26.999Z</time></trkpt><trkpt lat="41.94202066985293" lon="12.756944478816708"><ele>54.0</ele><time>2026-03-30T08:54:27.999Z</time></trkpt><trkpt lat="41.941973289770296" lon="12.75701949367149"><ele>54.0</ele><time>2026-03-30T08:54:28.999Z</time></trkpt><trkpt lat="41.94188888471967" lon="12.757224194841914"><ele>54.2</ele><time>2026-03-30T08:54:31.999Z</time></trkpt><trkpt lat="41.94190725881205" lon="12.757323706667771"><ele>54.400000000000006</ele><time>2026-03-30T08:54:33.999Z</time></trkpt><trkpt lat="41.94202794585287" lon="12.757405259205784"><ele>54.6</ele><time>2026-03-30T08:54:37.999Z</time></trkpt><trkpt lat="41.9421195177907" lon="12.757409389206861"><ele>54.8</ele><time>2026-03-30T08:54:38.999Z</time></trkpt><trkpt lat="41.9422187731562" lon="12.757409109632283"><ele>55.0</ele><time>2026-03-30T08:54:39.999Z</time></trkpt><trkpt lat="41.94232528149701" lon="12.757418977356078"><ele>55.0</ele><time>2026-03-30T08:54:40.999Z</time></trkpt><trkpt lat="41.942426739025876" lon="12.75742740664978"><ele>55.0</ele><time>2026-03-30T08:54:41.999Z</time></trkpt><trkpt lat="41.942520109893636" lon="12.75743376170395"><ele>55.0</ele><time>2026-03-30T08:54:42.999Z</time></trkpt><trkpt lat="41.94260790485162" lon="12.757448850267634"><ele>55.0</ele><time>2026-03-30T08:54:43.999Z</time></trkpt><trkpt lat="41.94269513459975" lon="12.75746332858476"><ele>55.0</ele><time>2026-03-30T08:54:44.999Z</time></trkpt><trkpt lat="41.94277512726289" lon="12.757484393351644"><ele>53.83333333333333</ele><time>2026-03-30T08:54:45.999Z</time></trkpt><trkpt lat="41.94284303370287" lon="12.757511295072199"><ele>52.666666666666664</ele><time>2026-03-30T08:54:46.999Z</time></trkpt><trkpt lat="41.942940503051965" lon="12.757519114133355"><ele>51.5</ele><time>2026-03-30T08:54:48.999Z</time></trkpt><trkpt lat="41.94297741916155" lon="12.75767038882615"><ele>50.33333333333333</ele><time>2026-03-30T08:54:50.999Z</time></trkpt><trkpt lat="41.94300387848441" lon="12.757750907987534"><ele>49.166666666666664</ele><time>2026-03-30T08:54:51.999Z</time></trkpt><trkpt lat="41.94303460372404" lon="12.757856515682251"><ele>48.0</ele><time>2026-03-30T08:54:52.999Z</time></trkpt><trkpt lat="41.94306041408177" lon="12.75796285152248"><ele>48.0</ele><time>2026-03-30T08:54:53.999Z</time></trkpt><trkpt lat="41.943088515094786" lon="12.758091571984558"><ele>48.0</ele><time>2026-03-30T08:54:54.999Z</time></trkpt><trkpt lat="41.9431296274369" lon="12.758249010115406"><ele>48.0</ele><time>2026-03-30T08:54:55.999Z</time></trkpt><trkpt lat="41.943173137663635" lon="12.758416429390463"><ele>48.0</ele><time>2026-03-30T08:54:56.999Z</time></trkpt><trkpt lat="41.943234894165755" lon="12.758568975902403"><ele>48.0</ele><time>2026-03-30T08:54:57.999Z</time></trkpt><trkpt lat="41.94331878207417" lon="12.7587161806757"><ele>48.0</ele><time>2026-03-30T08:54:58.999Z</time></trkpt><trkpt lat="41.943417448563864" lon="12.758859926788476"><ele>48.0</ele><time>2026-03-30T08:54:59.999Z</time></trkpt><trkpt lat="41.94352630523157" lon="12.759000792235057"><ele>48.0</ele><time>2026-03-30T08:55:00.999Z</time></trkpt><trkpt lat="41.94365516081015" lon="12.759126851491594"><ele>48.0</ele><time>2026-03-30T08:55:01.999Z</time></trkpt><trkpt lat="41.94379303117349" lon="12.759226760902346"><ele>48.0</ele><time>2026-03-30T08:55:02.999Z</time></trkpt><trkpt lat="41.943937049722756" lon="12.759300522162508"><ele>48.0</ele><time>2026-03-30T08:55:03.999Z</time></trkpt><trkpt lat="41.944096051845655" lon="12.759355600506288"><ele>50.0</ele><time>2026-03-30T08:55:04.999Z</time></trkpt><trkpt lat="41.94426205308064" lon="12.75940389873353"><ele>52.0</ele><time>2026-03-30T08:55:05.999Z</time></trkpt><trkpt lat="41.94443583108961" lon="12.759449895072462"><ele>54.0</ele><time>2026-03-30T08:55:06.999Z</time></trkpt><trkpt lat="41.94461255265726" lon="12.75950089830453"><ele>54.0</ele><time>2026-03-30T08:55:07.999Z</time></trkpt><trkpt lat="41.94477730347479" lon="12.759552390413974"><ele>54.0</ele><time>2026-03-30T08:55:08.999Z</time></trkpt><trkpt lat="41.94492931136307" lon="12.75959937859013"><ele>54.0</ele><time>2026-03-30T08:55:09.999Z</time></trkpt><trkpt lat="41.94507890266433" lon="12.759648157966335"><ele>52.66666666666667</ele><time>2026-03-30T08:55:10.999Z</time></trkpt><trkpt lat="41.9452345451864" lon="12.759701905668493"><ele>51.333333333333336</ele><time>2026-03-30T08:55:11.999Z</time></trkpt><trkpt lat="41.94538460235936" lon="12.759755824304552"><ele>50.0</ele><time>2026-03-30T08:55:13Z</time></trkpt><trkpt lat="41.94554456904401" lon="12.75980245132705"><ele>50.0</ele><time>2026-03-30T08:55:14Z</time></trkpt><trkpt lat="41.94571813834996" lon="12.759847040668205"><ele>50.0</ele><time>2026-03-30T08:55:15Z</time></trkpt><trkpt lat="41.945892942128474" lon="12.759889285655106"><ele>50.0</ele><time>2026-03-30T08:55:16Z</time></trkpt><trkpt lat="41.94606681726463" lon="12.759933353492904"><ele>49.333333333333336</ele><time>2026-03-30T08:55:17Z</time></trkpt><trkpt lat="41.946242151757694" lon="12.759981199695059"><ele>48.66666666666667</ele><time>2026-03-30T08:55:18Z</time></trkpt><trkpt lat="41.946418684022795" lon="12.760031328074305"><ele>48.0</ele><time>2026-03-30T08:55:19Z</time></trkpt><trkpt lat="41.946598476273834" lon="12.760082258722651"><ele>48.0</ele><time>2026-03-30T08:55:20Z</time></trkpt><trkpt lat="41.94676504766392" lon="12.760134711662646"><ele>48.0</ele><time>2026-03-30T08:55:21Z</time></trkpt><trkpt lat="41.94692218490425" lon="12.760181076574915"><ele>48.0</ele><time>2026-03-30T08:55:22Z</time></trkpt><trkpt lat="41.947066054352824" lon="12.76022572131024"><ele>48.0</ele><time>2026-03-30T08:55:23Z</time></trkpt><trkpt lat="41.947201779168836" lon="12.760267537399715"><ele>48.0</ele><time>2026-03-30T08:55:24Z</time></trkpt><trkpt lat="41.94732866039664" lon="12.76030326114439"><ele>48.0</ele><time>2026-03-30T08:55:25Z</time></trkpt><trkpt lat="41.94744322929348" lon="12.760337449077296"><ele>48.0</ele><time>2026-03-30T08:55:26Z</time></trkpt><trkpt lat="41.94755579954864" lon="12.760372256384295"><ele>48.0</ele><time>2026-03-30T08:55:27Z</time></trkpt><trkpt lat="41.94765451921536" lon="12.760404112075998"><ele>48.0</ele><time>2026-03-30T08:55:28Z</time></trkpt><trkpt lat="41.94775608866407" lon="12.76042731291616"><ele>48.0</ele><time>2026-03-30T08:55:29Z</time></trkpt><trkpt lat="41.94782568834891" lon="12.760450389721896"><ele>48.0</ele><time>2026-03-30T08:55:30Z</time></trkpt><trkpt lat="41.94790537106451" lon="12.76048490466337"><ele>48.0</ele><time>2026-03-30T08:55:32Z</time></trkpt><trkpt lat="41.947913665934266" lon="12.760629110946553"><ele>48.0</ele><time>2026-03-30T08:55:34Z</time></trkpt><trkpt lat="41.9479393196215" lon="12.760741268173957"><ele>48.0</ele><time>2026-03-30T08:55:36Z</time></trkpt><trkpt lat="41.94790968643968" lon="12.76083536197804"><ele>48.0</ele><time>2026-03-30T08:55:37Z</time></trkpt><trkpt lat="41.94786754658338" lon="12.760997029185601"><ele>48.0</ele><time>2026-03-30T08:55:39Z</time></trkpt><trkpt lat="41.94785203060833" lon="12.761089345943539"><ele>48.0</ele><time>2026-03-30T08:55:40Z</time></trkpt><trkpt lat="41.94783728279883" lon="12.76118935467875"><ele>48.0</ele><time>2026-03-30T08:55:41Z</time></trkpt><trkpt lat="41.94783405983791" lon="12.761280063743946"><ele>48.0</ele><time>2026-03-30T08:55:42Z</time></trkpt><trkpt lat="41.94782952400082" lon="12.761408895563958"><ele>48.0</ele><time>2026-03-30T08:55:44Z</time></trkpt><trkpt lat="41.9479702403949" lon="12.761486541170955"><ele>48.0</ele><time>2026-03-30T08:55:48Z</time></trkpt><trkpt lat="41.948089764379866" lon="12.761514713930632"><ele>48.0</ele><time>2026-03-30T08:55:50Z</time></trkpt><trkpt lat="41.94819253850809" lon="12.76153893861436"><ele>48.0</ele><time>2026-03-30T08:55:52Z</time></trkpt><trkpt lat="41.94819030137203" lon="12.761777244603714"><ele>48.0</ele><time>2026-03-30T08:55:53Z</time></trkpt><trkpt lat="41.94821116398853" lon="12.761905784194221"><ele>48.0</ele><time>2026-03-30T08:55:54Z</time></trkpt><trkpt lat="41.948244871514476" lon="12.76205564335915"><ele>48.0</ele><time>2026-03-30T08:55:55Z</time></trkpt><trkpt lat="41.948287548868414" lon="12.762224084704494"><ele>47.75</ele><time>2026-03-30T08:55:55.999Z</time></trkpt><trkpt lat="41.948330977796395" lon="12.762387763861613"><ele>47.5</ele><time>2026-03-30T08:55:56.999Z</time></trkpt><trkpt lat="41.94837333535228" lon="12.762544379117399"><ele>47.25</ele><time>2026-03-30T08:55:57.999Z</time></trkpt><trkpt lat="41.94841163492016" lon="12.762703132054586"><ele>47.0</ele><time>2026-03-30T08:55:58.999Z</time></trkpt><trkpt lat="41.948455767195156" lon="12.762872659487662"><ele>48.0</ele><time>2026-03-30T08:55:59.999Z</time></trkpt><trkpt lat="41.9484979202216" lon="12.76304138838394"><ele>49.0</ele><time>2026-03-30T08:56:00.999Z</time></trkpt><trkpt lat="41.94853645322666" lon="12.763207476584638"><ele>50.0</ele><time>2026-03-30T08:56:01.999Z</time></trkpt><trkpt lat="41.94857721529924" lon="12.763373082011709"><ele>51.0</ele><time>2026-03-30T08:56:02.999Z</time></trkpt><trkpt lat="41.94861743634271" lon="12.763537473142001"><ele>51.5</ele><time>2026-03-30T08:56:03.999Z</time></trkpt><trkpt lat="41.94865728071403" lon="12.763700999151455"><ele>52.0</ele><time>2026-03-30T08:56:04.999Z</time></trkpt><trkpt lat="41.94869848280411" lon="12.76386317582304"><ele>52.5</ele><time>2026-03-30T08:56:05.999Z</time></trkpt><trkpt lat="41.94873780950812" lon="12.764021797884698"><ele>53.0</ele><time>2026-03-30T08:56:06.999Z</time></trkpt><trkpt lat="41.94877770993694" lon="12.764178617099983"><ele>53.0</ele><time>2026-03-30T08:56:07.999Z</time></trkpt><trkpt lat="41.948815566889216" lon="12.764326569239751"><ele>53.0</ele><time>2026-03-30T08:56:08.999Z</time></trkpt><trkpt lat="41.94884811247514" lon="12.76447180594986"><ele>53.0</ele><time>2026-03-30T08:56:09.999Z</time></trkpt><trkpt lat="41.94887948992071" lon="12.764608638643152"><ele>53.0</ele><time>2026-03-30T08:56:10.999Z</time></trkpt><trkpt lat="41.9489219485082" lon="12.764752141895375"><ele>53.0</ele><time>2026-03-30T08:56:11.999Z</time></trkpt><trkpt lat="41.94897628388511" lon="12.76490548161459"><ele>53.0</ele><time>2026-03-30T08:56:12.999Z</time></trkpt><trkpt lat="41.94901262636772" lon="12.765082662819594"><ele>53.0</ele><time>2026-03-30T08:56:13.999Z</time></trkpt><trkpt lat="41.94905737494949" lon="12.765261760253969"><ele>53.0</ele><time>2026-03-30T08:56:14.999Z</time></trkpt><trkpt lat="41.94912588365481" lon="12.765449416156331"><ele>53.0</ele><time>2026-03-30T08:56:15.999Z</time></trkpt><trkpt lat="41.94917250083581" lon="12.765650706206884"><ele>53.0</ele><time>2026-03-30T08:56:16.999Z</time></trkpt><trkpt lat="41.9492118825655" lon="12.765824009483373"><ele>53.0</ele><time>2026-03-30T08:56:17.999Z</time></trkpt><trkpt lat="41.94925329562862" lon="12.766004857540455"><ele>53.0</ele><time>2026-03-30T08:56:18.999Z</time></trkpt><trkpt lat="41.949298181164906" lon="12.76617439912708"><ele>53.5</ele><time>2026-03-30T08:56:19.999Z</time></trkpt><trkpt lat="41.94934905006487" lon="12.766320526177571"><ele>54.0</ele><time>2026-03-30T08:56:20.999Z</time></trkpt><trkpt lat="41.949409403645326" lon="12.766477142206785"><ele>54.5</ele><time>2026-03-30T08:56:21.999Z</time></trkpt><trkpt lat="41.94946648280723" lon="12.766624655243158"><ele>55.0</ele><time>2026-03-30T08:56:22.999Z</time></trkpt><trkpt lat="41.94951091194335" lon="12.766790557127791"><ele>55.75</ele><time>2026-03-30T08:56:23.999Z</time></trkpt><trkpt lat="41.949545675732814" lon="12.766975892980895"><ele>56.5</ele><time>2026-03-30T08:56:24.999Z</time></trkpt><trkpt lat="41.94956242131615" lon="12.767157562265586"><ele>57.25</ele><time>2026-03-30T08:56:25.999Z</time></trkpt><trkpt lat="41.94957060438833" lon="12.767344712490605"><ele>58.0</ele><time>2026-03-30T08:56:26.999Z</time></trkpt><trkpt lat="41.94958150154167" lon="12.767532450246167"><ele>58.25</ele><time>2026-03-30T08:56:27.999Z</time></trkpt><trkpt lat="41.9495943413092" lon="12.767730993378647"><ele>58.5</ele><time>2026-03-30T08:56:28.999Z</time></trkpt><trkpt lat="41.949621968793494" lon="12.76792296540957"><ele>58.75</ele><time>2026-03-30T08:56:29.999Z</time></trkpt><trkpt lat="41.94966215207117" lon="12.768112678248247"><ele>59.0</ele><time>2026-03-30T08:56:30.999Z</time></trkpt><trkpt lat="41.949708231435125" lon="12.76828725671606"><ele>59.0</ele><time>2026-03-30T08:56:31.999Z</time></trkpt><trkpt lat="41.949757672634014" lon="12.768462261148477"><ele>59.0</ele><time>2026-03-30T08:56:32.999Z</time></trkpt><trkpt lat="41.94980653217369" lon="12.768630174805246"><ele>59.0</ele><time>2026-03-30T08:56:33.999Z</time></trkpt><trkpt lat="41.949853661084695" lon="12.768793574929973"><ele>59.0</ele><time>2026-03-30T08:56:34.999Z</time></trkpt><trkpt lat="41.949898584204014" lon="12.768948662710335"><ele>59.0</ele><time>2026-03-30T08:56:35.999Z</time></trkpt><trkpt lat="41.94994133990404" lon="12.769103602971343"><ele>59.00000000000001</ele><time>2026-03-30T08:56:36.999Z</time></trkpt><trkpt lat="41.94997721754333" lon="12.769249708012808"><ele>59.00000000000001</ele><time>2026-03-30T08:56:37.999Z</time></trkpt><trkpt lat="41.95001538394825" lon="12.76936438495424"><ele>59.0</ele><time>2026-03-30T08:56:38.999Z</time></trkpt><trkpt lat="41.95005712964311" lon="12.76947715405602"><ele>59.0</ele><time>2026-03-30T08:56:39.999Z</time></trkpt><trkpt lat="41.95009762565518" lon="12.769573351560895"><ele>59.6</ele><time>2026-03-30T08:56:40.999Z</time></trkpt><trkpt lat="41.95014009427624" lon="12.769684057289364"><ele>60.2</ele><time>2026-03-30T08:56:41.999Z</time></trkpt><trkpt lat="41.95018749542876" lon="12.769792569615037"><ele>60.800000000000004</ele><time>2026-03-30T08:56:42.999Z</time></trkpt><trkpt lat="41.95023897684646" lon="12.769899284721186"><ele>61.400000000000006</ele><time>2026-03-30T08:56:43.999Z</time></trkpt><trkpt lat="41.95028868884009" lon="12.770009508716031"><ele>62.0</ele><time>2026-03-30T08:56:44.999Z</time></trkpt><trkpt lat="41.95033586832075" lon="12.77011797312504"><ele>62.0</ele><time>2026-03-30T08:56:45.999Z</time></trkpt><trkpt lat="41.950381429499686" lon="12.770216455796717"><ele>62.0</ele><time>2026-03-30T08:56:46.999Z</time></trkpt><trkpt lat="41.950420574407" lon="12.770305276435991"><ele>62.0</ele><time>2026-03-30T08:56:47.999Z</time></trkpt><trkpt lat="41.950479038921394" lon="12.770424843996357"><ele>62.0</ele><time>2026-03-30T08:56:49.999Z</time></trkpt><trkpt lat="41.950525175361854" lon="12.770488181217429"><ele>62.0</ele><time>2026-03-30T08:56:53.999Z</time></trkpt><trkpt lat="41.95062854179917" lon="12.770368235251139"><ele>62.00000000000001</ele><time>2026-03-30T08:56:54.999Z</time></trkpt><trkpt lat="41.950666172643245" lon="12.770253548131487"><ele>62.0</ele><time>2026-03-30T08:56:55.999Z</time></trkpt><trkpt lat="41.950707979902205" lon="12.770168956641426"><ele>62.0</ele><time>2026-03-30T08:56:56.999Z</time></trkpt><trkpt lat="41.95076156486567" lon="12.770071387382194"><ele>62.0</ele><time>2026-03-30T08:56:57.999Z</time></trkpt><trkpt lat="41.95081616608258" lon="12.769977885386666"><ele>62.00000000000001</ele><time>2026-03-30T08:56:58.999Z</time></trkpt><trkpt lat="41.95086859479657" lon="12.76988333459248"><ele>62.0</ele><time>2026-03-30T08:56:59.999Z</time></trkpt><trkpt lat="41.950909136954834" lon="12.769802815771373"><ele>61.25</ele><time>2026-03-30T08:57:00.999Z</time></trkpt><trkpt lat="41.95103093974385" lon="12.769539630463825"><ele>60.5</ele><time>2026-03-30T08:57:02.999Z</time></trkpt><trkpt lat="41.95109240521696" lon="12.769466412247162"><ele>59.75</ele><time>2026-03-30T08:57:03.999Z</time></trkpt><trkpt lat="41.95113859179677" lon="12.769393451915425"><ele>59.0</ele><time>2026-03-30T08:57:04.999Z</time></trkpt><trkpt lat="41.95127197999622" lon="12.76934029318578"><ele>59.00000000000001</ele><time>2026-03-30T08:57:06.999Z</time></trkpt><trkpt lat="41.951361303295826" lon="12.769294082644857"><ele>59.0</ele><time>2026-03-30T08:57:08.999Z</time></trkpt><trkpt lat="41.95142946892985" lon="12.76926033076709"><ele>59.0</ele><time>2026-03-30T08:57:10.999Z</time></trkpt><trkpt lat="41.951501941905406" lon="12.769227587635125"><ele>59.0</ele><time>2026-03-30T08:57:13.999Z</time></trkpt><trkpt lat="41.95158563604029" lon="12.769173267122124"><ele>59.00000000000001</ele><time>2026-03-30T08:57:16.999Z</time></trkpt><trkpt lat="41.95164943325289" lon="12.769134757372298"><ele>59.0</ele><time>2026-03-30T08:57:19Z</time></trkpt><trkpt lat="41.951717481762024" lon="12.769104179364069"><ele>59.00000000000001</ele><time>2026-03-30T08:57:21Z</time></trkpt><trkpt lat="41.95178660976542" lon="12.769075328708029"><ele>59.0</ele><time>2026-03-30T08:57:23Z</time></trkpt><trkpt lat="41.95186724833124" lon="12.769051786056155"><ele>59.0</ele><time>2026-03-30T08:57:25Z</time></trkpt><trkpt lat="41.95194227515083" lon="12.769139584772041"><ele>59.0</ele><time>2026-03-30T08:57:28Z</time></trkpt><trkpt lat="41.951979475119316" lon="12.769231412718403"><ele>59.00000000000001</ele><time>2026-03-30T08:57:30Z</time></trkpt><trkpt lat="41.9520116892499" lon="12.769332023168138"><ele>59.0</ele><time>2026-03-30T08:57:32Z</time></trkpt><trkpt lat="41.952051619336785" lon="12.769461929909452"><ele>59.00000000000001</ele><time>2026-03-30T08:57:34Z</time></trkpt><trkpt lat="41.952090435378075" lon="12.769563334157413"><ele>59.0</ele><time>2026-03-30T08:57:36Z</time></trkpt><trkpt lat="41.952128800346465" lon="12.769683880570637"><ele>59.0</ele><time>2026-03-30T08:57:38Z</time></trkpt><trkpt lat="41.95216831150682" lon="12.769814584557427"><ele>59.0</ele><time>2026-03-30T08:57:40Z</time></trkpt><trkpt lat="41.95220664967704" lon="12.769918176910783"><ele>59.00000000000001</ele><time>2026-03-30T08:57:42Z</time></trkpt><trkpt lat="41.95224128710641" lon="12.77000251453068"><ele>59.0</ele><time>2026-03-30T08:57:45Z</time></trkpt><trkpt lat="41.95234068178313" lon="12.770045932277215"><ele>59.0</ele><time>2026-03-30T08:57:50Z</time></trkpt><trkpt lat="41.95244542912802" lon="12.76998152174224"><ele>59.00000000000001</ele><time>2026-03-30T08:57:51Z</time></trkpt><trkpt lat="41.95254638050868" lon="12.769928898658218"><ele>59.00000000000001</ele><time>2026-03-30T08:57:52Z</time></trkpt><trkpt lat="41.952646889192486" lon="12.769892064189792"><ele>59.0</ele><time>2026-03-30T08:57:53Z</time></trkpt><trkpt lat="41.952726928491266" lon="12.76983741799841"><ele>59.0</ele><time>2026-03-30T08:57:53.999Z</time></trkpt><trkpt lat="41.95279975244062" lon="12.769793882180263"><ele>59.2</ele><time>2026-03-30T08:57:54.999Z</time></trkpt><trkpt lat="41.95286393170913" lon="12.769766015946939"><ele>59.400000000000006</ele><time>2026-03-30T08:57:55.999Z</time></trkpt><trkpt lat="41.952951903761296" lon="12.769713807657705"><ele>59.6</ele><time>2026-03-30T08:57:57.999Z</time></trkpt><trkpt lat="41.95303504807981" lon="12.769682239937097"><ele>59.8</ele><time>2026-03-30T08:58:00.999Z</time></trkpt><trkpt lat="41.95311705597172" lon="12.769830775803348"><ele>60.0</ele><time>2026-03-30T08:58:04.999Z</time></trkpt><trkpt lat="41.95314142109687" lon="12.770008473435336"><ele>60.0</ele><time>2026-03-30T08:58:06.999Z</time></trkpt><trkpt lat="41.953158364583274" lon="12.770102201173641"><ele>60.0</ele><time>2026-03-30T08:58:07.999Z</time></trkpt><trkpt lat="41.95318221852925" lon="12.770191982390955"><ele>60.0</ele><time>2026-03-30T08:58:08.999Z</time></trkpt><trkpt lat="41.95323117217725" lon="12.770329156323035"><ele>60.0</ele><time>2026-03-30T08:58:10.999Z</time></trkpt><trkpt lat="41.953251894091316" lon="12.770412818663308"><ele>60.0</ele><time>2026-03-30T08:58:11.999Z</time></trkpt><trkpt lat="41.95328603976191" lon="12.770568654445166"><ele>60.0</ele><time>2026-03-30T08:58:13.999Z</time></trkpt><trkpt lat="41.953330066995235" lon="12.770734911931111"><ele>60.5</ele><time>2026-03-30T08:58:15.999Z</time></trkpt><trkpt lat="41.95337375104409" lon="12.770864448356633"><ele>61.0</ele><time>2026-03-30T08:58:16.999Z</time></trkpt><trkpt lat="41.95343296333575" lon="12.771026533806113"><ele>61.5</ele><time>2026-03-30T08:58:17.999Z</time></trkpt><trkpt lat="41.95349660574707" lon="12.771218233217452"><ele>62.0</ele><time>2026-03-30T08:58:18.999Z</time></trkpt><trkpt lat="41.953561172878565" lon="12.771408454002964"><ele>62.0</ele><time>2026-03-30T08:58:19.999Z</time></trkpt><trkpt lat="41.953624074115915" lon="12.771621589746344"><ele>62.0</ele><time>2026-03-30T08:58:20.999Z</time></trkpt><trkpt lat="41.95368798798487" lon="12.771836458278335"><ele>62.0</ele><time>2026-03-30T08:58:21.999Z</time></trkpt><trkpt lat="41.953756306492636" lon="12.772051695535293"><ele>62.333333333333336</ele><time>2026-03-30T08:58:22.999Z</time></trkpt><trkpt lat="41.95382988891732" lon="12.77227764467327"><ele>62.66666666666667</ele><time>2026-03-30T08:58:23.999Z</time></trkpt><trkpt lat="41.95389716758022" lon="12.772495116751255"><ele>63.0</ele><time>2026-03-30T08:58:24.999Z</time></trkpt><trkpt lat="41.95395651778374" lon="12.772691329492302"><ele>63.33333333333333</ele><time>2026-03-30T08:58:25.999Z</time></trkpt><trkpt lat="41.95401817567882" lon="12.772889240095662"><ele>63.666666666666664</ele><time>2026-03-30T08:58:26.999Z</time></trkpt><trkpt lat="41.95407852263686" lon="12.773095044667402"><ele>64.0</ele><time>2026-03-30T08:58:27.999Z</time></trkpt><trkpt lat="41.95414237615149" lon="12.773313180399908"><ele>64.0</ele><time>2026-03-30T08:58:28.999Z</time></trkpt><trkpt lat="41.95420444573705" lon="12.773520558168444"><ele>64.0</ele><time>2026-03-30T08:58:29.999Z</time></trkpt><trkpt lat="41.95426646791084" lon="12.77373118576227"><ele>64.0</ele><time>2026-03-30T08:58:30.999Z</time></trkpt><trkpt lat="41.95432591901854" lon="12.773940069897677"><ele>66.0</ele><time>2026-03-30T08:58:31.999Z</time></trkpt><trkpt lat="41.954379429568114" lon="12.774145528858169"><ele>68.0</ele><time>2026-03-30T08:58:32.999Z</time></trkpt><trkpt lat="41.95443391292323" lon="12.774349270876263"><ele>70.0</ele><time>2026-03-30T08:58:33.999Z</time></trkpt><trkpt lat="41.95448751566207" lon="12.774542862557702"><ele>70.5</ele><time>2026-03-30T08:58:34.999Z</time></trkpt><trkpt lat="41.95453971558804" lon="12.77471177414502"><ele>71.0</ele><time>2026-03-30T08:58:35.999Z</time></trkpt><trkpt lat="41.954586817747234" lon="12.774872953191032"><ele>71.5</ele><time>2026-03-30T08:58:36.999Z</time></trkpt><trkpt lat="41.954629586184474" lon="12.77502122977991"><ele>72.0</ele><time>2026-03-30T08:58:37.999Z</time></trkpt><trkpt lat="41.954665862774135" lon="12.7751434861488"><ele>72.0</ele><time>2026-03-30T08:58:38.999Z</time></trkpt><trkpt lat="41.954696753686974" lon="12.775230769021086"><ele>72.0</ele><time>2026-03-30T08:58:39.999Z</time></trkpt><trkpt lat="41.954745955539806" lon="12.775316725534802"><ele>72.0</ele><time>2026-03-30T08:58:41.999Z</time></trkpt><trkpt lat="41.95489722045502" lon="12.775227803802752"><ele>72.0</ele><time>2026-03-30T08:58:42.999Z</time></trkpt><trkpt lat="41.954985775063314" lon="12.775172743945067"><ele>72.0</ele><time>2026-03-30T08:58:43.999Z</time></trkpt><trkpt lat="41.95507994825069" lon="12.775125562629965"><ele>72.4</ele><time>2026-03-30T08:58:44.999Z</time></trkpt><trkpt lat="41.95518311381039" lon="12.775080110076109"><ele>72.80000000000001</ele><time>2026-03-30T08:58:45.999Z</time></trkpt><trkpt lat="41.95528968421619" lon="12.775032600041346"><ele>73.2</ele><time>2026-03-30T08:58:46.999Z</time></trkpt><trkpt lat="41.95539449723297" lon="12.774982820747924"><ele>73.60000000000001</ele><time>2026-03-30T08:58:47.999Z</time></trkpt><trkpt lat="41.955487693933684" lon="12.77493079004755"><ele>74.0</ele><time>2026-03-30T08:58:48.999Z</time></trkpt><trkpt lat="41.95556971057742" lon="12.77488283558062"><ele>74.0</ele><time>2026-03-30T08:58:49.999Z</time></trkpt><trkpt lat="41.955638763403584" lon="12.77484444148806"><ele>74.0</ele><time>2026-03-30T08:58:50.999Z</time></trkpt><trkpt lat="41.95571780162125" lon="12.774811819611276"><ele>74.0</ele><time>2026-03-30T08:58:52.999Z</time></trkpt><trkpt lat="41.95577875611437" lon="12.774784809088782"><ele>74.0</ele><time>2026-03-30T08:58:54.999Z</time></trkpt><trkpt lat="41.95587711811579" lon="12.774763425365833"><ele>74.0</ele><time>2026-03-30T08:58:56.999Z</time></trkpt><trkpt lat="41.955991198648384" lon="12.774703415102895"><ele>74.0</ele><time>2026-03-30T08:58:58.999Z</time></trkpt><trkpt lat="41.956054470774575" lon="12.774669325233862"><ele>74.5</ele><time>2026-03-30T08:58:59.999Z</time></trkpt><trkpt lat="41.956115350589556" lon="12.774643380276496"><ele>75.0</ele><time>2026-03-30T08:59:00.999Z</time></trkpt><trkpt lat="41.956178666758575" lon="12.774608287529013"><ele>75.5</ele><time>2026-03-30T08:59:01.999Z</time></trkpt><trkpt lat="41.95623977222031" lon="12.774574432120298"><ele>76.0</ele><time>2026-03-30T08:59:02.999Z</time></trkpt><trkpt lat="41.956357824110455" lon="12.774512155831065"><ele>76.5</ele><time>2026-03-30T08:59:04.999Z</time></trkpt><trkpt lat="41.95647334862424" lon="12.774457580169196"><ele>77.0</ele><time>2026-03-30T08:59:06.999Z</time></trkpt><trkpt lat="41.95657356515704" lon="12.774417737634009"><ele>77.0</ele><time>2026-03-30T08:59:08.999Z</time></trkpt><trkpt lat="41.95663984075886" lon="12.7743961730483"><ele>77.0</ele><time>2026-03-30T08:59:10.999Z</time></trkpt><trkpt lat="41.95670816850168" lon="12.774415755479621"><ele>77.0</ele><time>2026-03-30T08:59:15.999Z</time></trkpt><trkpt lat="41.95672808500993" lon="12.774515396881448"><ele>77.0</ele><time>2026-03-30T08:59:20.999Z</time></trkpt><trkpt lat="41.95672760539561" lon="12.774662854467234"><ele>77.0</ele><time>2026-03-30T08:59:22.999Z</time></trkpt><trkpt lat="41.9567316706954" lon="12.77479282223181"><ele>77.0</ele><time>2026-03-30T08:59:23.999Z</time></trkpt><trkpt lat="41.956740130125475" lon="12.774898666509001"><ele>76.5</ele><time>2026-03-30T08:59:25Z</time></trkpt><trkpt lat="41.956745063549235" lon="12.775029053928694"><ele>76.0</ele><time>2026-03-30T08:59:27Z</time></trkpt><trkpt lat="41.95675047586518" lon="12.775133988057567"><ele>75.5</ele><time>2026-03-30T08:59:31Z</time></trkpt><trkpt lat="41.95676680472858" lon="12.775279239770352"><ele>75.0</ele><time>2026-03-30T08:59:33Z</time></trkpt><trkpt lat="41.95675938681456" lon="12.77537946516744"><ele>74.5</ele><time>2026-03-30T08:59:34Z</time></trkpt><trkpt lat="41.95676975022019" lon="12.775468619228002"><ele>74.0</ele><time>2026-03-30T08:59:35Z</time></trkpt><trkpt lat="41.95676233603492" lon="12.77562811205082"><ele>74.0</ele><time>2026-03-30T08:59:36.999Z</time></trkpt><trkpt lat="41.95675767174427" lon="12.775727972932408"><ele>74.0</ele><time>2026-03-30T08:59:37.999Z</time></trkpt><trkpt lat="41.95675123263019" lon="12.775829590288339"><ele>74.0</ele><time>2026-03-30T08:59:38.999Z</time></trkpt><trkpt lat="41.956747390427836" lon="12.775931635153054"><ele>74.0</ele><time>2026-03-30T08:59:39.999Z</time></trkpt><trkpt lat="41.95674468745993" lon="12.776029565169146"><ele>74.0</ele><time>2026-03-30T08:59:40.999Z</time></trkpt><trkpt lat="41.95674089349354" lon="12.77612100778714"><ele>74.0</ele><time>2026-03-30T08:59:41.999Z</time></trkpt><trkpt lat="41.95673818004364" lon="12.776211592316972"><ele>74.0</ele><time>2026-03-30T08:59:42.999Z</time></trkpt><trkpt lat="41.95673496067944" lon="12.776304408069294"><ele>74.14285714285714</ele><time>2026-03-30T08:59:43.999Z</time></trkpt><trkpt lat="41.95673110004193" lon="12.776396493538748"><ele>74.28571428571428</ele><time>2026-03-30T08:59:44.999Z</time></trkpt><trkpt lat="41.956728167770585" lon="12.776494271786184"><ele>74.42857142857142</ele><time>2026-03-30T08:59:45.999Z</time></trkpt><trkpt lat="41.95672427170772" lon="12.776603004275568"><ele>74.57142857142857</ele><time>2026-03-30T08:59:46.999Z</time></trkpt><trkpt lat="41.956720221231485" lon="12.776699741300995"><ele>74.71428571428571</ele><time>2026-03-30T08:59:48Z</time></trkpt><trkpt lat="41.95671643943861" lon="12.776788022161046"><ele>74.85714285714285</ele><time>2026-03-30T08:59:49Z</time></trkpt><trkpt lat="41.956714463000715" lon="12.776876759928683"><ele>75.0</ele><time>2026-03-30T08:59:50Z</time></trkpt><trkpt lat="41.9567117377672" lon="12.776964780445308"><ele>75.33333333333333</ele><time>2026-03-30T08:59:51Z</time></trkpt><trkpt lat="41.95671103234271" lon="12.777067629855118"><ele>75.66666666666667</ele><time>2026-03-30T08:59:52Z</time></trkpt><trkpt lat="41.95669340925935" lon="12.777175828882338"><ele>76.0</ele><time>2026-03-30T08:59:53Z</time></trkpt><trkpt lat="41.95672263729679" lon="12.777276069915295"><ele>76.33333333333334</ele><time>2026-03-30T08:59:54Z</time></trkpt><trkpt lat="41.956725540182504" lon="12.777377108130311"><ele>76.66666666666667</ele><time>2026-03-30T08:59:55Z</time></trkpt><trkpt lat="41.95673343587939" lon="12.777487270601574"><ele>77.0</ele><time>2026-03-30T08:59:56Z</time></trkpt><trkpt lat="41.9566782454269" lon="12.777577652827352"><ele>77.0</ele><time>2026-03-30T09:00:00Z</time></trkpt><trkpt lat="41.95681408868884" lon="12.777660212516693"><ele>77.0</ele><time>2026-03-30T09:00:03Z</time></trkpt><trkpt lat="41.956892820504365" lon="12.777696036478376"><ele>77.0</ele><time>2026-03-30T09:00:04Z</time></trkpt><trkpt lat="41.95695085722108" lon="12.777788438892037"><ele>77.0</ele><time>2026-03-30T09:00:05Z</time></trkpt><trkpt lat="41.957041815710326" lon="12.777887931822127"><ele>77.0</ele><time>2026-03-30T09:00:06Z</time></trkpt><trkpt lat="41.95713272137815" lon="12.77800810741606"><ele>77.0</ele><time>2026-03-30T09:00:07Z</time></trkpt><trkpt lat="41.95723222175543" lon="12.778124176961065"><ele>77.0</ele><time>2026-03-30T09:00:08Z</time></trkpt><trkpt lat="41.95734444951135" lon="12.778250530918978"><ele>77.0</ele><time>2026-03-30T09:00:09Z</time></trkpt><trkpt lat="41.95746869368708" lon="12.77838541050874"><ele>77.0</ele><time>2026-03-30T09:00:10Z</time></trkpt><trkpt lat="41.95759716367986" lon="12.778529063353293"><ele>77.0</ele><time>2026-03-30T09:00:11Z</time></trkpt><trkpt lat="41.95771886034907" lon="12.778673471574379"><ele>77.0</ele><time>2026-03-30T09:00:12Z</time></trkpt><trkpt lat="41.957828983687556" lon="12.778827223397801"><ele>77.0</ele><time>2026-03-30T09:00:13Z</time></trkpt><trkpt lat="41.95797103323067" lon="12.778985058055136"><ele>77.0</ele><time>2026-03-30T09:00:14Z</time></trkpt><trkpt lat="41.958140157715285" lon="12.779135254656632"><ele>77.0</ele><time>2026-03-30T09:00:15Z</time></trkpt><trkpt lat="41.95828897774038" lon="12.779304125908288"><ele>77.0</ele><time>2026-03-30T09:00:16Z</time></trkpt><trkpt lat="41.95841946636244" lon="12.779476110658264"><ele>77.33333333333334</ele><time>2026-03-30T09:00:17Z</time></trkpt><trkpt lat="41.958558196906594" lon="12.779627662434528"><ele>77.66666666666667</ele><time>2026-03-30T09:00:18Z</time></trkpt><trkpt lat="41.95865217660162" lon="12.779789273251982"><ele>78.0</ele><time>2026-03-30T09:00:19Z</time></trkpt><trkpt lat="41.95873845416683" lon="12.779962752664751"><ele>78.0</ele><time>2026-03-30T09:00:20Z</time></trkpt><trkpt lat="41.958812362209166" lon="12.780133307905446"><ele>78.0</ele><time>2026-03-30T09:00:21Z</time></trkpt><trkpt lat="41.958882138228255" lon="12.780296981315162"><ele>78.0</ele><time>2026-03-30T09:00:22Z</time></trkpt><trkpt lat="41.95894912315195" lon="12.780445632599813"><ele>78.0</ele><time>2026-03-30T09:00:23Z</time></trkpt><trkpt lat="41.95900869749387" lon="12.78057222463425"><ele>78.4</ele><time>2026-03-30T09:00:24Z</time></trkpt><trkpt lat="41.95905855334724" lon="12.780676064718497"><ele>78.8</ele><time>2026-03-30T09:00:25Z</time></trkpt><trkpt lat="41.9591046627195" lon="12.780770876600323"><ele>79.2</ele><time>2026-03-30T09:00:26Z</time></trkpt><trkpt lat="41.95915977913217" lon="12.780894314474354"><ele>79.6</ele><time>2026-03-30T09:00:28Z</time></trkpt><trkpt lat="41.959207196333416" lon="12.78098639375668"><ele>80.0</ele><time>2026-03-30T09:00:30Z</time></trkpt><trkpt lat="41.95925556401485" lon="12.78109230806577"><ele>80.4</ele><time>2026-03-30T09:00:32Z</time></trkpt><trkpt lat="41.9593006171844" lon="12.781247461514004"><ele>80.8</ele><time>2026-03-30T09:00:34Z</time></trkpt><trkpt lat="41.95933751908171" lon="12.781326594669451"><ele>81.19999999999999</ele><time>2026-03-30T09:00:35Z</time></trkpt><trkpt lat="41.9593551225499" lon="12.781409921871207"><ele>81.6</ele><time>2026-03-30T09:00:36Z</time></trkpt><trkpt lat="41.95947084502151" lon="12.781416604695682"><ele>82.0</ele><time>2026-03-30T09:00:37Z</time></trkpt><trkpt lat="41.959560783905005" lon="12.781436325487626"><ele>82.0</ele><time>2026-03-30T09:00:38Z</time></trkpt><trkpt lat="41.9596604962086" lon="12.781451581859981"><ele>82.0</ele><time>2026-03-30T09:00:39Z</time></trkpt><trkpt lat="41.95975115947928" lon="12.781439168958478"><ele>82.0</ele><time>2026-03-30T09:00:40Z</time></trkpt><trkpt lat="41.95983663183537" lon="12.781403469822235"><ele>82.0</ele><time>2026-03-30T09:00:41Z</time></trkpt><trkpt lat="41.9599272620781" lon="12.78134010120733"><ele>82.0</ele><time>2026-03-30T09:00:42Z</time></trkpt><trkpt lat="41.96000945738157" lon="12.781254274795144"><ele>81.39999999999999</ele><time>2026-03-30T09:00:43Z</time></trkpt><trkpt lat="41.960083192083694" lon="12.781149803809125"><ele>80.8</ele><time>2026-03-30T09:00:44Z</time></trkpt><trkpt lat="41.96016892103005" lon="12.78106848169305"><ele>80.2</ele><time>2026-03-30T09:00:45Z</time></trkpt><trkpt lat="41.96024650377578" lon="12.780973917444472"><ele>79.6</ele><time>2026-03-30T09:00:46Z</time></trkpt><trkpt lat="41.96031675377155" lon="12.780861167176699"><ele>79.0</ele><time>2026-03-30T09:00:47Z</time></trkpt><trkpt lat="41.96040975161723" lon="12.780777670406149"><ele>79.0</ele><time>2026-03-30T09:00:48Z</time></trkpt><trkpt lat="41.960475765685" lon="12.780665623909007"><ele>79.0</ele><time>2026-03-30T09:00:49Z</time></trkpt><trkpt lat="41.960554868491386" lon="12.78058065997105"><ele>79.0</ele><time>2026-03-30T09:00:50Z</time></trkpt><trkpt lat="41.96064255902733" lon="12.780529715781785"><ele>79.0</ele><time>2026-03-30T09:00:51Z</time></trkpt><trkpt lat="41.96072425538095" lon="12.78046151656361"><ele>79.0</ele><time>2026-03-30T09:00:52Z</time></trkpt><trkpt lat="41.96082253630259" lon="12.780435821404915"><ele>78.0</ele><time>2026-03-30T09:00:53Z</time></trkpt><trkpt lat="41.96092595695766" lon="12.78041058717965"><ele>77.0</ele><time>2026-03-30T09:00:54Z</time></trkpt><trkpt lat="41.961026289800074" lon="12.780370621402751"><ele>76.0</ele><time>2026-03-30T09:00:55Z</time></trkpt><trkpt lat="41.96111775368416" lon="12.780311457790186"><ele>75.0</ele><time>2026-03-30T09:00:56Z</time></trkpt><trkpt lat="41.961197828695255" lon="12.780221982939043"><ele>74.0</ele><time>2026-03-30T09:00:57Z</time></trkpt><trkpt lat="41.961271370359356" lon="12.780112669633096"><ele>73.4</ele><time>2026-03-30T09:00:58Z</time></trkpt><trkpt lat="41.96136463226799" lon="12.780042189129668"><ele>72.80000000000001</ele><time>2026-03-30T09:00:59Z</time></trkpt><trkpt lat="41.96145597943186" lon="12.77997762120177"><ele>72.19999999999999</ele><time>2026-03-30T09:01:00Z</time></trkpt><trkpt lat="41.961550948540086" lon="12.779944886381847"><ele>71.6</ele><time>2026-03-30T09:01:01Z</time></trkpt><trkpt lat="41.96165974394002" lon="12.779939828468347"><ele>71.0</ele><time>2026-03-30T09:01:02Z</time></trkpt><trkpt lat="41.961771507929036" lon="12.77993617438293"><ele>69.0</ele><time>2026-03-30T09:01:03Z</time></trkpt><trkpt lat="41.961884147930874" lon="12.779980472111033"><ele>67.0</ele><time>2026-03-30T09:01:04Z</time></trkpt><trkpt lat="41.9619964481847" lon="12.780026854662534"><ele>65.0</ele><time>2026-03-30T09:01:05Z</time></trkpt><trkpt lat="41.962112913220274" lon="12.780089028327895"><ele>63.0</ele><time>2026-03-30T09:01:06Z</time></trkpt><trkpt lat="41.962224932861155" lon="12.780139457950938"><ele>63.8</ele><time>2026-03-30T09:01:07Z</time></trkpt><trkpt lat="41.962325748973726" lon="12.78019088044014"><ele>64.6</ele><time>2026-03-30T09:01:08Z</time></trkpt><trkpt lat="41.962416018882934" lon="12.780254208220857"><ele>65.4</ele><time>2026-03-30T09:01:09Z</time></trkpt><trkpt lat="41.962500345698146" lon="12.78034026948599"><ele>66.2</ele><time>2026-03-30T09:01:10Z</time></trkpt><trkpt lat="41.96256323714585" lon="12.780444666310046"><ele>67.0</ele><time>2026-03-30T09:01:11Z</time></trkpt><trkpt lat="41.962599141654536" lon="12.780567321480133"><ele>66.0</ele><time>2026-03-30T09:01:12Z</time></trkpt><trkpt lat="41.96262042359445" lon="12.780685362349486"><ele>65.0</ele><time>2026-03-30T09:01:13Z</time></trkpt><trkpt lat="41.96262872321153" lon="12.780812832137457"><ele>64.0</ele><time>2026-03-30T09:01:14Z</time></trkpt><trkpt lat="41.962621335941854" lon="12.780947069847821"><ele>63.0</ele><time>2026-03-30T09:01:15Z</time></trkpt><trkpt lat="41.962611300389156" lon="12.781089771382186"><ele>62.0</ele><time>2026-03-30T09:01:16Z</time></trkpt><trkpt lat="41.962595479448254" lon="12.781229756585128"><ele>62.0</ele><time>2026-03-30T09:01:17Z</time></trkpt><trkpt lat="41.9625860465012" lon="12.781369463887113"><ele>62.0</ele><time>2026-03-30T09:01:18Z</time></trkpt><trkpt lat="41.962594575395066" lon="12.781499775052405"><ele>62.0</ele><time>2026-03-30T09:01:19Z</time></trkpt><trkpt lat="41.96262522792697" lon="12.781631683360695"><ele>62.0</ele><time>2026-03-30T09:01:20Z</time></trkpt><trkpt lat="41.96268662263608" lon="12.781748794597615"><ele>62.0</ele><time>2026-03-30T09:01:21Z</time></trkpt><trkpt lat="41.96277713115916" lon="12.78185956488507"><ele>62.75</ele><time>2026-03-30T09:01:22Z</time></trkpt><trkpt lat="41.9628790829801" lon="12.781939024895275"><ele>63.5</ele><time>2026-03-30T09:01:23Z</time></trkpt><trkpt lat="41.96298886774098" lon="12.782003476869232"><ele>64.25</ele><time>2026-03-30T09:01:24Z</time></trkpt><trkpt lat="41.96309035449736" lon="12.782056630056726"><ele>65.0</ele><time>2026-03-30T09:01:25Z</time></trkpt><trkpt lat="41.963185203847424" lon="12.782119212659383"><ele>65.0</ele><time>2026-03-30T09:01:26Z</time></trkpt><trkpt lat="41.96327342422863" lon="12.782199490589601"><ele>65.0</ele><time>2026-03-30T09:01:27Z</time></trkpt><trkpt lat="41.963335650216266" lon="12.782327176918214"><ele>65.0</ele><time>2026-03-30T09:01:28Z</time></trkpt><trkpt lat="41.96340800157718" lon="12.782439333100998"><ele>65.0</ele><time>2026-03-30T09:01:29Z</time></trkpt><trkpt lat="41.96346633728499" lon="12.782563003522673"><ele>65.0</ele><time>2026-03-30T09:01:30Z</time></trkpt><trkpt lat="41.96352121916916" lon="12.782688335622549"><ele>63.6</ele><time>2026-03-30T09:01:31Z</time></trkpt><trkpt lat="41.96355514214785" lon="12.782817334732162"><ele>62.2</ele><time>2026-03-30T09:01:32Z</time></trkpt><trkpt lat="41.96356693000797" lon="12.782944927902296"><ele>60.8</ele><time>2026-03-30T09:01:33Z</time></trkpt><trkpt lat="41.96355755909594" lon="12.78306775063073"><ele>59.4</ele><time>2026-03-30T09:01:34Z</time></trkpt><trkpt lat="41.9635319231732" lon="12.783179900182562"><ele>58.0</ele><time>2026-03-30T09:01:35Z</time></trkpt><trkpt lat="41.963496061499534" lon="12.783276582102015"><ele>58.0</ele><time>2026-03-30T09:01:36Z</time></trkpt><trkpt lat="41.96344728522189" lon="12.783374345926902"><ele>58.0</ele><time>2026-03-30T09:01:37Z</time></trkpt><trkpt lat="41.963388216885235" lon="12.783466319875043"><ele>58.0</ele><time>2026-03-30T09:01:38Z</time></trkpt><trkpt lat="41.96332497968342" lon="12.783554890527878"><ele>58.0</ele><time>2026-03-30T09:01:39Z</time></trkpt><trkpt lat="41.963257825597694" lon="12.783647546497606"><ele>58.0</ele><time>2026-03-30T09:01:40Z</time></trkpt><trkpt lat="41.96319980879051" lon="12.783751151689737"><ele>58.599999999999994</ele><time>2026-03-30T09:01:41Z</time></trkpt><trkpt lat="41.963156324192305" lon="12.783870245772748"><ele>59.199999999999996</ele><time>2026-03-30T09:01:42Z</time></trkpt><trkpt lat="41.96313128617982" lon="12.784001962018522"><ele>59.8</ele><time>2026-03-30T09:01:43Z</time></trkpt><trkpt lat="41.963114385460955" lon="12.784144397837709"><ele>60.4</ele><time>2026-03-30T09:01:44Z</time></trkpt><trkpt lat="41.96309674732052" lon="12.784278966623152"><ele>61.0</ele><time>2026-03-30T09:01:45Z</time></trkpt><trkpt lat="41.96308705013633" lon="12.784405594903822"><ele>60.99999999999999</ele><time>2026-03-30T09:01:46Z</time></trkpt><trkpt lat="41.963079120394084" lon="12.784524574029827"><ele>61.0</ele><time>2026-03-30T09:01:47Z</time></trkpt><trkpt lat="41.96307407418509" lon="12.784636624860806"><ele>61.0</ele><time>2026-03-30T09:01:48Z</time></trkpt><trkpt lat="41.963070450522366" lon="12.784738611255555"><ele>61.0</ele><time>2026-03-30T09:01:49Z</time></trkpt><trkpt lat="41.963067989637935" lon="12.784834117215121"><ele>60.99999999999999</ele><time>2026-03-30T09:01:50Z</time></trkpt><trkpt lat="41.96306442157636" lon="12.784927157841498"><ele>61.0</ele><time>2026-03-30T09:01:51Z</time></trkpt><trkpt lat="41.96304490418013" lon="12.785050275503691"><ele>61.0</ele><time>2026-03-30T09:01:53Z</time></trkpt><trkpt lat="41.96321091886283" lon="12.785147246840825"><ele>61.0</ele><time>2026-03-30T09:01:56Z</time></trkpt><trkpt lat="41.963306527166445" lon="12.785174811521166"><ele>61.0</ele><time>2026-03-30T09:01:58Z</time></trkpt><trkpt lat="41.96342739559696" lon="12.785187581178597"><ele>61.0</ele><time>2026-03-30T09:02:00Z</time></trkpt><trkpt lat="41.963498924234145" lon="12.78520550262146"><ele>60.33333333333333</ele><time>2026-03-30T09:02:01Z</time></trkpt><trkpt lat="41.9635807605085" lon="12.78522865118556"><ele>59.666666666666664</ele><time>2026-03-30T09:02:02Z</time></trkpt><trkpt lat="41.96365091351537" lon="12.785296382863855"><ele>59.0</ele><time>2026-03-30T09:02:03Z</time></trkpt><trkpt lat="41.96371071193838" lon="12.785357475127782"><ele>58.33333333333333</ele><time>2026-03-30T09:02:04Z</time></trkpt><trkpt lat="41.96376535701428" lon="12.78543354979855"><ele>57.666666666666664</ele><time>2026-03-30T09:02:05Z</time></trkpt><trkpt lat="41.96378126653774" lon="12.785543600660809"><ele>57.0</ele><time>2026-03-30T09:02:06Z</time></trkpt><trkpt lat="41.96381094547249" lon="12.78563743803544"><ele>57.0</ele><time>2026-03-30T09:02:07Z</time></trkpt><trkpt lat="41.963874046877756" lon="12.785697890127624"><ele>56.99999999999999</ele><time>2026-03-30T09:02:08Z</time></trkpt><trkpt lat="41.96394874583383" lon="12.785720673876774"><ele>57.0</ele><time>2026-03-30T09:02:09Z</time></trkpt><trkpt lat="41.96401860878717" lon="12.785752107936535"><ele>57.0</ele><time>2026-03-30T09:02:10Z</time></trkpt><trkpt lat="41.96408138910573" lon="12.785772629332723"><ele>56.99999999999999</ele><time>2026-03-30T09:02:11Z</time></trkpt><trkpt lat="41.96414445960638" lon="12.785761749503848"><ele>57.0</ele><time>2026-03-30T09:02:12Z</time></trkpt><trkpt lat="41.96421375423573" lon="12.785729559162945"><ele>57.0</ele><time>2026-03-30T09:02:13Z</time></trkpt><trkpt lat="41.96428995923693" lon="12.785711300829963"><ele>59.833333333333336</ele><time>2026-03-30T09:02:14Z</time></trkpt><trkpt lat="41.9643689868628" lon="12.78570310061786"><ele>62.66666666666667</ele><time>2026-03-30T09:02:15Z</time></trkpt><trkpt lat="41.96444748666371" lon="12.785681438731743"><ele>65.5</ele><time>2026-03-30T09:02:16Z</time></trkpt><trkpt lat="41.964516733215426" lon="12.785643665164198"><ele>68.33333333333334</ele><time>2026-03-30T09:02:17Z</time></trkpt><trkpt lat="41.96457362068525" lon="12.785573530463793"><ele>71.16666666666667</ele><time>2026-03-30T09:02:18Z</time></trkpt><trkpt lat="41.96463118448165" lon="12.78548801674093"><ele>74.0</ele><time>2026-03-30T09:02:19Z</time></trkpt><trkpt lat="41.964628695990946" lon="12.785373341009661"><ele>74.0</ele><time>2026-03-30T09:02:20Z</time></trkpt><trkpt lat="41.96462615855034" lon="12.785271046285247"><ele>74.0</ele><time>2026-03-30T09:02:21Z</time></trkpt><trkpt lat="41.964640799053015" lon="12.78516992865944"><ele>74.0</ele><time>2026-03-30T09:02:22Z</time></trkpt><trkpt lat="41.964642523925534" lon="12.78506466839141"><ele>74.0</ele><time>2026-03-30T09:02:23Z</time></trkpt><trkpt lat="41.96465071186542" lon="12.784979073004028"><ele>74.0</ele><time>2026-03-30T09:02:24Z</time></trkpt><trkpt lat="41.96466571397171" lon="12.784890783490415"><ele>74.0</ele><time>2026-03-30T09:02:25Z</time></trkpt><trkpt lat="41.96469604157044" lon="12.784810785551889"><ele>74.0</ele><time>2026-03-30T09:02:26Z</time></trkpt><trkpt lat="41.96473118284918" lon="12.784726183684592"><ele>73.5</ele><time>2026-03-30T09:02:27Z</time></trkpt><trkpt lat="41.96477410003693" lon="12.784641129674858"><ele>73.0</ele><time>2026-03-30T09:02:28Z</time></trkpt><trkpt lat="41.96482336465604" lon="12.78455239407427"><ele>72.5</ele><time>2026-03-30T09:02:29Z</time></trkpt><trkpt lat="41.96487355288606" lon="12.784470738305197"><ele>72.0</ele><time>2026-03-30T09:02:30Z</time></trkpt><trkpt lat="41.9649237231942" lon="12.784389296819077"><ele>71.5</ele><time>2026-03-30T09:02:31Z</time></trkpt><trkpt lat="41.96496642335834" lon="12.784319981595281"><ele>71.0</ele><time>2026-03-30T09:02:32Z</time></trkpt><trkpt lat="41.96500021905578" lon="12.78423375259689"><ele>74.75</ele><time>2026-03-30T09:02:33Z</time></trkpt><trkpt lat="41.965084873186264" lon="12.784121112011128"><ele>78.5</ele><time>2026-03-30T09:02:35Z</time></trkpt><trkpt lat="41.96526769338536" lon="12.784112974692125"><ele>82.25</ele><time>2026-03-30T09:02:36Z</time></trkpt><trkpt lat="41.96536769695651" lon="12.78405023346571"><ele>86.0</ele><time>2026-03-30T09:02:37Z</time></trkpt><trkpt lat="41.96547801123852" lon="12.783984746026501"><ele>86.0</ele><time>2026-03-30T09:02:38Z</time></trkpt><trkpt lat="41.96557550003156" lon="12.783917381259572"><ele>86.0</ele><time>2026-03-30T09:02:39Z</time></trkpt><trkpt lat="41.96567007862667" lon="12.783851486820188"><ele>86.0</ele><time>2026-03-30T09:02:40Z</time></trkpt><trkpt lat="41.96577325240219" lon="12.783793080395425"><ele>86.0</ele><time>2026-03-30T09:02:41Z</time></trkpt><trkpt lat="41.96586400852788" lon="12.78372804791212"><ele>86.0</ele><time>2026-03-30T09:02:42Z</time></trkpt><trkpt lat="41.96594869613152" lon="12.78367947556472"><ele>86.33333333333334</ele><time>2026-03-30T09:02:43Z</time></trkpt><trkpt lat="41.96602010807299" lon="12.783630959558202"><ele>86.66666666666667</ele><time>2026-03-30T09:02:44Z</time></trkpt><trkpt lat="41.96609605697274" lon="12.783589023107838"><ele>87.0</ele><time>2026-03-30T09:02:45Z</time></trkpt><trkpt lat="41.96616835712309" lon="12.783539370947297"><ele>87.33333333333333</ele><time>2026-03-30T09:02:46Z</time></trkpt><trkpt lat="41.96622663387114" lon="12.783495595710246"><ele>87.66666666666666</ele><time>2026-03-30T09:02:47Z</time></trkpt><trkpt lat="41.966295802267105" lon="12.78345005810267"><ele>88.0</ele><time>2026-03-30T09:02:50Z</time></trkpt><trkpt lat="41.96642338336109" lon="12.783393641573856"><ele>88.0</ele><time>2026-03-30T09:02:52Z</time></trkpt><trkpt lat="41.96650540092146" lon="12.783351820177206"><ele>88.0</ele><time>2026-03-30T09:02:53Z</time></trkpt><trkpt lat="41.96659680982483" lon="12.78331107376593"><ele>88.0</ele><time>2026-03-30T09:02:54Z</time></trkpt><trkpt lat="41.96669078165697" lon="12.783259821223165"><ele>88.0</ele><time>2026-03-30T09:02:55Z</time></trkpt><trkpt lat="41.966784222715546" lon="12.783241207832617"><ele>88.0</ele><time>2026-03-30T09:02:56Z</time></trkpt><trkpt lat="41.96688254538343" lon="12.783223215486547"><ele>87.5</ele><time>2026-03-30T09:02:57Z</time></trkpt><trkpt lat="41.966984685341885" lon="12.783201185672015"><ele>87.0</ele><time>2026-03-30T09:02:58Z</time></trkpt><trkpt lat="41.967099368256974" lon="12.783168315581687"><ele>86.5</ele><time>2026-03-30T09:02:59Z</time></trkpt><trkpt lat="41.9672110989216" lon="12.783118081916024"><ele>86.0</ele><time>2026-03-30T09:03:00Z</time></trkpt><trkpt lat="41.96732869250703" lon="12.78305074204739"><ele>86.0</ele><time>2026-03-30T09:03:01Z</time></trkpt><trkpt lat="41.967437467085986" lon="12.78299235758791"><ele>86.0</ele><time>2026-03-30T09:03:02Z</time></trkpt><trkpt lat="41.9675467077941" lon="12.782933506789155"><ele>86.0</ele><time>2026-03-30T09:03:03Z</time></trkpt><trkpt lat="41.967659111701415" lon="12.782868180742632"><ele>86.0</ele><time>2026-03-30T09:03:04Z</time></trkpt><trkpt lat="41.967775478468354" lon="12.782820239618408"><ele>85.6</ele><time>2026-03-30T09:03:05Z</time></trkpt><trkpt lat="41.96787831861245" lon="12.782747438802922"><ele>85.19999999999999</ele><time>2026-03-30T09:03:06Z</time></trkpt><trkpt lat="41.96798266101751" lon="12.782683362367456"><ele>84.80000000000001</ele><time>2026-03-30T09:03:07Z</time></trkpt><trkpt lat="41.968083456326355" lon="12.7826309176125"><ele>84.4</ele><time>2026-03-30T09:03:08Z</time></trkpt><trkpt lat="41.968183504466" lon="12.78257871784439"><ele>84.0</ele><time>2026-03-30T09:03:09Z</time></trkpt><trkpt lat="41.968278211392374" lon="12.782531054508825"><ele>83.4</ele><time>2026-03-30T09:03:10Z</time></trkpt><trkpt lat="41.96837309454622" lon="12.782490983051293"><ele>82.80000000000001</ele><time>2026-03-30T09:03:11Z</time></trkpt><trkpt lat="41.96847518870262" lon="12.782489706463744"><ele>82.19999999999999</ele><time>2026-03-30T09:03:12Z</time></trkpt><trkpt lat="41.9685800492095" lon="12.7824773334413"><ele>81.6</ele><time>2026-03-30T09:03:13Z</time></trkpt><trkpt lat="41.968684056529575" lon="12.78245237605884"><ele>81.0</ele><time>2026-03-30T09:03:14Z</time></trkpt><trkpt lat="41.96879475800356" lon="12.782447060699399"><ele>81.0</ele><time>2026-03-30T09:03:15Z</time></trkpt><trkpt lat="41.96890231361602" lon="12.782428554142525"><ele>81.0</ele><time>2026-03-30T09:03:16Z</time></trkpt><trkpt lat="41.969008601204045" lon="12.782396639572998"><ele>81.0</ele><time>2026-03-30T09:03:17Z</time></trkpt><trkpt lat="41.96911541971063" lon="12.782344139364067"><ele>81.0</ele><time>2026-03-30T09:03:18Z</time></trkpt><trkpt lat="41.96922426930154" lon="12.78229770799208"><ele>81.0</ele><time>2026-03-30T09:03:19Z</time></trkpt><trkpt lat="41.96932483822727" lon="12.78226094883492"><ele>80.39999999999999</ele><time>2026-03-30T09:03:20Z</time></trkpt><trkpt lat="41.96942087826876" lon="12.782225867651547"><ele>79.8</ele><time>2026-03-30T09:03:21Z</time></trkpt><trkpt lat="41.96950982410751" lon="12.782186623034494"><ele>79.19999999999999</ele><time>2026-03-30T09:03:22Z</time></trkpt><trkpt lat="41.96959669024583" lon="12.782144230122023"><ele>78.6</ele><time>2026-03-30T09:03:23Z</time></trkpt><trkpt lat="41.969687963885306" lon="12.782108433003426"><ele>78.0</ele><time>2026-03-30T09:03:23.999Z</time></trkpt><trkpt lat="41.96978361708281" lon="12.782086582746917"><ele>78.0</ele><time>2026-03-30T09:03:24.999Z</time></trkpt><trkpt lat="41.96988015998098" lon="12.782062262226"><ele>78.0</ele><time>2026-03-30T09:03:25.999Z</time></trkpt><trkpt lat="41.969980698615316" lon="12.782053116427813"><ele>78.0</ele><time>2026-03-30T09:03:26.999Z</time></trkpt><trkpt lat="41.97008041057105" lon="12.782046904298278"><ele>78.0</ele><time>2026-03-30T09:03:27.999Z</time></trkpt><trkpt lat="41.9701847707739" lon="12.782036722759045"><ele>78.0</ele><time>2026-03-30T09:03:28.999Z</time></trkpt><trkpt lat="41.970291122283456" lon="12.782027599504941"><ele>78.4</ele><time>2026-03-30T09:03:29.999Z</time></trkpt><trkpt lat="41.97039644491161" lon="12.782025308099891"><ele>78.8</ele><time>2026-03-30T09:03:30.999Z</time></trkpt><trkpt lat="41.97050118303729" lon="12.782017388446189"><ele>79.2</ele><time>2026-03-30T09:03:31.999Z</time></trkpt><trkpt lat="41.97060652702915" lon="12.781993000700144"><ele>79.6</ele><time>2026-03-30T09:03:32.999Z</time></trkpt><trkpt lat="41.97071072409652" lon="12.781949963401937"><ele>80.0</ele><time>2026-03-30T09:03:33.999Z</time></trkpt><trkpt lat="41.970812702154475" lon="12.781900839295282"><ele>80.4</ele><time>2026-03-30T09:03:34.999Z</time></trkpt><trkpt lat="41.97091880463834" lon="12.781859222907366"><ele>80.8</ele><time>2026-03-30T09:03:35.999Z</time></trkpt><trkpt lat="41.971023937873134" lon="12.781825233263369"><ele>81.19999999999999</ele><time>2026-03-30T09:03:37Z</time></trkpt><trkpt lat="41.97112871831414" lon="12.781783846849391"><ele>81.6</ele><time>2026-03-30T09:03:38Z</time></trkpt><trkpt lat="41.971231563802085" lon="12.781751144839166"><ele>82.0</ele><time>2026-03-30T09:03:39Z</time></trkpt><trkpt lat="41.97133355085104" lon="12.781681856059716"><ele>82.0</ele><time>2026-03-30T09:03:40Z</time></trkpt><trkpt lat="41.971441842928726" lon="12.781640746016695"><ele>82.0</ele><time>2026-03-30T09:03:41Z</time></trkpt><trkpt lat="41.97154998966731" lon="12.781607540237331"><ele>82.0</ele><time>2026-03-30T09:03:42Z</time></trkpt><trkpt lat="41.97166598471351" lon="12.78157559994452"><ele>82.0</ele><time>2026-03-30T09:03:43Z</time></trkpt><trkpt lat="41.97178006186439" lon="12.7815478283255"><ele>82.0</ele><time>2026-03-30T09:03:44Z</time></trkpt><trkpt lat="41.97189755175806" lon="12.781521134608765"><ele>82.0</ele><time>2026-03-30T09:03:45Z</time></trkpt><trkpt lat="41.97201484164691" lon="12.781491999106272"><ele>82.0</ele><time>2026-03-30T09:03:46Z</time></trkpt><trkpt lat="41.97212571833352" lon="12.781460573202608"><ele>82.0</ele><time>2026-03-30T09:03:47Z</time></trkpt><trkpt lat="41.97223443128943" lon="12.78142704178328"><ele>82.0</ele><time>2026-03-30T09:03:48Z</time></trkpt><trkpt lat="41.972336382384185" lon="12.781390549864094"><ele>82.0</ele><time>2026-03-30T09:03:49Z</time></trkpt><trkpt lat="41.97242980806362" lon="12.78136925688496"><ele>82.0</ele><time>2026-03-30T09:03:50Z</time></trkpt><trkpt lat="41.97251789802804" lon="12.781330625008463"><ele>82.0</ele><time>2026-03-30T09:03:51Z</time></trkpt><trkpt lat="41.97259111673337" lon="12.781283512507684"><ele>82.0</ele><time>2026-03-30T09:03:52Z</time></trkpt><trkpt lat="41.972664099730686" lon="12.78127113059131"><ele>82.0</ele><time>2026-03-30T09:03:53Z</time></trkpt><trkpt lat="41.97276238114275" lon="12.781310746526168"><ele>82.39999999999999</ele><time>2026-03-30T09:03:54Z</time></trkpt><trkpt lat="41.97286223589784" lon="12.781314613999948"><ele>82.8</ele><time>2026-03-30T09:03:55Z</time></trkpt><trkpt lat="41.97297612821869" lon="12.781309037139643"><ele>83.2</ele><time>2026-03-30T09:03:56Z</time></trkpt><trkpt lat="41.9730880471544" lon="12.78130929939059"><ele>83.6</ele><time>2026-03-30T09:03:57Z</time></trkpt><trkpt lat="41.973209874557575" lon="12.781290343091285"><ele>84.0</ele><time>2026-03-30T09:03:58Z</time></trkpt><trkpt lat="41.97333149666349" lon="12.781270018196478"><ele>84.2</ele><time>2026-03-30T09:03:59Z</time></trkpt><trkpt lat="41.9734480503098" lon="12.781262041867445"><ele>84.4</ele><time>2026-03-30T09:04:00Z</time></trkpt><trkpt lat="41.97356020415114" lon="12.78124194147892"><ele>84.6</ele><time>2026-03-30T09:04:01Z</time></trkpt><trkpt lat="41.97366438205814" lon="12.781209971772022"><ele>84.8</ele><time>2026-03-30T09:04:02Z</time></trkpt><trkpt lat="41.97377425499927" lon="12.78119117210945"><ele>85.0</ele><time>2026-03-30T09:04:03Z</time></trkpt><trkpt lat="41.97389163289265" lon="12.781163077489092"><ele>85.0</ele><time>2026-03-30T09:04:04Z</time></trkpt><trkpt lat="41.974019340249455" lon="12.781158980452494"><ele>85.0</ele><time>2026-03-30T09:04:05Z</time></trkpt><trkpt lat="41.974103265244096" lon="12.781143316764492"><ele>85.0</ele><time>2026-03-30T09:04:06Z</time></trkpt><trkpt lat="41.974212315414604" lon="12.781129238263663"><ele>85.0</ele><time>2026-03-30T09:04:07Z</time></trkpt><trkpt lat="41.97430555887337" lon="12.781131632433132"><ele>85.0</ele><time>2026-03-30T09:04:08Z</time></trkpt><trkpt lat="41.97439666642913" lon="12.781156312119409"><ele>85.0</ele><time>2026-03-30T09:04:09Z</time></trkpt><trkpt lat="41.97449349242534" lon="12.781193608511945"><ele>85.0</ele><time>2026-03-30T09:04:10Z</time></trkpt><trkpt lat="41.974596376264124" lon="12.781222307686457"><ele>85.0</ele><time>2026-03-30T09:04:11Z</time></trkpt><trkpt lat="41.97469905575376" lon="12.78125441821181"><ele>85.0</ele><time>2026-03-30T09:04:12Z</time></trkpt><trkpt lat="41.9748019590002" lon="12.781243421277487"><ele>85.0</ele><time>2026-03-30T09:04:13Z</time></trkpt><trkpt lat="41.974905101297516" lon="12.78120735720745"><ele>85.0</ele><time>2026-03-30T09:04:14Z</time></trkpt><trkpt lat="41.9750061505886" lon="12.7811667751015"><ele>85.0</ele><time>2026-03-30T09:04:15Z</time></trkpt><trkpt lat="41.975104387251676" lon="12.78111923004605"><ele>85.0</ele><time>2026-03-30T09:04:16Z</time></trkpt><trkpt lat="41.975205717708" lon="12.781064670112858"><ele>85.0</ele><time>2026-03-30T09:04:17Z</time></trkpt><trkpt lat="41.975312837336695" lon="12.781008851789727"><ele>85.0</ele><time>2026-03-30T09:04:18Z</time></trkpt><trkpt lat="41.975430539589425" lon="12.780968431025252"><ele>85.0</ele><time>2026-03-30T09:04:19Z</time></trkpt><trkpt lat="41.9755407354473" lon="12.780918858306894"><ele>85.0</ele><time>2026-03-30T09:04:20Z</time></trkpt><trkpt lat="41.97563877247436" lon="12.780851868683003"><ele>85.0</ele><time>2026-03-30T09:04:21Z</time></trkpt><trkpt lat="41.975746559732386" lon="12.78080837905472"><ele>85.0</ele><time>2026-03-30T09:04:22Z</time></trkpt><trkpt lat="41.97584697596453" lon="12.780767774709911"><ele>85.0</ele><time>2026-03-30T09:04:23Z</time></trkpt><trkpt lat="41.97593626966863" lon="12.780721920850631"><ele>85.0</ele><time>2026-03-30T09:04:24Z</time></trkpt><trkpt lat="41.97601961931329" lon="12.780679223652225"><ele>85.0</ele><time>2026-03-30T09:04:25Z</time></trkpt><trkpt lat="41.97610614392158" lon="12.780664152352779"><ele>85.0</ele><time>2026-03-30T09:04:26Z</time></trkpt><trkpt lat="41.97618611905693" lon="12.780664085780456"><ele>85.0</ele><time>2026-03-30T09:04:27Z</time></trkpt><trkpt lat="41.976285261273205" lon="12.78064431455852"><ele>85.0</ele><time>2026-03-30T09:04:28Z</time></trkpt><trkpt lat="41.97638881807419" lon="12.780653783244178"><ele>85.0</ele><time>2026-03-30T09:04:29Z</time></trkpt><trkpt lat="41.97649699550185" lon="12.78063152929426"><ele>85.0</ele><time>2026-03-30T09:04:30Z</time></trkpt><trkpt lat="41.97660007395325" lon="12.780592858854908"><ele>85.0</ele><time>2026-03-30T09:04:31Z</time></trkpt><trkpt lat="41.9767110110769" lon="12.78056011031153"><ele>85.0</ele><time>2026-03-30T09:04:32Z</time></trkpt><trkpt lat="41.9768060099674" lon="12.780515521979993"><ele>85.0</ele><time>2026-03-30T09:04:33Z</time></trkpt><trkpt lat="41.97689436074575" lon="12.780481696554562"><ele>85.5</ele><time>2026-03-30T09:04:34Z</time></trkpt><trkpt lat="41.97698225296561" lon="12.780471845333674"><ele>86.0</ele><time>2026-03-30T09:04:35Z</time></trkpt><trkpt lat="41.97705696375417" lon="12.780429538313232"><ele>86.5</ele><time>2026-03-30T09:04:36Z</time></trkpt><trkpt lat="41.97713739070587" lon="12.780411013238172"><ele>87.0</ele><time>2026-03-30T09:04:37Z</time></trkpt><trkpt lat="41.97721545581759" lon="12.780386442413025"><ele>87.5</ele><time>2026-03-30T09:04:38Z</time></trkpt><trkpt lat="41.97729092874011" lon="12.780366128459823"><ele>88.0</ele><time>2026-03-30T09:04:39Z</time></trkpt><trkpt lat="41.97737372401073" lon="12.78033410657158"><ele>88.0</ele><time>2026-03-30T09:04:40Z</time></trkpt><trkpt lat="41.977473305570314" lon="12.780325016750254"><ele>88.0</ele><time>2026-03-30T09:04:41Z</time></trkpt><trkpt lat="41.97758631598548" lon="12.780285429087344"><ele>88.0</ele><time>2026-03-30T09:04:42Z</time></trkpt><trkpt lat="41.97769405661348" lon="12.780215098459095"><ele>88.0</ele><time>2026-03-30T09:04:43Z</time></trkpt><trkpt lat="41.97782394689497" lon="12.78015518512596"><ele>88.25</ele><time>2026-03-30T09:04:44Z</time></trkpt><trkpt lat="41.97795669957924" lon="12.780098268489663"><ele>88.5</ele><time>2026-03-30T09:04:45Z</time></trkpt><trkpt lat="41.97808788040511" lon="12.780048707005868"><ele>88.75</ele><time>2026-03-30T09:04:46Z</time></trkpt><trkpt lat="41.97822826712511" lon="12.780009090824292"><ele>89.0</ele><time>2026-03-30T09:04:47Z</time></trkpt><trkpt lat="41.978368809932306" lon="12.779980953136711"><ele>89.5</ele><time>2026-03-30T09:04:48Z</time></trkpt><trkpt lat="41.978506945812654" lon="12.779970621174755"><ele>90.0</ele><time>2026-03-30T09:04:49Z</time></trkpt><trkpt lat="41.97864193973691" lon="12.779959275734628"><ele>90.5</ele><time>2026-03-30T09:04:50Z</time></trkpt><trkpt lat="41.97876105728062" lon="12.779955984068888"><ele>91.0</ele><time>2026-03-30T09:04:51Z</time></trkpt><trkpt lat="41.97887360573352" lon="12.779944160600616"><ele>91.0</ele><time>2026-03-30T09:04:52Z</time></trkpt><trkpt lat="41.97899554655408" lon="12.779899003695192"><ele>91.0</ele><time>2026-03-30T09:04:53Z</time></trkpt><trkpt lat="41.97911594364481" lon="12.779825016694131"><ele>91.0</ele><time>2026-03-30T09:04:54Z</time></trkpt><trkpt lat="41.97923262805574" lon="12.779760369486317"><ele>91.0</ele><time>2026-03-30T09:04:55Z</time></trkpt><trkpt lat="41.979341843806615" lon="12.779753208322145"><ele>91.75</ele><time>2026-03-30T09:04:56Z</time></trkpt><trkpt lat="41.9794565497573" lon="12.77974876557091"><ele>92.5</ele><time>2026-03-30T09:04:57Z</time></trkpt><trkpt lat="41.97957764349891" lon="12.779729169273015"><ele>93.25</ele><time>2026-03-30T09:04:58Z</time></trkpt><trkpt lat="41.979701839645244" lon="12.779750091107056"><ele>94.0</ele><time>2026-03-30T09:04:59Z</time></trkpt><trkpt lat="41.979825472508814" lon="12.77977542066164"><ele>94.0</ele><time>2026-03-30T09:05:00Z</time></trkpt><trkpt lat="41.97994709649518" lon="12.779807027259473"><ele>94.0</ele><time>2026-03-30T09:05:01Z</time></trkpt><trkpt lat="41.98006671075385" lon="12.779829744175467"><ele>94.0</ele><time>2026-03-30T09:05:02Z</time></trkpt><trkpt lat="41.980181720078335" lon="12.779830117106245"><ele>94.0</ele><time>2026-03-30T09:05:03Z</time></trkpt><trkpt lat="41.9802949291395" lon="12.779815099194526"><ele>95.80000000000001</ele><time>2026-03-30T09:05:04Z</time></trkpt><trkpt lat="41.980390347434614" lon="12.779780795053139"><ele>97.60000000000001</ele><time>2026-03-30T09:05:05Z</time></trkpt><trkpt lat="41.98045671010559" lon="12.77975424068436"><ele>99.4</ele><time>2026-03-30T09:05:06Z</time></trkpt><trkpt lat="41.980539501898704" lon="12.779798961265627"><ele>101.2</ele><time>2026-03-30T09:05:08Z</time></trkpt><trkpt lat="41.98060117917517" lon="12.779858828031303"><ele>103.0</ele><time>2026-03-30T09:05:10Z</time></trkpt><trkpt lat="41.980724648401775" lon="12.779752396871066"><ele>103.0</ele><time>2026-03-30T09:05:13Z</time></trkpt><trkpt lat="41.98080413178518" lon="12.779711559079695"><ele>103.0</ele><time>2026-03-30T09:05:14Z</time></trkpt><trkpt lat="41.98088081318251" lon="12.779654099398861"><ele>103.0</ele><time>2026-03-30T09:05:15Z</time></trkpt><trkpt lat="41.98096270844367" lon="12.77959649869878"><ele>103.0</ele><time>2026-03-30T09:05:16Z</time></trkpt><trkpt lat="41.98105197567415" lon="12.77951921793687"><ele>103.0</ele><time>2026-03-30T09:05:17Z</time></trkpt><trkpt lat="41.9811481227721" lon="12.779464647272222"><ele>103.4</ele><time>2026-03-30T09:05:18Z</time></trkpt><trkpt lat="41.981240990552735" lon="12.779412501921822"><ele>103.80000000000001</ele><time>2026-03-30T09:05:18.999Z</time></trkpt><trkpt lat="41.98134356628067" lon="12.779377785561074"><ele>104.2</ele><time>2026-03-30T09:05:19.999Z</time></trkpt><trkpt lat="41.98143586946342" lon="12.779311537141103"><ele>104.6</ele><time>2026-03-30T09:05:20.999Z</time></trkpt><trkpt lat="41.98153420557032" lon="12.779285153726633"><ele>105.0</ele><time>2026-03-30T09:05:21.999Z</time></trkpt><trkpt lat="41.98162094387441" lon="12.779254983419262"><ele>105.8</ele><time>2026-03-30T09:05:22.999Z</time></trkpt><trkpt lat="41.98171322622255" lon="12.779243934781134"><ele>106.6</ele><time>2026-03-30T09:05:23.999Z</time></trkpt><trkpt lat="41.98180752658135" lon="12.779240754808502"><ele>107.4</ele><time>2026-03-30T09:05:24.999Z</time></trkpt><trkpt lat="41.98190040146237" lon="12.779251569372224"><ele>108.2</ele><time>2026-03-30T09:05:25.999Z</time></trkpt><trkpt lat="41.98198726611536" lon="12.779286593367932"><ele>109.0</ele><time>2026-03-30T09:05:26.999Z</time></trkpt><trkpt lat="41.98207242105807" lon="12.779330394948307"><ele>109.80000000000001</ele><time>2026-03-30T09:05:27.999Z</time></trkpt><trkpt lat="41.98216339385975" lon="12.779359381987769"><ele>110.60000000000001</ele><time>2026-03-30T09:05:28.999Z</time></trkpt><trkpt lat="41.98224917671775" lon="12.779399467802326"><ele>111.4</ele><time>2026-03-30T09:05:29.999Z</time></trkpt><trkpt lat="41.98234092128318" lon="12.779402652973817"><ele>112.2</ele><time>2026-03-30T09:05:30.999Z</time></trkpt><trkpt lat="41.98243737516868" lon="12.779378682302996"><ele>113.0</ele><time>2026-03-30T09:05:31.999Z</time></trkpt><trkpt lat="41.982529023811445" lon="12.779346528394292"><ele>113.0</ele><time>2026-03-30T09:05:32.999Z</time></trkpt><trkpt lat="41.982623365373136" lon="12.779324157213775"><ele>113.00000000000001</ele><time>2026-03-30T09:05:33.999Z</time></trkpt><trkpt lat="41.98271557045763" lon="12.779294867548101"><ele>113.00000000000001</ele><time>2026-03-30T09:05:34.999Z</time></trkpt><trkpt lat="41.98280978994811" lon="12.77927015561268"><ele>113.0</ele><time>2026-03-30T09:05:35.999Z</time></trkpt><trkpt lat="41.98289808023378" lon="12.779241130276919"><ele>113.0</ele><time>2026-03-30T09:05:36.999Z</time></trkpt><trkpt lat="41.98298424788296" lon="12.779195946172491"><ele>112.99999999999999</ele><time>2026-03-30T09:05:37.999Z</time></trkpt><trkpt lat="41.98307959109314" lon="12.77918047536582"><ele>113.0</ele><time>2026-03-30T09:05:38.999Z</time></trkpt><trkpt lat="41.983173237709124" lon="12.779183237973111"><ele>113.0</ele><time>2026-03-30T09:05:39.999Z</time></trkpt><trkpt lat="41.98326240080224" lon="12.779189042652684"><ele>113.0</ele><time>2026-03-30T09:05:40.999Z</time></trkpt><trkpt lat="41.98334534069744" lon="12.779183280505205"><ele>112.99999999999999</ele><time>2026-03-30T09:05:41.999Z</time></trkpt><trkpt lat="41.98343116862864" lon="12.779186554091478"><ele>113.0</ele><time>2026-03-30T09:05:43Z</time></trkpt><trkpt lat="41.98351675467063" lon="12.779199187645808"><ele>112.80000000000001</ele><time>2026-03-30T09:05:44Z</time></trkpt><trkpt lat="41.98360461554032" lon="12.779213619773861"><ele>112.60000000000001</ele><time>2026-03-30T09:05:45Z</time></trkpt><trkpt lat="41.983694505596105" lon="12.77922142255853"><ele>112.39999999999999</ele><time>2026-03-30T09:05:46Z</time></trkpt><trkpt lat="41.98378372018191" lon="12.779216062612308"><ele>112.19999999999999</ele><time>2026-03-30T09:05:47Z</time></trkpt><trkpt lat="41.98387499953363" lon="12.779192008724461"><ele>112.0</ele><time>2026-03-30T09:05:48Z</time></trkpt><trkpt lat="41.983961981589154" lon="12.77916538612849"><ele>112.00000000000001</ele><time>2026-03-30T09:05:49Z</time></trkpt><trkpt lat="41.984048776903194" lon="12.779142899195811"><ele>112.0</ele><time>2026-03-30T09:05:50Z</time></trkpt><trkpt lat="41.98413629199564" lon="12.77912516157582"><ele>112.0</ele><time>2026-03-30T09:05:51Z</time></trkpt><trkpt lat="41.98422055846137" lon="12.779109241804353"><ele>112.0</ele><time>2026-03-30T09:05:52Z</time></trkpt><trkpt lat="41.98430955294959" lon="12.7790881531979"><ele>112.00000000000001</ele><time>2026-03-30T09:05:53Z</time></trkpt><trkpt lat="41.9844033051221" lon="12.779071800715942"><ele>112.0</ele><time>2026-03-30T09:05:54Z</time></trkpt><trkpt lat="41.984497473092404" lon="12.779059722710635"><ele>113.0</ele><time>2026-03-30T09:05:55Z</time></trkpt><trkpt lat="41.984592053960924" lon="12.779045070962892"><ele>113.99999999999999</ele><time>2026-03-30T09:05:56Z</time></trkpt><trkpt lat="41.98469062190906" lon="12.779035905005724"><ele>114.99999999999999</ele><time>2026-03-30T09:05:57Z</time></trkpt><trkpt lat="41.98478789725038" lon="12.779017646203723"><ele>116.0</ele><time>2026-03-30T09:05:58Z</time></trkpt><trkpt lat="41.984886836844794" lon="12.778995537359865"><ele>117.0</ele><time>2026-03-30T09:05:59Z</time></trkpt><trkpt lat="41.98498213018799" lon="12.778979057375688"><ele>118.39999999999999</ele><time>2026-03-30T09:06:00Z</time></trkpt><trkpt lat="41.98507957767295" lon="12.778958785821377"><ele>119.79999999999998</ele><time>2026-03-30T09:06:01Z</time></trkpt><trkpt lat="41.98517686187829" lon="12.778936362534932"><ele>121.2</ele><time>2026-03-30T09:06:02Z</time></trkpt><trkpt lat="41.985272768240954" lon="12.77891264875123"><ele>122.6</ele><time>2026-03-30T09:06:03Z</time></trkpt><trkpt lat="41.98536687193818" lon="12.778891426332601"><ele>124.0</ele><time>2026-03-30T09:06:04Z</time></trkpt><trkpt lat="41.98545176132058" lon="12.778895707885546"><ele>124.00000000000001</ele><time>2026-03-30T09:06:05Z</time></trkpt><trkpt lat="41.98552818798244" lon="12.77886900976003"><ele>124.0</ele><time>2026-03-30T09:06:06Z</time></trkpt><trkpt lat="41.98560428971751" lon="12.778897632733075"><ele>124.0</ele><time>2026-03-30T09:06:07Z</time></trkpt><trkpt lat="41.98568254647774" lon="12.778898234420215"><ele>124.0</ele><time>2026-03-30T09:06:08Z</time></trkpt><trkpt lat="41.98575182640889" lon="12.778942959611655"><ele>124.00000000000001</ele><time>2026-03-30T09:06:09Z</time></trkpt><trkpt lat="41.98581202460963" lon="12.77898717086544"><ele>124.0</ele><time>2026-03-30T09:06:10Z</time></trkpt><trkpt lat="41.9859106405166" lon="12.778995605081857"><ele>123.80000000000001</ele><time>2026-03-30T09:06:12Z</time></trkpt><trkpt lat="41.985991131265784" lon="12.778936285853808"><ele>123.60000000000001</ele><time>2026-03-30T09:06:14Z</time></trkpt><trkpt lat="41.98606626928688" lon="12.778923292268273"><ele>123.4</ele><time>2026-03-30T09:06:17Z</time></trkpt><trkpt lat="41.986059781612205" lon="12.778695832703063"><ele>123.2</ele><time>2026-03-30T09:06:24Z</time></trkpt><trkpt lat="41.98603515199062" lon="12.778592056269044"><ele>123.0</ele><time>2026-03-30T09:06:27Z</time></trkpt><trkpt lat="41.986025831611066" lon="12.778492468278984"><ele>123.0</ele><time>2026-03-30T09:06:30Z</time></trkpt><trkpt lat="41.98601450486332" lon="12.778374802988331"><ele>123.0</ele><time>2026-03-30T09:06:33Z</time></trkpt><trkpt lat="41.98600195627243" lon="12.77827005334358"><ele>123.0</ele><time>2026-03-30T09:06:36Z</time></trkpt><trkpt lat="41.98599866619117" lon="12.778171172992769"><ele>123.0</ele><time>2026-03-30T09:06:39Z</time></trkpt><trkpt lat="41.986004788990925" lon="12.778056330776657"><ele>123.0</ele><time>2026-03-30T09:06:42Z</time></trkpt><trkpt lat="41.98599617458925" lon="12.777962958852294"><ele>123.0</ele><time>2026-03-30T09:06:45Z</time></trkpt><trkpt lat="41.985988871812395" lon="12.777874576888236"><ele>123.0</ele><time>2026-03-30T09:06:48Z</time></trkpt><trkpt lat="41.985959419398895" lon="12.777791596788354"><ele>123.00000000000001</ele><time>2026-03-30T09:07:33.999Z</time></trkpt><trkpt lat="41.985982695129685" lon="12.777692227387016"><ele>123.00000000000001</ele><time>2026-03-30T09:07:35.999Z</time></trkpt><trkpt lat="41.98594270663405" lon="12.777459724986794"><ele>123.0</ele><time>2026-03-30T09:07:38.999Z</time></trkpt><trkpt lat="41.98601394238557" lon="12.777368595911721"><ele>123.0</ele><time>2026-03-30T09:07:40.999Z</time></trkpt><trkpt lat="41.9860862748721" lon="12.777296954426665"><ele>123.4</ele><time>2026-03-30T09:07:42.999Z</time></trkpt><trkpt lat="41.98614780229979" lon="12.777254509734334"><ele>123.80000000000001</ele><time>2026-03-30T09:07:44.999Z</time></trkpt><trkpt lat="41.98621391546946" lon="12.777165618248864"><ele>124.2</ele><time>2026-03-30T09:07:46.999Z</time></trkpt><trkpt lat="41.98627959351826" lon="12.777069610049672"><ele>124.6</ele><time>2026-03-30T09:07:49Z</time></trkpt><trkpt lat="41.98633081439245" lon="12.776979231375869"><ele>125.0</ele><time>2026-03-30T09:07:51Z</time></trkpt><trkpt lat="41.986405064528704" lon="12.776833226570993"><ele>125.0</ele><time>2026-03-30T09:07:53Z</time></trkpt><trkpt lat="41.98644783072712" lon="12.776747641255765"><ele>125.0</ele><time>2026-03-30T09:07:54Z</time></trkpt><trkpt lat="41.98649674234035" lon="12.776659073979861"><ele>125.0</ele><time>2026-03-30T09:07:55Z</time></trkpt><trkpt lat="41.986529601089835" lon="12.776565163571767"><ele>125.0</ele><time>2026-03-30T09:07:56Z</time></trkpt><trkpt lat="41.986552160939496" lon="12.776479626796196"><ele>125.0</ele><time>2026-03-30T09:07:57Z</time></trkpt><trkpt lat="41.98656917412301" lon="12.776394603026304"><ele>125.0</ele><time>2026-03-30T09:07:58Z</time></trkpt><trkpt lat="41.98658398207691" lon="12.776307073794532"><ele>125.0</ele><time>2026-03-30T09:07:59Z</time></trkpt><trkpt lat="41.98660883130018" lon="12.77615412576896"><ele>126.0</ele><time>2026-03-30T09:08:01Z</time></trkpt><trkpt lat="41.98662163447112" lon="12.776011489717156"><ele>127.0</ele><time>2026-03-30T09:08:03Z</time></trkpt><trkpt lat="41.98663648251925" lon="12.77588472536301"><ele>128.0</ele><time>2026-03-30T09:08:05Z</time></trkpt><trkpt lat="41.98666398513908" lon="12.775773260658445"><ele>129.0</ele><time>2026-03-30T09:08:07Z</time></trkpt><trkpt lat="41.98672431238008" lon="12.775666613692112"><ele>130.0</ele><time>2026-03-30T09:08:09Z</time></trkpt><trkpt lat="41.98678140940004" lon="12.775581214827096"><ele>130.85714285714286</ele><time>2026-03-30T09:08:11Z</time></trkpt><trkpt lat="41.98682807961891" lon="12.775512972459888"><ele>131.71428571428572</ele><time>2026-03-30T09:08:14Z</time></trkpt><trkpt lat="41.98689093877484" lon="12.77541688298731"><ele>132.57142857142856</ele><time>2026-03-30T09:08:16Z</time></trkpt><trkpt lat="41.98693198855841" lon="12.775345350515463"><ele>133.42857142857144</ele><time>2026-03-30T09:08:17Z</time></trkpt><trkpt lat="41.98697534849177" lon="12.77526979249244"><ele>134.28571428571428</ele><time>2026-03-30T09:08:18Z</time></trkpt><trkpt lat="41.987018499448816" lon="12.775189852185523"><ele>135.14285714285714</ele><time>2026-03-30T09:08:19Z</time></trkpt><trkpt lat="41.98705638433281" lon="12.775119825685008"><ele>136.0</ele><time>2026-03-30T09:08:20Z</time></trkpt><trkpt lat="41.987131016848764" lon="12.774981874816298"><ele>136.0</ele><time>2026-03-30T09:08:22Z</time></trkpt><trkpt lat="41.987169947651715" lon="12.774909036490538"><ele>136.0</ele><time>2026-03-30T09:08:23Z</time></trkpt><trkpt lat="41.987215155656955" lon="12.774822770304226"><ele>136.0</ele><time>2026-03-30T09:08:24Z</time></trkpt><trkpt lat="41.9872605798883" lon="12.77473609138211"><ele>136.0</ele><time>2026-03-30T09:08:25Z</time></trkpt><trkpt lat="41.987307877734715" lon="12.77464583733061"><ele>136.0</ele><time>2026-03-30T09:08:26Z</time></trkpt><trkpt lat="41.98735733714096" lon="12.774549723131043"><ele>136.0</ele><time>2026-03-30T09:08:27Z</time></trkpt><trkpt lat="41.98739919145906" lon="12.774467916930572"><ele>135.99999999999997</ele><time>2026-03-30T09:08:28Z</time></trkpt><trkpt lat="41.98743197532645" lon="12.774377094271427"><ele>136.0</ele><time>2026-03-30T09:08:29Z</time></trkpt><trkpt lat="41.98747773181443" lon="12.774310921028608"><ele>136.0</ele><time>2026-03-30T09:08:30Z</time></trkpt><trkpt lat="41.98752622741899" lon="12.774240617734929"><ele>136.0</ele><time>2026-03-30T09:08:31Z</time></trkpt><trkpt lat="41.98756518316015" lon="12.774168219790756"><ele>136.0</ele><time>2026-03-30T09:08:32Z</time></trkpt><trkpt lat="41.98760266425735" lon="12.774088819819761"><ele>135.99999999999997</ele><time>2026-03-30T09:08:33Z</time></trkpt><trkpt lat="41.987637021671205" lon="12.774007595416377"><ele>136.0</ele><time>2026-03-30T09:08:34Z</time></trkpt><trkpt lat="41.98766946864405" lon="12.773924466479212"><ele>136.16666666666669</ele><time>2026-03-30T09:08:35Z</time></trkpt><trkpt lat="41.98770604675387" lon="12.773835851673859"><ele>136.33333333333334</ele><time>2026-03-30T09:08:36Z</time></trkpt><trkpt lat="41.98775369282002" lon="12.773766351127389"><ele>136.5</ele><time>2026-03-30T09:08:37Z</time></trkpt><trkpt lat="41.987782634927214" lon="12.77367051237923"><ele>136.66666666666666</ele><time>2026-03-30T09:08:38Z</time></trkpt><trkpt lat="41.98782215032942" lon="12.773588529863046"><ele>136.83333333333331</ele><time>2026-03-30T09:08:39Z</time></trkpt><trkpt lat="41.98786451613356" lon="12.77351443197051"><ele>137.0</ele><time>2026-03-30T09:08:40Z</time></trkpt><trkpt lat="41.98793431398587" lon="12.77337798199625"><ele>135.14285714285717</ele><time>2026-03-30T09:08:42Z</time></trkpt><trkpt lat="41.98796667024227" lon="12.773300941832487"><ele>133.28571428571428</ele><time>2026-03-30T09:08:43Z</time></trkpt><trkpt lat="41.98800208418581" lon="12.773216533569208"><ele>131.42857142857144</ele><time>2026-03-30T09:08:44Z</time></trkpt><trkpt lat="41.98804293744084" lon="12.773131680158501"><ele>129.57142857142858</ele><time>2026-03-30T09:08:45Z</time></trkpt><trkpt lat="41.98809517057336" lon="12.773060924224861"><ele>127.71428571428572</ele><time>2026-03-30T09:08:46Z</time></trkpt><trkpt lat="41.9881369130208" lon="12.7729757873465"><ele>125.85714285714286</ele><time>2026-03-30T09:08:47Z</time></trkpt><trkpt lat="41.98818009942922" lon="12.772887997316184"><ele>124.0</ele><time>2026-03-30T09:08:48Z</time></trkpt><trkpt lat="41.98822850195898" lon="12.77279182582874"><ele>124.00000000000001</ele><time>2026-03-30T09:08:49Z</time></trkpt><trkpt lat="41.98827541606183" lon="12.772700766423023"><ele>124.0</ele><time>2026-03-30T09:08:50Z</time></trkpt><trkpt lat="41.98832000012529" lon="12.772616403086902"><ele>124.0</ele><time>2026-03-30T09:08:51Z</time></trkpt><trkpt lat="41.988356342086306" lon="12.772521548339387"><ele>124.0</ele><time>2026-03-30T09:08:52Z</time></trkpt><trkpt lat="41.9884051952089" lon="12.77242759817132"><ele>124.00000000000001</ele><time>2026-03-30T09:08:53Z</time></trkpt><trkpt lat="41.98845766980065" lon="12.772343699427093"><ele>124.0</ele><time>2026-03-30T09:08:54Z</time></trkpt><trkpt lat="41.988508308176236" lon="12.772253305102721"><ele>123.33333333333334</ele><time>2026-03-30T09:08:55Z</time></trkpt><trkpt lat="41.988554684347285" lon="12.772178049536524"><ele>122.66666666666667</ele><time>2026-03-30T09:08:56Z</time></trkpt><trkpt lat="41.98860209379834" lon="12.772099700832097"><ele>122.0</ele><time>2026-03-30T09:08:57Z</time></trkpt><trkpt lat="41.988647978416" lon="12.772021310973404"><ele>121.33333333333334</ele><time>2026-03-30T09:08:58Z</time></trkpt><trkpt lat="41.98870622251587" lon="12.771961596664681"><ele>120.66666666666667</ele><time>2026-03-30T09:08:59Z</time></trkpt><trkpt lat="41.98876060376112" lon="12.771876935987361"><ele>120.0</ele><time>2026-03-30T09:09:00Z</time></trkpt><trkpt lat="41.988811172289424" lon="12.771798289068164"><ele>118.33333333333333</ele><time>2026-03-30T09:09:01Z</time></trkpt><trkpt lat="41.98886135136572" lon="12.771720247940191"><ele>116.66666666666666</ele><time>2026-03-30T09:09:02Z</time></trkpt><trkpt lat="41.98890026687601" lon="12.771626819480009"><ele>115.0</ele><time>2026-03-30T09:09:03Z</time></trkpt><trkpt lat="41.98895169846578" lon="12.771548611258915"><ele>113.33333333333333</ele><time>2026-03-30T09:09:04Z</time></trkpt><trkpt lat="41.98901275482971" lon="12.771484777159484"><ele>111.66666666666666</ele><time>2026-03-30T09:09:05Z</time></trkpt><trkpt lat="41.98905126716593" lon="12.771392844049428"><ele>110.0</ele><time>2026-03-30T09:09:06Z</time></trkpt><trkpt lat="41.98909693808907" lon="12.7713164230959"><ele>110.0</ele><time>2026-03-30T09:09:07Z</time></trkpt><trkpt lat="41.989140345224875" lon="12.771251029730221"><ele>110.0</ele><time>2026-03-30T09:09:08Z</time></trkpt><trkpt lat="41.989217997037954" lon="12.771148706684054"><ele>110.0</ele><time>2026-03-30T09:09:10Z</time></trkpt><trkpt lat="41.98927430865832" lon="12.771086348130577"><ele>110.0</ele><time>2026-03-30T09:09:13Z</time></trkpt><trkpt lat="41.98936853016996" lon="12.771283980511495"><ele>110.0</ele><time>2026-03-30T09:09:20Z</time></trkpt><trkpt lat="41.989396811141674" lon="12.771428653698072"><ele>113.6</ele><time>2026-03-30T09:09:22Z</time></trkpt><trkpt lat="41.98942445417142" lon="12.771513186051232"><ele>117.2</ele><time>2026-03-30T09:09:23Z</time></trkpt><trkpt lat="41.989448123202" lon="12.771601685060595"><ele>120.80000000000001</ele><time>2026-03-30T09:09:24Z</time></trkpt><trkpt lat="41.98949484443556" lon="12.771764573474732"><ele>124.4</ele><time>2026-03-30T09:09:25.999Z</time></trkpt><trkpt lat="41.98955299813891" lon="12.77190003919972"><ele>128.0</ele><time>2026-03-30T09:09:27.999Z</time></trkpt><trkpt lat="41.9896473475446" lon="12.771995427478604"><ele>128.0</ele><time>2026-03-30T09:09:29.999Z</time></trkpt><trkpt lat="41.98970686693548" lon="12.772120952229384"><ele>128.0</ele><time>2026-03-30T09:09:31.999Z</time></trkpt><trkpt lat="41.98975081403809" lon="12.772193010835236"><ele>128.0</ele><time>2026-03-30T09:09:32.999Z</time></trkpt><trkpt lat="41.989837566794066" lon="12.772322929841666"><ele>128.0</ele><time>2026-03-30T09:09:34.999Z</time></trkpt><trkpt lat="41.98988551869517" lon="12.772405553676018"><ele>128.0</ele><time>2026-03-30T09:09:35.999Z</time></trkpt><trkpt lat="41.989930332867665" lon="12.772480976349453"><ele>131.16666666666666</ele><time>2026-03-30T09:09:36.999Z</time></trkpt><trkpt lat="41.99003339821627" lon="12.772553591052162"><ele>134.33333333333331</ele><time>2026-03-30T09:09:38.999Z</time></trkpt><trkpt lat="41.99009664628202" lon="12.77259724265437"><ele>137.5</ele><time>2026-03-30T09:09:39.999Z</time></trkpt><trkpt lat="41.990156415384085" lon="12.772629497755933"><ele>140.66666666666666</ele><time>2026-03-30T09:09:40.999Z</time></trkpt><trkpt lat="41.99021907382527" lon="12.772661604382035"><ele>143.83333333333334</ele><time>2026-03-30T09:09:41.999Z</time></trkpt><trkpt lat="41.99030100099636" lon="12.772696745946485"><ele>147.0</ele><time>2026-03-30T09:09:43.999Z</time></trkpt><trkpt lat="41.990375126344745" lon="12.772746382968869"><ele>147.5</ele><time>2026-03-30T09:09:45.999Z</time></trkpt><trkpt lat="41.99046127808099" lon="12.772743153509655"><ele>148.0</ele><time>2026-03-30T09:09:47.999Z</time></trkpt><trkpt lat="41.99055133275678" lon="12.772765095888229"><ele>148.5</ele><time>2026-03-30T09:09:49.999Z</time></trkpt><trkpt lat="41.99060611213462" lon="12.772808498332324"><ele>149.0</ele><time>2026-03-30T09:09:50.999Z</time></trkpt><trkpt lat="41.99066531653424" lon="12.77284245357547"><ele>149.5</ele><time>2026-03-30T09:09:51.999Z</time></trkpt><trkpt lat="41.990792106859075" lon="12.772896780031486"><ele>150.0</ele><time>2026-03-30T09:09:53.999Z</time></trkpt><trkpt lat="41.99086449559912" lon="12.772934095864938"><ele>151.33333333333334</ele><time>2026-03-30T09:09:55Z</time></trkpt><trkpt lat="41.99097258499902" lon="12.772991536930355"><ele>152.66666666666666</ele><time>2026-03-30T09:09:57Z</time></trkpt><trkpt lat="41.99103288377499" lon="12.773019690005079"><ele>154.0</ele><time>2026-03-30T09:09:58Z</time></trkpt><trkpt lat="41.991095822163935" lon="12.77305212223098"><ele>155.33333333333331</ele><time>2026-03-30T09:09:59Z</time></trkpt><trkpt lat="41.991157065665604" lon="12.773091094831514"><ele>156.66666666666666</ele><time>2026-03-30T09:10:00Z</time></trkpt><trkpt lat="41.99121980169499" lon="12.773127531537472"><ele>158.0</ele><time>2026-03-30T09:10:01Z</time></trkpt><trkpt lat="41.99134578281074" lon="12.773176707779726"><ele>158.0</ele><time>2026-03-30T09:10:03Z</time></trkpt><trkpt lat="41.991425736083734" lon="12.773197400786751"><ele>158.0</ele><time>2026-03-30T09:10:04Z</time></trkpt><trkpt lat="41.99149166562746" lon="12.773218967671275"><ele>158.0</ele><time>2026-03-30T09:10:05Z</time></trkpt><trkpt lat="41.99156512673045" lon="12.77324643643689"><ele>158.0</ele><time>2026-03-30T09:10:06Z</time></trkpt><trkpt lat="41.991630199945014" lon="12.773267548813033"><ele>158.0</ele><time>2026-03-30T09:10:07Z</time></trkpt><trkpt lat="41.99172636692698" lon="12.773262982351339"><ele>158.0</ele><time>2026-03-30T09:10:09Z</time></trkpt><trkpt lat="41.991799524307794" lon="12.773239553002044"><ele>157.83333333333331</ele><time>2026-03-30T09:10:11Z</time></trkpt><trkpt lat="41.99184473419363" lon="12.773330482416062"><ele>157.66666666666666</ele><time>2026-03-30T09:10:14Z</time></trkpt><trkpt lat="41.99184237013583" lon="12.773423541555422"><ele>157.5</ele><time>2026-03-30T09:10:16Z</time></trkpt><trkpt lat="41.99182706522298" lon="12.773526820012533"><ele>157.33333333333334</ele><time>2026-03-30T09:10:18Z</time></trkpt><trkpt lat="41.99182831003107" lon="12.773678419620913"><ele>157.16666666666669</ele><time>2026-03-30T09:10:20Z</time></trkpt><trkpt lat="41.991829410163525" lon="12.773764269930627"><ele>157.0</ele><time>2026-03-30T09:10:21Z</time></trkpt><trkpt lat="41.99182168982288" lon="12.773865474723566"><ele>157.0</ele><time>2026-03-30T09:10:22Z</time></trkpt><trkpt lat="41.99181717420517" lon="12.7739824470551"><ele>157.0</ele><time>2026-03-30T09:10:23Z</time></trkpt><trkpt lat="41.991817395870115" lon="12.774090624333427"><ele>157.0</ele><time>2026-03-30T09:10:24Z</time></trkpt><trkpt lat="41.99180446831863" lon="12.774179574832356"><ele>157.0</ele><time>2026-03-30T09:10:25Z</time></trkpt><trkpt lat="41.99179467780698" lon="12.774329544266195"><ele>157.0</ele><time>2026-03-30T09:10:27Z</time></trkpt><trkpt lat="41.991793379981246" lon="12.774465194657234"><ele>157.0</ele><time>2026-03-30T09:10:29Z</time></trkpt><trkpt lat="41.99179077520999" lon="12.774550086545533"><ele>157.75</ele><time>2026-03-30T09:10:30Z</time></trkpt><trkpt lat="41.99177974332964" lon="12.774699810493246"><ele>158.5</ele><time>2026-03-30T09:10:32Z</time></trkpt><trkpt lat="41.99177547440704" lon="12.774847101042122"><ele>159.25</ele><time>2026-03-30T09:10:34Z</time></trkpt><trkpt lat="41.99176816697329" lon="12.774995447539334"><ele>160.0</ele><time>2026-03-30T09:10:36Z</time></trkpt><trkpt lat="41.991761979275324" lon="12.775156101523566"><ele>161.2</ele><time>2026-03-30T09:10:38Z</time></trkpt><trkpt lat="41.99175427631496" lon="12.775321987995314"><ele>162.4</ele><time>2026-03-30T09:10:40Z</time></trkpt><trkpt lat="41.99174461091" lon="12.77549191192255"><ele>163.60000000000002</ele><time>2026-03-30T09:10:42Z</time></trkpt><trkpt lat="41.99174194593537" lon="12.775583813162507"><ele>164.8</ele><time>2026-03-30T09:10:43Z</time></trkpt><trkpt lat="41.99173957023938" lon="12.77567575054971"><ele>166.0</ele><time>2026-03-30T09:10:44Z</time></trkpt><trkpt lat="41.99173828928346" lon="12.775761359948723"><ele>166.0</ele><time>2026-03-30T09:10:45Z</time></trkpt><trkpt lat="41.9917334288654" lon="12.775930412307062"><ele>166.0</ele><time>2026-03-30T09:10:47Z</time></trkpt><trkpt lat="41.9917285090546" lon="12.776026028203718"><ele>166.0</ele><time>2026-03-30T09:10:48Z</time></trkpt><trkpt lat="41.991727378003596" lon="12.776110879722369"><ele>166.0</ele><time>2026-03-30T09:10:49Z</time></trkpt><trkpt lat="41.991724500688704" lon="12.776204089988726"><ele>166.0</ele><time>2026-03-30T09:10:50Z</time></trkpt><trkpt lat="41.99172084780006" lon="12.776295966912404"><ele>166.0</ele><time>2026-03-30T09:10:51Z</time></trkpt><trkpt lat="41.9917192777164" lon="12.776389370089444"><ele>167.8</ele><time>2026-03-30T09:10:52Z</time></trkpt><trkpt lat="41.99172057604125" lon="12.776544893721681"><ele>169.60000000000002</ele><time>2026-03-30T09:10:54Z</time></trkpt><trkpt lat="41.991719580575" lon="12.776651926093145"><ele>171.4</ele><time>2026-03-30T09:10:56Z</time></trkpt><trkpt lat="41.991775285744005" lon="12.776738583637094"><ele>173.2</ele><time>2026-03-30T09:10:59Z</time></trkpt><trkpt lat="41.991874864185085" lon="12.776764128868392"><ele>175.0</ele><time>2026-03-30T09:11:01Z</time></trkpt><trkpt lat="41.99196343121405" lon="12.776773781518958"><ele>175.0</ele><time>2026-03-30T09:11:02Z</time></trkpt><trkpt lat="41.992075355231734" lon="12.776774933358853"><ele>175.0</ele><time>2026-03-30T09:11:03Z</time></trkpt><trkpt lat="41.992176899868646" lon="12.776785131851048"><ele>175.0</ele><time>2026-03-30T09:11:04Z</time></trkpt><trkpt lat="41.99225490431807" lon="12.776809053491238"><ele>175.0</ele><time>2026-03-30T09:11:05Z</time></trkpt><trkpt lat="41.99232148953789" lon="12.776845687550697"><ele>175.0</ele><time>2026-03-30T09:11:06Z</time></trkpt><trkpt lat="41.99238865562759" lon="12.776850086502888"><ele>175.0</ele><time>2026-03-30T09:11:07Z</time></trkpt><trkpt lat="41.99250941655698" lon="12.77689115249875"><ele>174.83333333333334</ele><time>2026-03-30T09:11:09Z</time></trkpt><trkpt lat="41.99257830732136" lon="12.776926987383627"><ele>174.66666666666669</ele><time>2026-03-30T09:11:10Z</time></trkpt><trkpt lat="41.99266507471862" lon="12.776970297884032"><ele>174.5</ele><time>2026-03-30T09:11:11Z</time></trkpt><trkpt lat="41.992748095643115" lon="12.777007615935023"><ele>174.33333333333334</ele><time>2026-03-30T09:11:12Z</time></trkpt><trkpt lat="41.99280814375245" lon="12.77705506245585"><ele>174.16666666666666</ele><time>2026-03-30T09:11:13Z</time></trkpt><trkpt lat="41.992891735867694" lon="12.77711034842699"><ele>174.0</ele><time>2026-03-30T09:11:15Z</time></trkpt><trkpt lat="41.992970859194976" lon="12.777151082810084"><ele>174.0</ele><time>2026-03-30T09:11:17Z</time></trkpt><trkpt lat="41.99304193782064" lon="12.77723798390672"><ele>174.0</ele><time>2026-03-30T09:11:19Z</time></trkpt><trkpt lat="41.993128148412254" lon="12.777334965420998"><ele>174.0</ele><time>2026-03-30T09:11:21Z</time></trkpt><trkpt lat="41.993186454396294" lon="12.77737730192363"><ele>174.0</ele><time>2026-03-30T09:11:22Z</time></trkpt><trkpt lat="41.993294487712944" lon="12.777427030503814"><ele>174.0</ele><time>2026-03-30T09:11:24Z</time></trkpt><trkpt lat="41.99341018987845" lon="12.777489443538308"><ele>173.85714285714286</ele><time>2026-03-30T09:11:26Z</time></trkpt><trkpt lat="41.99347805433637" lon="12.77750847982976"><ele>173.71428571428572</ele><time>2026-03-30T09:11:27Z</time></trkpt><trkpt lat="41.99354043776705" lon="12.777521182219072"><ele>173.57142857142856</ele><time>2026-03-30T09:11:28Z</time></trkpt><trkpt lat="41.993605701524984" lon="12.777519900816632"><ele>173.42857142857144</ele><time>2026-03-30T09:11:29Z</time></trkpt><trkpt lat="41.99368446622361" lon="12.777519663331464"><ele>173.2857142857143</ele><time>2026-03-30T09:11:30Z</time></trkpt><trkpt lat="41.9937683757347" lon="12.777505961916079"><ele>173.14285714285714</ele><time>2026-03-30T09:11:31Z</time></trkpt><trkpt lat="41.99385586207702" lon="12.777493764372284"><ele>173.0</ele><time>2026-03-30T09:11:32Z</time></trkpt><trkpt lat="41.99394256398123" lon="12.777489774073613"><ele>173.0</ele><time>2026-03-30T09:11:33Z</time></trkpt><trkpt lat="41.99402366709265" lon="12.777493212486068"><ele>173.0</ele><time>2026-03-30T09:11:34Z</time></trkpt><trkpt lat="41.99410819847531" lon="12.777495086061599"><ele>173.0</ele><time>2026-03-30T09:11:35Z</time></trkpt><trkpt lat="41.99418214122055" lon="12.777497025977599"><ele>173.0</ele><time>2026-03-30T09:11:36Z</time></trkpt><trkpt lat="41.99424623472523" lon="12.777505861028128"><ele>173.0</ele><time>2026-03-30T09:11:37Z</time></trkpt><trkpt lat="41.99435710600415" lon="12.777519305461016"><ele>173.0</ele><time>2026-03-30T09:11:39Z</time></trkpt><trkpt lat="41.99446177783218" lon="12.777524024362753"><ele>174.0</ele><time>2026-03-30T09:11:41Z</time></trkpt><trkpt lat="41.99455632924342" lon="12.777548034423763"><ele>175.0</ele><time>2026-03-30T09:11:42.999Z</time></trkpt><trkpt lat="41.99468022889114" lon="12.777624826615853"><ele>176.0</ele><time>2026-03-30T09:11:44.999Z</time></trkpt><trkpt lat="41.99476544005291" lon="12.777654855700384"><ele>177.0</ele><time>2026-03-30T09:11:45.999Z</time></trkpt><trkpt lat="41.99484312976063" lon="12.777715074715303"><ele>178.0</ele><time>2026-03-30T09:11:46.999Z</time></trkpt><trkpt lat="41.99492699728482" lon="12.777760208981043"><ele>179.0</ele><time>2026-03-30T09:11:47.999Z</time></trkpt><trkpt lat="41.99502701858533" lon="12.777797499614406"><ele>180.0</ele><time>2026-03-30T09:11:48.999Z</time></trkpt><trkpt lat="41.99510610990336" lon="12.777873161387612"><ele>181.0</ele><time>2026-03-30T09:11:49.999Z</time></trkpt><trkpt lat="41.99517795752856" lon="12.777913968400659"><ele>182.0</ele><time>2026-03-30T09:11:50.999Z</time></trkpt><trkpt lat="41.995246828635906" lon="12.777974602629778"><ele>183.0</ele><time>2026-03-30T09:11:51.999Z</time></trkpt><trkpt lat="41.9953102973087" lon="12.778028838193375"><ele>184.0</ele><time>2026-03-30T09:11:52.999Z</time></trkpt><trkpt lat="41.99540333792768" lon="12.778064414333128"><ele>184.0</ele><time>2026-03-30T09:11:53.999Z</time></trkpt><trkpt lat="41.995473807921776" lon="12.77813721563248"><ele>184.0</ele><time>2026-03-30T09:11:54.999Z</time></trkpt><trkpt lat="41.995565980320855" lon="12.77821823821754"><ele>184.0</ele><time>2026-03-30T09:11:56.999Z</time></trkpt><trkpt lat="41.99566702217012" lon="12.778326970413362"><ele>184.0</ele><time>2026-03-30T09:11:58.999Z</time></trkpt><trkpt lat="41.99572725762102" lon="12.778355732012372"><ele>184.0</ele><time>2026-03-30T09:11:59.999Z</time></trkpt><trkpt lat="41.99579897421395" lon="12.778417716159892"><ele>185.0</ele><time>2026-03-30T09:12:01Z</time></trkpt><trkpt lat="41.995883180869164" lon="12.778486693921055"><ele>186.0</ele><time>2026-03-30T09:12:02Z</time></trkpt><trkpt lat="41.99597176010232" lon="12.778576213338"><ele>187.0</ele><time>2026-03-30T09:12:03Z</time></trkpt><trkpt lat="41.99606209905414" lon="12.778653149142281"><ele>188.0</ele><time>2026-03-30T09:12:04Z</time></trkpt><trkpt lat="41.99616162559493" lon="12.778744191326167"><ele>189.0</ele><time>2026-03-30T09:12:05Z</time></trkpt><trkpt lat="41.99625066203085" lon="12.778835719498476"><ele>189.0</ele><time>2026-03-30T09:12:06Z</time></trkpt><trkpt lat="41.996346704630845" lon="12.77892754894581"><ele>189.0</ele><time>2026-03-30T09:12:07Z</time></trkpt><trkpt lat="41.99643881408767" lon="12.779012181253716"><ele>189.0</ele><time>2026-03-30T09:12:08Z</time></trkpt><trkpt lat="41.99652452037442" lon="12.779089609200561"><ele>189.0</ele><time>2026-03-30T09:12:09Z</time></trkpt><trkpt lat="41.996593678430784" lon="12.779152463844866"><ele>189.0</ele><time>2026-03-30T09:12:10Z</time></trkpt><trkpt lat="41.99665031960573" lon="12.779210551693692"><ele>189.2</ele><time>2026-03-30T09:12:11Z</time></trkpt><trkpt lat="41.9967260408901" lon="12.77928639423261"><ele>189.39999999999998</ele><time>2026-03-30T09:12:13Z</time></trkpt><trkpt lat="41.99678379499502" lon="12.779378601635802"><ele>189.6</ele><time>2026-03-30T09:12:15Z</time></trkpt><trkpt lat="41.996849407904946" lon="12.779524812537469"><ele>189.8</ele><time>2026-03-30T09:12:17Z</time></trkpt><trkpt lat="41.99688015051089" lon="12.779618696054392"><ele>190.0</ele><time>2026-03-30T09:12:18Z</time></trkpt><trkpt lat="41.996918836571616" lon="12.779733259150673"><ele>190.0</ele><time>2026-03-30T09:12:19Z</time></trkpt><trkpt lat="41.99696886730427" lon="12.77984385269433"><ele>190.0</ele><time>2026-03-30T09:12:20Z</time></trkpt><trkpt lat="41.99700432127127" lon="12.779938145499436"><ele>190.0</ele><time>2026-03-30T09:12:21Z</time></trkpt><trkpt lat="41.99705256306661" lon="12.780058430331104"><ele>190.0</ele><time>2026-03-30T09:12:22Z</time></trkpt><trkpt lat="41.997098400087815" lon="12.78015106713792"><ele>190.0</ele><time>2026-03-30T09:12:23Z</time></trkpt><trkpt lat="41.99712846390374" lon="12.78023852608486"><ele>190.0</ele><time>2026-03-30T09:12:24Z</time></trkpt><trkpt lat="41.99716361031636" lon="12.78033393141283"><ele>191.33333333333334</ele><time>2026-03-30T09:12:25Z</time></trkpt><trkpt lat="41.997195349071504" lon="12.780438583527985"><ele>192.66666666666669</ele><time>2026-03-30T09:12:26Z</time></trkpt><trkpt lat="41.99723071152565" lon="12.78054140297225"><ele>194.0</ele><time>2026-03-30T09:12:27Z</time></trkpt><trkpt lat="41.99726149034227" lon="12.780626726103797"><ele>195.33333333333334</ele><time>2026-03-30T09:12:28Z</time></trkpt><trkpt lat="41.997302759842135" lon="12.780704389516627"><ele>196.66666666666666</ele><time>2026-03-30T09:12:29Z</time></trkpt><trkpt lat="41.99735580668762" lon="12.78080531421529"><ele>198.0</ele><time>2026-03-30T09:12:30Z</time></trkpt><trkpt lat="41.997403620207066" lon="12.780916763224432"><ele>198.60000000000002</ele><time>2026-03-30T09:12:31Z</time></trkpt><trkpt lat="41.997453511981824" lon="12.78103156513669"><ele>199.20000000000002</ele><time>2026-03-30T09:12:32Z</time></trkpt><trkpt lat="41.99750171762174" lon="12.781135336024228"><ele>199.8</ele><time>2026-03-30T09:12:33Z</time></trkpt><trkpt lat="41.99755551883676" lon="12.781239135105631"><ele>200.4</ele><time>2026-03-30T09:12:34Z</time></trkpt><trkpt lat="41.997604451911506" lon="12.781344440226702"><ele>201.0</ele><time>2026-03-30T09:12:35Z</time></trkpt><trkpt lat="41.997649265426965" lon="12.781427692263781"><ele>201.0</ele><time>2026-03-30T09:12:36Z</time></trkpt><trkpt lat="41.99768005262728" lon="12.781527437270512"><ele>201.0</ele><time>2026-03-30T09:12:37Z</time></trkpt><trkpt lat="41.99773874812748" lon="12.78161070010475"><ele>201.0</ele><time>2026-03-30T09:12:38Z</time></trkpt><trkpt lat="41.997779590896066" lon="12.78170721708791"><ele>201.0</ele><time>2026-03-30T09:12:39Z</time></trkpt><trkpt lat="41.99781797819424" lon="12.781791223356034"><ele>201.0</ele><time>2026-03-30T09:12:40Z</time></trkpt><trkpt lat="41.99785925845191" lon="12.78188451659236"><ele>201.0</ele><time>2026-03-30T09:12:41Z</time></trkpt><trkpt lat="41.99789324524373" lon="12.781975908827059"><ele>201.5</ele><time>2026-03-30T09:12:42Z</time></trkpt><trkpt lat="41.997935398905184" lon="12.78206743461599"><ele>202.0</ele><time>2026-03-30T09:12:43Z</time></trkpt><trkpt lat="41.997989857578695" lon="12.782156246157848"><ele>202.5</ele><time>2026-03-30T09:12:44Z</time></trkpt><trkpt lat="41.99804585572962" lon="12.782242114087511"><ele>203.0</ele><time>2026-03-30T09:12:45Z</time></trkpt><trkpt lat="41.998091297756446" lon="12.782348940766934"><ele>203.5</ele><time>2026-03-30T09:12:46Z</time></trkpt><trkpt lat="41.99814034743334" lon="12.782462552792794"><ele>204.0</ele><time>2026-03-30T09:12:47Z</time></trkpt><trkpt lat="41.99819454085495" lon="12.782571473829337"><ele>204.0</ele><time>2026-03-30T09:12:48Z</time></trkpt><trkpt lat="41.9982502357279" lon="12.782683607180477"><ele>204.0</ele><time>2026-03-30T09:12:49Z</time></trkpt><trkpt lat="41.998308899599756" lon="12.782799920213213"><ele>204.0</ele><time>2026-03-30T09:12:50Z</time></trkpt><trkpt lat="41.99836155504776" lon="12.782901058134806"><ele>204.0</ele><time>2026-03-30T09:12:51Z</time></trkpt><trkpt lat="41.998409606566874" lon="12.782988651557524"><ele>204.0</ele><time>2026-03-30T09:12:52Z</time></trkpt><trkpt lat="41.99844801485001" lon="12.78306749836871"><ele>204.0</ele><time>2026-03-30T09:12:53Z</time></trkpt><trkpt lat="41.99849381307478" lon="12.783144256389535"><ele>204.0</ele><time>2026-03-30T09:12:54Z</time></trkpt><trkpt lat="41.998544539372425" lon="12.78323943041286"><ele>204.0</ele><time>2026-03-30T09:12:55Z</time></trkpt><trkpt lat="41.998597563854126" lon="12.78334060341255"><ele>204.0</ele><time>2026-03-30T09:12:56Z</time></trkpt><trkpt lat="41.99865410108565" lon="12.783450780510263"><ele>204.0</ele><time>2026-03-30T09:12:57Z</time></trkpt><trkpt lat="41.998709253762996" lon="12.783571079671914"><ele>204.0</ele><time>2026-03-30T09:12:58Z</time></trkpt><trkpt lat="41.99876864702139" lon="12.783684862992185"><ele>204.33333333333334</ele><time>2026-03-30T09:12:59Z</time></trkpt><trkpt lat="41.998816526282724" lon="12.78378052221084"><ele>204.66666666666669</ele><time>2026-03-30T09:13:00Z</time></trkpt><trkpt lat="41.99885186797488" lon="12.783876513719358"><ele>205.0</ele><time>2026-03-30T09:13:01Z</time></trkpt><trkpt lat="41.99887777986606" lon="12.783969905938305"><ele>205.33333333333334</ele><time>2026-03-30T09:13:02Z</time></trkpt><trkpt lat="41.99890935861667" lon="12.784050016281352"><ele>205.66666666666669</ele><time>2026-03-30T09:13:03Z</time></trkpt><trkpt lat="41.99898359948957" lon="12.784196172790852"><ele>206.0</ele><time>2026-03-30T09:13:05Z</time></trkpt><trkpt lat="41.99902417550792" lon="12.784279289733567"><ele>206.00000000000003</ele><time>2026-03-30T09:13:06Z</time></trkpt><trkpt lat="41.99906223301755" lon="12.784348617791068"><ele>206.0</ele><time>2026-03-30T09:13:07Z</time></trkpt><trkpt lat="41.999097165555995" lon="12.784427090144957"><ele>206.0</ele><time>2026-03-30T09:13:08Z</time></trkpt><trkpt lat="41.999153515759076" lon="12.784567338834245"><ele>206.0</ele><time>2026-03-30T09:13:10Z</time></trkpt><trkpt lat="41.999172539952134" lon="12.784650639379816"><ele>206.00000000000003</ele><time>2026-03-30T09:13:11Z</time></trkpt><trkpt lat="41.99918821092378" lon="12.784739803163419"><ele>206.0</ele><time>2026-03-30T09:13:12Z</time></trkpt><trkpt lat="41.999201871808495" lon="12.784827957890501"><ele>206.00000000000003</ele><time>2026-03-30T09:13:13Z</time></trkpt><trkpt lat="41.99922242042249" lon="12.784930035315053"><ele>206.0</ele><time>2026-03-30T09:13:14Z</time></trkpt><trkpt lat="41.99924301864122" lon="12.785036026635893"><ele>206.0</ele><time>2026-03-30T09:13:15Z</time></trkpt><trkpt lat="41.99925778894704" lon="12.785149125583136"><ele>206.0</ele><time>2026-03-30T09:13:16Z</time></trkpt><trkpt lat="41.999278711597846" lon="12.785267978783912"><ele>206.00000000000003</ele><time>2026-03-30T09:13:17Z</time></trkpt><trkpt lat="41.99930427635978" lon="12.785392199325184"><ele>206.0</ele><time>2026-03-30T09:13:18Z</time></trkpt><trkpt lat="41.999329340959896" lon="12.785526170340544"><ele>205.83333333333334</ele><time>2026-03-30T09:13:19Z</time></trkpt><trkpt lat="41.99934477822713" lon="12.785656938578104"><ele>205.66666666666669</ele><time>2026-03-30T09:13:20Z</time></trkpt><trkpt lat="41.99936463975467" lon="12.78576672969978"><ele>205.5</ele><time>2026-03-30T09:13:21Z</time></trkpt><trkpt lat="41.999383832631565" lon="12.785864717934741"><ele>205.33333333333331</ele><time>2026-03-30T09:13:22Z</time></trkpt><trkpt lat="41.999397083563494" lon="12.785952462473437"><ele>205.16666666666666</ele><time>2026-03-30T09:13:23Z</time></trkpt><trkpt lat="41.99941598090282" lon="12.78611264538017"><ele>205.0</ele><time>2026-03-30T09:13:25Z</time></trkpt><trkpt lat="41.999379813929636" lon="12.786255291462911"><ele>204.66666666666666</ele><time>2026-03-30T09:13:27Z</time></trkpt><trkpt lat="41.999273829295625" lon="12.786336800060237"><ele>204.33333333333331</ele><time>2026-03-30T09:13:29Z</time></trkpt><trkpt lat="41.999214667265086" lon="12.786383132626892"><ele>204.0</ele><time>2026-03-30T09:13:30Z</time></trkpt><trkpt lat="41.999153528895555" lon="12.78643375482992"><ele>203.66666666666669</ele><time>2026-03-30T09:13:31Z</time></trkpt><trkpt lat="41.99909433052079" lon="12.786488891527505"><ele>203.33333333333334</ele><time>2026-03-30T09:13:32Z</time></trkpt><trkpt lat="41.999038636805075" lon="12.786540763675095"><ele>203.0</ele><time>2026-03-30T09:13:33Z</time></trkpt><trkpt lat="41.998981681818485" lon="12.786594678484331"><ele>203.0</ele><time>2026-03-30T09:13:34Z</time></trkpt><trkpt lat="41.99892353371659" lon="12.78664961210847"><ele>203.0</ele><time>2026-03-30T09:13:35Z</time></trkpt><trkpt lat="41.998871643570574" lon="12.78672303474962"><ele>203.0</ele><time>2026-03-30T09:13:35.999Z</time></trkpt><trkpt lat="41.99881328751301" lon="12.786774168878969"><ele>203.0</ele><time>2026-03-30T09:13:36.999Z</time></trkpt><trkpt lat="41.99875198860646" lon="12.786833592923752"><ele>203.0</ele><time>2026-03-30T09:13:37.999Z</time></trkpt><trkpt lat="41.998681402357256" lon="12.786871652675691"><ele>203.0</ele><time>2026-03-30T09:13:38.999Z</time></trkpt><trkpt lat="41.998622168603475" lon="12.786920689670996"><ele>203.0</ele><time>2026-03-30T09:13:39.999Z</time></trkpt><trkpt lat="41.998563226702615" lon="12.786969684562385"><ele>202.28571428571428</ele><time>2026-03-30T09:13:40.999Z</time></trkpt><trkpt lat="41.998498567228744" lon="12.787022867022324"><ele>201.57142857142856</ele><time>2026-03-30T09:13:41.999Z</time></trkpt><trkpt lat="41.99843640604201" lon="12.787073994790395"><ele>200.85714285714286</ele><time>2026-03-30T09:13:42.999Z</time></trkpt><trkpt lat="41.9983724825833" lon="12.78712657194294"><ele>200.14285714285714</ele><time>2026-03-30T09:13:43.999Z</time></trkpt><trkpt lat="41.9983094599586" lon="12.787180318986604"><ele>199.42857142857142</ele><time>2026-03-30T09:13:44.999Z</time></trkpt><trkpt lat="41.998262250250605" lon="12.787246573533245"><ele>198.71428571428572</ele><time>2026-03-30T09:13:45.999Z</time></trkpt><trkpt lat="41.998195507246294" lon="12.787279090051141"><ele>198.0</ele><time>2026-03-30T09:13:46.999Z</time></trkpt><trkpt lat="41.998140101352746" lon="12.787327114343404"><ele>197.2</ele><time>2026-03-30T09:13:47.999Z</time></trkpt><trkpt lat="41.99809018287035" lon="12.787397364057524"><ele>196.4</ele><time>2026-03-30T09:13:48.999Z</time></trkpt><trkpt lat="41.99798598390946" lon="12.787484387530284"><ele>195.6</ele><time>2026-03-30T09:13:50.999Z</time></trkpt><trkpt lat="41.99787599412559" lon="12.78754662860051"><ele>194.79999999999998</ele><time>2026-03-30T09:13:52.999Z</time></trkpt><trkpt lat="41.99779919850035" lon="12.787535139384332"><ele>194.0</ele><time>2026-03-30T09:13:54.999Z</time></trkpt><trkpt lat="41.99770777337942" lon="12.787425354719948"><ele>194.00000000000003</ele><time>2026-03-30T09:13:56.999Z</time></trkpt><trkpt lat="41.99763391215761" lon="12.787345427900759"><ele>194.0</ele><time>2026-03-30T09:13:57.999Z</time></trkpt><trkpt lat="41.99756649192117" lon="12.787270910153724"><ele>194.0</ele><time>2026-03-30T09:13:58.999Z</time></trkpt><trkpt lat="41.997501153211836" lon="12.787209432139601"><ele>194.0</ele><time>2026-03-30T09:13:59.999Z</time></trkpt><trkpt lat="41.997428042149856" lon="12.787155936689725"><ele>194.00000000000003</ele><time>2026-03-30T09:14:00.999Z</time></trkpt><trkpt lat="41.99735008513141" lon="12.787130277666417"><ele>194.0</ele><time>2026-03-30T09:14:01.999Z</time></trkpt><trkpt lat="41.99728797302959" lon="12.787092396219629"><ele>193.14285714285714</ele><time>2026-03-30T09:14:02.999Z</time></trkpt><trkpt lat="41.99721653911003" lon="12.78706842550422"><ele>192.2857142857143</ele><time>2026-03-30T09:14:03.999Z</time></trkpt><trkpt lat="41.99715148809112" lon="12.78706852024637"><ele>191.42857142857144</ele><time>2026-03-30T09:14:04.999Z</time></trkpt><trkpt lat="41.997081497011266" lon="12.787090875808687"><ele>190.57142857142856</ele><time>2026-03-30T09:14:05.999Z</time></trkpt><trkpt lat="41.997002839489916" lon="12.787117953774985"><ele>189.71428571428572</ele><time>2026-03-30T09:14:07Z</time></trkpt><trkpt lat="41.996931880234364" lon="12.787144168417447"><ele>188.85714285714286</ele><time>2026-03-30T09:14:08Z</time></trkpt><trkpt lat="41.99685919468792" lon="12.787170522190143"><ele>188.0</ele><time>2026-03-30T09:14:09Z</time></trkpt><trkpt lat="41.9967930042504" lon="12.787196127787306"><ele>188.0</ele><time>2026-03-30T09:14:10Z</time></trkpt><trkpt lat="41.996689002784485" lon="12.787272783716038"><ele>188.0</ele><time>2026-03-30T09:14:12Z</time></trkpt><trkpt lat="41.99661745643043" lon="12.787395350843367"><ele>188.0</ele><time>2026-03-30T09:14:14Z</time></trkpt><trkpt lat="41.99660097895773" lon="12.787479349712376"><ele>188.0</ele><time>2026-03-30T09:14:15Z</time></trkpt><trkpt lat="41.996598801674146" lon="12.787565084414956"><ele>188.0</ele><time>2026-03-30T09:14:16Z</time></trkpt><trkpt lat="41.996576663306435" lon="12.787704493391592"><ele>186.8</ele><time>2026-03-30T09:14:18Z</time></trkpt><trkpt lat="41.99656674859789" lon="12.787835353613792"><ele>185.60000000000002</ele><time>2026-03-30T09:14:20Z</time></trkpt><trkpt lat="41.996555334616204" lon="12.787957283626456"><ele>184.39999999999998</ele><time>2026-03-30T09:14:22Z</time></trkpt><trkpt lat="41.996632517022235" lon="12.788041846150037"><ele>183.2</ele><time>2026-03-30T09:14:24Z</time></trkpt><trkpt lat="41.99671695626605" lon="12.788138740569003"><ele>182.0</ele><time>2026-03-30T09:14:26Z</time></trkpt><trkpt lat="41.99677025550797" lon="12.788187006796397"><ele>182.0</ele><time>2026-03-30T09:14:27Z</time></trkpt><trkpt lat="41.99683145190043" lon="12.788241644563334"><ele>182.0</ele><time>2026-03-30T09:14:28Z</time></trkpt><trkpt lat="41.99697420408953" lon="12.788380205989613"><ele>182.0</ele><time>2026-03-30T09:14:30Z</time></trkpt><trkpt lat="41.99706168678008" lon="12.788442736627555"><ele>182.0</ele><time>2026-03-30T09:14:31Z</time></trkpt><trkpt lat="41.997122555749826" lon="12.788502494907428"><ele>182.0</ele><time>2026-03-30T09:14:32Z</time></trkpt><trkpt lat="41.99717990072899" lon="12.788585146529838"><ele>181.57142857142858</ele><time>2026-03-30T09:14:33Z</time></trkpt><trkpt lat="41.99724757500762" lon="12.788626473365975"><ele>181.14285714285714</ele><time>2026-03-30T09:14:34Z</time></trkpt><trkpt lat="41.99730788439864" lon="12.788683109416478"><ele>180.71428571428572</ele><time>2026-03-30T09:14:35Z</time></trkpt><trkpt lat="41.99736492141227" lon="12.78874221998364"><ele>180.28571428571428</ele><time>2026-03-30T09:14:36Z</time></trkpt><trkpt lat="41.99742475405797" lon="12.788801328685434"><ele>179.85714285714286</ele><time>2026-03-30T09:14:37Z</time></trkpt><trkpt lat="41.997481050993954" lon="12.788863697648532"><ele>179.42857142857144</ele><time>2026-03-30T09:14:38Z</time></trkpt><trkpt lat="41.99754283669148" lon="12.788926933642575"><ele>179.0</ele><time>2026-03-30T09:14:39Z</time></trkpt><trkpt lat="41.99760942877525" lon="12.7889960019558"><ele>178.83333333333331</ele><time>2026-03-30T09:14:40Z</time></trkpt><trkpt lat="41.99767517460345" lon="12.789056509071514"><ele>178.66666666666666</ele><time>2026-03-30T09:14:41Z</time></trkpt><trkpt lat="41.997744390200694" lon="12.789121256281202"><ele>178.5</ele><time>2026-03-30T09:14:42Z</time></trkpt><trkpt lat="41.997821324768196" lon="12.78919982890444"><ele>178.33333333333334</ele><time>2026-03-30T09:14:43Z</time></trkpt><trkpt lat="41.997897442727684" lon="12.78927522660495"><ele>178.16666666666669</ele><time>2026-03-30T09:14:44Z</time></trkpt><trkpt lat="41.99796324085862" lon="12.78934831985847"><ele>178.0</ele><time>2026-03-30T09:14:45Z</time></trkpt><trkpt lat="41.998038340156626" lon="12.789427582514364"><ele>177.8</ele><time>2026-03-30T09:14:46Z</time></trkpt><trkpt lat="41.998111942177026" lon="12.789502423301817"><ele>177.60000000000002</ele><time>2026-03-30T09:14:47Z</time></trkpt><trkpt lat="41.99818152750256" lon="12.789571984332996"><ele>177.39999999999998</ele><time>2026-03-30T09:14:48Z</time></trkpt><trkpt lat="41.998252537086096" lon="12.789651276911531"><ele>177.2</ele><time>2026-03-30T09:14:50Z</time></trkpt><trkpt lat="41.998320443166" lon="12.789718520566792"><ele>177.0</ele><time>2026-03-30T09:14:52Z</time></trkpt><trkpt lat="41.9984014666557" lon="12.789804121859227"><ele>177.0</ele><time>2026-03-30T09:14:54Z</time></trkpt><trkpt lat="41.99846152804762" lon="12.789866447736351"><ele>177.0</ele><time>2026-03-30T09:14:56Z</time></trkpt><trkpt lat="41.998519907176615" lon="12.789909841815394"><ele>177.0</ele><time>2026-03-30T09:14:58Z</time></trkpt><trkpt lat="41.9985839976286" lon="12.789970890277036"><ele>177.0</ele><time>2026-03-30T09:15:00Z</time></trkpt><trkpt lat="41.9986681174525" lon="12.790085330388624"><ele>177.0</ele><time>2026-03-30T09:15:02Z</time></trkpt><trkpt lat="41.99873925566786" lon="12.790162603901285"><ele>177.0</ele><time>2026-03-30T09:15:03Z</time></trkpt><trkpt lat="41.998803801048226" lon="12.790235656039101"><ele>176.83333333333334</ele><time>2026-03-30T09:15:04Z</time></trkpt><trkpt lat="41.998865610844526" lon="12.790307725246164"><ele>176.66666666666666</ele><time>2026-03-30T09:15:05Z</time></trkpt><trkpt lat="41.99892884385263" lon="12.790378224311834"><ele>176.5</ele><time>2026-03-30T09:15:06Z</time></trkpt><trkpt lat="41.99898680350532" lon="12.79042834282665"><ele>176.33333333333331</ele><time>2026-03-30T09:15:07Z</time></trkpt><trkpt lat="41.999055322249625" lon="12.790479348826349"><ele>176.16666666666666</ele><time>2026-03-30T09:15:11Z</time></trkpt><trkpt lat="41.999193050441676" lon="12.790461335731509"><ele>176.0</ele><time>2026-03-30T09:15:14Z</time></trkpt><trkpt lat="41.99926089921991" lon="12.790418847517214"><ele>175.75</ele><time>2026-03-30T09:15:16Z</time></trkpt><trkpt lat="41.999275281286565" lon="12.790093510016147"><ele>175.5</ele><time>2026-03-30T09:15:17Z</time></trkpt><trkpt lat="41.99930066179831" lon="12.789984346930291"><ele>175.25</ele><time>2026-03-30T09:15:18Z</time></trkpt><trkpt lat="41.99934861868712" lon="12.789924656208068"><ele>175.0</ele><time>2026-03-30T09:15:19Z</time></trkpt><trkpt lat="41.99938781970964" lon="12.789844918172147"><ele>175.0</ele><time>2026-03-30T09:15:20Z</time></trkpt><trkpt lat="41.99943313806688" lon="12.789754239288092"><ele>175.0</ele><time>2026-03-30T09:15:21Z</time></trkpt><trkpt lat="41.99947728069304" lon="12.789668109153034"><ele>175.0</ele><time>2026-03-30T09:15:22Z</time></trkpt><trkpt lat="41.99951628294612" lon="12.789597534371325"><ele>175.0</ele><time>2026-03-30T09:15:23Z</time></trkpt><trkpt lat="41.99958622822153" lon="12.78949751129594"><ele>175.0</ele><time>2026-03-30T09:15:25Z</time></trkpt><trkpt lat="41.99969444572032" lon="12.78953771737554"><ele>175.0</ele><time>2026-03-30T09:15:27Z</time></trkpt><trkpt lat="41.99976272485602" lon="12.789587861682637"><ele>175.0</ele><time>2026-03-30T09:15:28Z</time></trkpt><trkpt lat="41.99982964633903" lon="12.789644457198877"><ele>175.0</ele><time>2026-03-30T09:15:29Z</time></trkpt><trkpt lat="41.99990150187157" lon="12.789707359898829"><ele>175.0</ele><time>2026-03-30T09:15:30Z</time></trkpt><trkpt lat="41.999971149871875" lon="12.789745788346316"><ele>175.0</ele><time>2026-03-30T09:15:30.999Z</time></trkpt><trkpt lat="42.00003826098897" lon="12.78974060514114"><ele>175.0</ele><time>2026-03-30T09:15:31.999Z</time></trkpt><trkpt lat="42.00011796026666" lon="12.789704703358593"><ele>175.0</ele><time>2026-03-30T09:15:32.999Z</time></trkpt><trkpt lat="42.00020676898315" lon="12.78961915288262"><ele>175.0</ele><time>2026-03-30T09:15:33.999Z</time></trkpt><trkpt lat="42.00030631882479" lon="12.789514246884908"><ele>175.0</ele><time>2026-03-30T09:15:34.999Z</time></trkpt><trkpt lat="42.000406521833405" lon="12.789414159168553"><ele>175.0</ele><time>2026-03-30T09:15:35.999Z</time></trkpt><trkpt lat="42.00046200242317" lon="12.789335376530746"><ele>175.0</ele><time>2026-03-30T09:15:36.999Z</time></trkpt><trkpt lat="42.00056105084809" lon="12.789237647105994"><ele>175.33333333333334</ele><time>2026-03-30T09:15:37.999Z</time></trkpt><trkpt lat="42.00065745938509" lon="12.78914545101669"><ele>175.66666666666669</ele><time>2026-03-30T09:15:38.999Z</time></trkpt><trkpt lat="42.000734437535726" lon="12.789062533445819"><ele>176.0</ele><time>2026-03-30T09:15:39.999Z</time></trkpt><trkpt lat="42.000794688416676" lon="12.788993998990959"><ele>176.33333333333334</ele><time>2026-03-30T09:15:40.999Z</time></trkpt><trkpt lat="42.000836046140066" lon="12.788919061793939"><ele>176.66666666666666</ele><time>2026-03-30T09:15:41.999Z</time></trkpt><trkpt lat="42.000861953779136" lon="12.78883799165476"><ele>177.0</ele><time>2026-03-30T09:15:42.999Z</time></trkpt><trkpt lat="42.00088089510348" lon="12.788754601289597"><ele>177.0</ele><time>2026-03-30T09:15:43.999Z</time></trkpt><trkpt lat="42.00091931248987" lon="12.788683556795617"><ele>177.0</ele><time>2026-03-30T09:15:44.999Z</time></trkpt><trkpt lat="42.00094934671098" lon="12.788605024141578"><ele>177.0</ele><time>2026-03-30T09:15:45.999Z</time></trkpt><trkpt lat="42.001028444310435" lon="12.788463429120279"><ele>177.0</ele><time>2026-03-30T09:15:47.999Z</time></trkpt><trkpt lat="42.001090744960884" lon="12.788389909210839"><ele>177.0</ele><time>2026-03-30T09:15:48.999Z</time></trkpt><trkpt lat="42.00116854400787" lon="12.78829799748903"><ele>177.0</ele><time>2026-03-30T09:15:49.999Z</time></trkpt><trkpt lat="42.00126150006321" lon="12.78816047375922"><ele>177.8</ele><time>2026-03-30T09:15:50.999Z</time></trkpt><trkpt lat="42.001359761828475" lon="12.788049823514712"><ele>178.6</ele><time>2026-03-30T09:15:51.999Z</time></trkpt><trkpt lat="42.00144791730261" lon="12.78794802595636"><ele>179.4</ele><time>2026-03-30T09:15:52.999Z</time></trkpt><trkpt lat="42.00152053523298" lon="12.787854563295204"><ele>180.20000000000002</ele><time>2026-03-30T09:15:53.999Z</time></trkpt><trkpt lat="42.001582866249834" lon="12.787756969236757"><ele>181.0</ele><time>2026-03-30T09:15:54.999Z</time></trkpt><trkpt lat="42.0016392621769" lon="12.787658624620555"><ele>180.4</ele><time>2026-03-30T09:15:55.999Z</time></trkpt><trkpt lat="42.00168361657055" lon="12.78755907243207"><ele>179.8</ele><time>2026-03-30T09:15:56.999Z</time></trkpt><trkpt lat="42.001715651070846" lon="12.787450443549776"><ele>179.20000000000002</ele><time>2026-03-30T09:15:57.999Z</time></trkpt><trkpt lat="42.00174921855621" lon="12.787312149352436"><ele>178.60000000000002</ele><time>2026-03-30T09:15:58.999Z</time></trkpt><trkpt lat="42.001783054117645" lon="12.787171726213197"><ele>178.0</ele><time>2026-03-30T09:15:59.999Z</time></trkpt><trkpt lat="42.00181726251" lon="12.787026980790767"><ele>178.0</ele><time>2026-03-30T09:16:00.999Z</time></trkpt><trkpt lat="42.001851356779326" lon="12.786882718248977"><ele>178.0</ele><time>2026-03-30T09:16:01.999Z</time></trkpt><trkpt lat="42.00187829592603" lon="12.786755998265985"><ele>178.0</ele><time>2026-03-30T09:16:02.999Z</time></trkpt><trkpt lat="42.00190473148381" lon="12.78662556702653"><ele>178.0</ele><time>2026-03-30T09:16:03.999Z</time></trkpt><trkpt lat="42.001920704289006" lon="12.786498064451761"><ele>178.0</ele><time>2026-03-30T09:16:04.999Z</time></trkpt><trkpt lat="42.00191765033505" lon="12.78637408057133"><ele>177.5</ele><time>2026-03-30T09:16:05.999Z</time></trkpt><trkpt lat="42.00192572117182" lon="12.786267679117824"><ele>177.0</ele><time>2026-03-30T09:16:06.999Z</time></trkpt><trkpt lat="42.00194343196749" lon="12.786182074268412"><ele>176.5</ele><time>2026-03-30T09:16:09.999Z</time></trkpt><trkpt lat="42.00201558778001" lon="12.786063178326982"><ele>176.0</ele><time>2026-03-30T09:16:11.999Z</time></trkpt><trkpt lat="42.002077995606626" lon="12.786015202263592"><ele>175.5</ele><time>2026-03-30T09:16:13Z</time></trkpt><trkpt lat="42.00214877494728" lon="12.785950976300116"><ele>175.0</ele><time>2026-03-30T09:16:14Z</time></trkpt><trkpt lat="42.0022216155407" lon="12.785879526881875"><ele>174.5</ele><time>2026-03-30T09:16:15Z</time></trkpt><trkpt lat="42.00229667301248" lon="12.785824476598075"><ele>174.0</ele><time>2026-03-30T09:16:16Z</time></trkpt><trkpt lat="42.00234932265217" lon="12.785737791786968"><ele>173.5</ele><time>2026-03-30T09:16:17Z</time></trkpt><trkpt lat="42.002376581244015" lon="12.78562062575428"><ele>173.0</ele><time>2026-03-30T09:16:18Z</time></trkpt><trkpt lat="42.00239402233159" lon="12.785529427678805"><ele>172.5</ele><time>2026-03-30T09:16:25Z</time></trkpt><trkpt lat="42.002422093424556" lon="12.78537784975"><ele>172.0</ele><time>2026-03-30T09:16:27Z</time></trkpt><trkpt lat="42.00243956278779" lon="12.785281748465883"><ele>172.0</ele><time>2026-03-30T09:16:28Z</time></trkpt><trkpt lat="42.00245558798512" lon="12.785196390643076"><ele>172.0</ele><time>2026-03-30T09:16:29Z</time></trkpt><trkpt lat="42.00247430860385" lon="12.785099143164528"><ele>172.0</ele><time>2026-03-30T09:16:30Z</time></trkpt><trkpt lat="42.00249312095202" lon="12.785002009692278"><ele>172.0</ele><time>2026-03-30T09:16:31Z</time></trkpt><trkpt lat="42.00251024842364" lon="12.78490829512474"><ele>172.0</ele><time>2026-03-30T09:16:32Z</time></trkpt><trkpt lat="42.00252745339116" lon="12.784812728830671"><ele>172.0</ele><time>2026-03-30T09:16:33Z</time></trkpt><trkpt lat="42.00255179665993" lon="12.78465127409226"><ele>171.8</ele><time>2026-03-30T09:16:35Z</time></trkpt><trkpt lat="42.002568667040165" lon="12.784510088087872"><ele>171.6</ele><time>2026-03-30T09:16:37Z</time></trkpt><trkpt lat="42.002571286136565" lon="12.78438725655507"><ele>171.4</ele><time>2026-03-30T09:16:39Z</time></trkpt><trkpt lat="42.0025167728167" lon="12.784252614304362"><ele>171.20000000000002</ele><time>2026-03-30T09:16:41Z</time></trkpt><trkpt lat="42.00246135291384" lon="12.784098828542744"><ele>171.0</ele><time>2026-03-30T09:16:43Z</time></trkpt><trkpt lat="42.002467306577294" lon="12.783980244655204"><ele>170.83333333333334</ele><time>2026-03-30T09:16:44Z</time></trkpt><trkpt lat="42.00250318627467" lon="12.783864049692562"><ele>170.66666666666666</ele><time>2026-03-30T09:16:45Z</time></trkpt><trkpt lat="42.00252419935665" lon="12.783759098476537"><ele>170.5</ele><time>2026-03-30T09:16:46Z</time></trkpt><trkpt lat="42.00253183501246" lon="12.783651489123136"><ele>170.33333333333331</ele><time>2026-03-30T09:16:47Z</time></trkpt><trkpt lat="42.00256435401301" lon="12.783550777163315"><ele>170.16666666666666</ele><time>2026-03-30T09:16:48Z</time></trkpt><trkpt lat="42.00257691106204" lon="12.783451274135372"><ele>170.0</ele><time>2026-03-30T09:16:49Z</time></trkpt><trkpt lat="42.00256913239957" lon="12.783351291805971"><ele>168.83333333333331</ele><time>2026-03-30T09:16:50Z</time></trkpt><trkpt lat="42.002575018039856" lon="12.78325734641896"><ele>167.66666666666666</ele><time>2026-03-30T09:16:51Z</time></trkpt><trkpt lat="42.00258132331298" lon="12.783158182003701"><ele>166.5</ele><time>2026-03-30T09:16:52Z</time></trkpt><trkpt lat="42.00258599994904" lon="12.78307008615879"><ele>165.33333333333334</ele><time>2026-03-30T09:16:53Z</time></trkpt><trkpt lat="42.00259727513628" lon="12.782891560113208"><ele>164.16666666666669</ele><time>2026-03-30T09:16:55Z</time></trkpt><trkpt lat="42.0025941970516" lon="12.782800293057681"><ele>163.0</ele><time>2026-03-30T09:16:56Z</time></trkpt><trkpt lat="42.00260003867522" lon="12.782705100927624"><ele>162.33333333333334</ele><time>2026-03-30T09:16:57Z</time></trkpt><trkpt lat="42.002603488061396" lon="12.782613279157724"><ele>161.66666666666669</ele><time>2026-03-30T09:16:58Z</time></trkpt><trkpt lat="42.00262437052564" lon="12.782529142679197"><ele>161.0</ele><time>2026-03-30T09:16:59Z</time></trkpt><trkpt lat="42.00263369837499" lon="12.782434044149683"><ele>160.33333333333334</ele><time>2026-03-30T09:17:00Z</time></trkpt><trkpt lat="42.00265441732687" lon="12.782340198761952"><ele>159.66666666666666</ele><time>2026-03-30T09:17:01Z</time></trkpt><trkpt lat="42.00268228328165" lon="12.78222276915903"><ele>159.0</ele><time>2026-03-30T09:17:02Z</time></trkpt><trkpt lat="42.00271449173661" lon="12.78210493532091"><ele>159.0</ele><time>2026-03-30T09:17:03Z</time></trkpt><trkpt lat="42.00274478616593" lon="12.781995784846952"><ele>159.0</ele><time>2026-03-30T09:17:04Z</time></trkpt><trkpt lat="42.00277464775989" lon="12.781890577472444"><ele>159.0</ele><time>2026-03-30T09:17:05Z</time></trkpt><trkpt lat="42.00280132748941" lon="12.781793006163456"><ele>159.0</ele><time>2026-03-30T09:17:06Z</time></trkpt><trkpt lat="42.00282297753805" lon="12.78170941139999"><ele>159.0</ele><time>2026-03-30T09:17:07Z</time></trkpt><trkpt lat="42.00284380600656" lon="12.781624752366852"><ele>159.0</ele><time>2026-03-30T09:17:08Z</time></trkpt><trkpt lat="42.0028642045138" lon="12.781539821771798"><ele>159.0</ele><time>2026-03-30T09:17:09Z</time></trkpt><trkpt lat="42.00288515256342" lon="12.7814519528772"><ele>157.6</ele><time>2026-03-30T09:17:10Z</time></trkpt><trkpt lat="42.00291785968392" lon="12.781300844558832"><ele>156.2</ele><time>2026-03-30T09:17:12Z</time></trkpt><trkpt lat="42.00294138410902" lon="12.781167860965828"><ele>154.79999999999998</ele><time>2026-03-30T09:17:14Z</time></trkpt><trkpt lat="42.00291546644408" lon="12.78102668746769"><ele>153.4</ele><time>2026-03-30T09:17:16Z</time></trkpt><trkpt lat="42.002903769822346" lon="12.780877108858444"><ele>152.0</ele><time>2026-03-30T09:17:18Z</time></trkpt><trkpt lat="42.002935199725414" lon="12.780720082730475"><ele>152.0</ele><time>2026-03-30T09:17:20Z</time></trkpt><trkpt lat="42.00296703680196" lon="12.780632939223763"><ele>152.0</ele><time>2026-03-30T09:17:21Z</time></trkpt><trkpt lat="42.003006764480226" lon="12.780547367452364"><ele>152.0</ele><time>2026-03-30T09:17:22Z</time></trkpt><trkpt lat="42.00303534630386" lon="12.780455483551375"><ele>152.0</ele><time>2026-03-30T09:17:23Z</time></trkpt><trkpt lat="42.00307428177864" lon="12.780363669332289"><ele>152.0</ele><time>2026-03-30T09:17:24Z</time></trkpt><trkpt lat="42.00311874717835" lon="12.780259126401978"><ele>152.0</ele><time>2026-03-30T09:17:24.999Z</time></trkpt><trkpt lat="42.003158021696464" lon="12.78015326784037"><ele>152.0</ele><time>2026-03-30T09:17:25.999Z</time></trkpt><trkpt lat="42.00320714097259" lon="12.780042809280197"><ele>152.0</ele><time>2026-03-30T09:17:26.999Z</time></trkpt><trkpt lat="42.003241766636535" lon="12.779936618957807"><ele>152.0</ele><time>2026-03-30T09:17:27.999Z</time></trkpt><trkpt lat="42.00326985527608" lon="12.77983615129795"><ele>152.0</ele><time>2026-03-30T09:17:28.999Z</time></trkpt><trkpt lat="42.003304366185844" lon="12.779737272046821"><ele>152.0</ele><time>2026-03-30T09:17:29.999Z</time></trkpt><trkpt lat="42.00333624339003" lon="12.779654567164517"><ele>152.0</ele><time>2026-03-30T09:17:30.999Z</time></trkpt><trkpt lat="42.00336631475095" lon="12.779578515419349"><ele>151.4</ele><time>2026-03-30T09:17:31.999Z</time></trkpt><trkpt lat="42.00342975308528" lon="12.779458502096965"><ele>150.79999999999998</ele><time>2026-03-30T09:17:33.999Z</time></trkpt><trkpt lat="42.00347142199059" lon="12.779338556052691"><ele>150.2</ele><time>2026-03-30T09:17:35.999Z</time></trkpt><trkpt lat="42.00353268187118" lon="12.77920648175369"><ele>149.6</ele><time>2026-03-30T09:17:37.999Z</time></trkpt><trkpt lat="42.00357290091875" lon="12.779121597211429"><ele>149.0</ele><time>2026-03-30T09:17:39.999Z</time></trkpt><trkpt lat="42.0036377525221" lon="12.779050425960815"><ele>147.6</ele><time>2026-03-30T09:17:41.999Z</time></trkpt><trkpt lat="42.003731493696804" lon="12.778936739999441"><ele>146.2</ele><time>2026-03-30T09:17:43.999Z</time></trkpt><trkpt lat="42.00376329022457" lon="12.778852746457051"><ele>144.79999999999998</ele><time>2026-03-30T09:17:44.999Z</time></trkpt><trkpt lat="42.00379047968699" lon="12.77875903595386"><ele>143.4</ele><time>2026-03-30T09:17:45.999Z</time></trkpt><trkpt lat="42.003818563504915" lon="12.778600543047979"><ele>142.0</ele><time>2026-03-30T09:17:47.999Z</time></trkpt><trkpt lat="42.00383839638434" lon="12.778514026765874"><ele>141.79999999999998</ele><time>2026-03-30T09:17:48.999Z</time></trkpt><trkpt lat="42.00384033485287" lon="12.778351195182838"><ele>141.6</ele><time>2026-03-30T09:17:50.999Z</time></trkpt><trkpt lat="42.00385728511889" lon="12.778250734733065"><ele>141.39999999999998</ele><time>2026-03-30T09:17:51.999Z</time></trkpt><trkpt lat="42.00388273844215" lon="12.778162351932778"><ele>141.2</ele><time>2026-03-30T09:17:52.999Z</time></trkpt><trkpt lat="42.00392669409526" lon="12.778019029201033"><ele>141.0</ele><time>2026-03-30T09:17:54.999Z</time></trkpt><trkpt lat="42.00396089366573" lon="12.777899355640134"><ele>141.0</ele><time>2026-03-30T09:17:56.999Z</time></trkpt><trkpt lat="42.00400459184949" lon="12.777822317462622"><ele>141.0</ele><time>2026-03-30T09:17:58.999Z</time></trkpt><trkpt lat="42.004083515706704" lon="12.777820330195958"><ele>141.0</ele><time>2026-03-30T09:18:01.999Z</time></trkpt><trkpt lat="42.00417360903994" lon="12.777845434299529"><ele>141.0</ele><time>2026-03-30T09:18:03.999Z</time></trkpt><trkpt lat="42.00424412477556" lon="12.77788644896775"><ele>141.0</ele><time>2026-03-30T09:18:05.999Z</time></trkpt><trkpt lat="42.00434073024943" lon="12.777956809911188"><ele>141.0</ele><time>2026-03-30T09:18:07.999Z</time></trkpt><trkpt lat="42.004398544656134" lon="12.7780003129233"><ele>141.0</ele><time>2026-03-30T09:18:08.999Z</time></trkpt><trkpt lat="42.00445556402911" lon="12.778048572347172"><ele>141.0</ele><time>2026-03-30T09:18:09.999Z</time></trkpt><trkpt lat="42.004555428820126" lon="12.778144249817457"><ele>141.0</ele><time>2026-03-30T09:18:11.999Z</time></trkpt><trkpt lat="42.004611987786646" lon="12.778199945054881"><ele>141.0</ele><time>2026-03-30T09:18:12.999Z</time></trkpt><trkpt lat="42.00466215210408" lon="12.778258349193342"><ele>141.0</ele><time>2026-03-30T09:18:13.999Z</time></trkpt><trkpt lat="42.004748159825944" lon="12.778370955862508"><ele>141.0</ele><time>2026-03-30T09:18:15.999Z</time></trkpt><trkpt lat="42.00482643302524" lon="12.77848744012418"><ele>141.8</ele><time>2026-03-30T09:18:17.999Z</time></trkpt><trkpt lat="42.00490980485725" lon="12.778605942416938"><ele>142.6</ele><time>2026-03-30T09:18:20Z</time></trkpt><trkpt lat="42.00496675306118" lon="12.778658602872415"><ele>143.4</ele><time>2026-03-30T09:18:21Z</time></trkpt><trkpt lat="42.00504919892664" lon="12.778712966021653"><ele>144.2</ele><time>2026-03-30T09:18:22Z</time></trkpt><trkpt lat="42.00514712625621" lon="12.778763613835295"><ele>145.0</ele><time>2026-03-30T09:18:23Z</time></trkpt><trkpt lat="42.00523861575109" lon="12.778840248742686"><ele>145.0</ele><time>2026-03-30T09:18:24Z</time></trkpt><trkpt lat="42.00534230512058" lon="12.77887988047423"><ele>145.0</ele><time>2026-03-30T09:18:25Z</time></trkpt><trkpt lat="42.00542886407166" lon="12.778934278504066"><ele>145.0</ele><time>2026-03-30T09:18:26Z</time></trkpt><trkpt lat="42.005515617432636" lon="12.778959871922781"><ele>145.0</ele><time>2026-03-30T09:18:27Z</time></trkpt><trkpt lat="42.00559052516818" lon="12.778992281237539"><ele>145.0</ele><time>2026-03-30T09:18:28Z</time></trkpt><trkpt lat="42.005670931698134" lon="12.779048313557062"><ele>145.0</ele><time>2026-03-30T09:18:30Z</time></trkpt><trkpt lat="42.00574751516583" lon="12.779050706932539"><ele>145.0</ele><time>2026-03-30T09:18:31Z</time></trkpt><trkpt lat="42.00582058530296" lon="12.779086645076159"><ele>145.0</ele><time>2026-03-30T09:18:32Z</time></trkpt><trkpt lat="42.005900023555924" lon="12.779074879184005"><ele>145.0</ele><time>2026-03-30T09:18:34Z</time></trkpt><trkpt lat="42.005967212227276" lon="12.77905843705079"><ele>145.0</ele><time>2026-03-30T09:19:06Z</time></trkpt><trkpt lat="42.00602933722629" lon="12.779147020873536"><ele>145.0</ele><time>2026-03-30T09:19:08Z</time></trkpt><trkpt lat="42.006115492113054" lon="12.779207897310236"><ele>143.0</ele><time>2026-03-30T09:19:10Z</time></trkpt><trkpt lat="42.00616595203929" lon="12.779266329234874"><ele>141.0</ele><time>2026-03-30T09:19:11Z</time></trkpt><trkpt lat="42.00627706751157" lon="12.779313732946376"><ele>139.0</ele><time>2026-03-30T09:19:13Z</time></trkpt><trkpt lat="42.00638090868842" lon="12.779399777299746"><ele>137.0</ele><time>2026-03-30T09:19:15Z</time></trkpt><trkpt lat="42.00645410988061" lon="12.77942069609784"><ele>135.0</ele><time>2026-03-30T09:19:15.999Z</time></trkpt><trkpt lat="42.006524672509926" lon="12.779455366742933"><ele>135.0</ele><time>2026-03-30T09:19:16.999Z</time></trkpt><trkpt lat="42.00664398331553" lon="12.779509468795245"><ele>135.0</ele><time>2026-03-30T09:19:18.999Z</time></trkpt><trkpt lat="42.00670975057214" lon="12.779537544787983"><ele>135.0</ele><time>2026-03-30T09:19:19.999Z</time></trkpt><trkpt lat="42.006783064457295" lon="12.779564601799553"><ele>135.0</ele><time>2026-03-30T09:19:20.999Z</time></trkpt><trkpt lat="42.006858874621344" lon="12.779591661843755"><ele>135.0</ele><time>2026-03-30T09:19:21.999Z</time></trkpt><trkpt lat="42.00692469496508" lon="12.779634601120959"><ele>135.0</ele><time>2026-03-30T09:19:22.999Z</time></trkpt><trkpt lat="42.00698900778402" lon="12.779691031371886"><ele>132.8</ele><time>2026-03-30T09:19:23.999Z</time></trkpt><trkpt lat="42.00705260760431" lon="12.779736170038005"><ele>130.6</ele><time>2026-03-30T09:19:24.999Z</time></trkpt><trkpt lat="42.00712307107258" lon="12.779771349185946"><ele>128.4</ele><time>2026-03-30T09:19:26.999Z</time></trkpt><trkpt lat="42.00715081144942" lon="12.779863255854185"><ele>126.2</ele><time>2026-03-30T09:19:28.999Z</time></trkpt><trkpt lat="42.00719395429899" lon="12.780012856771924"><ele>124.0</ele><time>2026-03-30T09:19:30.999Z</time></trkpt><trkpt lat="42.00724447952377" lon="12.780181188356567"><ele>124.4</ele><time>2026-03-30T09:19:32.999Z</time></trkpt><trkpt lat="42.007277111946976" lon="12.78026221762246"><ele>124.80000000000001</ele><time>2026-03-30T09:19:33.999Z</time></trkpt><trkpt lat="42.00733904058457" lon="12.780384924323094"><ele>125.19999999999999</ele><time>2026-03-30T09:19:35.999Z</time></trkpt><trkpt lat="42.0074365514031" lon="12.780435568150539"><ele>125.6</ele><time>2026-03-30T09:19:37.999Z</time></trkpt><trkpt lat="42.007544633719164" lon="12.780424890324783"><ele>126.0</ele><time>2026-03-30T09:19:39.999Z</time></trkpt><trkpt lat="42.00760158514427" lon="12.780379496250402"><ele>126.19999999999999</ele><time>2026-03-30T09:19:40.999Z</time></trkpt><trkpt lat="42.00770363813242" lon="12.780359355188526"><ele>126.39999999999999</ele><time>2026-03-30T09:19:42.999Z</time></trkpt><trkpt lat="42.00776677875925" lon="12.780363062753542"><ele>126.6</ele><time>2026-03-30T09:19:43.999Z</time></trkpt><trkpt lat="42.007864588565084" lon="12.78033603407676"><ele>126.8</ele><time>2026-03-30T09:19:45.999Z</time></trkpt><trkpt lat="42.0079783586557" lon="12.780306759554009"><ele>127.0</ele><time>2026-03-30T09:19:47.999Z</time></trkpt><trkpt lat="42.008066216946226" lon="12.780300990547225"><ele>127.0</ele><time>2026-03-30T09:19:48.999Z</time></trkpt><trkpt lat="42.00815013109745" lon="12.780287637269385"><ele>126.99999999999999</ele><time>2026-03-30T09:19:49.999Z</time></trkpt><trkpt lat="42.00822188702529" lon="12.780288296017279"><ele>126.99999999999999</ele><time>2026-03-30T09:19:50.999Z</time></trkpt><trkpt lat="42.00834836257545" lon="12.780307442499703"><ele>127.0</ele><time>2026-03-30T09:19:52.999Z</time></trkpt><trkpt lat="42.008437101098885" lon="12.780327821077444"><ele>127.0</ele><time>2026-03-30T09:19:53.999Z</time></trkpt><trkpt lat="42.0085216654565" lon="12.780328154386915"><ele>128.0</ele><time>2026-03-30T09:19:54.999Z</time></trkpt><trkpt lat="42.0086054813195" lon="12.780327450490454"><ele>129.0</ele><time>2026-03-30T09:19:55.999Z</time></trkpt><trkpt lat="42.008727485765775" lon="12.780318743899343"><ele>130.0</ele><time>2026-03-30T09:19:57.999Z</time></trkpt><trkpt lat="42.00883618736694" lon="12.780346067582066"><ele>131.0</ele><time>2026-03-30T09:19:59.999Z</time></trkpt><trkpt lat="42.00894182849667" lon="12.780389648025157"><ele>132.0</ele><time>2026-03-30T09:20:01.999Z</time></trkpt><trkpt lat="42.00900368108179" lon="12.780410976250124"><ele>132.0</ele><time>2026-03-30T09:20:02.999Z</time></trkpt><trkpt lat="42.00911683327963" lon="12.780461154429254"><ele>132.0</ele><time>2026-03-30T09:20:04.999Z</time></trkpt><trkpt lat="42.00916714507783" lon="12.780519253627853"><ele>132.0</ele><time>2026-03-30T09:20:05.999Z</time></trkpt><trkpt lat="42.009237603506314" lon="12.780595559943933"><ele>132.0</ele><time>2026-03-30T09:20:07.999Z</time></trkpt><trkpt lat="42.00927960381059" lon="12.780696553672897"><ele>132.0</ele><time>2026-03-30T09:20:09.999Z</time></trkpt><trkpt lat="42.00930396662208" lon="12.78083206335632"><ele>133.0</ele><time>2026-03-30T09:20:11.999Z</time></trkpt><trkpt lat="42.009341530615814" lon="12.780908724195411"><ele>134.0</ele><time>2026-03-30T09:20:12.999Z</time></trkpt><trkpt lat="42.009396041773016" lon="12.780974251844517"><ele>135.0</ele><time>2026-03-30T09:20:13.999Z</time></trkpt><trkpt lat="42.00947903321999" lon="12.781043353214248"><ele>136.0</ele><time>2026-03-30T09:20:15.999Z</time></trkpt><trkpt lat="42.00955935663465" lon="12.781106200676964"><ele>137.0</ele><time>2026-03-30T09:20:16.999Z</time></trkpt><trkpt lat="42.00966334189682" lon="12.781142787003768"><ele>138.0</ele><time>2026-03-30T09:20:18.999Z</time></trkpt><trkpt lat="42.00972961448691" lon="12.781168846587057"><ele>138.0</ele><time>2026-03-30T09:20:20.999Z</time></trkpt><trkpt lat="42.00981358945237" lon="12.781210684300033"><ele>138.0</ele><time>2026-03-30T09:20:22.999Z</time></trkpt><trkpt lat="42.00989683430666" lon="12.78125600308752"><ele>138.0</ele><time>2026-03-30T09:20:25Z</time></trkpt><trkpt lat="42.0099866759169" lon="12.781323314861533"><ele>138.0</ele><time>2026-03-30T09:20:27Z</time></trkpt><trkpt lat="42.01009087057559" lon="12.781350342629779"><ele>138.0</ele><time>2026-03-30T09:20:29Z</time></trkpt><trkpt lat="42.01016219787411" lon="12.781392488734545"><ele>139.83333333333334</ele><time>2026-03-30T09:20:30Z</time></trkpt><trkpt lat="42.010234096100575" lon="12.78143670874964"><ele>141.66666666666666</ele><time>2026-03-30T09:20:31Z</time></trkpt><trkpt lat="42.01030736936294" lon="12.78147844864281"><ele>143.5</ele><time>2026-03-30T09:20:32Z</time></trkpt><trkpt lat="42.01037130795503" lon="12.781516758058629"><ele>145.33333333333331</ele><time>2026-03-30T09:20:33Z</time></trkpt><trkpt lat="42.01043234513241" lon="12.781555653535676"><ele>147.16666666666666</ele><time>2026-03-30T09:20:34Z</time></trkpt><trkpt lat="42.01051269575048" lon="12.7815952233632"><ele>149.0</ele><time>2026-03-30T09:20:35Z</time></trkpt><trkpt lat="42.01060234455645" lon="12.781650537039308"><ele>149.0</ele><time>2026-03-30T09:20:36Z</time></trkpt><trkpt lat="42.01067997741357" lon="12.781698799356597"><ele>149.0</ele><time>2026-03-30T09:20:37Z</time></trkpt><trkpt lat="42.0107603734505" lon="12.781734445894445"><ele>149.0</ele><time>2026-03-30T09:20:38Z</time></trkpt><trkpt lat="42.01082864914557" lon="12.781770609619574"><ele>149.0</ele><time>2026-03-30T09:20:39Z</time></trkpt><trkpt lat="42.01091239697207" lon="12.781832618750911"><ele>149.0</ele><time>2026-03-30T09:20:40Z</time></trkpt><trkpt lat="42.010996511350925" lon="12.781857622875057"><ele>149.0</ele><time>2026-03-30T09:20:41Z</time></trkpt><trkpt lat="42.011081576222196" lon="12.78191916628389"><ele>147.6</ele><time>2026-03-30T09:20:42Z</time></trkpt><trkpt lat="42.011179810331015" lon="12.781966762500767"><ele>146.2</ele><time>2026-03-30T09:20:43Z</time></trkpt><trkpt lat="42.01128165221827" lon="12.78199305491319"><ele>144.79999999999998</ele><time>2026-03-30T09:20:44Z</time></trkpt><trkpt lat="42.01137953751724" lon="12.782042401097877"><ele>143.4</ele><time>2026-03-30T09:20:45Z</time></trkpt><trkpt lat="42.011469987417634" lon="12.782085491325176"><ele>142.0</ele><time>2026-03-30T09:20:46Z</time></trkpt><trkpt lat="42.0115777511828" lon="12.782126984232502"><ele>142.75</ele><time>2026-03-30T09:20:47Z</time></trkpt><trkpt lat="42.01168034859268" lon="12.782180076280245"><ele>143.5</ele><time>2026-03-30T09:20:48Z</time></trkpt><trkpt lat="42.01176918216682" lon="12.782221988661782"><ele>144.25</ele><time>2026-03-30T09:20:49Z</time></trkpt><trkpt lat="42.01189501327907" lon="12.782284379764672"><ele>145.0</ele><time>2026-03-30T09:20:50Z</time></trkpt><trkpt lat="42.01200372726846" lon="12.782339836408653"><ele>145.0</ele><time>2026-03-30T09:20:51Z</time></trkpt><trkpt lat="42.012125053130525" lon="12.78240718098047"><ele>145.0</ele><time>2026-03-30T09:20:52Z</time></trkpt><trkpt lat="42.01226440409759" lon="12.782493647790877"><ele>145.0</ele><time>2026-03-30T09:20:53Z</time></trkpt><trkpt lat="42.01238991869417" lon="12.782546419996132"><ele>145.0</ele><time>2026-03-30T09:20:54Z</time></trkpt><trkpt lat="42.01249388524186" lon="12.782612242308636"><ele>146.0</ele><time>2026-03-30T09:20:55Z</time></trkpt><trkpt lat="42.012590038127634" lon="12.782672061310828"><ele>147.0</ele><time>2026-03-30T09:20:56Z</time></trkpt><trkpt lat="42.012675035105204" lon="12.782711271307885"><ele>148.0</ele><time>2026-03-30T09:20:57Z</time></trkpt><trkpt lat="42.012754646231606" lon="12.78276296996061"><ele>149.0</ele><time>2026-03-30T09:20:58Z</time></trkpt><trkpt lat="42.012853795486166" lon="12.782786139951595"><ele>150.0</ele><time>2026-03-30T09:20:59Z</time></trkpt><trkpt lat="42.01295260168641" lon="12.782800891134622"><ele>150.0</ele><time>2026-03-30T09:21:00Z</time></trkpt><trkpt lat="42.01305091553513" lon="12.782808848669672"><ele>150.0</ele><time>2026-03-30T09:21:01Z</time></trkpt><trkpt lat="42.013158599647966" lon="12.78279721641364"><ele>150.0</ele><time>2026-03-30T09:21:02Z</time></trkpt><trkpt lat="42.013276118111726" lon="12.782795332965197"><ele>150.0</ele><time>2026-03-30T09:21:03Z</time></trkpt><trkpt lat="42.01339943056199" lon="12.782801816989878"><ele>150.0</ele><time>2026-03-30T09:21:04Z</time></trkpt><trkpt lat="42.01349081833245" lon="12.782822901386282"><ele>150.16666666666666</ele><time>2026-03-30T09:21:05Z</time></trkpt><trkpt lat="42.01357131932747" lon="12.782891177171132"><ele>150.33333333333334</ele><time>2026-03-30T09:21:06Z</time></trkpt><trkpt lat="42.01366596232113" lon="12.782909290982017"><ele>150.5</ele><time>2026-03-30T09:21:07Z</time></trkpt><trkpt lat="42.01376498159294" lon="12.782920573558746"><ele>150.66666666666669</ele><time>2026-03-30T09:21:08Z</time></trkpt><trkpt lat="42.01384126776003" lon="12.782875939732563"><ele>150.83333333333334</ele><time>2026-03-30T09:21:09Z</time></trkpt><trkpt lat="42.0139030652526" lon="12.782830511494456"><ele>151.0</ele><time>2026-03-30T09:21:10Z</time></trkpt><trkpt lat="42.01397651809179" lon="12.78281006977955"><ele>151.0</ele><time>2026-03-30T09:21:11Z</time></trkpt><trkpt lat="42.0140539775998" lon="12.782798359072382"><ele>151.0</ele><time>2026-03-30T09:21:11.999Z</time></trkpt><trkpt lat="42.01414882462431" lon="12.782795018033287"><ele>151.0</ele><time>2026-03-30T09:21:12.999Z</time></trkpt><trkpt lat="42.014263728306496" lon="12.782765269244186"><ele>151.0</ele><time>2026-03-30T09:21:13.999Z</time></trkpt><trkpt lat="42.01438347525487" lon="12.782720718340398"><ele>151.0</ele><time>2026-03-30T09:21:14.999Z</time></trkpt><trkpt lat="42.01451358550294" lon="12.78269926011072"><ele>155.5</ele><time>2026-03-30T09:21:15.999Z</time></trkpt><trkpt lat="42.01464764455488" lon="12.782638518791881"><ele>160.0</ele><time>2026-03-30T09:21:16.999Z</time></trkpt><trkpt lat="42.01478611105474" lon="12.782612978352047"><ele>164.5</ele><time>2026-03-30T09:21:17.999Z</time></trkpt><trkpt lat="42.01490967878974" lon="12.782572897248896"><ele>169.0</ele><time>2026-03-30T09:21:18.999Z</time></trkpt><trkpt lat="42.01502052489207" lon="12.782514075019217"><ele>169.33333333333334</ele><time>2026-03-30T09:21:19.999Z</time></trkpt><trkpt lat="42.01512495376075" lon="12.782481743023956"><ele>169.66666666666669</ele><time>2026-03-30T09:21:20.999Z</time></trkpt><trkpt lat="42.01520873889708" lon="12.782452845185361"><ele>170.0</ele><time>2026-03-30T09:21:21.999Z</time></trkpt><trkpt lat="42.01527385948707" lon="12.78239738407175"><ele>170.33333333333334</ele><time>2026-03-30T09:21:22.999Z</time></trkpt><trkpt lat="42.015363733119734" lon="12.782366907232026"><ele>170.66666666666666</ele><time>2026-03-30T09:21:24.999Z</time></trkpt><trkpt lat="42.0154223818644" lon="12.782411292714817"><ele>171.0</ele><time>2026-03-30T09:21:56.999Z</time></trkpt><trkpt lat="42.015502496747764" lon="12.782416743427786"><ele>171.0</ele><time>2026-03-30T09:21:59.999Z</time></trkpt><trkpt lat="42.01557137528813" lon="12.782370937992503"><ele>171.0</ele><time>2026-03-30T09:22:01.999Z</time></trkpt><trkpt lat="42.01568421489678" lon="12.78231019197058"><ele>171.0</ele><time>2026-03-30T09:22:03.999Z</time></trkpt><trkpt lat="42.01574829492996" lon="12.782279269478986"><ele>171.0</ele><time>2026-03-30T09:22:04.999Z</time></trkpt><trkpt lat="42.01581760903069" lon="12.782247750362343"><ele>171.0</ele><time>2026-03-30T09:22:05.999Z</time></trkpt><trkpt lat="42.015891715799086" lon="12.782211234933467"><ele>171.0</ele><time>2026-03-30T09:22:06.999Z</time></trkpt><trkpt lat="42.01596142472436" lon="12.782164421804152"><ele>171.33333333333334</ele><time>2026-03-30T09:22:07.999Z</time></trkpt><trkpt lat="42.01603508792083" lon="12.782112585309742"><ele>171.66666666666666</ele><time>2026-03-30T09:22:08.999Z</time></trkpt><trkpt lat="42.01608634348068" lon="12.782051077382299"><ele>172.0</ele><time>2026-03-30T09:22:09.999Z</time></trkpt><trkpt lat="42.016101487963525" lon="12.781923830520244"><ele>172.33333333333331</ele><time>2026-03-30T09:22:10.999Z</time></trkpt><trkpt lat="42.01613774509611" lon="12.78181891086016"><ele>172.66666666666666</ele><time>2026-03-30T09:22:11.999Z</time></trkpt><trkpt lat="42.01618646847898" lon="12.781704510353524"><ele>173.0</ele><time>2026-03-30T09:22:12.999Z</time></trkpt><trkpt lat="42.01622077232456" lon="12.781585560604999"><ele>173.0</ele><time>2026-03-30T09:22:13.999Z</time></trkpt><trkpt lat="42.01625742713084" lon="12.781456790166795"><ele>173.0</ele><time>2026-03-30T09:22:14.999Z</time></trkpt><trkpt lat="42.016292128427736" lon="12.781327414043803"><ele>173.0</ele><time>2026-03-30T09:22:15.999Z</time></trkpt><trkpt lat="42.016321482426676" lon="12.781199908747952"><ele>173.0</ele><time>2026-03-30T09:22:16.999Z</time></trkpt><trkpt lat="42.01634541106916" lon="12.781075554886678"><ele>173.0</ele><time>2026-03-30T09:22:17.999Z</time></trkpt><trkpt lat="42.016363739962415" lon="12.780956738548882"><ele>172.33333333333331</ele><time>2026-03-30T09:22:18.999Z</time></trkpt><trkpt lat="42.01638192267742" lon="12.780842934261832"><ele>171.66666666666666</ele><time>2026-03-30T09:22:19.999Z</time></trkpt><trkpt lat="42.01639915119123" lon="12.780729015607726"><ele>171.0</ele><time>2026-03-30T09:22:20.999Z</time></trkpt><trkpt lat="42.016416023253115" lon="12.78061553985873"><ele>170.33333333333334</ele><time>2026-03-30T09:22:21.999Z</time></trkpt><trkpt lat="42.0164351352581" lon="12.780507628290884"><ele>169.66666666666669</ele><time>2026-03-30T09:22:22.999Z</time></trkpt><trkpt lat="42.01647062575241" lon="12.780404791288573"><ele>169.0</ele><time>2026-03-30T09:22:23.999Z</time></trkpt><trkpt lat="42.01649649221259" lon="12.780286358270153"><ele>168.0</ele><time>2026-03-30T09:22:24.999Z</time></trkpt><trkpt lat="42.01653852828647" lon="12.780176737907354"><ele>167.0</ele><time>2026-03-30T09:22:25.999Z</time></trkpt><trkpt lat="42.01657162744969" lon="12.780063230390377"><ele>166.0</ele><time>2026-03-30T09:22:26.999Z</time></trkpt><trkpt lat="42.016617675455265" lon="12.779948564715443"><ele>165.0</ele><time>2026-03-30T09:22:27.999Z</time></trkpt><trkpt lat="42.01663818766676" lon="12.779820957917666"><ele>164.0</ele><time>2026-03-30T09:22:28.999Z</time></trkpt><trkpt lat="42.01665193322937" lon="12.779690935972024"><ele>163.39999999999998</ele><time>2026-03-30T09:22:29.999Z</time></trkpt><trkpt lat="42.01666402780356" lon="12.7795678298511"><ele>162.8</ele><time>2026-03-30T09:22:31Z</time></trkpt><trkpt lat="42.01668158490651" lon="12.779445652981945"><ele>162.2</ele><time>2026-03-30T09:22:32Z</time></trkpt><trkpt lat="42.01669950107158" lon="12.779325245332567"><ele>161.60000000000002</ele><time>2026-03-30T09:22:33Z</time></trkpt><trkpt lat="42.016713117302025" lon="12.779203479825588"><ele>161.0</ele><time>2026-03-30T09:22:34Z</time></trkpt><trkpt lat="42.016721617647576" lon="12.779077141583917"><ele>160.4</ele><time>2026-03-30T09:22:35Z</time></trkpt><trkpt lat="42.01673052510696" lon="12.778972368407226"><ele>159.8</ele><time>2026-03-30T09:22:36Z</time></trkpt><trkpt lat="42.01674867011296" lon="12.77884710707904"><ele>159.20000000000002</ele><time>2026-03-30T09:22:37Z</time></trkpt><trkpt lat="42.01677279955177" lon="12.778727759589106"><ele>158.60000000000002</ele><time>2026-03-30T09:22:38Z</time></trkpt><trkpt lat="42.01680231891814" lon="12.778590671287015"><ele>158.0</ele><time>2026-03-30T09:22:39Z</time></trkpt><trkpt lat="42.01683191615513" lon="12.778454983872646"><ele>157.20000000000002</ele><time>2026-03-30T09:22:40Z</time></trkpt><trkpt lat="42.016863150802386" lon="12.778319658699882"><ele>156.4</ele><time>2026-03-30T09:22:41Z</time></trkpt><trkpt lat="42.01689384372153" lon="12.778192690287149"><ele>155.60000000000002</ele><time>2026-03-30T09:22:42Z</time></trkpt><trkpt lat="42.016923482170526" lon="12.778077260183686"><ele>154.8</ele><time>2026-03-30T09:22:43Z</time></trkpt><trkpt lat="42.01695511838556" lon="12.77796738339673"><ele>154.0</ele><time>2026-03-30T09:22:44Z</time></trkpt><trkpt lat="42.016987578369836" lon="12.77786002846305"><ele>154.0</ele><time>2026-03-30T09:22:45Z</time></trkpt><trkpt lat="42.017031482722054" lon="12.777773914837294"><ele>154.0</ele><time>2026-03-30T09:22:46Z</time></trkpt><trkpt lat="42.017070320759686" lon="12.777693081296876"><ele>154.0</ele><time>2026-03-30T09:22:47Z</time></trkpt><trkpt lat="42.017138044700545" lon="12.777538626523068"><ele>154.0</ele><time>2026-03-30T09:22:49Z</time></trkpt><trkpt lat="42.01716892798902" lon="12.777433502802078"><ele>154.0</ele><time>2026-03-30T09:22:50Z</time></trkpt><trkpt lat="42.01720243060318" lon="12.77729891815052"><ele>152.8</ele><time>2026-03-30T09:22:51Z</time></trkpt><trkpt lat="42.01722758788826" lon="12.777185296427719"><ele>151.60000000000002</ele><time>2026-03-30T09:22:52Z</time></trkpt><trkpt lat="42.017240154722884" lon="12.77704786431607"><ele>150.4</ele><time>2026-03-30T09:22:53Z</time></trkpt><trkpt lat="42.017214683825785" lon="12.776895184955785"><ele>149.20000000000002</ele><time>2026-03-30T09:22:54Z</time></trkpt><trkpt lat="42.017175979007966" lon="12.77676565696895"><ele>148.0</ele><time>2026-03-30T09:22:55Z</time></trkpt><trkpt lat="42.017153796462615" lon="12.77668297068721"><ele>147.0</ele><time>2026-03-30T09:22:56Z</time></trkpt><trkpt lat="42.01715159150305" lon="12.776568053399085"><ele>146.0</ele><time>2026-03-30T09:22:58.999Z</time></trkpt><trkpt lat="42.01719688657338" lon="12.776492152026556"><ele>145.0</ele><time>2026-03-30T09:23:00.999Z</time></trkpt><trkpt lat="42.017281717690246" lon="12.77639803599151"><ele>144.0</ele><time>2026-03-30T09:23:02.999Z</time></trkpt><trkpt lat="42.01733830791001" lon="12.776326589680766"><ele>143.0</ele><time>2026-03-30T09:23:04.999Z</time></trkpt><trkpt lat="42.0173960613848" lon="12.77624878814969"><ele>142.0</ele><time>2026-03-30T09:23:08.999Z</time></trkpt><trkpt lat="42.01731618007749" lon="12.776062928671728"><ele>141.75</ele><time>2026-03-30T09:23:09.999Z</time></trkpt><trkpt lat="42.017270409990836" lon="12.775928718333663"><ele>141.5</ele><time>2026-03-30T09:23:10.999Z</time></trkpt><trkpt lat="42.01724587527705" lon="12.775757596930267"><ele>141.25</ele><time>2026-03-30T09:23:11.999Z</time></trkpt><trkpt lat="42.01719314585416" lon="12.77559159235427"><ele>141.0</ele><time>2026-03-30T09:23:12.999Z</time></trkpt><trkpt lat="42.01715195818496" lon="12.7753948259087"><ele>141.0</ele><time>2026-03-30T09:23:13.999Z</time></trkpt><trkpt lat="42.01710851128642" lon="12.77518884349376"><ele>141.0</ele><time>2026-03-30T09:23:14.999Z</time></trkpt><trkpt lat="42.017068173928195" lon="12.774968889251861"><ele>141.0</ele><time>2026-03-30T09:23:15.999Z</time></trkpt><trkpt lat="42.01702132774585" lon="12.774752118283757"><ele>139.66666666666666</ele><time>2026-03-30T09:23:16.999Z</time></trkpt><trkpt lat="42.016980070409296" lon="12.77454570060572"><ele>138.33333333333331</ele><time>2026-03-30T09:23:17.999Z</time></trkpt><trkpt lat="42.016932399878065" lon="12.77433891716098"><ele>137.0</ele><time>2026-03-30T09:23:18.999Z</time></trkpt><trkpt lat="42.01688351522523" lon="12.774136546838015"><ele>135.75</ele><time>2026-03-30T09:23:19.999Z</time></trkpt><trkpt lat="42.016808404027195" lon="12.77395855463067"><ele>134.5</ele><time>2026-03-30T09:23:20.999Z</time></trkpt><trkpt lat="42.01672998681117" lon="12.77374676028819"><ele>133.25</ele><time>2026-03-30T09:23:21.999Z</time></trkpt><trkpt lat="42.016663421043845" lon="12.77365390118468"><ele>132.0</ele><time>2026-03-30T09:23:23.999Z</time></trkpt><trkpt lat="42.0166198106432" lon="12.773591039447538"><ele>132.0</ele><time>2026-03-30T09:23:25.999Z</time></trkpt><trkpt lat="42.01666902538165" lon="12.773529683714978"><ele>132.0</ele><time>2026-03-30T09:23:29.999Z</time></trkpt><trkpt lat="42.01672092640497" lon="12.773599521002005"><ele>132.0</ele><time>2026-03-30T09:23:30.999Z</time></trkpt><trkpt lat="42.01683564414357" lon="12.77357331673302"><ele>132.0</ele><time>2026-03-30T09:23:32.999Z</time></trkpt><trkpt lat="42.01692278024757" lon="12.773559372176368"><ele>132.0</ele><time>2026-03-30T09:23:33.999Z</time></trkpt><trkpt lat="42.01701407223639" lon="12.773527077210028"><ele>132.0</ele><time>2026-03-30T09:23:34.999Z</time></trkpt><trkpt lat="42.01711994809833" lon="12.773508062797674"><ele>133.2</ele><time>2026-03-30T09:23:35.999Z</time></trkpt><trkpt lat="42.01721770998919" lon="12.773472237681382"><ele>134.39999999999998</ele><time>2026-03-30T09:23:36.999Z</time></trkpt><trkpt lat="42.01732416860254" lon="12.773469707127596"><ele>135.60000000000002</ele><time>2026-03-30T09:23:37.999Z</time></trkpt><trkpt lat="42.01743248638681" lon="12.773446041035989"><ele>136.8</ele><time>2026-03-30T09:23:38.999Z</time></trkpt><trkpt lat="42.01753347278465" lon="12.773403414541574"><ele>138.0</ele><time>2026-03-30T09:23:39.999Z</time></trkpt><trkpt lat="42.01764115659713" lon="12.773378987161008"><ele>139.5</ele><time>2026-03-30T09:23:40.999Z</time></trkpt><trkpt lat="42.01773954874313" lon="12.77336363041026"><ele>141.0</ele><time>2026-03-30T09:23:41.999Z</time></trkpt><trkpt lat="42.01781814308682" lon="12.773371473890935"><ele>142.5</ele><time>2026-03-30T09:23:42.999Z</time></trkpt><trkpt lat="42.017884197652876" lon="12.773373134297078"><ele>144.0</ele><time>2026-03-30T09:23:43.999Z</time></trkpt><trkpt lat="42.018008799973956" lon="12.77342153705725"><ele>145.5</ele><time>2026-03-30T09:23:45.999Z</time></trkpt><trkpt lat="42.01806253555709" lon="12.773467201913025"><ele>147.0</ele><time>2026-03-30T09:23:46.999Z</time></trkpt><trkpt lat="42.018166615669784" lon="12.773518953246008"><ele>147.0</ele><time>2026-03-30T09:23:48.999Z</time></trkpt><trkpt lat="42.01823351414704" lon="12.773494536321351"><ele>147.0</ele><time>2026-03-30T09:23:49.999Z</time></trkpt><trkpt lat="42.018313111604634" lon="12.773476443754602"><ele>147.0</ele><time>2026-03-30T09:23:50.999Z</time></trkpt><trkpt lat="42.018388937791045" lon="12.773424831025357"><ele>147.0</ele><time>2026-03-30T09:23:51.999Z</time></trkpt><trkpt lat="42.018474851637286" lon="12.773390410612471"><ele>147.0</ele><time>2026-03-30T09:23:52.999Z</time></trkpt><trkpt lat="42.018569610597154" lon="12.77335640900806"><ele>147.0</ele><time>2026-03-30T09:23:53.999Z</time></trkpt><trkpt lat="42.018654423303566" lon="12.773312884550213"><ele>148.2</ele><time>2026-03-30T09:23:54.999Z</time></trkpt><trkpt lat="42.018747267707866" lon="12.773297355449639"><ele>149.39999999999998</ele><time>2026-03-30T09:23:55.999Z</time></trkpt><trkpt lat="42.01884048981286" lon="12.773267648364703"><ele>150.60000000000002</ele><time>2026-03-30T09:23:56.999Z</time></trkpt><trkpt lat="42.018923881474024" lon="12.77324427395438"><ele>151.8</ele><time>2026-03-30T09:23:57.999Z</time></trkpt><trkpt lat="42.01900938328436" lon="12.77322420967205"><ele>153.0</ele><time>2026-03-30T09:23:58.999Z</time></trkpt><trkpt lat="42.019101351014676" lon="12.773207444605154"><ele>154.28571428571428</ele><time>2026-03-30T09:23:59.999Z</time></trkpt><trkpt lat="42.01918061087264" lon="12.773199546401814"><ele>155.57142857142858</ele><time>2026-03-30T09:24:00.999Z</time></trkpt><trkpt lat="42.01925445384346" lon="12.77320669302256"><ele>156.85714285714286</ele><time>2026-03-30T09:24:01.999Z</time></trkpt><trkpt lat="42.01932729166998" lon="12.773196022988097"><ele>158.14285714285714</ele><time>2026-03-30T09:24:02.999Z</time></trkpt><trkpt lat="42.01939949048227" lon="12.773216044117932"><ele>159.42857142857142</ele><time>2026-03-30T09:24:03.999Z</time></trkpt><trkpt lat="42.01947349450322" lon="12.773210702266345"><ele>160.71428571428572</ele><time>2026-03-30T09:24:04.999Z</time></trkpt><trkpt lat="42.01953911143723" lon="12.773171447535844"><ele>162.0</ele><time>2026-03-30T09:24:05.999Z</time></trkpt><trkpt lat="42.01961837089035" lon="12.773129204260819"><ele>162.0</ele><time>2026-03-30T09:24:06.999Z</time></trkpt><trkpt lat="42.019704895385786" lon="12.773078384561185"><ele>162.0</ele><time>2026-03-30T09:24:07.999Z</time></trkpt><trkpt lat="42.01978249847706" lon="12.773028567287712"><ele>162.0</ele><time>2026-03-30T09:24:08.999Z</time></trkpt><trkpt lat="42.019860510714416" lon="12.772977760990884"><ele>162.0</ele><time>2026-03-30T09:24:09.999Z</time></trkpt><trkpt lat="42.01992498006281" lon="12.772935774610152"><ele>162.0</ele><time>2026-03-30T09:24:10.999Z</time></trkpt><trkpt lat="42.020012695185386" lon="12.772879375907648"><ele>162.0</ele><time>2026-03-30T09:24:11.999Z</time></trkpt><trkpt lat="42.02009750004782" lon="12.772799676933527"><ele>164.8</ele><time>2026-03-30T09:24:12.999Z</time></trkpt><trkpt lat="42.020190028422086" lon="12.772742693182964"><ele>167.6</ele><time>2026-03-30T09:24:13.999Z</time></trkpt><trkpt lat="42.020277619242826" lon="12.772673698317496"><ele>170.4</ele><time>2026-03-30T09:24:14.999Z</time></trkpt><trkpt lat="42.020373661777185" lon="12.772643763814372"><ele>173.20000000000002</ele><time>2026-03-30T09:24:15.999Z</time></trkpt><trkpt lat="42.02045607938047" lon="12.772597925766394"><ele>176.0</ele><time>2026-03-30T09:24:16.999Z</time></trkpt><trkpt lat="42.02053568858577" lon="12.77255364874476"><ele>176.0</ele><time>2026-03-30T09:24:17.999Z</time></trkpt><trkpt lat="42.020607103259934" lon="12.772513929915869"><ele>176.0</ele><time>2026-03-30T09:24:18.999Z</time></trkpt><trkpt lat="42.020635865196894" lon="12.772332655262941"><ele>176.0</ele><time>2026-03-30T09:24:19.999Z</time></trkpt><trkpt lat="42.02071874881091" lon="12.772291173110446"><ele>176.0</ele><time>2026-03-30T09:24:20.999Z</time></trkpt><trkpt lat="42.02080120807299" lon="12.772250250149137"><ele>176.0</ele><time>2026-03-30T09:24:21.999Z</time></trkpt><trkpt lat="42.02087252609123" lon="12.772221631011352"><ele>178.20000000000002</ele><time>2026-03-30T09:24:22.999Z</time></trkpt><trkpt lat="42.02093546087184" lon="12.772191733771594"><ele>180.4</ele><time>2026-03-30T09:24:23.999Z</time></trkpt><trkpt lat="42.021067797048694" lon="12.772194277363123"><ele>182.6</ele><time>2026-03-30T09:24:25.999Z</time></trkpt><trkpt lat="42.02115151332523" lon="12.772213669354732"><ele>184.8</ele><time>2026-03-30T09:24:26.999Z</time></trkpt><trkpt lat="42.02123658525118" lon="12.772246151755175"><ele>187.0</ele><time>2026-03-30T09:24:27.999Z</time></trkpt><trkpt lat="42.02132721227119" lon="12.772265673724743"><ele>187.0</ele><time>2026-03-30T09:24:28.999Z</time></trkpt><trkpt lat="42.02140415690498" lon="12.77226229896273"><ele>187.0</ele><time>2026-03-30T09:24:29.999Z</time></trkpt><trkpt lat="42.02148666778117" lon="12.772242253182412"><ele>187.0</ele><time>2026-03-30T09:24:30.999Z</time></trkpt><trkpt lat="42.02157023432165" lon="12.772240755974876"><ele>187.0</ele><time>2026-03-30T09:24:31.999Z</time></trkpt><trkpt lat="42.02165147577711" lon="12.772247017508882"><ele>187.0</ele><time>2026-03-30T09:24:32.999Z</time></trkpt><trkpt lat="42.02173957774658" lon="12.772223108271461"><ele>187.0</ele><time>2026-03-30T09:24:33.999Z</time></trkpt><trkpt lat="42.02181652719098" lon="12.772218029447338"><ele>189.2</ele><time>2026-03-30T09:24:34.999Z</time></trkpt><trkpt lat="42.02188673962926" lon="12.772219853325222"><ele>191.39999999999998</ele><time>2026-03-30T09:24:35.999Z</time></trkpt><trkpt lat="42.02196186846871" lon="12.77226793140126"><ele>193.60000000000002</ele><time>2026-03-30T09:24:36.999Z</time></trkpt><trkpt lat="42.02205375523815" lon="12.772338394507015"><ele>195.8</ele><time>2026-03-30T09:24:37.999Z</time></trkpt><trkpt lat="42.02216160398343" lon="12.77240197867972"><ele>198.0</ele><time>2026-03-30T09:24:38.999Z</time></trkpt><trkpt lat="42.02226297651913" lon="12.772475529823092"><ele>198.0</ele><time>2026-03-30T09:24:39.999Z</time></trkpt><trkpt lat="42.022368265062035" lon="12.77254625093615"><ele>198.0</ele><time>2026-03-30T09:24:40.999Z</time></trkpt><trkpt lat="42.022463203138535" lon="12.772605269219689"><ele>198.0</ele><time>2026-03-30T09:24:41.999Z</time></trkpt><trkpt lat="42.02252951665255" lon="12.772649087454345"><ele>198.0</ele><time>2026-03-30T09:24:42.999Z</time></trkpt><trkpt lat="42.022595035161125" lon="12.772643904715919"><ele>198.0</ele><time>2026-03-30T09:24:45.999Z</time></trkpt><trkpt lat="42.022535620371315" lon="12.772481723916227"><ele>198.0</ele><time>2026-03-30T09:24:49.999Z</time></trkpt><trkpt lat="42.02248839425279" lon="12.77236511249812"><ele>198.0</ele><time>2026-03-30T09:24:50.999Z</time></trkpt><trkpt lat="42.02244107798632" lon="12.772258020997286"><ele>198.0</ele><time>2026-03-30T09:24:51.999Z</time></trkpt><trkpt lat="42.022386966682745" lon="12.772125532696275"><ele>198.0</ele><time>2026-03-30T09:24:52.999Z</time></trkpt><trkpt lat="42.02233300224936" lon="12.771981714187888"><ele>198.0</ele><time>2026-03-30T09:24:53.999Z</time></trkpt><trkpt lat="42.022279083320235" lon="12.771839610653862"><ele>197.75</ele><time>2026-03-30T09:24:54.999Z</time></trkpt><trkpt lat="42.02222463567976" lon="12.771700591696884"><ele>197.5</ele><time>2026-03-30T09:24:55.999Z</time></trkpt><trkpt lat="42.02216741875906" lon="12.77155643353044"><ele>197.25</ele><time>2026-03-30T09:24:56.999Z</time></trkpt><trkpt lat="42.02211699112233" lon="12.771421638128473"><ele>197.0</ele><time>2026-03-30T09:24:57.999Z</time></trkpt><trkpt lat="42.02207379207122" lon="12.771284823781572"><ele>197.0</ele><time>2026-03-30T09:24:58.999Z</time></trkpt><trkpt lat="42.022035586409125" lon="12.77113350281014"><ele>197.0</ele><time>2026-03-30T09:24:59.999Z</time></trkpt><trkpt lat="42.02200830070429" lon="12.770982249409167"><ele>197.0</ele><time>2026-03-30T09:25:00.999Z</time></trkpt><trkpt lat="42.02198303854044" lon="12.770816161464007"><ele>197.0</ele><time>2026-03-30T09:25:01.999Z</time></trkpt><trkpt lat="42.021958042095086" lon="12.770653545180869"><ele>198.75</ele><time>2026-03-30T09:25:02.999Z</time></trkpt><trkpt lat="42.021927094243644" lon="12.770494364459957"><ele>200.5</ele><time>2026-03-30T09:25:03.999Z</time></trkpt><trkpt lat="42.02186382830107" lon="12.770354181512792"><ele>202.25</ele><time>2026-03-30T09:25:04.999Z</time></trkpt><trkpt lat="42.021814367195894" lon="12.770207035230873"><ele>204.0</ele><time>2026-03-30T09:25:05.999Z</time></trkpt><trkpt lat="42.021739643516106" lon="12.770064840899296"><ele>208.25</ele><time>2026-03-30T09:25:06.999Z</time></trkpt><trkpt lat="42.021617833823264" lon="12.76996062858475"><ele>212.5</ele><time>2026-03-30T09:25:07.999Z</time></trkpt><trkpt lat="42.0215258698621" lon="12.769835796529858"><ele>216.75</ele><time>2026-03-30T09:25:08.999Z</time></trkpt><trkpt lat="42.02143295662103" lon="12.769721176704726"><ele>221.0</ele><time>2026-03-30T09:25:09.999Z</time></trkpt><trkpt lat="42.02135669825898" lon="12.76962070441697"><ele>221.0</ele><time>2026-03-30T09:25:10.999Z</time></trkpt><trkpt lat="42.02130196784091" lon="12.769508997384351"><ele>221.00000000000003</ele><time>2026-03-30T09:25:11.999Z</time></trkpt><trkpt lat="42.02123959460053" lon="12.769413172040133"><ele>221.00000000000003</ele><time>2026-03-30T09:25:12.999Z</time></trkpt><trkpt lat="42.021167965923325" lon="12.769324182277641"><ele>221.0</ele><time>2026-03-30T09:25:13.999Z</time></trkpt><trkpt lat="42.02109194177464" lon="12.769262471237262"><ele>221.0</ele><time>2026-03-30T09:25:14.999Z</time></trkpt><trkpt lat="42.02099743069399" lon="12.769187014041332"><ele>220.75</ele><time>2026-03-30T09:25:15.999Z</time></trkpt><trkpt lat="42.020895303924824" lon="12.76910770293512"><ele>220.5</ele><time>2026-03-30T09:25:16.999Z</time></trkpt><trkpt lat="42.020792377300495" lon="12.769028424366457"><ele>220.25</ele><time>2026-03-30T09:25:17.999Z</time></trkpt><trkpt lat="42.02069343604559" lon="12.768955356733708"><ele>220.0</ele><time>2026-03-30T09:25:18.999Z</time></trkpt><trkpt lat="42.020595177244715" lon="12.768885934752625"><ele>219.2</ele><time>2026-03-30T09:25:19.999Z</time></trkpt><trkpt lat="42.02049665134593" lon="12.768822842474263"><ele>218.4</ele><time>2026-03-30T09:25:20.999Z</time></trkpt><trkpt lat="42.02040170319665" lon="12.76877022229378"><ele>217.60000000000002</ele><time>2026-03-30T09:25:21.999Z</time></trkpt><trkpt lat="42.02030211541155" lon="12.7687264944531"><ele>216.8</ele><time>2026-03-30T09:25:22.999Z</time></trkpt><trkpt lat="42.020196929636704" lon="12.768688946073569"><ele>216.0</ele><time>2026-03-30T09:25:23.999Z</time></trkpt><trkpt lat="42.02008975830353" lon="12.768657510738345"><ele>216.0</ele><time>2026-03-30T09:25:24.999Z</time></trkpt><trkpt lat="42.01999533280773" lon="12.76862357889549"><ele>216.00000000000003</ele><time>2026-03-30T09:25:25.999Z</time></trkpt><trkpt lat="42.01992034615095" lon="12.768576430638058"><ele>216.00000000000003</ele><time>2026-03-30T09:25:26.999Z</time></trkpt><trkpt lat="42.01984861989969" lon="12.768521776129274"><ele>216.0</ele><time>2026-03-30T09:25:27.999Z</time></trkpt><trkpt lat="42.01977604240244" lon="12.768469214018621"><ele>216.0</ele><time>2026-03-30T09:25:28.999Z</time></trkpt><trkpt lat="42.01967888355999" lon="12.76840177788547"><ele>214.33333333333334</ele><time>2026-03-30T09:25:30.999Z</time></trkpt><trkpt lat="42.01969364579235" lon="12.768284934954753"><ele>212.66666666666669</ele><time>2026-03-30T09:25:34.999Z</time></trkpt><trkpt lat="42.01976143168229" lon="12.76825491738634"><ele>211.0</ele><time>2026-03-30T09:25:35.999Z</time></trkpt><trkpt lat="42.01982987205723" lon="12.768196274827707"><ele>209.33333333333334</ele><time>2026-03-30T09:25:36.999Z</time></trkpt><trkpt lat="42.01989632216771" lon="12.76811937022655"><ele>207.66666666666669</ele><time>2026-03-30T09:25:37.999Z</time></trkpt><trkpt lat="42.01995677929267" lon="12.76807073500619"><ele>206.0</ele><time>2026-03-30T09:25:38.999Z</time></trkpt><trkpt lat="42.020023108057465" lon="12.768045776236688"><ele>206.0</ele><time>2026-03-30T09:25:39.999Z</time></trkpt><trkpt lat="42.02007277395062" lon="12.767982309596182"><ele>206.0</ele><time>2026-03-30T09:25:40.999Z</time></trkpt><trkpt lat="42.020128502475046" lon="12.767927806902483"><ele>206.0</ele><time>2026-03-30T09:25:41.999Z</time></trkpt><trkpt lat="42.020233251529795" lon="12.767867380272587"><ele>206.0</ele><time>2026-03-30T09:25:43.999Z</time></trkpt><trkpt lat="42.02034152304837" lon="12.767897163810456"><ele>206.0</ele><time>2026-03-30T09:25:45.999Z</time></trkpt><trkpt lat="42.020475218508814" lon="12.767906423093931"><ele>206.00000000000003</ele><time>2026-03-30T09:25:47.999Z</time></trkpt><trkpt lat="42.02055030080086" lon="12.767890956862699"><ele>206.0</ele><time>2026-03-30T09:25:48.999Z</time></trkpt><trkpt lat="42.020630730271165" lon="12.767864391477874"><ele>206.0</ele><time>2026-03-30T09:25:49.999Z</time></trkpt><trkpt lat="42.02070929892881" lon="12.767812858416756"><ele>206.0</ele><time>2026-03-30T09:25:50.999Z</time></trkpt><trkpt lat="42.020780664255724" lon="12.767739642921708"><ele>206.00000000000003</ele><time>2026-03-30T09:25:51.999Z</time></trkpt><trkpt lat="42.02085217638689" lon="12.767670596091417"><ele>206.0</ele><time>2026-03-30T09:25:52.999Z</time></trkpt><trkpt lat="42.020893765341704" lon="12.767580261900296"><ele>204.00000000000003</ele><time>2026-03-30T09:25:53.999Z</time></trkpt><trkpt lat="42.020885784661374" lon="12.767455265189083"><ele>202.0</ele><time>2026-03-30T09:25:54.999Z</time></trkpt><trkpt lat="42.020923292703316" lon="12.767337216842511"><ele>200.0</ele><time>2026-03-30T09:25:56.999Z</time></trkpt><trkpt lat="42.02090157780786" lon="12.767451937464482"><ele>198.0</ele><time>2026-03-30T09:26:37.999Z</time></trkpt><trkpt lat="42.02088849458115" lon="12.767538257539615"><ele>196.00000000000003</ele><time>2026-03-30T09:27:02.999Z</time></trkpt><trkpt lat="42.020882110696064" lon="12.767438943393477"><ele>194.0</ele><time>2026-03-30T09:27:05.999Z</time></trkpt><trkpt lat="42.02055190305065" lon="12.76725433561239"><ele>193.0</ele><time>2026-03-30T09:27:08.999Z</time></trkpt><trkpt lat="42.020502285397505" lon="12.767201144899092"><ele>192.0</ele><time>2026-03-30T09:27:09.999Z</time></trkpt><trkpt lat="42.02044741567296" lon="12.76715147897595"><ele>191.0</ele><time>2026-03-30T09:27:10.999Z</time></trkpt><trkpt lat="42.020392901856795" lon="12.767104626838488"><ele>190.0</ele><time>2026-03-30T09:27:11.999Z</time></trkpt><trkpt lat="42.02033779996951" lon="12.767057111630141"><ele>189.0</ele><time>2026-03-30T09:27:12.999Z</time></trkpt><trkpt lat="42.02028012682784" lon="12.767008396618081"><ele>188.0</ele><time>2026-03-30T09:27:13.999Z</time></trkpt><trkpt lat="42.020181721557066" lon="12.766919273538722"><ele>187.0</ele><time>2026-03-30T09:27:15.999Z</time></trkpt><trkpt lat="42.02011447114544" lon="12.766786918669466"><ele>185.0</ele><time>2026-03-30T09:27:17.999Z</time></trkpt><trkpt lat="42.02000875181842" lon="12.766696010690646"><ele>183.0</ele><time>2026-03-30T09:27:19.999Z</time></trkpt><trkpt lat="42.01994193810094" lon="12.766644220633502"><ele>181.0</ele><time>2026-03-30T09:27:20.999Z</time></trkpt><trkpt lat="42.019879988133944" lon="12.766586806620346"><ele>179.0</ele><time>2026-03-30T09:27:21.999Z</time></trkpt><trkpt lat="42.019833392138835" lon="12.766515815488626"><ele>177.0</ele><time>2026-03-30T09:27:22.999Z</time></trkpt><trkpt lat="42.0197892239486" lon="12.766432600525215"><ele>175.0</ele><time>2026-03-30T09:27:23.999Z</time></trkpt><trkpt lat="42.01975860773684" lon="12.766337207207183"><ele>175.0</ele><time>2026-03-30T09:27:24.999Z</time></trkpt><trkpt lat="42.01973106409239" lon="12.7662496570834"><ele>175.0</ele><time>2026-03-30T09:27:25.999Z</time></trkpt><trkpt lat="42.01969406745254" lon="12.76615528096197"><ele>175.0</ele><time>2026-03-30T09:27:26.999Z</time></trkpt><trkpt lat="42.01966463159388" lon="12.766063092794182"><ele>175.0</ele><time>2026-03-30T09:27:27.999Z</time></trkpt><trkpt lat="42.01961826551486" lon="12.765904630256951"><ele>175.0</ele><time>2026-03-30T09:27:29.999Z</time></trkpt><trkpt lat="42.01960856550522" lon="12.765812057772877"><ele>175.0</ele><time>2026-03-30T09:27:30.999Z</time></trkpt><trkpt lat="42.01960046226062" lon="12.765702702046866"><ele>172.5</ele><time>2026-03-30T09:27:31.999Z</time></trkpt><trkpt lat="42.01958599598613" lon="12.765592238145068"><ele>170.0</ele><time>2026-03-30T09:27:32.999Z</time></trkpt><trkpt lat="42.019554202342015" lon="12.765480071837622"><ele>167.5</ele><time>2026-03-30T09:27:33.999Z</time></trkpt><trkpt lat="42.01951253350994" lon="12.76537011721877"><ele>165.0</ele><time>2026-03-30T09:27:34.999Z</time></trkpt><trkpt lat="42.019476248849216" lon="12.765262871875107"><ele>162.5</ele><time>2026-03-30T09:27:35.999Z</time></trkpt><trkpt lat="42.01944554016546" lon="12.765166618720423"><ele>160.0</ele><time>2026-03-30T09:27:36.999Z</time></trkpt><trkpt lat="42.0194155949995" lon="12.765062788863695"><ele>158.0</ele><time>2026-03-30T09:27:37.999Z</time></trkpt><trkpt lat="42.019383022207904" lon="12.764950731599335"><ele>156.0</ele><time>2026-03-30T09:27:38.999Z</time></trkpt><trkpt lat="42.019351448201355" lon="12.764833141358956"><ele>154.0</ele><time>2026-03-30T09:27:39.999Z</time></trkpt><trkpt lat="42.01932106535746" lon="12.764712190495368"><ele>152.0</ele><time>2026-03-30T09:27:40.999Z</time></trkpt><trkpt lat="42.01929200937823" lon="12.764582516199498"><ele>150.0</ele><time>2026-03-30T09:27:41.999Z</time></trkpt><trkpt lat="42.01926214599859" lon="12.764450745373184"><ele>149.4</ele><time>2026-03-30T09:27:42.999Z</time></trkpt><trkpt lat="42.01923655223406" lon="12.764307729196195"><ele>148.8</ele><time>2026-03-30T09:27:43.999Z</time></trkpt><trkpt lat="42.01921211734876" lon="12.764166078386813"><ele>148.2</ele><time>2026-03-30T09:27:44.999Z</time></trkpt><trkpt lat="42.01919161470923" lon="12.76402668026498"><ele>147.6</ele><time>2026-03-30T09:27:45.999Z</time></trkpt><trkpt lat="42.019177850941986" lon="12.763884584843188"><ele>147.0</ele><time>2026-03-30T09:27:46.999Z</time></trkpt><trkpt lat="42.019168936500435" lon="12.763734880972349"><ele>147.0</ele><time>2026-03-30T09:27:47.999Z</time></trkpt><trkpt lat="42.01915969869609" lon="12.763591310872842"><ele>147.0</ele><time>2026-03-30T09:27:48.999Z</time></trkpt><trkpt lat="42.01914612374461" lon="12.763450220177898"><ele>147.0</ele><time>2026-03-30T09:27:49.999Z</time></trkpt><trkpt lat="42.019130595180684" lon="12.763333151731398"><ele>147.0</ele><time>2026-03-30T09:27:50.999Z</time></trkpt><trkpt lat="42.019100962415" lon="12.763251422546258"><ele>147.0</ele><time>2026-03-30T09:27:51.999Z</time></trkpt><trkpt lat="42.019069692318645" lon="12.763172899359324"><ele>147.0</ele><time>2026-03-30T09:27:52.999Z</time></trkpt><trkpt lat="42.01911039357229" lon="12.763084608274724"><ele>147.5</ele><time>2026-03-30T09:27:53.999Z</time></trkpt><trkpt lat="42.01906505395747" lon="12.762943510113093"><ele>148.0</ele><time>2026-03-30T09:27:57.999Z</time></trkpt><trkpt lat="42.01905037776358" lon="12.76286054106051"><ele>148.5</ele><time>2026-03-30T09:27:58.999Z</time></trkpt><trkpt lat="42.01903486337292" lon="12.76276455029144"><ele>149.0</ele><time>2026-03-30T09:27:59.999Z</time></trkpt><trkpt lat="42.019012176205656" lon="12.762666649836635"><ele>149.5</ele><time>2026-03-30T09:28:00.999Z</time></trkpt><trkpt lat="42.01897877354958" lon="12.762583700689355"><ele>150.0</ele><time>2026-03-30T09:28:01.999Z</time></trkpt><trkpt lat="42.018936216810054" lon="12.762493070005537"><ele>148.83333333333334</ele><time>2026-03-30T09:28:02.999Z</time></trkpt><trkpt lat="42.01889481910452" lon="12.76241821821234"><ele>147.66666666666666</ele><time>2026-03-30T09:28:03.999Z</time></trkpt><trkpt lat="42.01885771621333" lon="12.762347874865599"><ele>146.5</ele><time>2026-03-30T09:28:04.999Z</time></trkpt><trkpt lat="42.01879045947073" lon="12.76222036287841"><ele>145.33333333333331</ele><time>2026-03-30T09:28:06.999Z</time></trkpt><trkpt lat="42.01875792993232" lon="12.76214195528088"><ele>144.16666666666666</ele><time>2026-03-30T09:28:08.999Z</time></trkpt><trkpt lat="42.018797659327376" lon="12.762012316089693"><ele>143.0</ele><time>2026-03-30T09:28:11.999Z</time></trkpt><trkpt lat="42.01883347809495" lon="12.761903412855593"><ele>142.33333333333331</ele><time>2026-03-30T09:28:12.999Z</time></trkpt><trkpt lat="42.01886939927983" lon="12.761798063289673"><ele>141.66666666666666</ele><time>2026-03-30T09:28:13.999Z</time></trkpt><trkpt lat="42.01890603327266" lon="12.761690623408203"><ele>141.0</ele><time>2026-03-30T09:28:14.999Z</time></trkpt><trkpt lat="42.01894184805353" lon="12.761591423864385"><ele>140.33333333333334</ele><time>2026-03-30T09:28:15.999Z</time></trkpt><trkpt lat="42.018964843722685" lon="12.761489276447506"><ele>139.66666666666669</ele><time>2026-03-30T09:28:16.999Z</time></trkpt><trkpt lat="42.018993058994" lon="12.761409122498685"><ele>139.0</ele><time>2026-03-30T09:28:17.999Z</time></trkpt><trkpt lat="42.019038461622785" lon="12.76127085469972"><ele>139.0</ele><time>2026-03-30T09:28:19.999Z</time></trkpt><trkpt lat="42.01908232413399" lon="12.761131673254663"><ele>139.0</ele><time>2026-03-30T09:28:21.999Z</time></trkpt><trkpt lat="42.01914302504908" lon="12.760990674647054"><ele>139.0</ele><time>2026-03-30T09:28:23.999Z</time></trkpt><trkpt lat="42.019178693984955" lon="12.76089745611631"><ele>139.0</ele><time>2026-03-30T09:28:24.999Z</time></trkpt><trkpt lat="42.019216583841214" lon="12.760818525288776"><ele>139.0</ele><time>2026-03-30T09:28:25.999Z</time></trkpt><trkpt lat="42.019266919568125" lon="12.760729192504177"><ele>138.33333333333334</ele><time>2026-03-30T09:28:26.999Z</time></trkpt><trkpt lat="42.01931233158908" lon="12.760646055518992"><ele>137.66666666666669</ele><time>2026-03-30T09:28:27.999Z</time></trkpt><trkpt lat="42.01937546311242" lon="12.760572119337052"><ele>137.0</ele><time>2026-03-30T09:28:28.999Z</time></trkpt><trkpt lat="42.01943379489538" lon="12.760501164040276"><ele>136.33333333333334</ele><time>2026-03-30T09:28:29.999Z</time></trkpt><trkpt lat="42.019482917824554" lon="12.760442004393592"><ele>135.66666666666666</ele><time>2026-03-30T09:28:30.999Z</time></trkpt><trkpt lat="42.0195413206319" lon="12.760333650055951"><ele>135.0</ele><time>2026-03-30T09:28:33Z</time></trkpt><trkpt lat="42.01955077682768" lon="12.760212700009074"><ele>133.0</ele><time>2026-03-30T09:28:35Z</time></trkpt><trkpt lat="42.019499640948084" lon="12.7600871917575"><ele>131.0</ele><time>2026-03-30T09:28:37Z</time></trkpt><trkpt lat="42.019422996340246" lon="12.75994304880291"><ele>129.0</ele><time>2026-03-30T09:28:39Z</time></trkpt><trkpt lat="42.01937080817229" lon="12.759861515496052"><ele>127.0</ele><time>2026-03-30T09:28:40Z</time></trkpt><trkpt lat="42.01931419774569" lon="12.759780333039313"><ele>125.0</ele><time>2026-03-30T09:28:41Z</time></trkpt><trkpt lat="42.019261413023884" lon="12.759707893474367"><ele>124.99999999999999</ele><time>2026-03-30T09:28:42Z</time></trkpt><trkpt lat="42.019210403836624" lon="12.759642903451207"><ele>125.0</ele><time>2026-03-30T09:28:43Z</time></trkpt><trkpt lat="42.01916206838961" lon="12.759583996963608"><ele>125.0</ele><time>2026-03-30T09:28:44Z</time></trkpt><trkpt lat="42.01911180905836" lon="12.759526133053512"><ele>125.0</ele><time>2026-03-30T09:28:45Z</time></trkpt><trkpt lat="42.019005468018904" lon="12.759416649493998"><ele>124.99999999999999</ele><time>2026-03-30T09:28:47Z</time></trkpt><trkpt lat="42.018950685974" lon="12.759364907642565"><ele>125.0</ele><time>2026-03-30T09:28:48Z</time></trkpt><trkpt lat="42.01889392656482" lon="12.759312346950832"><ele>123.4</ele><time>2026-03-30T09:28:49Z</time></trkpt><trkpt lat="42.018841700201264" lon="12.759264525214867"><ele>121.8</ele><time>2026-03-30T09:28:50Z</time></trkpt><trkpt lat="42.018739709818604" lon="12.759172957453092"><ele>120.19999999999999</ele><time>2026-03-30T09:28:52Z</time></trkpt><trkpt lat="42.018646579441075" lon="12.75909465036773"><ele>118.6</ele><time>2026-03-30T09:28:54Z</time></trkpt><trkpt lat="42.018587858477225" lon="12.759047119370363"><ele>117.0</ele><time>2026-03-30T09:28:56Z</time></trkpt><trkpt lat="42.01868507007714" lon="12.758893943522448"><ele>117.0</ele><time>2026-03-30T09:29:02Z</time></trkpt><trkpt lat="42.0187629344362" lon="12.75883563129729"><ele>116.99999999999999</ele><time>2026-03-30T09:29:03Z</time></trkpt><trkpt lat="42.01884284077571" lon="12.758777809416252"><ele>116.99999999999999</ele><time>2026-03-30T09:29:04Z</time></trkpt><trkpt lat="42.018939442102884" lon="12.758716981542257"><ele>117.0</ele><time>2026-03-30T09:29:05Z</time></trkpt><trkpt lat="42.019036469603144" lon="12.758669188019185"><ele>117.0</ele><time>2026-03-30T09:29:06Z</time></trkpt><trkpt lat="42.01914144759917" lon="12.758628862072973"><ele>117.0</ele><time>2026-03-30T09:29:07Z</time></trkpt><trkpt lat="42.01925680926697" lon="12.758587651136848"><ele>116.99999999999999</ele><time>2026-03-30T09:29:08Z</time></trkpt><trkpt lat="42.01936508945049" lon="12.758554956257177"><ele>116.99999999999999</ele><time>2026-03-30T09:29:09Z</time></trkpt><trkpt lat="42.01946698929937" lon="12.758526021076303"><ele>117.0</ele><time>2026-03-30T09:29:10Z</time></trkpt><trkpt lat="42.019561652403034" lon="12.758485547543557"><ele>117.0</ele><time>2026-03-30T09:29:11Z</time></trkpt><trkpt lat="42.019653704253535" lon="12.758432909396728"><ele>116.39999999999999</ele><time>2026-03-30T09:29:12Z</time></trkpt><trkpt lat="42.01973685511942" lon="12.758382912802682"><ele>115.79999999999998</ele><time>2026-03-30T09:29:13Z</time></trkpt><trkpt lat="42.01979890438267" lon="12.7583293694515"><ele>115.2</ele><time>2026-03-30T09:29:14Z</time></trkpt><trkpt lat="42.01983915547703" lon="12.758258973408708"><ele>114.6</ele><time>2026-03-30T09:29:16Z</time></trkpt><trkpt lat="42.01995964573189" lon="12.758382619711554"><ele>114.0</ele><time>2026-03-30T09:29:19Z</time></trkpt><trkpt lat="42.02003396701099" lon="12.758466111610534"><ele>114.0</ele><time>2026-03-30T09:29:20Z</time></trkpt><trkpt lat="42.02010672944599" lon="12.7585577697538"><ele>114.0</ele><time>2026-03-30T09:29:21Z</time></trkpt><trkpt lat="42.020170214202466" lon="12.758642584308962"><ele>114.0</ele><time>2026-03-30T09:29:22Z</time></trkpt><trkpt lat="42.02023361646078" lon="12.758740537916873"><ele>114.0</ele><time>2026-03-30T09:29:23Z</time></trkpt><trkpt lat="42.020293984315046" lon="12.758843403867711"><ele>114.0</ele><time>2026-03-30T09:29:24Z</time></trkpt><trkpt lat="42.02036448471725" lon="12.75895078925834"><ele>114.0</ele><time>2026-03-30T09:29:25Z</time></trkpt><trkpt lat="42.02044795927341" lon="12.759065903983666"><ele>114.0</ele><time>2026-03-30T09:29:26Z</time></trkpt><trkpt lat="42.02053961122882" lon="12.759186066674875"><ele>114.0</ele><time>2026-03-30T09:29:27Z</time></trkpt><trkpt lat="42.020623435194025" lon="12.759303263987244"><ele>114.0</ele><time>2026-03-30T09:29:28Z</time></trkpt><trkpt lat="42.020693735955064" lon="12.759421541136318"><ele>114.25</ele><time>2026-03-30T09:29:29Z</time></trkpt><trkpt lat="42.020754970180455" lon="12.759538975224363"><ele>114.5</ele><time>2026-03-30T09:29:30Z</time></trkpt><trkpt lat="42.02081892498238" lon="12.759633044369243"><ele>114.75</ele><time>2026-03-30T09:29:31Z</time></trkpt><trkpt lat="42.020894816324954" lon="12.759701140161214"><ele>115.0</ele><time>2026-03-30T09:29:33Z</time></trkpt><trkpt lat="42.0210502891528" lon="12.759647272307785"><ele>115.0</ele><time>2026-03-30T09:29:35Z</time></trkpt><trkpt lat="42.021159756603325" lon="12.759655930435532"><ele>115.0</ele><time>2026-03-30T09:29:36Z</time></trkpt><trkpt lat="42.0212904148017" lon="12.759672781669893"><ele>115.0</ele><time>2026-03-30T09:29:37Z</time></trkpt><trkpt lat="42.02142964824522" lon="12.759686898790239"><ele>115.0</ele><time>2026-03-30T09:29:38Z</time></trkpt><trkpt lat="42.021561281720714" lon="12.759697782338357"><ele>117.25</ele><time>2026-03-30T09:29:39Z</time></trkpt><trkpt lat="42.02167125898298" lon="12.759737792314617"><ele>119.5</ele><time>2026-03-30T09:29:40Z</time></trkpt><trkpt lat="42.02178728998174" lon="12.759743375042008"><ele>121.75</ele><time>2026-03-30T09:29:41Z</time></trkpt><trkpt lat="42.021904072878044" lon="12.759779365033275"><ele>124.0</ele><time>2026-03-30T09:29:42Z</time></trkpt><trkpt lat="42.02202511166604" lon="12.75980549499381"><ele>124.0</ele><time>2026-03-30T09:29:43Z</time></trkpt><trkpt lat="42.02214416697538" lon="12.759815508917526"><ele>124.0</ele><time>2026-03-30T09:29:44Z</time></trkpt><trkpt lat="42.02226679562821" lon="12.759824679938907"><ele>124.0</ele><time>2026-03-30T09:29:45Z</time></trkpt><trkpt lat="42.02238359930972" lon="12.75988218095084"><ele>124.0</ele><time>2026-03-30T09:29:46Z</time></trkpt><trkpt lat="42.02250103336939" lon="12.7599187295343"><ele>126.0</ele><time>2026-03-30T09:29:47Z</time></trkpt><trkpt lat="42.0226256654111" lon="12.759913538475365"><ele>128.0</ele><time>2026-03-30T09:29:48Z</time></trkpt><trkpt lat="42.022755795153685" lon="12.759922722342816"><ele>130.0</ele><time>2026-03-30T09:29:49Z</time></trkpt><trkpt lat="42.02289122150735" lon="12.759931418015618"><ele>132.0</ele><time>2026-03-30T09:29:50Z</time></trkpt><trkpt lat="42.02302624647946" lon="12.759965437914488"><ele>132.0</ele><time>2026-03-30T09:29:51Z</time></trkpt><trkpt lat="42.02316888895419" lon="12.759959520320423"><ele>132.0</ele><time>2026-03-30T09:29:52Z</time></trkpt><trkpt lat="42.023310600262235" lon="12.759981224384497"><ele>132.0</ele><time>2026-03-30T09:29:53Z</time></trkpt><trkpt lat="42.02344712618376" lon="12.759996040010813"><ele>132.0</ele><time>2026-03-30T09:29:54Z</time></trkpt><trkpt lat="42.023578048773366" lon="12.760022510995542"><ele>133.25</ele><time>2026-03-30T09:29:55Z</time></trkpt><trkpt lat="42.023699832462896" lon="12.76004146324733"><ele>134.5</ele><time>2026-03-30T09:29:56Z</time></trkpt><trkpt lat="42.02382645223335" lon="12.760057097953071"><ele>135.75</ele><time>2026-03-30T09:29:57Z</time></trkpt><trkpt lat="42.02396241621156" lon="12.760080416083202"><ele>137.0</ele><time>2026-03-30T09:29:58Z</time></trkpt><trkpt lat="42.02410425620086" lon="12.760096910384256"><ele>139.0</ele><time>2026-03-30T09:29:59Z</time></trkpt><trkpt lat="42.02422994216695" lon="12.76012036771689"><ele>141.0</ele><time>2026-03-30T09:30:00Z</time></trkpt><trkpt lat="42.024354277096954" lon="12.760130741177012"><ele>143.0</ele><time>2026-03-30T09:30:01Z</time></trkpt><trkpt lat="42.02447233363177" lon="12.76014204728872"><ele>145.0</ele><time>2026-03-30T09:30:02Z</time></trkpt><trkpt lat="42.02459490989598" lon="12.760156530033173"><ele>145.0</ele><time>2026-03-30T09:30:03Z</time></trkpt><trkpt lat="42.02472510373237" lon="12.760170499829421"><ele>145.0</ele><time>2026-03-30T09:30:04Z</time></trkpt><trkpt lat="42.02483807968892" lon="12.76018550847564"><ele>145.0</ele><time>2026-03-30T09:30:05Z</time></trkpt><trkpt lat="42.02494321063339" lon="12.760209415064388"><ele>145.0</ele><time>2026-03-30T09:30:06Z</time></trkpt><trkpt lat="42.02505005331471" lon="12.760221261081371"><ele>149.6</ele><time>2026-03-30T09:30:07Z</time></trkpt><trkpt lat="42.025154900325745" lon="12.76023497457031"><ele>154.2</ele><time>2026-03-30T09:30:08Z</time></trkpt><trkpt lat="42.02524660456163" lon="12.760249084796818"><ele>158.8</ele><time>2026-03-30T09:30:09Z</time></trkpt><trkpt lat="42.02533317092056" lon="12.760263141857662"><ele>163.4</ele><time>2026-03-30T09:30:10Z</time></trkpt><trkpt lat="42.02542670920169" lon="12.760278459974622"><ele>168.0</ele><time>2026-03-30T09:30:11Z</time></trkpt><trkpt lat="42.025628908931" lon="12.760311353205738"><ele>168.0</ele><time>2026-03-30T09:30:13Z</time></trkpt><trkpt lat="42.02572830576012" lon="12.76032139197789"><ele>168.0</ele><time>2026-03-30T09:30:14Z</time></trkpt><trkpt lat="42.025817011333956" lon="12.760327345255394"><ele>168.0</ele><time>2026-03-30T09:30:15Z</time></trkpt><trkpt lat="42.02590809570673" lon="12.76033972579906"><ele>168.0</ele><time>2026-03-30T09:30:16Z</time></trkpt><trkpt lat="42.02600853787857" lon="12.76035591282349"><ele>168.0</ele><time>2026-03-30T09:30:17Z</time></trkpt><trkpt lat="42.026118047775604" lon="12.760375754506065"><ele>170.8</ele><time>2026-03-30T09:30:18Z</time></trkpt><trkpt lat="42.02622072572069" lon="12.760397813652286"><ele>173.60000000000002</ele><time>2026-03-30T09:30:19Z</time></trkpt><trkpt lat="42.026316303198946" lon="12.760418719728426"><ele>176.39999999999998</ele><time>2026-03-30T09:30:20Z</time></trkpt><trkpt lat="42.02641166070745" lon="12.760435288237408"><ele>179.2</ele><time>2026-03-30T09:30:21Z</time></trkpt><trkpt lat="42.02651749593167" lon="12.760449360168405"><ele>182.0</ele><time>2026-03-30T09:30:22Z</time></trkpt><trkpt lat="42.026615309241954" lon="12.760472136183896"><ele>183.6</ele><time>2026-03-30T09:30:23Z</time></trkpt><trkpt lat="42.02670443572693" lon="12.760486983975019"><ele>185.2</ele><time>2026-03-30T09:30:24Z</time></trkpt><trkpt lat="42.02679907730409" lon="12.760512176957711"><ele>186.8</ele><time>2026-03-30T09:30:25Z</time></trkpt><trkpt lat="42.02690461067992" lon="12.76053288559703"><ele>188.4</ele><time>2026-03-30T09:30:26Z</time></trkpt><trkpt lat="42.02701270906174" lon="12.760544619720063"><ele>190.0</ele><time>2026-03-30T09:30:27Z</time></trkpt><trkpt lat="42.027123831182244" lon="12.760557071620722"><ele>190.0</ele><time>2026-03-30T09:30:28Z</time></trkpt><trkpt lat="42.02723227947599" lon="12.760563649415195"><ele>190.0</ele><time>2026-03-30T09:30:29Z</time></trkpt><trkpt lat="42.02734923085604" lon="12.760596745931062"><ele>190.0</ele><time>2026-03-30T09:30:30Z</time></trkpt><trkpt lat="42.02746520835097" lon="12.760613978356448"><ele>190.0</ele><time>2026-03-30T09:30:31Z</time></trkpt><trkpt lat="42.02758481778907" lon="12.760613754466899"><ele>191.0</ele><time>2026-03-30T09:30:32Z</time></trkpt><trkpt lat="42.02770414451512" lon="12.760631690081205"><ele>192.0</ele><time>2026-03-30T09:30:33Z</time></trkpt><trkpt lat="42.02782015894242" lon="12.760648235937243"><ele>193.0</ele><time>2026-03-30T09:30:34Z</time></trkpt><trkpt lat="42.0279416602472" lon="12.760667349794115"><ele>194.0</ele><time>2026-03-30T09:30:35Z</time></trkpt><trkpt lat="42.02806286778326" lon="12.760677765503635"><ele>194.0</ele><time>2026-03-30T09:30:36Z</time></trkpt><trkpt lat="42.028191267155144" lon="12.760696170138702"><ele>194.0</ele><time>2026-03-30T09:30:37Z</time></trkpt><trkpt lat="42.02831780978164" lon="12.760710677452437"><ele>194.0</ele><time>2026-03-30T09:30:38Z</time></trkpt><trkpt lat="42.02842701187083" lon="12.760730776396962"><ele>194.0</ele><time>2026-03-30T09:30:39Z</time></trkpt><trkpt lat="42.028529123889825" lon="12.760745402555923"><ele>195.39999999999998</ele><time>2026-03-30T09:30:40Z</time></trkpt><trkpt lat="42.028609818180485" lon="12.76076262527044"><ele>196.8</ele><time>2026-03-30T09:30:41Z</time></trkpt><trkpt lat="42.028675765637715" lon="12.760765602357704"><ele>198.2</ele><time>2026-03-30T09:30:42Z</time></trkpt><trkpt lat="42.028775575301935" lon="12.760770496594843"><ele>199.60000000000002</ele><time>2026-03-30T09:30:44Z</time></trkpt><trkpt lat="42.02884506829642" lon="12.760792630697964"><ele>201.0</ele><time>2026-03-30T09:30:46Z</time></trkpt><trkpt lat="42.028931396940884" lon="12.760622564106246"><ele>201.0</ele><time>2026-03-30T09:30:49Z</time></trkpt><trkpt lat="42.028948363698824" lon="12.760491872390052"><ele>201.0</ele><time>2026-03-30T09:30:50Z</time></trkpt><trkpt lat="42.02896665965104" lon="12.7603415124138"><ele>201.0</ele><time>2026-03-30T09:30:51Z</time></trkpt><trkpt lat="42.028979765204966" lon="12.760181047202822"><ele>201.0</ele><time>2026-03-30T09:30:52Z</time></trkpt><trkpt lat="42.02899410856188" lon="12.759993225681601"><ele>199.33333333333331</ele><time>2026-03-30T09:30:53Z</time></trkpt><trkpt lat="42.02901108618702" lon="12.759770909252675"><ele>197.66666666666666</ele><time>2026-03-30T09:30:54Z</time></trkpt><trkpt lat="42.02903081357536" lon="12.75955768386664"><ele>196.0</ele><time>2026-03-30T09:30:55Z</time></trkpt><trkpt lat="42.02904795454218" lon="12.759373972098054"><ele>194.8</ele><time>2026-03-30T09:30:56Z</time></trkpt><trkpt lat="42.02905980317447" lon="12.759199891494411"><ele>193.60000000000002</ele><time>2026-03-30T09:30:57Z</time></trkpt><trkpt lat="42.02906636233371" lon="12.759052238005621"><ele>192.4</ele><time>2026-03-30T09:30:58Z</time></trkpt><trkpt lat="42.02907033298061" lon="12.758932880329791"><ele>191.2</ele><time>2026-03-30T09:30:59Z</time></trkpt><trkpt lat="42.02905779282042" lon="12.758829337746972"><ele>190.0</ele><time>2026-03-30T09:31:00.001Z</time></trkpt><trkpt lat="42.02906875700823" lon="12.758727759325167"><ele>190.0</ele><time>2026-03-30T09:31:01Z</time></trkpt><trkpt lat="42.029077769328126" lon="12.758638793913278"><ele>190.0</ele><time>2026-03-30T09:31:02Z</time></trkpt><trkpt lat="42.0290986917767" lon="12.758549927165893"><ele>190.0</ele><time>2026-03-30T09:31:03Z</time></trkpt><trkpt lat="42.029064607137585" lon="12.758473586177084"><ele>190.0</ele><time>2026-03-30T09:31:04Z</time></trkpt><trkpt lat="42.02902803177914" lon="12.758393273323701"><ele>190.0</ele><time>2026-03-30T09:31:05Z</time></trkpt><trkpt lat="42.02895407718047" lon="12.758283849273855"><ele>190.0</ele><time>2026-03-30T09:31:07Z</time></trkpt><trkpt lat="42.02889128957198" lon="12.758160936011029"><ele>189.0</ele><time>2026-03-30T09:31:09Z</time></trkpt><trkpt lat="42.028861220314866" lon="12.758074525166323"><ele>188.0</ele><time>2026-03-30T09:31:10Z</time></trkpt><trkpt lat="42.02916313261382" lon="12.75768330754675"><ele>187.8</ele><time>2026-03-30T09:31:11Z</time></trkpt><trkpt lat="42.029171867942324" lon="12.757565415571777"><ele>187.60000000000002</ele><time>2026-03-30T09:31:12Z</time></trkpt><trkpt lat="42.029188865933264" lon="12.757424246804867"><ele>187.39999999999998</ele><time>2026-03-30T09:31:13Z</time></trkpt><trkpt lat="42.02921225761144" lon="12.757285689354626"><ele>187.2</ele><time>2026-03-30T09:31:14Z</time></trkpt><trkpt lat="42.02922156559726" lon="12.757133525458825"><ele>187.0</ele><time>2026-03-30T09:31:15Z</time></trkpt><trkpt lat="42.02922584117093" lon="12.756979961223305"><ele>185.25</ele><time>2026-03-30T09:31:16Z</time></trkpt><trkpt lat="42.029234519623294" lon="12.756827454865444"><ele>183.5</ele><time>2026-03-30T09:31:17Z</time></trkpt><trkpt lat="42.029252332701205" lon="12.756683084653226"><ele>181.75</ele><time>2026-03-30T09:31:18Z</time></trkpt><trkpt lat="42.029270023640436" lon="12.75652036944749"><ele>180.0</ele><time>2026-03-30T09:31:19Z</time></trkpt><trkpt lat="42.02927993472038" lon="12.756370748174568"><ele>180.0</ele><time>2026-03-30T09:31:20Z</time></trkpt><trkpt lat="42.029284397678246" lon="12.756267879402554"><ele>180.0</ele><time>2026-03-30T09:31:21Z</time></trkpt><trkpt lat="42.02929681391301" lon="12.756171360501183"><ele>180.0</ele><time>2026-03-30T09:31:22Z</time></trkpt><trkpt lat="42.029337565636915" lon="12.75608746985613"><ele>180.0</ele><time>2026-03-30T09:31:23Z</time></trkpt><trkpt lat="42.029355261264016" lon="12.755982727383142"><ele>180.0</ele><time>2026-03-30T09:31:24Z</time></trkpt><trkpt lat="42.02937223874318" lon="12.755864487572746"><ele>180.0</ele><time>2026-03-30T09:31:25Z</time></trkpt><trkpt lat="42.029374448573364" lon="12.75574680250137"><ele>180.0</ele><time>2026-03-30T09:31:26Z</time></trkpt><trkpt lat="42.029401079745725" lon="12.755628570454949"><ele>180.0</ele><time>2026-03-30T09:31:27Z</time></trkpt><trkpt lat="42.02941723770867" lon="12.755496399365782"><ele>180.0</ele><time>2026-03-30T09:31:28Z</time></trkpt><trkpt lat="42.02943199554947" lon="12.755366263624861"><ele>180.0</ele><time>2026-03-30T09:31:29Z</time></trkpt><trkpt lat="42.02944451418184" lon="12.755252985280064"><ele>180.0</ele><time>2026-03-30T09:31:30Z</time></trkpt><trkpt lat="42.02945600682452" lon="12.755148990806202"><ele>180.0</ele><time>2026-03-30T09:31:31Z</time></trkpt><trkpt lat="42.02946574272049" lon="12.755052166018245"><ele>180.0</ele><time>2026-03-30T09:31:32Z</time></trkpt><trkpt lat="42.02947465928116" lon="12.754950861918607"><ele>180.0</ele><time>2026-03-30T09:31:33Z</time></trkpt><trkpt lat="42.029484853439094" lon="12.75482874940508"><ele>180.0</ele><time>2026-03-30T09:31:34Z</time></trkpt><trkpt lat="42.02949382424651" lon="12.754707546688232"><ele>180.0</ele><time>2026-03-30T09:31:35Z</time></trkpt><trkpt lat="42.02950174271936" lon="12.754597410059407"><ele>180.0</ele><time>2026-03-30T09:31:36Z</time></trkpt><trkpt lat="42.0295048851055" lon="12.754478026687956"><ele>179.0</ele><time>2026-03-30T09:31:37Z</time></trkpt><trkpt lat="42.02950558685932" lon="12.754347779662043"><ele>178.0</ele><time>2026-03-30T09:31:38Z</time></trkpt><trkpt lat="42.02952638421708" lon="12.754243135592189"><ele>177.0</ele><time>2026-03-30T09:31:39Z</time></trkpt><trkpt lat="42.02951945979154" lon="12.754133375217343"><ele>176.0</ele><time>2026-03-30T09:31:40Z</time></trkpt><trkpt lat="42.02953420919711" lon="12.754020870658792"><ele>175.0</ele><time>2026-03-30T09:31:41Z</time></trkpt><trkpt lat="42.02953857190246" lon="12.75390239560573"><ele>174.0</ele><time>2026-03-30T09:31:42Z</time></trkpt><trkpt lat="42.02954434381244" lon="12.75380233018005"><ele>174.0</ele><time>2026-03-30T09:31:43Z</time></trkpt><trkpt lat="42.029552291313045" lon="12.753696986123451"><ele>174.0</ele><time>2026-03-30T09:31:44Z</time></trkpt><trkpt lat="42.02955934044526" lon="12.753596800624905"><ele>174.0</ele><time>2026-03-30T09:31:45Z</time></trkpt><trkpt lat="42.02956620340116" lon="12.753484804779916"><ele>174.0</ele><time>2026-03-30T09:31:46Z</time></trkpt><trkpt lat="42.02957089927117" lon="12.753373599068327"><ele>174.0</ele><time>2026-03-30T09:31:47Z</time></trkpt><trkpt lat="42.029577586941734" lon="12.753263861020798"><ele>174.0</ele><time>2026-03-30T09:31:48Z</time></trkpt><trkpt lat="42.02958373247836" lon="12.753156223875951"><ele>172.16666666666666</ele><time>2026-03-30T09:31:49Z</time></trkpt><trkpt lat="42.0295893167824" lon="12.753050106896307"><ele>170.33333333333334</ele><time>2026-03-30T09:31:50Z</time></trkpt><trkpt lat="42.02959597526273" lon="12.75294553004944"><ele>168.5</ele><time>2026-03-30T09:31:51Z</time></trkpt><trkpt lat="42.029618544128" lon="12.752863336162267"><ele>166.66666666666669</ele><time>2026-03-30T09:31:52Z</time></trkpt><trkpt lat="42.02963800876764" lon="12.752729991060242"><ele>164.83333333333334</ele><time>2026-03-30T09:31:54Z</time></trkpt><trkpt lat="42.02964537833246" lon="12.752624995030457"><ele>163.0</ele><time>2026-03-30T09:31:56Z</time></trkpt><trkpt lat="42.02958779819551" lon="12.75251001426814"><ele>161.20000000000002</ele><time>2026-03-30T09:31:57Z</time></trkpt><trkpt lat="42.02945479918381" lon="12.752476964328624"><ele>159.4</ele><time>2026-03-30T09:31:58Z</time></trkpt><trkpt lat="42.0293749562916" lon="12.752461016990729"><ele>157.60000000000002</ele><time>2026-03-30T09:31:59Z</time></trkpt><trkpt lat="42.029298613194754" lon="12.752454845891231"><ele>155.8</ele><time>2026-03-30T09:32:00Z</time></trkpt><trkpt lat="42.02921687695466" lon="12.752450584149269"><ele>154.0</ele><time>2026-03-30T09:32:01Z</time></trkpt><trkpt lat="42.02912048514908" lon="12.752437979697575"><ele>151.2</ele><time>2026-03-30T09:32:03Z</time></trkpt><trkpt lat="42.02904684199757" lon="12.752386172933344"><ele>148.4</ele><time>2026-03-30T09:32:06Z</time></trkpt><trkpt lat="42.02905125628755" lon="12.752216568045045"><ele>145.6</ele><time>2026-03-30T09:32:08Z</time></trkpt><trkpt lat="42.029059991185456" lon="12.752115177066532"><ele>142.8</ele><time>2026-03-30T09:32:09Z</time></trkpt><trkpt lat="42.02906782462373" lon="12.752017657806071"><ele>140.0</ele><time>2026-03-30T09:32:10Z</time></trkpt><trkpt lat="42.02907836091731" lon="12.75189365078372"><ele>140.0</ele><time>2026-03-30T09:32:12Z</time></trkpt><trkpt lat="42.02908741885247" lon="12.751787043156945"><ele>140.0</ele><time>2026-03-30T09:32:15Z</time></trkpt><trkpt lat="42.02916913075746" lon="12.751744887081857"><ele>140.0</ele><time>2026-03-30T09:32:16Z</time></trkpt><trkpt lat="42.02925555037582" lon="12.751715711571213"><ele>140.0</ele><time>2026-03-30T09:32:17Z</time></trkpt><trkpt lat="42.02936172747146" lon="12.751688688859886"><ele>140.0</ele><time>2026-03-30T09:32:18Z</time></trkpt><trkpt lat="42.029466196712825" lon="12.75165673665446"><ele>140.0</ele><time>2026-03-30T09:32:19Z</time></trkpt><trkpt lat="42.02957737038824" lon="12.751626134653762"><ele>140.0</ele><time>2026-03-30T09:32:20Z</time></trkpt><trkpt lat="42.029705117118" lon="12.751611792751627"><ele>140.0</ele><time>2026-03-30T09:32:21Z</time></trkpt><trkpt lat="42.02984211605461" lon="12.75160888484727"><ele>140.0</ele><time>2026-03-30T09:32:22Z</time></trkpt><trkpt lat="42.02997238442317" lon="12.751629897261715"><ele>141.25</ele><time>2026-03-30T09:32:23Z</time></trkpt><trkpt lat="42.03010089482102" lon="12.751656948843998"><ele>142.5</ele><time>2026-03-30T09:32:24Z</time></trkpt><trkpt lat="42.03022755548859" lon="12.751671831725776"><ele>143.75</ele><time>2026-03-30T09:32:25Z</time></trkpt><trkpt lat="42.03034463104476" lon="12.751671625993717"><ele>145.0</ele><time>2026-03-30T09:32:26Z</time></trkpt><trkpt lat="42.030476655559326" lon="12.75167491031355"><ele>145.0</ele><time>2026-03-30T09:32:27Z</time></trkpt><trkpt lat="42.03060455982058" lon="12.751666531505295"><ele>145.0</ele><time>2026-03-30T09:32:28Z</time></trkpt><trkpt lat="42.03073348220335" lon="12.751647867302207"><ele>145.0</ele><time>2026-03-30T09:32:29Z</time></trkpt><trkpt lat="42.030861563231575" lon="12.751602940156737"><ele>145.0</ele><time>2026-03-30T09:32:30Z</time></trkpt><trkpt lat="42.03099662525313" lon="12.75152438945714"><ele>144.25</ele><time>2026-03-30T09:32:31Z</time></trkpt><trkpt lat="42.03112444864748" lon="12.751438391205497"><ele>143.5</ele><time>2026-03-30T09:32:32Z</time></trkpt><trkpt lat="42.03124520751909" lon="12.751374123392608"><ele>142.75</ele><time>2026-03-30T09:32:33Z</time></trkpt><trkpt lat="42.031346502107986" lon="12.75129391266734"><ele>142.0</ele><time>2026-03-30T09:32:34Z</time></trkpt><trkpt lat="42.03143560289201" lon="12.751222743815383"><ele>142.0</ele><time>2026-03-30T09:32:35Z</time></trkpt><trkpt lat="42.03153850746337" lon="12.751157866847139"><ele>142.0</ele><time>2026-03-30T09:32:36Z</time></trkpt><trkpt lat="42.03159739895205" lon="12.75110249029321"><ele>142.0</ele><time>2026-03-30T09:32:37Z</time></trkpt><trkpt lat="42.03168209605011" lon="12.751048181253577"><ele>142.0</ele><time>2026-03-30T09:32:39Z</time></trkpt><trkpt lat="42.031773606331534" lon="12.751067166720874"><ele>142.0</ele><time>2026-03-30T09:32:41Z</time></trkpt><trkpt lat="42.031834324863254" lon="12.750985521703196"><ele>139.83333333333334</ele><time>2026-03-30T09:32:43Z</time></trkpt><trkpt lat="42.03181424007278" lon="12.750849377044274"><ele>137.66666666666669</ele><time>2026-03-30T09:32:45Z</time></trkpt><trkpt lat="42.03191503362405" lon="12.75082318950414"><ele>135.5</ele><time>2026-03-30T09:32:48Z</time></trkpt><trkpt lat="42.03198455476715" lon="12.750807733108637"><ele>133.33333333333334</ele><time>2026-03-30T09:32:49Z</time></trkpt><trkpt lat="42.03206271529259" lon="12.750811599046033"><ele>131.16666666666666</ele><time>2026-03-30T09:32:50Z</time></trkpt><trkpt lat="42.03215198776703" lon="12.750824477232912"><ele>129.0</ele><time>2026-03-30T09:32:51Z</time></trkpt><trkpt lat="42.03224787717636" lon="12.750835661891928"><ele>129.0</ele><time>2026-03-30T09:32:52Z</time></trkpt><trkpt lat="42.032352857898154" lon="12.750851347246831"><ele>129.0</ele><time>2026-03-30T09:32:53Z</time></trkpt><trkpt lat="42.032466405141925" lon="12.750863404094545"><ele>129.0</ele><time>2026-03-30T09:32:54Z</time></trkpt><trkpt lat="42.03258482832663" lon="12.750920521418054"><ele>129.0</ele><time>2026-03-30T09:32:55Z</time></trkpt><trkpt lat="42.032706616858974" lon="12.750994273102776"><ele>129.5</ele><time>2026-03-30T09:32:56Z</time></trkpt><trkpt lat="42.032836671743354" lon="12.75105863019674"><ele>130.0</ele><time>2026-03-30T09:32:57Z</time></trkpt><trkpt lat="42.0329629751697" lon="12.751127769274936"><ele>130.5</ele><time>2026-03-30T09:32:58Z</time></trkpt><trkpt lat="42.033045920216566" lon="12.751195708718528"><ele>131.0</ele><time>2026-03-30T09:32:59.001Z</time></trkpt><trkpt lat="42.033118426419904" lon="12.751244749913742"><ele>131.0</ele><time>2026-03-30T09:33:00.001Z</time></trkpt><trkpt lat="42.03323039781937" lon="12.751282544711346"><ele>131.0</ele><time>2026-03-30T09:33:01.001Z</time></trkpt><trkpt lat="42.03336336613033" lon="12.75131323169658"><ele>131.0</ele><time>2026-03-30T09:33:02.001Z</time></trkpt><trkpt lat="42.0334967120003" lon="12.751359288508427"><ele>131.0</ele><time>2026-03-30T09:33:03.001Z</time></trkpt><trkpt lat="42.03364284612471" lon="12.751409972781838"><ele>132.0</ele><time>2026-03-30T09:33:04.001Z</time></trkpt><trkpt lat="42.03379100321399" lon="12.751458668952344"><ele>133.0</ele><time>2026-03-30T09:33:05.001Z</time></trkpt><trkpt lat="42.03393645501432" lon="12.751522473405219"><ele>134.0</ele><time>2026-03-30T09:33:06.001Z</time></trkpt><trkpt lat="42.03407078008994" lon="12.751573502273265"><ele>135.0</ele><time>2026-03-30T09:33:07.001Z</time></trkpt><trkpt lat="42.03419637895295" lon="12.751626600702638"><ele>137.0</ele><time>2026-03-30T09:33:08.001Z</time></trkpt><trkpt lat="42.0343297188681" lon="12.751673175316311"><ele>139.0</ele><time>2026-03-30T09:33:09.001Z</time></trkpt><trkpt lat="42.03446331523439" lon="12.751718536833888"><ele>141.0</ele><time>2026-03-30T09:33:10.001Z</time></trkpt><trkpt lat="42.0346054581476" lon="12.751775862673243"><ele>143.0</ele><time>2026-03-30T09:33:11.001Z</time></trkpt><trkpt lat="42.03475553021021" lon="12.751838794230702"><ele>142.0</ele><time>2026-03-30T09:33:12.001Z</time></trkpt><trkpt lat="42.034888056429246" lon="12.751904364687368"><ele>141.0</ele><time>2026-03-30T09:33:13.001Z</time></trkpt><trkpt lat="42.03502934917198" lon="12.751981621407895"><ele>140.0</ele><time>2026-03-30T09:33:14.001Z</time></trkpt><trkpt lat="42.035150026617195" lon="12.752052778967588"><ele>139.0</ele><time>2026-03-30T09:33:15.001Z</time></trkpt><trkpt lat="42.03526040463836" lon="12.752116158247375"><ele>139.0</ele><time>2026-03-30T09:33:16.001Z</time></trkpt><trkpt lat="42.03537913059123" lon="12.752157213894865"><ele>139.0</ele><time>2026-03-30T09:33:17Z</time></trkpt><trkpt lat="42.035503437887755" lon="12.752176244188995"><ele>139.0</ele><time>2026-03-30T09:33:18Z</time></trkpt><trkpt lat="42.03564347718965" lon="12.752196666247102"><ele>139.0</ele><time>2026-03-30T09:33:19Z</time></trkpt><trkpt lat="42.03579345540788" lon="12.752206722890296"><ele>140.33333333333334</ele><time>2026-03-30T09:33:20Z</time></trkpt><trkpt lat="42.03596555252823" lon="12.752235280334972"><ele>141.66666666666666</ele><time>2026-03-30T09:33:21Z</time></trkpt><trkpt lat="42.03615893981349" lon="12.752264313424408"><ele>143.0</ele><time>2026-03-30T09:33:22Z</time></trkpt><trkpt lat="42.036339083959874" lon="12.752291567206266"><ele>143.0</ele><time>2026-03-30T09:33:23Z</time></trkpt><trkpt lat="42.03651159004948" lon="12.752313452762484"><ele>143.0</ele><time>2026-03-30T09:33:24Z</time></trkpt><trkpt lat="42.036661337352776" lon="12.752342148466742"><ele>143.0</ele><time>2026-03-30T09:33:25Z</time></trkpt><trkpt lat="42.03677256481776" lon="12.75236709767601"><ele>143.0</ele><time>2026-03-30T09:33:26Z</time></trkpt><trkpt lat="42.03685932231522" lon="12.752375403072154"><ele>145.0</ele><time>2026-03-30T09:33:27Z</time></trkpt><trkpt lat="42.036996103194824" lon="12.752390072307605"><ele>147.0</ele><time>2026-03-30T09:33:29Z</time></trkpt><trkpt lat="42.037088182257335" lon="12.752395192051218"><ele>149.0</ele><time>2026-03-30T09:33:30Z</time></trkpt><trkpt lat="42.037173295435466" lon="12.752391066618914"><ele>151.0</ele><time>2026-03-30T09:33:31Z</time></trkpt><trkpt lat="42.03725473719763" lon="12.75239248893389"><ele>153.0</ele><time>2026-03-30T09:33:32Z</time></trkpt><trkpt lat="42.037336534850915" lon="12.752392407621107"><ele>153.0</ele><time>2026-03-30T09:33:33Z</time></trkpt><trkpt lat="42.03741849691836" lon="12.752393038438486"><ele>153.0</ele><time>2026-03-30T09:33:34Z</time></trkpt><trkpt lat="42.037505733751765" lon="12.752369342752504"><ele>153.0</ele><time>2026-03-30T09:33:35Z</time></trkpt><trkpt lat="42.03758856287672" lon="12.752328248706027"><ele>153.0</ele><time>2026-03-30T09:33:36Z</time></trkpt><trkpt lat="42.03768148033576" lon="12.752280754806769"><ele>153.0</ele><time>2026-03-30T09:33:37Z</time></trkpt><trkpt lat="42.03777981679395" lon="12.752231740126701"><ele>153.20000000000002</ele><time>2026-03-30T09:33:38Z</time></trkpt><trkpt lat="42.03787372961955" lon="12.75220212245171"><ele>153.4</ele><time>2026-03-30T09:33:39Z</time></trkpt><trkpt lat="42.03794874491353" lon="12.7521754686875"><ele>153.60000000000002</ele><time>2026-03-30T09:33:40Z</time></trkpt><trkpt lat="42.038063185023546" lon="12.752174975150425"><ele>153.8</ele><time>2026-03-30T09:33:42Z</time></trkpt><trkpt lat="42.03817273854913" lon="12.752201595019484"><ele>154.0</ele><time>2026-03-30T09:33:44Z</time></trkpt><trkpt lat="42.038296968621346" lon="12.75214305095309"><ele>155.0</ele><time>2026-03-30T09:33:46Z</time></trkpt><trkpt lat="42.03838576927807" lon="12.752037392415456"><ele>156.0</ele><time>2026-03-30T09:33:47Z</time></trkpt><trkpt lat="42.038486257463006" lon="12.751928074903619"><ele>157.0</ele><time>2026-03-30T09:33:48Z</time></trkpt><trkpt lat="42.038586840296745" lon="12.751819342973214"><ele>158.0</ele><time>2026-03-30T09:33:49Z</time></trkpt><trkpt lat="42.03869837653937" lon="12.751698770179429"><ele>160.0</ele><time>2026-03-30T09:33:50Z</time></trkpt><trkpt lat="42.03880835843316" lon="12.751579877776976"><ele>162.0</ele><time>2026-03-30T09:33:51Z</time></trkpt><trkpt lat="42.038917511574404" lon="12.751461725357386"><ele>164.0</ele><time>2026-03-30T09:33:52Z</time></trkpt><trkpt lat="42.03902260568293" lon="12.751339337371066"><ele>166.0</ele><time>2026-03-30T09:33:53Z</time></trkpt><trkpt lat="42.0391235203675" lon="12.751224420225865"><ele>168.75</ele><time>2026-03-30T09:33:54Z</time></trkpt><trkpt lat="42.03923031672074" lon="12.751109863019614"><ele>171.5</ele><time>2026-03-30T09:33:55Z</time></trkpt><trkpt lat="42.03933327115433" lon="12.751003495991787"><ele>174.25</ele><time>2026-03-30T09:33:56Z</time></trkpt><trkpt lat="42.03944615614929" lon="12.750885322619117"><ele>177.0</ele><time>2026-03-30T09:33:57Z</time></trkpt><trkpt lat="42.03955409743096" lon="12.750767154209052"><ele>177.2</ele><time>2026-03-30T09:33:58Z</time></trkpt><trkpt lat="42.03964746844452" lon="12.750665533329489"><ele>177.39999999999998</ele><time>2026-03-30T09:33:59Z</time></trkpt><trkpt lat="42.03973143359269" lon="12.750580502839707"><ele>177.60000000000002</ele><time>2026-03-30T09:34:00Z</time></trkpt><trkpt lat="42.03980793531115" lon="12.750509145853366"><ele>177.8</ele><time>2026-03-30T09:34:01Z</time></trkpt><trkpt lat="42.03988135373057" lon="12.750477522804598"><ele>178.0</ele><time>2026-03-30T09:34:02Z</time></trkpt><trkpt lat="42.03997488305519" lon="12.75046308678521"><ele>179.0</ele><time>2026-03-30T09:34:03Z</time></trkpt><trkpt lat="42.040084610980756" lon="12.750454585822029"><ele>180.0</ele><time>2026-03-30T09:34:04Z</time></trkpt><trkpt lat="42.04021102238853" lon="12.750433845318339"><ele>181.0</ele><time>2026-03-30T09:34:05Z</time></trkpt><trkpt lat="42.040345576565876" lon="12.750424770615851"><ele>182.0</ele><time>2026-03-30T09:34:06Z</time></trkpt><trkpt lat="42.04047807494516" lon="12.750443488210394"><ele>182.0</ele><time>2026-03-30T09:34:07Z</time></trkpt><trkpt lat="42.040618680403185" lon="12.750445092748173"><ele>182.0</ele><time>2026-03-30T09:34:08Z</time></trkpt><trkpt lat="42.040743054306084" lon="12.750435610357414"><ele>182.0</ele><time>2026-03-30T09:34:09Z</time></trkpt><trkpt lat="42.04085990495151" lon="12.750447845517215"><ele>182.0</ele><time>2026-03-30T09:34:10Z</time></trkpt><trkpt lat="42.040968884800684" lon="12.750450856239311"><ele>185.25</ele><time>2026-03-30T09:34:11Z</time></trkpt><trkpt lat="42.04108187009116" lon="12.750445191009364"><ele>188.5</ele><time>2026-03-30T09:34:12Z</time></trkpt><trkpt lat="42.04120306963113" lon="12.750447627786098"><ele>191.75</ele><time>2026-03-30T09:34:13Z</time></trkpt><trkpt lat="42.041332954476616" lon="12.750463481828737"><ele>195.0</ele><time>2026-03-30T09:34:14Z</time></trkpt><trkpt lat="42.04147480411011" lon="12.750480786455322"><ele>195.0</ele><time>2026-03-30T09:34:15Z</time></trkpt><trkpt lat="42.041623297400164" lon="12.750477365791438"><ele>195.0</ele><time>2026-03-30T09:34:16Z</time></trkpt><trkpt lat="42.04177503323941" lon="12.750511764748506"><ele>195.0</ele><time>2026-03-30T09:34:17Z</time></trkpt><trkpt lat="42.04192980646415" lon="12.750520398496265"><ele>195.0</ele><time>2026-03-30T09:34:18Z</time></trkpt><trkpt lat="42.04207169955711" lon="12.750518997494657"><ele>195.0</ele><time>2026-03-30T09:34:19Z</time></trkpt><trkpt lat="42.04219114679765" lon="12.750518432287224"><ele>195.0</ele><time>2026-03-30T09:34:20Z</time></trkpt><trkpt lat="42.04229834482153" lon="12.750521928573907"><ele>195.0</ele><time>2026-03-30T09:34:21Z</time></trkpt><trkpt lat="42.042413162518834" lon="12.750527881057911"><ele>197.5</ele><time>2026-03-30T09:34:22Z</time></trkpt><trkpt lat="42.04254246464032" lon="12.750534431776591"><ele>200.0</ele><time>2026-03-30T09:34:23Z</time></trkpt><trkpt lat="42.042674056009524" lon="12.750555857891687"><ele>202.5</ele><time>2026-03-30T09:34:24Z</time></trkpt><trkpt lat="42.042795643419986" lon="12.750612888046524"><ele>205.0</ele><time>2026-03-30T09:34:25Z</time></trkpt><trkpt lat="42.042928457316954" lon="12.750633857624758"><ele>205.0</ele><time>2026-03-30T09:34:26Z</time></trkpt><trkpt lat="42.043059501774145" lon="12.75066952698496"><ele>205.0</ele><time>2026-03-30T09:34:27Z</time></trkpt><trkpt lat="42.043193479415145" lon="12.75071130851778"><ele>205.0</ele><time>2026-03-30T09:34:28Z</time></trkpt><trkpt lat="42.04333535287766" lon="12.750760992940293"><ele>205.0</ele><time>2026-03-30T09:34:29Z</time></trkpt><trkpt lat="42.04346830238181" lon="12.750764875582144"><ele>206.6</ele><time>2026-03-30T09:34:30Z</time></trkpt><trkpt lat="42.04359934600419" lon="12.750794335849598"><ele>208.2</ele><time>2026-03-30T09:34:31Z</time></trkpt><trkpt lat="42.04370491536323" lon="12.750810945556161"><ele>209.8</ele><time>2026-03-30T09:34:32Z</time></trkpt><trkpt lat="42.04378311428518" lon="12.750834256697894"><ele>211.4</ele><time>2026-03-30T09:34:33Z</time></trkpt><trkpt lat="42.04385181612461" lon="12.750857843912032"><ele>213.0</ele><time>2026-03-30T09:34:34Z</time></trkpt><trkpt lat="42.04396043495394" lon="12.750847612870485"><ele>213.0</ele><time>2026-03-30T09:34:36Z</time></trkpt><trkpt lat="42.04401922821383" lon="12.750739850716956"><ele>213.0</ele><time>2026-03-30T09:34:38Z</time></trkpt><trkpt lat="42.044117349215945" lon="12.750664072458012"><ele>213.0</ele><time>2026-03-30T09:34:41Z</time></trkpt><trkpt lat="42.04418439590639" lon="12.750692014867662"><ele>213.0</ele><time>2026-03-30T09:34:42Z</time></trkpt><trkpt lat="42.044243024455376" lon="12.750768707958795"><ele>213.0</ele><time>2026-03-30T09:34:43Z</time></trkpt><trkpt lat="42.04431857034944" lon="12.750819217982446"><ele>213.0</ele><time>2026-03-30T09:34:44Z</time></trkpt><trkpt lat="42.044399998089" lon="12.750853064251716"><ele>215.2</ele><time>2026-03-30T09:34:45Z</time></trkpt><trkpt lat="42.044504702308714" lon="12.750866975312963"><ele>217.4</ele><time>2026-03-30T09:34:46Z</time></trkpt><trkpt lat="42.044618030306104" lon="12.750878148866683"><ele>219.59999999999997</ele><time>2026-03-30T09:34:47Z</time></trkpt><trkpt lat="42.044726335537405" lon="12.750878077387075"><ele>221.79999999999998</ele><time>2026-03-30T09:34:48Z</time></trkpt><trkpt lat="42.04482909677928" lon="12.750869401384849"><ele>224.0</ele><time>2026-03-30T09:34:49Z</time></trkpt><trkpt lat="42.04493138125049" lon="12.750879616270577"><ele>225.2</ele><time>2026-03-30T09:34:50Z</time></trkpt><trkpt lat="42.04503925888416" lon="12.750926674583"><ele>226.39999999999998</ele><time>2026-03-30T09:34:51Z</time></trkpt><trkpt lat="42.04513927487868" lon="12.751001783997422"><ele>227.6</ele><time>2026-03-30T09:34:52Z</time></trkpt><trkpt lat="42.04522378106903" lon="12.751073014692853"><ele>228.8</ele><time>2026-03-30T09:34:53Z</time></trkpt><trkpt lat="42.04530068851066" lon="12.751128333002047"><ele>230.0</ele><time>2026-03-30T09:34:54Z</time></trkpt><trkpt lat="42.04537201234065" lon="12.751162388551208"><ele>230.00000000000003</ele><time>2026-03-30T09:34:55Z</time></trkpt><trkpt lat="42.04544295968571" lon="12.751159606509228"><ele>230.0</ele><time>2026-03-30T09:34:56Z</time></trkpt><trkpt lat="42.04551731911528" lon="12.75113802856839"><ele>230.0</ele><time>2026-03-30T09:34:57Z</time></trkpt><trkpt lat="42.045582722103944" lon="12.751104899172365"><ele>230.0</ele><time>2026-03-30T09:34:58Z</time></trkpt><trkpt lat="42.04564184198412" lon="12.75105061974915"><ele>230.00000000000003</ele><time>2026-03-30T09:34:59Z</time></trkpt><trkpt lat="42.04571585446752" lon="12.751014391454094"><ele>230.0</ele><time>2026-03-30T09:35:00Z</time></trkpt><trkpt lat="42.04579361037547" lon="12.750956820747083"><ele>230.33333333333334</ele><time>2026-03-30T09:35:01Z</time></trkpt><trkpt lat="42.04587025482685" lon="12.750903230063662"><ele>230.66666666666669</ele><time>2026-03-30T09:35:02Z</time></trkpt><trkpt lat="42.045946326040735" lon="12.750874044483867"><ele>231.0</ele><time>2026-03-30T09:35:03Z</time></trkpt><trkpt lat="42.0460231078219" lon="12.750855966784048"><ele>231.33333333333331</ele><time>2026-03-30T09:35:04Z</time></trkpt><trkpt lat="42.046100821124355" lon="12.75084462154141"><ele>231.66666666666666</ele><time>2026-03-30T09:35:05.001Z</time></trkpt><trkpt lat="42.04617254479562" lon="12.750861217413522"><ele>232.0</ele><time>2026-03-30T09:35:06.001Z</time></trkpt><trkpt lat="42.04626971609631" lon="12.750876892573732"><ele>232.0</ele><time>2026-03-30T09:35:08.001Z</time></trkpt><trkpt lat="42.04634489142303" lon="12.750958527827994"><ele>232.0</ele><time>2026-03-30T09:35:10.001Z</time></trkpt><trkpt lat="42.046391991092854" lon="12.751040538869415"><ele>232.0</ele><time>2026-03-30T09:35:11.001Z</time></trkpt><trkpt lat="42.046449807337154" lon="12.751154186009227"><ele>232.0</ele><time>2026-03-30T09:35:12.001Z</time></trkpt><trkpt lat="42.04650957680342" lon="12.751282463608314"><ele>232.0</ele><time>2026-03-30T09:35:13.001Z</time></trkpt><trkpt lat="42.04657167433405" lon="12.751412791185977"><ele>231.5</ele><time>2026-03-30T09:35:14.001Z</time></trkpt><trkpt lat="42.04662530501227" lon="12.751552849745002"><ele>231.0</ele><time>2026-03-30T09:35:15.001Z</time></trkpt><trkpt lat="42.046676675498055" lon="12.751700655296194"><ele>230.5</ele><time>2026-03-30T09:35:16.001Z</time></trkpt><trkpt lat="42.04673036063938" lon="12.751843874535599"><ele>230.0</ele><time>2026-03-30T09:35:17.001Z</time></trkpt><trkpt lat="42.04677604054246" lon="12.751969863416067"><ele>229.8</ele><time>2026-03-30T09:35:18.001Z</time></trkpt><trkpt lat="42.04681922420133" lon="12.752084389799512"><ele>229.6</ele><time>2026-03-30T09:35:19.001Z</time></trkpt><trkpt lat="42.046869660734075" lon="12.752170882808347"><ele>229.39999999999998</ele><time>2026-03-30T09:35:20.001Z</time></trkpt><trkpt lat="42.04692800929784" lon="12.75222206654112"><ele>229.2</ele><time>2026-03-30T09:35:21.001Z</time></trkpt><trkpt lat="42.04702267083606" lon="12.752383086002183"><ele>229.0</ele><time>2026-03-30T09:35:23.001Z</time></trkpt><trkpt lat="42.04710521426682" lon="12.75248552308956"><ele>229.0</ele><time>2026-03-30T09:35:24Z</time></trkpt><trkpt lat="42.04720687699558" lon="12.752592795980723"><ele>229.0</ele><time>2026-03-30T09:35:25Z</time></trkpt><trkpt lat="42.0473071840577" lon="12.752697094987267"><ele>229.0</ele><time>2026-03-30T09:35:26Z</time></trkpt><trkpt lat="42.04740669269545" lon="12.752811118432811"><ele>229.0</ele><time>2026-03-30T09:35:27Z</time></trkpt><trkpt lat="42.04750281050198" lon="12.752900345956924"><ele>229.0</ele><time>2026-03-30T09:35:28Z</time></trkpt><trkpt lat="42.047590382944314" lon="12.752979388686317"><ele>229.0</ele><time>2026-03-30T09:35:29Z</time></trkpt><trkpt lat="42.04768098199857" lon="12.753034209873901"><ele>229.0</ele><time>2026-03-30T09:35:30Z</time></trkpt><trkpt lat="42.04776675112841" lon="12.753109906436455"><ele>229.0</ele><time>2026-03-30T09:35:31Z</time></trkpt><trkpt lat="42.04790346853899" lon="12.753181574993528"><ele>229.0</ele><time>2026-03-30T09:35:32Z</time></trkpt><trkpt lat="42.04799975414737" lon="12.75324427034535"><ele>229.0</ele><time>2026-03-30T09:35:33Z</time></trkpt><trkpt lat="42.048113555278334" lon="12.753327486413612"><ele>229.0</ele><time>2026-03-30T09:35:34Z</time></trkpt><trkpt lat="42.04821034632183" lon="12.753412675167892"><ele>229.0</ele><time>2026-03-30T09:35:35Z</time></trkpt><trkpt lat="42.048331749083864" lon="12.753523524696176"><ele>230.0</ele><time>2026-03-30T09:35:36Z</time></trkpt><trkpt lat="42.04847426540306" lon="12.753623343317996"><ele>231.0</ele><time>2026-03-30T09:35:37Z</time></trkpt><trkpt lat="42.04856726042684" lon="12.753699565537989"><ele>232.0</ele><time>2026-03-30T09:35:38Z</time></trkpt><trkpt lat="42.04869423758872" lon="12.753768394191964"><ele>233.0</ele><time>2026-03-30T09:35:39Z</time></trkpt><trkpt lat="42.04883232261769" lon="12.753812586750204"><ele>233.0</ele><time>2026-03-30T09:35:40Z</time></trkpt><trkpt lat="42.04896713017306" lon="12.753830153932137"><ele>233.0</ele><time>2026-03-30T09:35:41Z</time></trkpt><trkpt lat="42.049085399632204" lon="12.75385169107401"><ele>233.0</ele><time>2026-03-30T09:35:42Z</time></trkpt><trkpt lat="42.04919190203554" lon="12.753900858618906"><ele>233.0</ele><time>2026-03-30T09:35:43Z</time></trkpt><trkpt lat="42.049313739864175" lon="12.75391187971438"><ele>233.0</ele><time>2026-03-30T09:35:44Z</time></trkpt><trkpt lat="42.049426719650036" lon="12.753919019172086"><ele>233.0</ele><time>2026-03-30T09:35:45Z</time></trkpt><trkpt lat="42.049522628607555" lon="12.753916788021332"><ele>233.0</ele><time>2026-03-30T09:35:46Z</time></trkpt><trkpt lat="42.04960964360778" lon="12.753943636611432"><ele>233.0</ele><time>2026-03-30T09:35:48Z</time></trkpt><trkpt lat="42.04967487391576" lon="12.754127655443742"><ele>233.0</ele><time>2026-03-30T09:35:50Z</time></trkpt><trkpt lat="42.04974000770732" lon="12.754229908931954"><ele>233.0</ele><time>2026-03-30T09:35:51Z</time></trkpt><trkpt lat="42.049811635585215" lon="12.754320902893925"><ele>233.0</ele><time>2026-03-30T09:35:52Z</time></trkpt><trkpt lat="42.04990446357753" lon="12.754378905843161"><ele>233.0</ele><time>2026-03-30T09:35:53Z</time></trkpt><trkpt lat="42.05000876580121" lon="12.754443728010623"><ele>233.0</ele><time>2026-03-30T09:35:54Z</time></trkpt><trkpt lat="42.0501227683036" lon="12.754489346462849"><ele>233.60000000000002</ele><time>2026-03-30T09:35:55Z</time></trkpt><trkpt lat="42.050238239384626" lon="12.754541419018889"><ele>234.20000000000002</ele><time>2026-03-30T09:35:56Z</time></trkpt><trkpt lat="42.05034135736502" lon="12.754594911273148"><ele>234.8</ele><time>2026-03-30T09:35:57Z</time></trkpt><trkpt lat="42.050417348548" lon="12.754677133343476"><ele>235.4</ele><time>2026-03-30T09:35:58Z</time></trkpt><trkpt lat="42.050489385460345" lon="12.754770487617375"><ele>236.0</ele><time>2026-03-30T09:35:59Z</time></trkpt><trkpt lat="42.05055313005347" lon="12.754877799060433"><ele>236.0</ele><time>2026-03-30T09:36:00Z</time></trkpt><trkpt lat="42.05061410526777" lon="12.754999981622635"><ele>236.00000000000003</ele><time>2026-03-30T09:36:01Z</time></trkpt><trkpt lat="42.05067114553318" lon="12.75512396942165"><ele>236.00000000000003</ele><time>2026-03-30T09:36:02Z</time></trkpt><trkpt lat="42.050732075879225" lon="12.755231570317918"><ele>236.0</ele><time>2026-03-30T09:36:03Z</time></trkpt><trkpt lat="42.05077567554384" lon="12.755337190157125"><ele>236.0</ele><time>2026-03-30T09:36:04Z</time></trkpt><trkpt lat="42.05082310568275" lon="12.755435299574495"><ele>236.33333333333334</ele><time>2026-03-30T09:36:05Z</time></trkpt><trkpt lat="42.05088009262007" lon="12.7555204331542"><ele>236.66666666666669</ele><time>2026-03-30T09:36:06Z</time></trkpt><trkpt lat="42.05091451468805" lon="12.755619277984632"><ele>237.0</ele><time>2026-03-30T09:36:07Z</time></trkpt><trkpt lat="42.050942473417834" lon="12.755705778314946"><ele>237.33333333333331</ele><time>2026-03-30T09:36:08Z</time></trkpt><trkpt lat="42.05094906029742" lon="12.75582196773145"><ele>237.66666666666666</ele><time>2026-03-30T09:36:09Z</time></trkpt><trkpt lat="42.050965017523836" lon="12.755941297501563"><ele>238.0</ele><time>2026-03-30T09:36:10Z</time></trkpt><trkpt lat="42.05100369014386" lon="12.756043956331535"><ele>238.0</ele><time>2026-03-30T09:36:11Z</time></trkpt><trkpt lat="42.05107613486806" lon="12.756134119999201"><ele>238.0</ele><time>2026-03-30T09:36:12Z</time></trkpt><trkpt lat="42.05117328540032" lon="12.75620122885084"><ele>238.0</ele><time>2026-03-30T09:36:13Z</time></trkpt><trkpt lat="42.05128114807789" lon="12.756276128529983"><ele>238.0</ele><time>2026-03-30T09:36:14Z</time></trkpt><trkpt lat="42.05138579948504" lon="12.756358612324982"><ele>238.0</ele><time>2026-03-30T09:36:15Z</time></trkpt><trkpt lat="42.05148047900519" lon="12.756435709041979"><ele>238.0</ele><time>2026-03-30T09:36:16Z</time></trkpt><trkpt lat="42.05156034683331" lon="12.756506865673263"><ele>238.0</ele><time>2026-03-30T09:36:17Z</time></trkpt><trkpt lat="42.05164290940626" lon="12.756582973353074"><ele>238.0</ele><time>2026-03-30T09:36:18Z</time></trkpt><trkpt lat="42.05172799736233" lon="12.75663509893881"><ele>238.0</ele><time>2026-03-30T09:36:19Z</time></trkpt><trkpt lat="42.05183334600946" lon="12.756655902362285"><ele>239.0</ele><time>2026-03-30T09:36:20Z</time></trkpt><trkpt lat="42.05194358237599" lon="12.756656733435433"><ele>240.0</ele><time>2026-03-30T09:36:21Z</time></trkpt><trkpt lat="42.05204294611985" lon="12.75667832898108"><ele>241.0</ele><time>2026-03-30T09:36:22Z</time></trkpt><trkpt lat="42.052109824169484" lon="12.756755367334032"><ele>242.0</ele><time>2026-03-30T09:36:23Z</time></trkpt><trkpt lat="42.052189726412756" lon="12.756799547232692"><ele>243.0</ele><time>2026-03-30T09:36:24Z</time></trkpt><trkpt lat="42.052233052149205" lon="12.756931313657503"><ele>243.0</ele><time>2026-03-30T09:36:25Z</time></trkpt><trkpt lat="42.05230579233405" lon="12.757001726106353"><ele>243.0</ele><time>2026-03-30T09:36:26Z</time></trkpt><trkpt lat="42.05237934346398" lon="12.757055514232277"><ele>243.0</ele><time>2026-03-30T09:36:27Z</time></trkpt><trkpt lat="42.052476074733356" lon="12.757080641111463"><ele>243.0</ele><time>2026-03-30T09:36:28Z</time></trkpt><trkpt lat="42.0525954870351" lon="12.757091739811997"><ele>243.0</ele><time>2026-03-30T09:36:29Z</time></trkpt><trkpt lat="42.052725115413715" lon="12.757105207830266"><ele>245.0</ele><time>2026-03-30T09:36:30Z</time></trkpt><trkpt lat="42.052848796248256" lon="12.75711572541313"><ele>247.0</ele><time>2026-03-30T09:36:31Z</time></trkpt><trkpt lat="42.05295901129277" lon="12.757101221956013"><ele>249.0</ele><time>2026-03-30T09:36:32Z</time></trkpt><trkpt lat="42.05306618354966" lon="12.757062354356714"><ele>251.0</ele><time>2026-03-30T09:36:33Z</time></trkpt><trkpt lat="42.05318257504406" lon="12.757074741036302"><ele>250.25</ele><time>2026-03-30T09:36:34Z</time></trkpt><trkpt lat="42.05330347477387" lon="12.757062968566894"><ele>249.5</ele><time>2026-03-30T09:36:35Z</time></trkpt><trkpt lat="42.053426464969036" lon="12.757073346541862"><ele>248.75</ele><time>2026-03-30T09:36:36Z</time></trkpt><trkpt lat="42.053560229885754" lon="12.757048397710395"><ele>248.0</ele><time>2026-03-30T09:36:37Z</time></trkpt><trkpt lat="42.053688836663625" lon="12.757007055846719"><ele>248.0</ele><time>2026-03-30T09:36:38Z</time></trkpt><trkpt lat="42.053823659182996" lon="12.75697296067055"><ele>248.0</ele><time>2026-03-30T09:36:39Z</time></trkpt><trkpt lat="42.05396186776378" lon="12.75695517827605"><ele>248.0</ele><time>2026-03-30T09:36:40Z</time></trkpt><trkpt lat="42.05409198669389" lon="12.756973195458604"><ele>248.0</ele><time>2026-03-30T09:36:41Z</time></trkpt><trkpt lat="42.05422220232881" lon="12.75697843455212"><ele>247.8</ele><time>2026-03-30T09:36:42Z</time></trkpt><trkpt lat="42.054347858829104" lon="12.756995876666627"><ele>247.60000000000002</ele><time>2026-03-30T09:36:43Z</time></trkpt><trkpt lat="42.05445734862936" lon="12.756999411003939"><ele>247.39999999999998</ele><time>2026-03-30T09:36:44Z</time></trkpt><trkpt lat="42.05455464030687" lon="12.75702851730119"><ele>247.2</ele><time>2026-03-30T09:36:45Z</time></trkpt><trkpt lat="42.05464964065366" lon="12.75702680068804"><ele>247.0</ele><time>2026-03-30T09:36:46Z</time></trkpt><trkpt lat="42.05473640578393" lon="12.757027370420749"><ele>247.0</ele><time>2026-03-30T09:36:47Z</time></trkpt><trkpt lat="42.05481020393585" lon="12.757040532695678"><ele>247.0</ele><time>2026-03-30T09:36:48Z</time></trkpt><trkpt lat="42.05488017649857" lon="12.757095052846292"><ele>247.0</ele><time>2026-03-30T09:36:49Z</time></trkpt><trkpt lat="42.05495307085041" lon="12.757201164720875"><ele>247.0</ele><time>2026-03-30T09:36:50Z</time></trkpt><trkpt lat="42.05502463629274" lon="12.757340160942448"><ele>247.0</ele><time>2026-03-30T09:36:51Z</time></trkpt><trkpt lat="42.05509140378843" lon="12.75748471429931"><ele>249.0</ele><time>2026-03-30T09:36:52Z</time></trkpt><trkpt lat="42.05515001549169" lon="12.757639900587137"><ele>251.0</ele><time>2026-03-30T09:36:53Z</time></trkpt><trkpt lat="42.05519689977826" lon="12.757804160172956"><ele>253.0</ele><time>2026-03-30T09:36:54Z</time></trkpt><trkpt lat="42.055230196098336" lon="12.757956399039145"><ele>255.0</ele><time>2026-03-30T09:36:55Z</time></trkpt><trkpt lat="42.0552524926154" lon="12.758088872757828"><ele>255.6</ele><time>2026-03-30T09:36:56Z</time></trkpt><trkpt lat="42.05526109778169" lon="12.758197266013854"><ele>256.2</ele><time>2026-03-30T09:36:57Z</time></trkpt><trkpt lat="42.05525239965298" lon="12.758308828842669"><ele>256.8</ele><time>2026-03-30T09:36:58Z</time></trkpt><trkpt lat="42.05522853352929" lon="12.758444016806024"><ele>257.4</ele><time>2026-03-30T09:36:59Z</time></trkpt><trkpt lat="42.055208996533665" lon="12.758593228067136"><ele>258.0</ele><time>2026-03-30T09:37:00Z</time></trkpt><trkpt lat="42.05520653437335" lon="12.758742224422463"><ele>258.2</ele><time>2026-03-30T09:37:01Z</time></trkpt><trkpt lat="42.055211927134444" lon="12.758885526970664"><ele>258.4</ele><time>2026-03-30T09:37:02Z</time></trkpt><trkpt lat="42.055222082987605" lon="12.759024449742855"><ele>258.59999999999997</ele><time>2026-03-30T09:37:03Z</time></trkpt><trkpt lat="42.05523409116029" lon="12.759178435926039"><ele>258.8</ele><time>2026-03-30T09:37:04Z</time></trkpt><trkpt lat="42.05525187592687" lon="12.759333954551272"><ele>259.0</ele><time>2026-03-30T09:37:05Z</time></trkpt><trkpt lat="42.05528178194116" lon="12.759475456159414"><ele>258.5</ele><time>2026-03-30T09:37:06Z</time></trkpt><trkpt lat="42.05530697508361" lon="12.759600373737937"><ele>258.0</ele><time>2026-03-30T09:37:07Z</time></trkpt><trkpt lat="42.05533018379941" lon="12.759720851161928"><ele>257.5</ele><time>2026-03-30T09:37:08Z</time></trkpt><trkpt lat="42.055361457347765" lon="12.759814184820062"><ele>257.0</ele><time>2026-03-30T09:37:09Z</time></trkpt><trkpt lat="42.05541727583169" lon="12.75988848695502"><ele>256.5</ele><time>2026-03-30T09:37:10Z</time></trkpt><trkpt lat="42.05550488885157" lon="12.75994325869567"><ele>256.0</ele><time>2026-03-30T09:37:11.001Z</time></trkpt><trkpt lat="42.055606266417286" lon="12.759986239106256"><ele>256.0</ele><time>2026-03-30T09:37:12.001Z</time></trkpt><trkpt lat="42.05571985189756" lon="12.76003098058127"><ele>256.0</ele><time>2026-03-30T09:37:13.001Z</time></trkpt><trkpt lat="42.05583104425402" lon="12.760097156108104"><ele>256.0</ele><time>2026-03-30T09:37:14.001Z</time></trkpt><trkpt lat="42.05593444706112" lon="12.760163193815433"><ele>256.0</ele><time>2026-03-30T09:37:15.001Z</time></trkpt><trkpt lat="42.056022399900364" lon="12.760215169312948"><ele>254.5</ele><time>2026-03-30T09:37:16.001Z</time></trkpt><trkpt lat="42.056119121388754" lon="12.760240076315371"><ele>253.0</ele><time>2026-03-30T09:37:17.001Z</time></trkpt><trkpt lat="42.056231786783" lon="12.760217728730707"><ele>251.5</ele><time>2026-03-30T09:37:18.001Z</time></trkpt><trkpt lat="42.05635130216202" lon="12.760167670488903"><ele>250.0</ele><time>2026-03-30T09:37:19.001Z</time></trkpt><trkpt lat="42.0564910775133" lon="12.760123134187731"><ele>250.75</ele><time>2026-03-30T09:37:20.001Z</time></trkpt><trkpt lat="42.056631954365955" lon="12.760073750590925"><ele>251.5</ele><time>2026-03-30T09:37:21.001Z</time></trkpt><trkpt lat="42.056768882846164" lon="12.760040269231544"><ele>252.25</ele><time>2026-03-30T09:37:22Z</time></trkpt><trkpt lat="42.0568878167532" lon="12.760005669609027"><ele>253.0</ele><time>2026-03-30T09:37:23.001Z</time></trkpt><trkpt lat="42.057000341190616" lon="12.759988276243249"><ele>253.0</ele><time>2026-03-30T09:37:24.001Z</time></trkpt><trkpt lat="42.057105396570414" lon="12.760006278374759"><ele>253.0</ele><time>2026-03-30T09:37:25Z</time></trkpt><trkpt lat="42.057201418773296" lon="12.760071696741688"><ele>253.0</ele><time>2026-03-30T09:37:26Z</time></trkpt><trkpt lat="42.0572820005334" lon="12.760192701654987"><ele>253.0</ele><time>2026-03-30T09:37:27Z</time></trkpt><trkpt lat="42.05736367881032" lon="12.760270509570883"><ele>253.0</ele><time>2026-03-30T09:37:28Z</time></trkpt><trkpt lat="42.05740602364199" lon="12.760389091933563"><ele>252.0</ele><time>2026-03-30T09:37:29Z</time></trkpt><trkpt lat="42.0574237217306" lon="12.760542398247324"><ele>251.0</ele><time>2026-03-30T09:37:30Z</time></trkpt><trkpt lat="42.05741750161388" lon="12.760717521224745"><ele>250.0</ele><time>2026-03-30T09:37:31Z</time></trkpt><trkpt lat="42.057406043413884" lon="12.760925608707375"><ele>249.0</ele><time>2026-03-30T09:37:32Z</time></trkpt><trkpt lat="42.05740027811291" lon="12.761128290870717"><ele>249.0</ele><time>2026-03-30T09:37:33Z</time></trkpt><trkpt lat="42.05738853941746" lon="12.761286485743916"><ele>248.99999999999997</ele><time>2026-03-30T09:37:34Z</time></trkpt><trkpt lat="42.05735721555863" lon="12.76142405628699"><ele>248.99999999999997</ele><time>2026-03-30T09:37:35Z</time></trkpt><trkpt lat="42.0573284589437" lon="12.761539296311321"><ele>249.0</ele><time>2026-03-30T09:37:36Z</time></trkpt><trkpt lat="42.05733513527885" lon="12.761647614265273"><ele>249.0</ele><time>2026-03-30T09:37:37Z</time></trkpt><trkpt lat="42.057378728890534" lon="12.761775975929439"><ele>250.5</ele><time>2026-03-30T09:37:38Z</time></trkpt><trkpt lat="42.05744064909233" lon="12.76189790244899"><ele>252.0</ele><time>2026-03-30T09:37:39Z</time></trkpt><trkpt lat="42.0575111935147" lon="12.761998133439986"><ele>253.5</ele><time>2026-03-30T09:37:40Z</time></trkpt><trkpt lat="42.057599047916206" lon="12.76209431874493"><ele>255.0</ele><time>2026-03-30T09:37:41Z</time></trkpt><trkpt lat="42.05772224299971" lon="12.762194473431551"><ele>255.0</ele><time>2026-03-30T09:37:42Z</time></trkpt><trkpt lat="42.0578529438803" lon="12.762296741951145"><ele>255.0</ele><time>2026-03-30T09:37:43Z</time></trkpt><trkpt lat="42.05797107314281" lon="12.762394200789254"><ele>255.0</ele><time>2026-03-30T09:37:44Z</time></trkpt><trkpt lat="42.058082637683256" lon="12.762489059214273"><ele>255.0</ele><time>2026-03-30T09:37:45Z</time></trkpt><trkpt lat="42.05818970517371" lon="12.762574446641555"><ele>255.0</ele><time>2026-03-30T09:37:46Z</time></trkpt><trkpt lat="42.05829352182694" lon="12.762628051952738"><ele>255.0</ele><time>2026-03-30T09:37:47Z</time></trkpt><trkpt lat="42.0583815172489" lon="12.762684088409094"><ele>255.0</ele><time>2026-03-30T09:37:48Z</time></trkpt><trkpt lat="42.05844578259871" lon="12.76274125865607"><ele>255.0</ele><time>2026-03-30T09:37:49Z</time></trkpt><trkpt lat="42.058490472309906" lon="12.762826188183135"><ele>255.0</ele><time>2026-03-30T09:37:50Z</time></trkpt><trkpt lat="42.058512198115835" lon="12.7629483642576"><ele>254.5</ele><time>2026-03-30T09:37:51Z</time></trkpt><trkpt lat="42.058486361238934" lon="12.7630791784421"><ele>254.0</ele><time>2026-03-30T09:37:52Z</time></trkpt><trkpt lat="42.05846640005548" lon="12.763241807366589"><ele>253.5</ele><time>2026-03-30T09:37:53Z</time></trkpt><trkpt lat="42.058433118087265" lon="12.763423555955809"><ele>253.0</ele><time>2026-03-30T09:37:54Z</time></trkpt><trkpt lat="42.0584067309909" lon="12.76360705670804"><ele>253.0</ele><time>2026-03-30T09:37:55Z</time></trkpt><trkpt lat="42.058379090231035" lon="12.763761380012028"><ele>253.0</ele><time>2026-03-30T09:37:56Z</time></trkpt><trkpt lat="42.058352881941325" lon="12.763899937006665"><ele>253.0</ele><time>2026-03-30T09:37:57Z</time></trkpt><trkpt lat="42.05834586953417" lon="12.764050968163113"><ele>253.0</ele><time>2026-03-30T09:37:58Z</time></trkpt><trkpt lat="42.05836421055377" lon="12.764210368567836"><ele>253.0</ele><time>2026-03-30T09:37:59Z</time></trkpt><trkpt lat="42.05841108638937" lon="12.76434936840362"><ele>253.0</ele><time>2026-03-30T09:38:00Z</time></trkpt><trkpt lat="42.058491305823324" lon="12.76447496811122"><ele>253.0</ele><time>2026-03-30T09:38:01Z</time></trkpt><trkpt lat="42.05860071116525" lon="12.764597134961228"><ele>253.0</ele><time>2026-03-30T09:38:02Z</time></trkpt><trkpt lat="42.05871318607218" lon="12.764721212211443"><ele>252.0</ele><time>2026-03-30T09:38:03Z</time></trkpt><trkpt lat="42.05879235402742" lon="12.764864463034439"><ele>251.0</ele><time>2026-03-30T09:38:04Z</time></trkpt><trkpt lat="42.05886409296341" lon="12.765018586550452"><ele>250.0</ele><time>2026-03-30T09:38:05Z</time></trkpt><trkpt lat="42.05892646961411" lon="12.765184166950856"><ele>249.0</ele><time>2026-03-30T09:38:06Z</time></trkpt><trkpt lat="42.05898175845211" lon="12.765369257228153"><ele>248.25</ele><time>2026-03-30T09:38:07Z</time></trkpt><trkpt lat="42.059045650259336" lon="12.765540671783246"><ele>247.5</ele><time>2026-03-30T09:38:08Z</time></trkpt><trkpt lat="42.05910662636564" lon="12.765692332981482"><ele>246.75</ele><time>2026-03-30T09:38:09Z</time></trkpt><trkpt lat="42.05919947423575" lon="12.765822765384716"><ele>246.0</ele><time>2026-03-30T09:38:10Z</time></trkpt><trkpt lat="42.05931486071799" lon="12.765934903316083"><ele>246.5</ele><time>2026-03-30T09:38:11Z</time></trkpt><trkpt lat="42.05943210169609" lon="12.76602824190562"><ele>247.0</ele><time>2026-03-30T09:38:12Z</time></trkpt><trkpt lat="42.05954305566715" lon="12.766110117182718"><ele>247.5</ele><time>2026-03-30T09:38:13Z</time></trkpt><trkpt lat="42.059651625284815" lon="12.766172575603944"><ele>248.0</ele><time>2026-03-30T09:38:14Z</time></trkpt><trkpt lat="42.0597671537311" lon="12.76618573108362"><ele>248.0</ele><time>2026-03-30T09:38:15Z</time></trkpt><trkpt lat="42.05987443390311" lon="12.766206829297472"><ele>248.0</ele><time>2026-03-30T09:38:16Z</time></trkpt><trkpt lat="42.05995991584601" lon="12.766257786551813"><ele>248.0</ele><time>2026-03-30T09:38:17Z</time></trkpt><trkpt lat="42.06004261785856" lon="12.766341131579097"><ele>248.0</ele><time>2026-03-30T09:38:18Z</time></trkpt><trkpt lat="42.06016351569392" lon="12.76641791011355"><ele>248.0</ele><time>2026-03-30T09:38:19Z</time></trkpt><trkpt lat="42.06029276048335" lon="12.766474282845198"><ele>251.0</ele><time>2026-03-30T09:38:20Z</time></trkpt><trkpt lat="42.06043867969488" lon="12.766507502028727"><ele>254.0</ele><time>2026-03-30T09:38:21Z</time></trkpt><trkpt lat="42.06058870278135" lon="12.766536042493197"><ele>257.0</ele><time>2026-03-30T09:38:22Z</time></trkpt><trkpt lat="42.060752335172126" lon="12.76657564297736"><ele>258.33333333333337</ele><time>2026-03-30T09:38:23Z</time></trkpt><trkpt lat="42.06092122508625" lon="12.76665149515693"><ele>259.6666666666667</ele><time>2026-03-30T09:38:24Z</time></trkpt><trkpt lat="42.061076008561514" lon="12.766712231653655"><ele>261.0</ele><time>2026-03-30T09:38:25Z</time></trkpt><trkpt lat="42.061206810226324" lon="12.76678412006926"><ele>260.6</ele><time>2026-03-30T09:38:26Z</time></trkpt><trkpt lat="42.0613111086036" lon="12.766872004871118"><ele>260.20000000000005</ele><time>2026-03-30T09:38:27Z</time></trkpt><trkpt lat="42.061403901647545" lon="12.766949608616722"><ele>259.79999999999995</ele><time>2026-03-30T09:38:28Z</time></trkpt><trkpt lat="42.061490222595545" lon="12.767012209448835"><ele>259.4</ele><time>2026-03-30T09:38:29Z</time></trkpt><trkpt lat="42.061582011085974" lon="12.767019729339134"><ele>259.0</ele><time>2026-03-30T09:38:30Z</time></trkpt><trkpt lat="42.061677870600796" lon="12.766996391277463"><ele>259.0</ele><time>2026-03-30T09:38:31Z</time></trkpt><trkpt lat="42.061771103148146" lon="12.766943612948218"><ele>259.0</ele><time>2026-03-30T09:38:32Z</time></trkpt><trkpt lat="42.061872248940354" lon="12.76690446076242"><ele>259.0</ele><time>2026-03-30T09:38:33Z</time></trkpt><trkpt lat="42.06196296424782" lon="12.766852481566838"><ele>259.0</ele><time>2026-03-30T09:38:34Z</time></trkpt><trkpt lat="42.06204431223002" lon="12.766780326286057"><ele>259.0</ele><time>2026-03-30T09:38:35Z</time></trkpt><trkpt lat="42.06213210377944" lon="12.766737438832122"><ele>260.0</ele><time>2026-03-30T09:38:36Z</time></trkpt><trkpt lat="42.06221794953499" lon="12.766711934204809"><ele>261.0</ele><time>2026-03-30T09:38:37Z</time></trkpt><trkpt lat="42.06228889417681" lon="12.766673907162795"><ele>262.0</ele><time>2026-03-30T09:38:38Z</time></trkpt><trkpt lat="42.06236527371254" lon="12.766685414102515"><ele>263.0</ele><time>2026-03-30T09:38:39Z</time></trkpt><trkpt lat="42.06244393905393" lon="12.766698538884954"><ele>264.0</ele><time>2026-03-30T09:38:40Z</time></trkpt><trkpt lat="42.06252256813455" lon="12.766718298335654"><ele>265.0</ele><time>2026-03-30T09:38:41Z</time></trkpt><trkpt lat="42.06258859635433" lon="12.766746233742968"><ele>265.0</ele><time>2026-03-30T09:38:42Z</time></trkpt><trkpt lat="42.06266684451892" lon="12.766804972314377"><ele>265.0</ele><time>2026-03-30T09:38:44Z</time></trkpt><trkpt lat="42.0626288217041" lon="12.766950556372617"><ele>265.0</ele><time>2026-03-30T09:38:45Z</time></trkpt><trkpt lat="42.06275189450721" lon="12.767009570991355"><ele>265.0</ele><time>2026-03-30T09:38:47Z</time></trkpt><trkpt lat="42.062864716106986" lon="12.767017163810857"><ele>265.0</ele><time>2026-03-30T09:38:49Z</time></trkpt><trkpt lat="42.06291586321327" lon="12.767067432361122"><ele>264.6</ele><time>2026-03-30T09:38:51Z</time></trkpt><trkpt lat="42.06302273590869" lon="12.766977731935526"><ele>264.2</ele><time>2026-03-30T09:38:54Z</time></trkpt><trkpt lat="42.06308811917699" lon="12.767034956091116"><ele>263.8</ele><time>2026-03-30T09:38:56Z</time></trkpt><trkpt lat="42.06312117947139" lon="12.767115748420109"><ele>263.4</ele><time>2026-03-30T09:38:57Z</time></trkpt><trkpt lat="42.063000064485344" lon="12.76724239518094"><ele>263.0</ele><time>2026-03-30T09:38:58Z</time></trkpt><trkpt lat="42.06318664072159" lon="12.767264521184382"><ele>263.0</ele><time>2026-03-30T09:38:59Z</time></trkpt><trkpt lat="42.06322313910915" lon="12.767350072422861"><ele>263.0</ele><time>2026-03-30T09:39:00Z</time></trkpt><trkpt lat="42.06326712208949" lon="12.767442655316904"><ele>263.0</ele><time>2026-03-30T09:39:01Z</time></trkpt><trkpt lat="42.06332480312344" lon="12.76753601777014"><ele>263.0</ele><time>2026-03-30T09:39:02Z</time></trkpt><trkpt lat="42.06339860400341" lon="12.767612953654446"><ele>263.0</ele><time>2026-03-30T09:39:03Z</time></trkpt><trkpt lat="42.06347916144893" lon="12.76765865063754"><ele>263.0</ele><time>2026-03-30T09:39:04Z</time></trkpt><trkpt lat="42.06354716524777" lon="12.767739320073789"><ele>264.25</ele><time>2026-03-30T09:39:05Z</time></trkpt><trkpt lat="42.0636409763709" lon="12.767804407831255"><ele>265.5</ele><time>2026-03-30T09:39:06Z</time></trkpt><trkpt lat="42.06373968823662" lon="12.767875545457246"><ele>266.75</ele><time>2026-03-30T09:39:07Z</time></trkpt><trkpt lat="42.063844096630866" lon="12.767941362435375"><ele>268.0</ele><time>2026-03-30T09:39:08Z</time></trkpt><trkpt lat="42.063948795345546" lon="12.768016396706122"><ele>268.0</ele><time>2026-03-30T09:39:09Z</time></trkpt><trkpt lat="42.06406272874967" lon="12.768078947715635"><ele>268.0</ele><time>2026-03-30T09:39:10Z</time></trkpt><trkpt lat="42.064170459318106" lon="12.768151050822494"><ele>268.0</ele><time>2026-03-30T09:39:11Z</time></trkpt><trkpt lat="42.06427995358932" lon="12.768217620219458"><ele>268.0</ele><time>2026-03-30T09:39:12Z</time></trkpt><trkpt lat="42.06439287249129" lon="12.768281716338024"><ele>271.0</ele><time>2026-03-30T09:39:13Z</time></trkpt><trkpt lat="42.06449580790792" lon="12.768346739444942"><ele>274.0</ele><time>2026-03-30T09:39:14Z</time></trkpt><trkpt lat="42.064597116591834" lon="12.76839398333834"><ele>277.0</ele><time>2026-03-30T09:39:15Z</time></trkpt><trkpt lat="42.06469266252001" lon="12.76843708251857"><ele>280.0</ele><time>2026-03-30T09:39:16Z</time></trkpt><trkpt lat="42.06479040273339" lon="12.768476407815115"><ele>283.0</ele><time>2026-03-30T09:39:17Z</time></trkpt><trkpt lat="42.06488548268452" lon="12.768506086769738"><ele>283.16666666666663</ele><time>2026-03-30T09:39:18Z</time></trkpt><trkpt lat="42.06497940011782" lon="12.768531143760288"><ele>283.3333333333333</ele><time>2026-03-30T09:39:19Z</time></trkpt><trkpt lat="42.06506200015641" lon="12.768559894642825"><ele>283.5</ele><time>2026-03-30T09:39:20Z</time></trkpt><trkpt lat="42.06513684769009" lon="12.768585559749662"><ele>283.6666666666667</ele><time>2026-03-30T09:39:21Z</time></trkpt><trkpt lat="42.0651983626868" lon="12.768621926826814"><ele>283.83333333333337</ele><time>2026-03-30T09:39:22Z</time></trkpt><trkpt lat="42.06514946037024" lon="12.768533315517283"><ele>284.0</ele><time>2026-03-30T09:39:59Z</time></trkpt><trkpt lat="42.065098742320316" lon="12.768464450671656"><ele>283.8</ele><time>2026-03-30T09:40:00Z</time></trkpt><trkpt lat="42.06501974900871" lon="12.768403463641059"><ele>283.59999999999997</ele><time>2026-03-30T09:40:01Z</time></trkpt><trkpt lat="42.06494020352753" lon="12.768347749324581"><ele>283.4</ele><time>2026-03-30T09:40:02Z</time></trkpt><trkpt lat="42.06481080739945" lon="12.768440141315356"><ele>283.2</ele><time>2026-03-30T09:40:03Z</time></trkpt><trkpt lat="42.064729120694125" lon="12.76840598119878"><ele>283.0</ele><time>2026-03-30T09:40:04Z</time></trkpt><trkpt lat="42.06464461652458" lon="12.768374363653377"><ele>283.0</ele><time>2026-03-30T09:40:05Z</time></trkpt><trkpt lat="42.06456152989933" lon="12.768338748883922"><ele>283.0</ele><time>2026-03-30T09:40:06Z</time></trkpt><trkpt lat="42.064594747342866" lon="12.767920138230348"><ele>283.0</ele><time>2026-03-30T09:40:07Z</time></trkpt><trkpt lat="42.06446559549448" lon="12.767822520337626"><ele>283.0</ele><time>2026-03-30T09:40:09Z</time></trkpt><trkpt lat="42.06439842504334" lon="12.767768721328943"><ele>283.0</ele><time>2026-03-30T09:40:10Z</time></trkpt><trkpt lat="42.06430781051386" lon="12.767697167620382"><ele>283.0</ele><time>2026-03-30T09:40:11Z</time></trkpt><trkpt lat="42.06420511065201" lon="12.767627198262185"><ele>283.0</ele><time>2026-03-30T09:40:12Z</time></trkpt><trkpt lat="42.064121657872455" lon="12.767574283760833"><ele>283.0</ele><time>2026-03-30T09:40:13Z</time></trkpt><trkpt lat="42.064052452111184" lon="12.7675267623052"><ele>280.25</ele><time>2026-03-30T09:40:14Z</time></trkpt><trkpt lat="42.06394993752601" lon="12.76745705917496"><ele>277.5</ele><time>2026-03-30T09:40:15Z</time></trkpt><trkpt lat="42.06383943604957" lon="12.767399681664148"><ele>274.75</ele><time>2026-03-30T09:40:16Z</time></trkpt><trkpt lat="42.06375545058833" lon="12.767359675802764"><ele>272.0</ele><time>2026-03-30T09:40:17Z</time></trkpt><trkpt lat="42.063606999963824" lon="12.767351700576393"><ele>272.0</ele><time>2026-03-30T09:40:18Z</time></trkpt><trkpt lat="42.063514322197896" lon="12.767341529684321"><ele>272.0</ele><time>2026-03-30T09:40:19Z</time></trkpt><trkpt lat="42.06343717178692" lon="12.767337978734107"><ele>272.0</ele><time>2026-03-30T09:40:20Z</time></trkpt><trkpt lat="42.06332882398947" lon="12.767501527047749"><ele>272.0</ele><time>2026-03-30T09:40:22Z</time></trkpt><trkpt lat="42.06328347638031" lon="12.767426724876753"><ele>272.0</ele><time>2026-03-30T09:40:23Z</time></trkpt><trkpt lat="42.06324274081362" lon="12.767343097097822"><ele>270.5</ele><time>2026-03-30T09:40:24Z</time></trkpt><trkpt lat="42.063207576199815" lon="12.767265328510938"><ele>269.0</ele><time>2026-03-30T09:40:25Z</time></trkpt><trkpt lat="42.0631737214249" lon="12.767183449367847"><ele>267.5</ele><time>2026-03-30T09:40:26Z</time></trkpt><trkpt lat="42.06314242231042" lon="12.767107775063241"><ele>266.0</ele><time>2026-03-30T09:40:27Z</time></trkpt><trkpt lat="42.06311093822616" lon="12.767031680202424"><ele>264.5</ele><time>2026-03-30T09:40:28Z</time></trkpt><trkpt lat="42.063065815201554" lon="12.766903972502584"><ele>263.0</ele><time>2026-03-30T09:40:30Z</time></trkpt><trkpt lat="42.06296549869744" lon="12.766919658371291"><ele>263.0</ele><time>2026-03-30T09:40:33Z</time></trkpt><trkpt lat="42.06293585785735" lon="12.767077240318676"><ele>263.0</ele><time>2026-03-30T09:40:35Z</time></trkpt><trkpt lat="42.06296309839207" lon="12.767196328484784"><ele>263.0</ele><time>2026-03-30T09:40:36Z</time></trkpt><trkpt lat="42.06299791044229" lon="12.767307011885375"><ele>263.0</ele><time>2026-03-30T09:40:37Z</time></trkpt><trkpt lat="42.063013826271614" lon="12.767447164387887"><ele>263.0</ele><time>2026-03-30T09:40:38Z</time></trkpt><trkpt lat="42.06301609016901" lon="12.767598408904995"><ele>262.75</ele><time>2026-03-30T09:40:39Z</time></trkpt><trkpt lat="42.06302290608313" lon="12.767735327488007"><ele>262.5</ele><time>2026-03-30T09:40:40Z</time></trkpt><trkpt lat="42.06302783287126" lon="12.767888249910646"><ele>262.25</ele><time>2026-03-30T09:40:41Z</time></trkpt><trkpt lat="42.063029149313095" lon="12.768069251852852"><ele>262.0</ele><time>2026-03-30T09:40:42Z</time></trkpt><trkpt lat="42.063036906693156" lon="12.76827556858701"><ele>262.0</ele><time>2026-03-30T09:40:43Z</time></trkpt><trkpt lat="42.06304344250585" lon="12.768478929205582"><ele>262.0</ele><time>2026-03-30T09:40:44Z</time></trkpt><trkpt lat="42.06304935631775" lon="12.768676516878786"><ele>262.0</ele><time>2026-03-30T09:40:45Z</time></trkpt><trkpt lat="42.06305254107963" lon="12.768874026189252"><ele>262.0</ele><time>2026-03-30T09:40:46Z</time></trkpt><trkpt lat="42.06306063771375" lon="12.769061356383792"><ele>262.5</ele><time>2026-03-30T09:40:47Z</time></trkpt><trkpt lat="42.063070727746094" lon="12.769248135795353"><ele>263.0</ele><time>2026-03-30T09:40:48Z</time></trkpt><trkpt lat="42.06307284795092" lon="12.76942415470307"><ele>263.5</ele><time>2026-03-30T09:40:49Z</time></trkpt><trkpt lat="42.06307177187333" lon="12.769590506672605"><ele>264.0</ele><time>2026-03-30T09:40:50Z</time></trkpt><trkpt lat="42.06308230829771" lon="12.76976889633534"><ele>264.75</ele><time>2026-03-30T09:40:51Z</time></trkpt><trkpt lat="42.0630969769785" lon="12.769943345085359"><ele>265.5</ele><time>2026-03-30T09:40:52Z</time></trkpt><trkpt lat="42.063100472841874" lon="12.770119652249"><ele>266.25</ele><time>2026-03-30T09:40:53Z</time></trkpt><trkpt lat="42.06309805955572" lon="12.770286022570328"><ele>267.0</ele><time>2026-03-30T09:40:54Z</time></trkpt><trkpt lat="42.06309262322919" lon="12.770435122300933"><ele>267.8333333333333</ele><time>2026-03-30T09:40:55Z</time></trkpt><trkpt lat="42.06308781391581" lon="12.770568258527664"><ele>268.6666666666667</ele><time>2026-03-30T09:40:56Z</time></trkpt><trkpt lat="42.06308248165323" lon="12.770689686452007"><ele>269.5</ele><time>2026-03-30T09:40:57Z</time></trkpt><trkpt lat="42.063075909549084" lon="12.770788056420372"><ele>270.33333333333337</ele><time>2026-03-30T09:40:58Z</time></trkpt><trkpt lat="42.06306636798978" lon="12.770874449150046"><ele>271.1666666666667</ele><time>2026-03-30T09:40:58.999Z</time></trkpt><trkpt lat="42.06308936124614" lon="12.771018466246947"><ele>272.0</ele><time>2026-03-30T09:41:00.999Z</time></trkpt><trkpt lat="42.063220224057304" lon="12.77105397253648"><ele>273.25</ele><time>2026-03-30T09:41:02.999Z</time></trkpt><trkpt lat="42.063307189076276" lon="12.770980318697232"><ele>274.5</ele><time>2026-03-30T09:41:03.999Z</time></trkpt><trkpt lat="42.063439598233494" lon="12.770978027763638"><ele>275.75</ele><time>2026-03-30T09:41:04.999Z</time></trkpt><trkpt lat="42.06356470509158" lon="12.770931561784273"><ele>277.0</ele><time>2026-03-30T09:41:05.999Z</time></trkpt><trkpt lat="42.063690378541494" lon="12.770886126139809"><ele>277.0</ele><time>2026-03-30T09:41:06.999Z</time></trkpt><trkpt lat="42.06381559326806" lon="12.770832108878631"><ele>277.0</ele><time>2026-03-30T09:41:07.999Z</time></trkpt><trkpt lat="42.063945390363614" lon="12.770763606724728"><ele>277.0</ele><time>2026-03-30T09:41:08.999Z</time></trkpt><trkpt lat="42.064073493034165" lon="12.770695301160039"><ele>277.0</ele><time>2026-03-30T09:41:09.999Z</time></trkpt><trkpt lat="42.064201748840944" lon="12.770630705636796"><ele>278.0</ele><time>2026-03-30T09:41:10.999Z</time></trkpt><trkpt lat="42.06432420955745" lon="12.770570042596328"><ele>279.0</ele><time>2026-03-30T09:41:11.999Z</time></trkpt><trkpt lat="42.06445433326059" lon="12.770509454881294"><ele>280.0</ele><time>2026-03-30T09:41:12.999Z</time></trkpt><trkpt lat="42.064582239991324" lon="12.770452594925116"><ele>281.0</ele><time>2026-03-30T09:41:13.999Z</time></trkpt><trkpt lat="42.06470450577553" lon="12.770392144927671"><ele>281.0</ele><time>2026-03-30T09:41:14.999Z</time></trkpt><trkpt lat="42.0648274343463" lon="12.770334334450874"><ele>281.0</ele><time>2026-03-30T09:41:15.999Z</time></trkpt><trkpt lat="42.0649508177077" lon="12.770273774804743"><ele>281.0</ele><time>2026-03-30T09:41:16.999Z</time></trkpt><trkpt lat="42.065064476411905" lon="12.770222307913633"><ele>281.0</ele><time>2026-03-30T09:41:17.999Z</time></trkpt><trkpt lat="42.06517374071635" lon="12.770174799311475"><ele>280.75</ele><time>2026-03-30T09:41:18.999Z</time></trkpt><trkpt lat="42.06528730279663" lon="12.770123899881783"><ele>280.5</ele><time>2026-03-30T09:41:19.999Z</time></trkpt><trkpt lat="42.065406313578286" lon="12.7700696131495"><ele>280.25</ele><time>2026-03-30T09:41:20.999Z</time></trkpt><trkpt lat="42.065523608728824" lon="12.770014321444524"><ele>280.0</ele><time>2026-03-30T09:41:21.999Z</time></trkpt><trkpt lat="42.06564444502591" lon="12.769959653073998"><ele>280.0</ele><time>2026-03-30T09:41:23Z</time></trkpt><trkpt lat="42.06576157340399" lon="12.769903039835544"><ele>280.0</ele><time>2026-03-30T09:41:24Z</time></trkpt><trkpt lat="42.06587751526524" lon="12.769849288261337"><ele>280.0</ele><time>2026-03-30T09:41:25Z</time></trkpt><trkpt lat="42.06598621382823" lon="12.769798661538621"><ele>280.0</ele><time>2026-03-30T09:41:26Z</time></trkpt><trkpt lat="42.06609182899758" lon="12.769747570163977"><ele>281.2</ele><time>2026-03-30T09:41:27Z</time></trkpt><trkpt lat="42.06619670181691" lon="12.769698835135957"><ele>282.4</ele><time>2026-03-30T09:41:28Z</time></trkpt><trkpt lat="42.066297136196084" lon="12.769653185299152"><ele>283.6</ele><time>2026-03-30T09:41:29Z</time></trkpt><trkpt lat="42.06639861119725" lon="12.769609102906541"><ele>284.8</ele><time>2026-03-30T09:41:30Z</time></trkpt><trkpt lat="42.06650313702624" lon="12.769565421351635"><ele>286.0</ele><time>2026-03-30T09:41:31Z</time></trkpt><trkpt lat="42.066607070259614" lon="12.769519179686343"><ele>286.2</ele><time>2026-03-30T09:41:32Z</time></trkpt><trkpt lat="42.06670947434384" lon="12.769466824882835"><ele>286.40000000000003</ele><time>2026-03-30T09:41:33Z</time></trkpt><trkpt lat="42.06681150998941" lon="12.769415193188777"><ele>286.6</ele><time>2026-03-30T09:41:34Z</time></trkpt><trkpt lat="42.06691412120118" lon="12.76935824127018"><ele>286.8</ele><time>2026-03-30T09:41:35Z</time></trkpt><trkpt lat="42.06701254730264" lon="12.769287576111022"><ele>287.0</ele><time>2026-03-30T09:41:36Z</time></trkpt><trkpt lat="42.0671158266048" lon="12.769206970877727"><ele>287.0</ele><time>2026-03-30T09:41:37Z</time></trkpt><trkpt lat="42.06721851459919" lon="12.769122184572597"><ele>287.0</ele><time>2026-03-30T09:41:38Z</time></trkpt><trkpt lat="42.06731515475965" lon="12.76902709096295"><ele>287.0</ele><time>2026-03-30T09:41:39Z</time></trkpt><trkpt lat="42.06741384180668" lon="12.768922997015276"><ele>287.0</ele><time>2026-03-30T09:41:40Z</time></trkpt><trkpt lat="42.067505667667206" lon="12.768804729024533"><ele>287.0</ele><time>2026-03-30T09:41:41Z</time></trkpt><trkpt lat="42.06759206318543" lon="12.768678318112851"><ele>287.0</ele><time>2026-03-30T09:41:42Z</time></trkpt><trkpt lat="42.06767603161441" lon="12.768549359077996"><ele>287.0</ele><time>2026-03-30T09:41:43Z</time></trkpt><trkpt lat="42.06775893097277" lon="12.768415238491814"><ele>287.0</ele><time>2026-03-30T09:41:44Z</time></trkpt><trkpt lat="42.06784623932799" lon="12.768275004947272"><ele>290.5</ele><time>2026-03-30T09:41:45Z</time></trkpt><trkpt lat="42.06793819233712" lon="12.768143088191184"><ele>294.0</ele><time>2026-03-30T09:41:46Z</time></trkpt><trkpt lat="42.068038165098" lon="12.768019210969245"><ele>297.5</ele><time>2026-03-30T09:41:47Z</time></trkpt><trkpt lat="42.068137042907814" lon="12.767866512692743"><ele>301.0</ele><time>2026-03-30T09:41:48Z</time></trkpt><trkpt lat="42.06824179216209" lon="12.76775479365052"><ele>300.0</ele><time>2026-03-30T09:41:49Z</time></trkpt><trkpt lat="42.06835094032556" lon="12.76763294403973"><ele>299.0</ele><time>2026-03-30T09:41:50Z</time></trkpt><trkpt lat="42.06845734087157" lon="12.767520369101886"><ele>298.0</ele><time>2026-03-30T09:41:51Z</time></trkpt><trkpt lat="42.06856800470532" lon="12.767405349398366"><ele>297.0</ele><time>2026-03-30T09:41:52Z</time></trkpt><trkpt lat="42.068674003530205" lon="12.767295255433526"><ele>297.0</ele><time>2026-03-30T09:41:53Z</time></trkpt><trkpt lat="42.06877323244621" lon="12.767194785011947"><ele>297.0</ele><time>2026-03-30T09:41:54Z</time></trkpt><trkpt lat="42.06886360311864" lon="12.767107742029369"><ele>297.0</ele><time>2026-03-30T09:41:55Z</time></trkpt><trkpt lat="42.06894772597888" lon="12.767026179718375"><ele>297.0</ele><time>2026-03-30T09:41:56Z</time></trkpt><trkpt lat="42.069029974060044" lon="12.766946910246887"><ele>297.0</ele><time>2026-03-30T09:41:57Z</time></trkpt><trkpt lat="42.06909182906335" lon="12.76689282730839"><ele>297.0</ele><time>2026-03-30T09:41:58Z</time></trkpt><trkpt lat="42.06921300871598" lon="12.76682913238011"><ele>297.0</ele><time>2026-03-30T09:42:00Z</time></trkpt><trkpt lat="42.06933980218524" lon="12.766762765537102"><ele>297.0</ele><time>2026-03-30T09:42:02Z</time></trkpt><trkpt lat="42.06946793941067" lon="12.766708049498115"><ele>297.0</ele><time>2026-03-30T09:42:04Z</time></trkpt><trkpt lat="42.06957890379215" lon="12.766668356732055"><ele>297.0</ele><time>2026-03-30T09:42:06Z</time></trkpt><trkpt lat="42.06969683512213" lon="12.766629519118919"><ele>297.0</ele><time>2026-03-30T09:42:08Z</time></trkpt><trkpt lat="42.06976426376281" lon="12.766608802490245"><ele>297.0</ele><time>2026-03-30T09:42:09Z</time></trkpt><trkpt lat="42.069848116413326" lon="12.766585026256427"><ele>297.0</ele><time>2026-03-30T09:42:10Z</time></trkpt><trkpt lat="42.06994441086879" lon="12.76657031716837"><ele>297.0</ele><time>2026-03-30T09:42:11Z</time></trkpt><trkpt lat="42.07005078326928" lon="12.766569031781371"><ele>296.6</ele><time>2026-03-30T09:42:12Z</time></trkpt><trkpt lat="42.070173131837656" lon="12.766576044522411"><ele>296.2</ele><time>2026-03-30T09:42:13Z</time></trkpt><trkpt lat="42.07028217105829" lon="12.766587952285686"><ele>295.8</ele><time>2026-03-30T09:42:14Z</time></trkpt><trkpt lat="42.070382871361275" lon="12.76657914051736"><ele>295.4</ele><time>2026-03-30T09:42:15Z</time></trkpt><trkpt lat="42.07047554287343" lon="12.766589800885962"><ele>295.0</ele><time>2026-03-30T09:42:16Z</time></trkpt><trkpt lat="42.07056040380783" lon="12.766607587254915"><ele>295.0</ele><time>2026-03-30T09:42:17Z</time></trkpt><trkpt lat="42.070646716575126" lon="12.766624019973149"><ele>295.0</ele><time>2026-03-30T09:42:18Z</time></trkpt><trkpt lat="42.07075698772457" lon="12.766634294532551"><ele>295.0</ele><time>2026-03-30T09:42:19Z</time></trkpt><trkpt lat="42.07089120123604" lon="12.766631303062763"><ele>295.0</ele><time>2026-03-30T09:42:20Z</time></trkpt><trkpt lat="42.07103370910945" lon="12.766623958021633"><ele>297.0</ele><time>2026-03-30T09:42:21Z</time></trkpt><trkpt lat="42.07118056965403" lon="12.766616967423593"><ele>299.0</ele><time>2026-03-30T09:42:22Z</time></trkpt><trkpt lat="42.0713400769198" lon="12.766599596135185"><ele>301.0</ele><time>2026-03-30T09:42:23Z</time></trkpt><trkpt lat="42.07151360817858" lon="12.76656736686147"><ele>299.0</ele><time>2026-03-30T09:42:24Z</time></trkpt><trkpt lat="42.0716807016333" lon="12.766524642044109"><ele>297.0</ele><time>2026-03-30T09:42:25Z</time></trkpt><trkpt lat="42.07183664882948" lon="12.766480067370901"><ele>295.0</ele><time>2026-03-30T09:42:26Z</time></trkpt><trkpt lat="42.07197631770904" lon="12.76643296232405"><ele>295.0</ele><time>2026-03-30T09:42:27Z</time></trkpt><trkpt lat="42.072101935142264" lon="12.76638617942772"><ele>295.0</ele><time>2026-03-30T09:42:28Z</time></trkpt><trkpt lat="42.07222240873264" lon="12.76634102489262"><ele>295.0</ele><time>2026-03-30T09:42:29Z</time></trkpt><trkpt lat="42.07233177754858" lon="12.766300141462546"><ele>295.0</ele><time>2026-03-30T09:42:30Z</time></trkpt><trkpt lat="42.07242255897764" lon="12.766261457431593"><ele>296.0</ele><time>2026-03-30T09:42:31Z</time></trkpt><trkpt lat="42.07249384876182" lon="12.76623710026954"><ele>297.0</ele><time>2026-03-30T09:42:32Z</time></trkpt><trkpt lat="42.07257467993744" lon="12.766297260737275"><ele>298.0</ele><time>2026-03-30T09:42:34Z</time></trkpt><trkpt lat="42.072595747811285" lon="12.766410871378577"><ele>299.0</ele><time>2026-03-30T09:42:37Z</time></trkpt><trkpt lat="42.072554418631235" lon="12.766549772049942"><ele>300.0</ele><time>2026-03-30T09:42:39Z</time></trkpt><trkpt lat="42.07252940757556" lon="12.7666390795731"><ele>301.0</ele><time>2026-03-30T09:42:40Z</time></trkpt><trkpt lat="42.07251018682675" lon="12.766770133942757"><ele>300.5</ele><time>2026-03-30T09:42:41Z</time></trkpt><trkpt lat="42.072495503999825" lon="12.766909573883586"><ele>300.0</ele><time>2026-03-30T09:42:42Z</time></trkpt><trkpt lat="42.07247283907215" lon="12.76706739313717"><ele>299.5</ele><time>2026-03-30T09:42:43Z</time></trkpt><trkpt lat="42.0724506581696" lon="12.767222509236692"><ele>299.0</ele><time>2026-03-30T09:42:44Z</time></trkpt><trkpt lat="42.072434527175126" lon="12.76737512091925"><ele>299.0</ele><time>2026-03-30T09:42:45Z</time></trkpt><trkpt lat="42.072428642837245" lon="12.767501468842847"><ele>299.0</ele><time>2026-03-30T09:42:46Z</time></trkpt><trkpt lat="42.072498869971255" lon="12.767639773961589"><ele>299.0</ele><time>2026-03-30T09:42:48Z</time></trkpt><trkpt lat="42.07259038215615" lon="12.767688496683917"><ele>299.0</ele><time>2026-03-30T09:42:49Z</time></trkpt><trkpt lat="42.07268733371712" lon="12.767750331571818"><ele>299.0</ele><time>2026-03-30T09:42:50Z</time></trkpt><trkpt lat="42.07278463657727" lon="12.767838636305438"><ele>302.25</ele><time>2026-03-30T09:42:51Z</time></trkpt><trkpt lat="42.07285837475699" lon="12.767958575001138"><ele>305.5</ele><time>2026-03-30T09:42:52Z</time></trkpt><trkpt lat="42.07294881284681" lon="12.76805306480561"><ele>308.75</ele><time>2026-03-30T09:42:53Z</time></trkpt><trkpt lat="42.07303622885275" lon="12.768173357880881"><ele>312.0</ele><time>2026-03-30T09:42:54Z</time></trkpt><trkpt lat="42.073127922548764" lon="12.768292151753837"><ele>312.0</ele><time>2026-03-30T09:42:55Z</time></trkpt><trkpt lat="42.0732231756339" lon="12.768412691137186"><ele>312.0</ele><time>2026-03-30T09:42:56Z</time></trkpt><trkpt lat="42.07331404509886" lon="12.768538578945861"><ele>312.0</ele><time>2026-03-30T09:42:57Z</time></trkpt><trkpt lat="42.07339784247009" lon="12.76864979379568"><ele>312.0</ele><time>2026-03-30T09:42:58Z</time></trkpt><trkpt lat="42.073469516997264" lon="12.768745161937384"><ele>315.5</ele><time>2026-03-30T09:42:59Z</time></trkpt><trkpt lat="42.07353245542958" lon="12.768827629407587"><ele>319.0</ele><time>2026-03-30T09:43:00Z</time></trkpt><trkpt lat="42.07359175315141" lon="12.768913061502602"><ele>322.5</ele><time>2026-03-30T09:43:01Z</time></trkpt><trkpt lat="42.07362584616907" lon="12.76902673136348"><ele>326.0</ele><time>2026-03-30T09:43:02Z</time></trkpt><trkpt lat="42.07368096942651" lon="12.76912440828613"><ele>329.5</ele><time>2026-03-30T09:43:03Z</time></trkpt><trkpt lat="42.0737176580041" lon="12.769206249787434"><ele>333.0</ele><time>2026-03-30T09:43:04Z</time></trkpt><trkpt lat="42.07380488387097" lon="12.7692903494469"><ele>333.0</ele><time>2026-03-30T09:43:06Z</time></trkpt><trkpt lat="42.073888221271346" lon="12.769267773667718"><ele>333.0</ele><time>2026-03-30T09:43:07Z</time></trkpt><trkpt lat="42.07397505417057" lon="12.769276222076313"><ele>333.0</ele><time>2026-03-30T09:43:09.999Z</time></trkpt><trkpt lat="42.07405514606872" lon="12.769116982800272"><ele>333.0</ele><time>2026-03-30T09:43:10.999Z</time></trkpt><trkpt lat="42.07412749181198" lon="12.769003518889141"><ele>333.0</ele><time>2026-03-30T09:43:11.999Z</time></trkpt><trkpt lat="42.07421849131118" lon="12.76895765899571"><ele>336.25</ele><time>2026-03-30T09:43:12.999Z</time></trkpt><trkpt lat="42.07430139974993" lon="12.76891892912967"><ele>339.5</ele><time>2026-03-30T09:43:13.999Z</time></trkpt><trkpt lat="42.07440965278682" lon="12.768880470473002"><ele>342.75</ele><time>2026-03-30T09:43:14.999Z</time></trkpt><trkpt lat="42.07453489692131" lon="12.768824586113878"><ele>346.0</ele><time>2026-03-30T09:43:15.999Z</time></trkpt><trkpt lat="42.074682814795665" lon="12.768780224833213"><ele>346.0</ele><time>2026-03-30T09:43:16.999Z</time></trkpt><trkpt lat="42.074803852564045" lon="12.768742696129088"><ele>346.0</ele><time>2026-03-30T09:43:17.999Z</time></trkpt><trkpt lat="42.07490853416066" lon="12.768713060153994"><ele>346.0</ele><time>2026-03-30T09:43:18.999Z</time></trkpt><trkpt lat="42.075005331154436" lon="12.768709598635969"><ele>346.0</ele><time>2026-03-30T09:43:19.999Z</time></trkpt><trkpt lat="42.075087467191615" lon="12.768691483745911"><ele>346.0</ele><time>2026-03-30T09:43:20.999Z</time></trkpt><trkpt lat="42.07517890503044" lon="12.768657520071024"><ele>346.66666666666663</ele><time>2026-03-30T09:43:22.999Z</time></trkpt><trkpt lat="42.07524859192805" lon="12.768602345918502"><ele>347.3333333333333</ele><time>2026-03-30T09:43:24.999Z</time></trkpt><trkpt lat="42.07528047308105" lon="12.768526198278863"><ele>348.0</ele><time>2026-03-30T09:43:25.999Z</time></trkpt><trkpt lat="42.07532684143544" lon="12.76840233088811"><ele>348.6666666666667</ele><time>2026-03-30T09:43:27.999Z</time></trkpt><trkpt lat="42.07542838320045" lon="12.768355134941611"><ele>349.33333333333337</ele><time>2026-03-30T09:43:30Z</time></trkpt><trkpt lat="42.07551621821196" lon="12.768344210394371"><ele>350.0</ele><time>2026-03-30T09:43:31Z</time></trkpt><trkpt lat="42.075617135415726" lon="12.768319142281442"><ele>347.4</ele><time>2026-03-30T09:43:32Z</time></trkpt><trkpt lat="42.07571595867661" lon="12.768306174284321"><ele>344.8</ele><time>2026-03-30T09:43:33Z</time></trkpt><trkpt lat="42.07581941570413" lon="12.768302444078191"><ele>342.20000000000005</ele><time>2026-03-30T09:43:34Z</time></trkpt><trkpt lat="42.07591747472465" lon="12.768262780604184"><ele>339.6</ele><time>2026-03-30T09:43:35Z</time></trkpt><trkpt lat="42.07602045480075" lon="12.768253525907257"><ele>337.0</ele><time>2026-03-30T09:43:36Z</time></trkpt><trkpt lat="42.07611805722388" lon="12.768240877786518"><ele>337.0</ele><time>2026-03-30T09:43:37Z</time></trkpt><trkpt lat="42.076222446238816" lon="12.768226184576783"><ele>337.0</ele><time>2026-03-30T09:43:38Z</time></trkpt><trkpt lat="42.07633900606583" lon="12.768200169977778"><ele>337.0</ele><time>2026-03-30T09:43:39Z</time></trkpt><trkpt lat="42.076474208096066" lon="12.76817298436263"><ele>337.0</ele><time>2026-03-30T09:43:40Z</time></trkpt><trkpt lat="42.07661920499431" lon="12.768136536651925"><ele>337.75</ele><time>2026-03-30T09:43:41Z</time></trkpt><trkpt lat="42.076758200435435" lon="12.768110473772971"><ele>338.5</ele><time>2026-03-30T09:43:42Z</time></trkpt><trkpt lat="42.07688081950658" lon="12.768085095990651"><ele>339.25</ele><time>2026-03-30T09:43:43Z</time></trkpt><trkpt lat="42.07699930755139" lon="12.768058608062697"><ele>340.0</ele><time>2026-03-30T09:43:44Z</time></trkpt><trkpt lat="42.0771246816385" lon="12.768042308340917"><ele>340.0</ele><time>2026-03-30T09:43:45Z</time></trkpt><trkpt lat="42.0772500033173" lon="12.768020589402672"><ele>340.0</ele><time>2026-03-30T09:43:46Z</time></trkpt><trkpt lat="42.07738173486689" lon="12.768007900667335"><ele>340.0</ele><time>2026-03-30T09:43:47Z</time></trkpt><trkpt lat="42.07751289845055" lon="12.767994599361135"><ele>340.0</ele><time>2026-03-30T09:43:48Z</time></trkpt><trkpt lat="42.07763757276318" lon="12.767962495831688"><ele>340.25</ele><time>2026-03-30T09:43:49Z</time></trkpt><trkpt lat="42.07776099156588" lon="12.767931862834013"><ele>340.5</ele><time>2026-03-30T09:43:50Z</time></trkpt><trkpt lat="42.0778843955672" lon="12.767927471182809"><ele>340.75</ele><time>2026-03-30T09:43:51Z</time></trkpt><trkpt lat="42.07800453727102" lon="12.767886363090675"><ele>341.0</ele><time>2026-03-30T09:43:52Z</time></trkpt><trkpt lat="42.07811540130437" lon="12.767866242773453"><ele>341.0</ele><time>2026-03-30T09:43:53Z</time></trkpt><trkpt lat="42.078225558523116" lon="12.767852935081091"><ele>341.0</ele><time>2026-03-30T09:43:54Z</time></trkpt><trkpt lat="42.078360735089824" lon="12.767826151898767"><ele>341.0</ele><time>2026-03-30T09:43:55Z</time></trkpt><trkpt lat="42.07850195209162" lon="12.76781197495451"><ele>341.0</ele><time>2026-03-30T09:43:56Z</time></trkpt><trkpt lat="42.07862755212284" lon="12.767791709355507"><ele>341.0</ele><time>2026-03-30T09:43:57Z</time></trkpt><trkpt lat="42.07874213973534" lon="12.767794870183824"><ele>341.0</ele><time>2026-03-30T09:43:58Z</time></trkpt><trkpt lat="42.07884887993223" lon="12.76777934433248"><ele>341.0</ele><time>2026-03-30T09:43:59Z</time></trkpt><trkpt lat="42.07894561065118" lon="12.76775947535524"><ele>341.0</ele><time>2026-03-30T09:44:00Z</time></trkpt><trkpt lat="42.07903022531459" lon="12.767731899003515"><ele>341.0</ele><time>2026-03-30T09:44:01Z</time></trkpt><trkpt lat="42.079114636093905" lon="12.767673764400518"><ele>340.83333333333337</ele><time>2026-03-30T09:44:03Z</time></trkpt><trkpt lat="42.07917697283886" lon="12.767695214255909"><ele>340.6666666666667</ele><time>2026-03-30T09:44:06Z</time></trkpt><trkpt lat="42.079233900636446" lon="12.767791565829983"><ele>340.5</ele><time>2026-03-30T09:44:08Z</time></trkpt><trkpt lat="42.07926101456554" lon="12.767909325622636"><ele>340.3333333333333</ele><time>2026-03-30T09:44:09Z</time></trkpt><trkpt lat="42.07930051422058" lon="12.768014986610819"><ele>340.16666666666663</ele><time>2026-03-30T09:44:10Z</time></trkpt><trkpt lat="42.079351379543354" lon="12.76813522337"><ele>340.0</ele><time>2026-03-30T09:44:11Z</time></trkpt><trkpt lat="42.07943284045547" lon="12.768266835324642"><ele>340.0</ele><time>2026-03-30T09:44:12Z</time></trkpt><trkpt lat="42.07949054073847" lon="12.768428031283598"><ele>340.0</ele><time>2026-03-30T09:44:13Z</time></trkpt><trkpt lat="42.07955110473156" lon="12.768570606788415"><ele>340.0</ele><time>2026-03-30T09:44:14Z</time></trkpt><trkpt lat="42.079616133431415" lon="12.768720789789615"><ele>340.0</ele><time>2026-03-30T09:44:15Z</time></trkpt><trkpt lat="42.07968484123489" lon="12.7688737003664"><ele>344.75</ele><time>2026-03-30T09:44:16Z</time></trkpt><trkpt lat="42.07975628866373" lon="12.76903099064621"><ele>349.5</ele><time>2026-03-30T09:44:17Z</time></trkpt><trkpt lat="42.07982539390266" lon="12.769182059177409"><ele>354.25</ele><time>2026-03-30T09:44:18Z</time></trkpt><trkpt lat="42.07989720096047" lon="12.769329374706901"><ele>359.0</ele><time>2026-03-30T09:44:19Z</time></trkpt><trkpt lat="42.07995512948824" lon="12.76945464329027"><ele>360.5</ele><time>2026-03-30T09:44:20Z</time></trkpt><trkpt lat="42.08000239150889" lon="12.769570812415122"><ele>362.0</ele><time>2026-03-30T09:44:21Z</time></trkpt><trkpt lat="42.08005801443524" lon="12.769656949827537"><ele>363.5</ele><time>2026-03-30T09:44:22Z</time></trkpt><trkpt lat="42.0801105144813" lon="12.76975609902744"><ele>365.0</ele><time>2026-03-30T09:44:23Z</time></trkpt><trkpt lat="42.08016039951278" lon="12.769846829515393"><ele>366.5</ele><time>2026-03-30T09:44:24Z</time></trkpt><trkpt lat="42.08020552786622" lon="12.769915563707588"><ele>368.0</ele><time>2026-03-30T09:44:25Z</time></trkpt><trkpt lat="42.080229430429206" lon="12.770000222646736"><ele>368.0</ele><time>2026-03-30T09:44:26Z</time></trkpt><trkpt lat="42.08030934953443" lon="12.770139203744026"><ele>368.0</ele><time>2026-03-30T09:44:28Z</time></trkpt><trkpt lat="42.08033685021272" lon="12.770222206536069"><ele>368.0</ele><time>2026-03-30T09:44:30Z</time></trkpt><trkpt lat="42.08027764411109" lon="12.770073774395993"><ele>368.0</ele><time>2026-03-30T09:45:00.999Z</time></trkpt><trkpt lat="42.08022507538496" lon="12.769974837439651"><ele>368.0</ele><time>2026-03-30T09:45:01.999Z</time></trkpt><trkpt lat="42.08016210398761" lon="12.769854312194312"><ele>368.0</ele><time>2026-03-30T09:45:03.999Z</time></trkpt><trkpt lat="42.08010157042895" lon="12.769733201009656"><ele>368.0</ele><time>2026-03-30T09:45:05.999Z</time></trkpt><trkpt lat="42.08003490790204" lon="12.769625527921798"><ele>368.0</ele><time>2026-03-30T09:45:07.999Z</time></trkpt><trkpt lat="42.0799630509889" lon="12.76951736934034"><ele>368.0</ele><time>2026-03-30T09:45:09.999Z</time></trkpt><trkpt lat="42.07990038455207" lon="12.769372019235561"><ele>368.0</ele><time>2026-03-30T09:45:11.999Z</time></trkpt><trkpt lat="42.07987388317767" lon="12.769288173468494"><ele>366.5</ele><time>2026-03-30T09:45:12.999Z</time></trkpt><trkpt lat="42.079834507027996" lon="12.769211237309877"><ele>365.0</ele><time>2026-03-30T09:45:13.999Z</time></trkpt><trkpt lat="42.07980417753622" lon="12.769127108303973"><ele>363.5</ele><time>2026-03-30T09:45:14.999Z</time></trkpt><trkpt lat="42.07975999764079" lon="12.769039176230743"><ele>362.0</ele><time>2026-03-30T09:45:15.999Z</time></trkpt><trkpt lat="42.07971201756373" lon="12.76894647732665"><ele>360.5</ele><time>2026-03-30T09:45:16.999Z</time></trkpt><trkpt lat="42.07967539853647" lon="12.76885474794379"><ele>359.0</ele><time>2026-03-30T09:45:17.999Z</time></trkpt><trkpt lat="42.07962065429922" lon="12.768777748460217"><ele>359.0</ele><time>2026-03-30T09:45:18.999Z</time></trkpt><trkpt lat="42.07958399401981" lon="12.76865918459542"><ele>359.0</ele><time>2026-03-30T09:45:19.999Z</time></trkpt><trkpt lat="42.079533935084974" lon="12.768552327012312"><ele>359.0</ele><time>2026-03-30T09:45:20.999Z</time></trkpt><trkpt lat="42.07948584644592" lon="12.768434929997142"><ele>359.0</ele><time>2026-03-30T09:45:21.999Z</time></trkpt><trkpt lat="42.07944990338581" lon="12.768321367822033"><ele>359.0</ele><time>2026-03-30T09:45:22.999Z</time></trkpt><trkpt lat="42.07939756592427" lon="12.76822979206625"><ele>355.83333333333337</ele><time>2026-03-30T09:45:23.999Z</time></trkpt><trkpt lat="42.079355140832845" lon="12.768118119326797"><ele>352.6666666666667</ele><time>2026-03-30T09:45:24.999Z</time></trkpt><trkpt lat="42.07932042250439" lon="12.768008500019167"><ele>349.5</ele><time>2026-03-30T09:45:25.999Z</time></trkpt><trkpt lat="42.079282678853104" lon="12.76791042128549"><ele>346.3333333333333</ele><time>2026-03-30T09:45:26.999Z</time></trkpt><trkpt lat="42.07925134440084" lon="12.767831901402563"><ele>343.16666666666663</ele><time>2026-03-30T09:45:27.999Z</time></trkpt><trkpt lat="42.079219582287465" lon="12.767752434963043"><ele>340.0</ele><time>2026-03-30T09:45:28.999Z</time></trkpt><trkpt lat="42.079167230455894" lon="12.76766504646536"><ele>340.25</ele><time>2026-03-30T09:45:30.999Z</time></trkpt><trkpt lat="42.07894832340954" lon="12.76771341811931"><ele>340.5</ele><time>2026-03-30T09:46:08Z</time></trkpt><trkpt lat="42.07885354607674" lon="12.767733105607935"><ele>340.75</ele><time>2026-03-30T09:46:09Z</time></trkpt><trkpt lat="42.07875111096651" lon="12.76774945974929"><ele>341.0</ele><time>2026-03-30T09:46:10Z</time></trkpt><trkpt lat="42.07864734421319" lon="12.767776783609747"><ele>341.0</ele><time>2026-03-30T09:46:11Z</time></trkpt><trkpt lat="42.07854883449838" lon="12.767803032951978"><ele>341.0</ele><time>2026-03-30T09:46:12Z</time></trkpt><trkpt lat="42.078462344544434" lon="12.767825821349595"><ele>341.0</ele><time>2026-03-30T09:46:13Z</time></trkpt><trkpt lat="42.07836161889714" lon="12.767837133201764"><ele>341.0</ele><time>2026-03-30T09:46:14Z</time></trkpt><trkpt lat="42.07826118910239" lon="12.767837615008276"><ele>341.0</ele><time>2026-03-30T09:46:15Z</time></trkpt><trkpt lat="42.07816785279852" lon="12.767851450733135"><ele>341.0</ele><time>2026-03-30T09:46:16Z</time></trkpt><trkpt lat="42.07808034834488" lon="12.767871397179597"><ele>341.0</ele><time>2026-03-30T09:46:17Z</time></trkpt><trkpt lat="42.0779838834399" lon="12.767894112779883"><ele>341.0</ele><time>2026-03-30T09:46:18Z</time></trkpt><trkpt lat="42.07788479589666" lon="12.767920420427803"><ele>341.0</ele><time>2026-03-30T09:46:19Z</time></trkpt><trkpt lat="42.07779624394062" lon="12.767933273988398"><ele>341.0</ele><time>2026-03-30T09:46:20Z</time></trkpt><trkpt lat="42.07768416992931" lon="12.767942882280751"><ele>341.0</ele><time>2026-03-30T09:46:21Z</time></trkpt><trkpt lat="42.077558715957686" lon="12.767976730554624"><ele>341.0</ele><time>2026-03-30T09:46:22Z</time></trkpt><trkpt lat="42.077432371263846" lon="12.768005688600566"><ele>341.0</ele><time>2026-03-30T09:46:23Z</time></trkpt><trkpt lat="42.077299016137076" lon="12.768028389439104"><ele>341.0</ele><time>2026-03-30T09:46:24Z</time></trkpt><trkpt lat="42.07715796811058" lon="12.768008107111656"><ele>340.75</ele><time>2026-03-30T09:46:25Z</time></trkpt><trkpt lat="42.07701770597464" lon="12.768030524124466"><ele>340.5</ele><time>2026-03-30T09:46:26Z</time></trkpt><trkpt lat="42.07687425436289" lon="12.7680534508713"><ele>340.25</ele><time>2026-03-30T09:46:27Z</time></trkpt><trkpt lat="42.076718673496394" lon="12.768080249003637"><ele>340.0</ele><time>2026-03-30T09:46:28Z</time></trkpt><trkpt lat="42.076570570867226" lon="12.768109215153663"><ele>339.25</ele><time>2026-03-30T09:46:29Z</time></trkpt><trkpt lat="42.07644365766853" lon="12.768136069359624"><ele>338.5</ele><time>2026-03-30T09:46:30Z</time></trkpt><trkpt lat="42.07631713198963" lon="12.768162841558743"><ele>337.75</ele><time>2026-03-30T09:46:31Z</time></trkpt><trkpt lat="42.076200097174414" lon="12.768186771713287"><ele>337.0</ele><time>2026-03-30T09:46:32Z</time></trkpt><trkpt lat="42.07609689736948" lon="12.768205899484776"><ele>337.0</ele><time>2026-03-30T09:46:33Z</time></trkpt><trkpt lat="42.07599177318244" lon="12.768225383933585"><ele>337.0</ele><time>2026-03-30T09:46:34Z</time></trkpt><trkpt lat="42.07588436626936" lon="12.768245291459953"><ele>337.0</ele><time>2026-03-30T09:46:35Z</time></trkpt><trkpt lat="42.07578242029315" lon="12.7682734472164"><ele>337.0</ele><time>2026-03-30T09:46:36Z</time></trkpt><trkpt lat="42.07566319738195" lon="12.768298280356781"><ele>337.0</ele><time>2026-03-30T09:46:37Z</time></trkpt><trkpt lat="42.07555372398418" lon="12.768320299454224"><ele>336.8</ele><time>2026-03-30T09:46:38Z</time></trkpt><trkpt lat="42.075458480764105" lon="12.768321072926383"><ele>336.6</ele><time>2026-03-30T09:46:39Z</time></trkpt><trkpt lat="42.075379197909626" lon="12.768335177291014"><ele>336.40000000000003</ele><time>2026-03-30T09:46:40Z</time></trkpt><trkpt lat="42.07531264420188" lon="12.768361110770307"><ele>336.20000000000005</ele><time>2026-03-30T09:46:41Z</time></trkpt><trkpt lat="42.075249727037075" lon="12.768518210975662"><ele>336.0</ele><time>2026-03-30T09:46:43Z</time></trkpt><trkpt lat="42.075189546776365" lon="12.768631913716481"><ele>337.6666666666667</ele><time>2026-03-30T09:46:45Z</time></trkpt><trkpt lat="42.075079243771995" lon="12.768667119845656"><ele>339.3333333333333</ele><time>2026-03-30T09:46:47.999Z</time></trkpt><trkpt lat="42.075005414421064" lon="12.768664214490618"><ele>341.0</ele><time>2026-03-30T09:46:48.999Z</time></trkpt><trkpt lat="42.07493636904104" lon="12.768680143113174"><ele>342.66666666666663</ele><time>2026-03-30T09:46:49.999Z</time></trkpt><trkpt lat="42.07485450847686" lon="12.76870063562114"><ele>344.3333333333333</ele><time>2026-03-30T09:46:50.999Z</time></trkpt><trkpt lat="42.07478209433375" lon="12.76872207612521"><ele>346.0</ele><time>2026-03-30T09:46:51.999Z</time></trkpt><trkpt lat="42.07469822711056" lon="12.768746907634993"><ele>346.0</ele><time>2026-03-30T09:46:52.999Z</time></trkpt><trkpt lat="42.07461985025977" lon="12.768770113538071"><ele>346.0</ele><time>2026-03-30T09:46:53.999Z</time></trkpt><trkpt lat="42.07454250887757" lon="12.76879301284686"><ele>346.0</ele><time>2026-03-30T09:46:54.999Z</time></trkpt><trkpt lat="42.074460226695024" lon="12.768818062808101"><ele>346.0</ele><time>2026-03-30T09:46:55.999Z</time></trkpt><trkpt lat="42.07438037128771" lon="12.768844236229693"><ele>346.0</ele><time>2026-03-30T09:46:56.999Z</time></trkpt><trkpt lat="42.07430204386414" lon="12.768871886364847"><ele>346.0</ele><time>2026-03-30T09:46:57.999Z</time></trkpt><trkpt lat="42.07422803264144" lon="12.768905083706603"><ele>346.0</ele><time>2026-03-30T09:46:58.999Z</time></trkpt><trkpt lat="42.074149464995955" lon="12.768952342941493"><ele>346.0</ele><time>2026-03-30T09:46:59.999Z</time></trkpt><trkpt lat="42.074083671446516" lon="12.769016661317503"><ele>346.0</ele><time>2026-03-30T09:47:00.999Z</time></trkpt><trkpt lat="42.07403488531623" lon="12.769081218355707"><ele>346.0</ele><time>2026-03-30T09:47:01.999Z</time></trkpt><trkpt lat="42.073957900072465" lon="12.769181865837195"><ele>346.0</ele><time>2026-03-30T09:47:03.999Z</time></trkpt><trkpt lat="42.07394398424987" lon="12.76926888203695"><ele>346.0</ele><time>2026-03-30T09:47:05.999Z</time></trkpt><trkpt lat="42.07395422789891" lon="12.769369459161586"><ele>343.66666666666663</ele><time>2026-03-30T09:47:07.999Z</time></trkpt><trkpt lat="42.07401423162507" lon="12.76948680950663"><ele>341.3333333333333</ele><time>2026-03-30T09:47:09.999Z</time></trkpt><trkpt lat="42.07403289455812" lon="12.769612929267117"><ele>339.0</ele><time>2026-03-30T09:47:19.999Z</time></trkpt><trkpt lat="42.07402627246709" lon="12.769698294044913"><ele>336.6666666666667</ele><time>2026-03-30T09:47:20.999Z</time></trkpt><trkpt lat="42.074010081053416" lon="12.769808943981161"><ele>334.33333333333337</ele><time>2026-03-30T09:47:21.999Z</time></trkpt><trkpt lat="42.07400106923367" lon="12.769913576162455"><ele>332.0</ele><time>2026-03-30T09:47:22.999Z</time></trkpt><trkpt lat="42.074001048494125" lon="12.7700340487593"><ele>332.0</ele><time>2026-03-30T09:47:23.999Z</time></trkpt><trkpt lat="42.07401087896869" lon="12.770181678517877"><ele>332.0</ele><time>2026-03-30T09:47:24.999Z</time></trkpt><trkpt lat="42.074022025165384" lon="12.770317156469206"><ele>332.0</ele><time>2026-03-30T09:47:25.999Z</time></trkpt><trkpt lat="42.07403547753706" lon="12.770458519201325"><ele>332.0</ele><time>2026-03-30T09:47:26.999Z</time></trkpt><trkpt lat="42.07405156691565" lon="12.770615390641614"><ele>332.0</ele><time>2026-03-30T09:47:27.999Z</time></trkpt><trkpt lat="42.074069983857264" lon="12.770790936068785"><ele>338.0</ele><time>2026-03-30T09:47:28.999Z</time></trkpt><trkpt lat="42.07411556537524" lon="12.770969178093326"><ele>344.0</ele><time>2026-03-30T09:47:29.999Z</time></trkpt><trkpt lat="42.0741584443756" lon="12.771078219189507"><ele>350.0</ele><time>2026-03-30T09:47:31.999Z</time></trkpt><trkpt lat="42.07422619099461" lon="12.771203439237508"><ele>356.0</ele><time>2026-03-30T09:47:32.999Z</time></trkpt><trkpt lat="42.07431129883544" lon="12.771341622188748"><ele>356.0</ele><time>2026-03-30T09:47:33.999Z</time></trkpt><trkpt lat="42.07437515712265" lon="12.77150860002817"><ele>356.0</ele><time>2026-03-30T09:47:34.999Z</time></trkpt><trkpt lat="42.0744487492527" lon="12.771659759584528"><ele>356.0</ele><time>2026-03-30T09:47:35.999Z</time></trkpt><trkpt lat="42.07452366273121" lon="12.771813633230728"><ele>356.0</ele><time>2026-03-30T09:47:36.999Z</time></trkpt><trkpt lat="42.074603357800136" lon="12.771968840120344"><ele>357.0</ele><time>2026-03-30T09:47:37.999Z</time></trkpt><trkpt lat="42.07468161847146" lon="12.772121115010602"><ele>358.0</ele><time>2026-03-30T09:47:38.999Z</time></trkpt><trkpt lat="42.07475458429288" lon="12.772276624693857"><ele>359.0</ele><time>2026-03-30T09:47:39.999Z</time></trkpt><trkpt lat="42.07482895739091" lon="12.772439204890594"><ele>360.0</ele><time>2026-03-30T09:47:41Z</time></trkpt><trkpt lat="42.07492058169849" lon="12.772592065656708"><ele>365.5</ele><time>2026-03-30T09:47:42Z</time></trkpt><trkpt lat="42.07499927975363" lon="12.772755834287688"><ele>371.0</ele><time>2026-03-30T09:47:43Z</time></trkpt><trkpt lat="42.07508246847983" lon="12.772921040950122"><ele>376.5</ele><time>2026-03-30T09:47:44Z</time></trkpt><trkpt lat="42.075165222786865" lon="12.773084063505632"><ele>382.0</ele><time>2026-03-30T09:47:45Z</time></trkpt><trkpt lat="42.075246247789245" lon="12.773238275959939"><ele>382.0</ele><time>2026-03-30T09:47:46Z</time></trkpt><trkpt lat="42.07531055996444" lon="12.773398747298215"><ele>382.0</ele><time>2026-03-30T09:47:47Z</time></trkpt><trkpt lat="42.075385496596894" lon="12.773540825286279"><ele>382.0</ele><time>2026-03-30T09:47:48Z</time></trkpt><trkpt lat="42.075476228352926" lon="12.773658283136301"><ele>382.0</ele><time>2026-03-30T09:47:49Z</time></trkpt><trkpt lat="42.075540790664796" lon="12.773766680705641"><ele>385.3333333333333</ele><time>2026-03-30T09:47:50Z</time></trkpt><trkpt lat="42.07557364360619" lon="12.773853526110642"><ele>388.66666666666663</ele><time>2026-03-30T09:47:51Z</time></trkpt><trkpt lat="42.07559678917482" lon="12.773951330102276"><ele>392.0</ele><time>2026-03-30T09:47:54Z</time></trkpt><trkpt lat="42.075565946913756" lon="12.77402938540776"><ele>395.3333333333333</ele><time>2026-03-30T09:47:57Z</time></trkpt><trkpt lat="42.07545984264731" lon="12.77401902571521"><ele>398.6666666666667</ele><time>2026-03-30T09:47:59Z</time></trkpt><trkpt lat="42.07537611151532" lon="12.77402727676247"><ele>402.0</ele><time>2026-03-30T09:48:00Z</time></trkpt><trkpt lat="42.07528535053418" lon="12.774037126155081"><ele>402.0</ele><time>2026-03-30T09:48:01Z</time></trkpt><trkpt lat="42.075173321024565" lon="12.774047748287364"><ele>402.0</ele><time>2026-03-30T09:48:02Z</time></trkpt><trkpt lat="42.07506531682313" lon="12.7740547449087"><ele>402.0</ele><time>2026-03-30T09:48:03Z</time></trkpt><trkpt lat="42.074948368701364" lon="12.774056744667387"><ele>402.0</ele><time>2026-03-30T09:48:04Z</time></trkpt><trkpt lat="42.07483594666391" lon="12.774046819149849"><ele>401.6</ele><time>2026-03-30T09:48:05Z</time></trkpt><trkpt lat="42.07472816843061" lon="12.77403133780007"><ele>401.20000000000005</ele><time>2026-03-30T09:48:06Z</time></trkpt><trkpt lat="42.07462368232329" lon="12.774013691853243"><ele>400.8</ele><time>2026-03-30T09:48:07Z</time></trkpt><trkpt lat="42.074523524273566" lon="12.773994846332764"><ele>400.4</ele><time>2026-03-30T09:48:08Z</time></trkpt><trkpt lat="42.07442569979945" lon="12.773977537078432"><ele>400.0</ele><time>2026-03-30T09:48:09Z</time></trkpt><trkpt lat="42.074332518439306" lon="12.773963581489012"><ele>400.00000000000006</ele><time>2026-03-30T09:48:10Z</time></trkpt><trkpt lat="42.07424904752036" lon="12.773960939144064"><ele>400.0</ele><time>2026-03-30T09:48:11Z</time></trkpt><trkpt lat="42.07418481392363" lon="12.77397846252932"><ele>400.0</ele><time>2026-03-30T09:48:12Z</time></trkpt><trkpt lat="42.07409153105551" lon="12.773995532832464"><ele>400.0</ele><time>2026-03-30T09:48:14Z</time></trkpt><trkpt lat="42.07401088126107" lon="12.774021478370063"><ele>400.00000000000006</ele><time>2026-03-30T09:48:16Z</time></trkpt><trkpt lat="42.073914510149336" lon="12.774092474229509"><ele>400.0</ele><time>2026-03-30T09:48:18Z</time></trkpt><trkpt lat="42.073854987054446" lon="12.774144440230142"><ele>400.1666666666667</ele><time>2026-03-30T09:48:19Z</time></trkpt><trkpt lat="42.073797082024676" lon="12.774194985972803"><ele>400.33333333333337</ele><time>2026-03-30T09:48:20Z</time></trkpt><trkpt lat="42.07373508277373" lon="12.774248391623974"><ele>400.5</ele><time>2026-03-30T09:48:21Z</time></trkpt><trkpt lat="42.073676224728494" lon="12.774295663160895"><ele>400.66666666666663</ele><time>2026-03-30T09:48:22Z</time></trkpt><trkpt lat="42.073570005443095" lon="12.77435261239165"><ele>400.8333333333333</ele><time>2026-03-30T09:48:24Z</time></trkpt><trkpt lat="42.07350517288475" lon="12.774342756560461"><ele>401.0</ele><time>2026-03-30T09:48:26Z</time></trkpt><trkpt lat="42.07343746201781" lon="12.774343104992347"><ele>404.99999999999994</ele><time>2026-03-30T09:48:28Z</time></trkpt><trkpt lat="42.073456238490955" lon="12.774509966035449"><ele>409.0</ele><time>2026-03-30T09:48:45.999Z</time></trkpt><trkpt lat="42.07353051910353" lon="12.774504041812587"><ele>413.0</ele><time>2026-03-30T09:48:46.999Z</time></trkpt><trkpt lat="42.073609661324" lon="12.774493656285655"><ele>417.0</ele><time>2026-03-30T09:48:47.999Z</time></trkpt><trkpt lat="42.07367956844796" lon="12.774515547300444"><ele>420.99999999999994</ele><time>2026-03-30T09:48:48.999Z</time></trkpt><trkpt lat="42.07374915676798" lon="12.774527455339935"><ele>425.0</ele><time>2026-03-30T09:48:49.999Z</time></trkpt><trkpt lat="42.073824538169816" lon="12.774538471344169"><ele>424.99999999999994</ele><time>2026-03-30T09:48:50.999Z</time></trkpt><trkpt lat="42.073902614049544" lon="12.774542365183004"><ele>425.0</ele><time>2026-03-30T09:48:51.999Z</time></trkpt><trkpt lat="42.07398269478469" lon="12.774559571214255"><ele>425.0</ele><time>2026-03-30T09:48:52.999Z</time></trkpt><trkpt lat="42.074068547074575" lon="12.774579735049372"><ele>425.0</ele><time>2026-03-30T09:48:53.999Z</time></trkpt><trkpt lat="42.07416525512512" lon="12.77459793953172"><ele>424.99999999999994</ele><time>2026-03-30T09:48:54.999Z</time></trkpt><trkpt lat="42.07426268087973" lon="12.7746192963626"><ele>425.0</ele><time>2026-03-30T09:48:55.999Z</time></trkpt><trkpt lat="42.07435958602396" lon="12.77462882179211"><ele>426.0</ele><time>2026-03-30T09:48:56.999Z</time></trkpt><trkpt lat="42.07444476391488" lon="12.774635203906374"><ele>427.0</ele><time>2026-03-30T09:48:57.999Z</time></trkpt><trkpt lat="42.07452764273361" lon="12.77465682732036"><ele>428.0</ele><time>2026-03-30T09:48:58.999Z</time></trkpt><trkpt lat="42.07461647951171" lon="12.774677331621193"><ele>429.0</ele><time>2026-03-30T09:48:59.999Z</time></trkpt><trkpt lat="42.074723440094694" lon="12.774702849758569"><ele>430.0</ele><time>2026-03-30T09:49:00.999Z</time></trkpt><trkpt lat="42.0748199922374" lon="12.774733195133175"><ele>430.0</ele><time>2026-03-30T09:49:01.999Z</time></trkpt><trkpt lat="42.07492152485611" lon="12.77476502539294"><ele>430.0</ele><time>2026-03-30T09:49:02.999Z</time></trkpt><trkpt lat="42.075015329192134" lon="12.774791034117852"><ele>430.0</ele><time>2026-03-30T09:49:03.999Z</time></trkpt><trkpt lat="42.07510208560953" lon="12.774823055436368"><ele>430.0</ele><time>2026-03-30T09:49:04.999Z</time></trkpt><trkpt lat="42.07518448923282" lon="12.774853826503373"><ele>430.0</ele><time>2026-03-30T09:49:05.999Z</time></trkpt><trkpt lat="42.07531760886718" lon="12.774920563993508"><ele>430.4</ele><time>2026-03-30T09:49:07.999Z</time></trkpt><trkpt lat="42.0754058675644" lon="12.774958795274296"><ele>430.8</ele><time>2026-03-30T09:49:08.999Z</time></trkpt><trkpt lat="42.075484297384946" lon="12.774975752642073"><ele>431.20000000000005</ele><time>2026-03-30T09:49:09.999Z</time></trkpt><trkpt lat="42.075577985911444" lon="12.774992622764312"><ele>431.6</ele><time>2026-03-30T09:49:10.999Z</time></trkpt><trkpt lat="42.07567570042457" lon="12.775030167512318"><ele>432.0</ele><time>2026-03-30T09:49:11.999Z</time></trkpt><trkpt lat="42.0757815629414" lon="12.77506200482405"><ele>432.1666666666667</ele><time>2026-03-30T09:49:12.999Z</time></trkpt><trkpt lat="42.075883112905906" lon="12.77508824850401"><ele>432.33333333333337</ele><time>2026-03-30T09:49:13.999Z</time></trkpt><trkpt lat="42.0759708276812" lon="12.775120670473356"><ele>432.5</ele><time>2026-03-30T09:49:14.999Z</time></trkpt><trkpt lat="42.07604215847054" lon="12.775141028054353"><ele>432.6666666666667</ele><time>2026-03-30T09:49:15.999Z</time></trkpt><trkpt lat="42.076126035839835" lon="12.775158540765588"><ele>432.83333333333337</ele><time>2026-03-30T09:49:16.999Z</time></trkpt><trkpt lat="42.07621803775585" lon="12.77517759235827"><ele>433.0</ele><time>2026-03-30T09:49:17.999Z</time></trkpt><trkpt lat="42.07630129051127" lon="12.775181729670399"><ele>433.00000000000006</ele><time>2026-03-30T09:49:18.999Z</time></trkpt><trkpt lat="42.07636723348652" lon="12.775195909878304"><ele>433.0</ele><time>2026-03-30T09:49:19.999Z</time></trkpt><trkpt lat="42.076474564680105" lon="12.775193303942638"><ele>433.0</ele><time>2026-03-30T09:49:21.999Z</time></trkpt><trkpt lat="42.07654775274759" lon="12.775159293283176"><ele>433.0</ele><time>2026-03-30T09:49:24.999Z</time></trkpt><trkpt lat="42.07659736954691" lon="12.77510012157197"><ele>433.00000000000006</ele><time>2026-03-30T09:49:27.999Z</time></trkpt><trkpt lat="42.07668090084918" lon="12.775185770019462"><ele>433.0</ele><time>2026-03-30T09:51:13.999Z</time></trkpt><trkpt lat="42.07674575674845" lon="12.77522583515676"><ele>452.0</ele><time>2026-03-30T09:51:23.999Z</time></trkpt><trkpt lat="42.07668293973813" lon="12.775189413617555"><ele>452.0</ele><time>2026-03-30T09:51:44.999Z</time></trkpt><trkpt lat="42.07663208798138" lon="12.775138964881098"><ele>440.0</ele><time>2026-03-30T09:52:01Z</time></trkpt></trkseg><trkseg><trkpt lat="42.07670124378894" lon="12.77522066744792"><ele>451.99999999999994</ele><time>2026-03-30T10:16:57.001Z</time></trkpt><trkpt lat="42.07679627798757" lon="12.775278966477234"><ele>452.0</ele><time>2026-03-30T10:16:59.001Z</time></trkpt><trkpt lat="42.07684801103729" lon="12.775331736254119"><ele>452.0</ele><time>2026-03-30T10:17:00.001Z</time></trkpt><trkpt lat="42.076890085326866" lon="12.775402024990129"><ele>452.0</ele><time>2026-03-30T10:17:01.001Z</time></trkpt><trkpt lat="42.07698641299992" lon="12.775518977875084"><ele>451.99999999999994</ele><time>2026-03-30T10:17:03.001Z</time></trkpt><trkpt lat="42.07703842034224" lon="12.7755751876023"><ele>452.0</ele><time>2026-03-30T10:17:04.001Z</time></trkpt><trkpt lat="42.07708569933051" lon="12.775649231125058"><ele>451.99999999999994</ele><time>2026-03-30T10:17:05.001Z</time></trkpt><trkpt lat="42.077136423741415" lon="12.775719250304801"><ele>452.0</ele><time>2026-03-30T10:17:06.001Z</time></trkpt><trkpt lat="42.07719247024711" lon="12.775778209387013"><ele>452.0</ele><time>2026-03-30T10:17:07.001Z</time></trkpt><trkpt lat="42.0772576842261" lon="12.77582464361128"><ele>452.0</ele><time>2026-03-30T10:17:08.001Z</time></trkpt><trkpt lat="42.07732722557255" lon="12.77588396576247"><ele>451.99999999999994</ele><time>2026-03-30T10:17:09.001Z</time></trkpt><trkpt lat="42.07741960900379" lon="12.776007920690976"><ele>452.0</ele><time>2026-03-30T10:17:11.001Z</time></trkpt><trkpt lat="42.07747727315932" lon="12.77609180185624"><ele>453.7142857142857</ele><time>2026-03-30T10:17:12.001Z</time></trkpt><trkpt lat="42.07751443664665" lon="12.776164099490133"><ele>455.42857142857144</ele><time>2026-03-30T10:17:13.001Z</time></trkpt><trkpt lat="42.077559890821284" lon="12.776234632320184"><ele>457.14285714285717</ele><time>2026-03-30T10:17:14.001Z</time></trkpt><trkpt lat="42.07760843917856" lon="12.776294715728504"><ele>458.8571428571429</ele><time>2026-03-30T10:17:15.001Z</time></trkpt><trkpt lat="42.07764964390748" lon="12.776369958020853"><ele>460.57142857142856</ele><time>2026-03-30T10:17:16.001Z</time></trkpt><trkpt lat="42.07768917928719" lon="12.776446095146152"><ele>462.28571428571433</ele><time>2026-03-30T10:17:17.001Z</time></trkpt><trkpt lat="42.07772850914646" lon="12.776515590193993"><ele>464.00000000000006</ele><time>2026-03-30T10:17:18.001Z</time></trkpt><trkpt lat="42.07779911833236" lon="12.776632274273377"><ele>464.0</ele><time>2026-03-30T10:17:20.001Z</time></trkpt><trkpt lat="42.07785448722967" lon="12.776697071744415"><ele>464.0</ele><time>2026-03-30T10:17:21.001Z</time></trkpt><trkpt lat="42.07790495025401" lon="12.77676682865332"><ele>464.0</ele><time>2026-03-30T10:17:22.001Z</time></trkpt><trkpt lat="42.07798487285326" lon="12.776857630877164"><ele>464.0</ele><time>2026-03-30T10:17:24.001Z</time></trkpt><trkpt lat="42.078045528279056" lon="12.77692529901289"><ele>464.0</ele><time>2026-03-30T10:17:26.001Z</time></trkpt><trkpt lat="42.078172874371845" lon="12.776985927275616"><ele>464.0</ele><time>2026-03-30T10:17:28.001Z</time></trkpt><trkpt lat="42.07824644049817" lon="12.77705700167194"><ele>464.0</ele><time>2026-03-30T10:17:29.001Z</time></trkpt><trkpt lat="42.078327062002245" lon="12.777174601974423"><ele>464.0</ele><time>2026-03-30T10:17:30.001Z</time></trkpt><trkpt lat="42.07840604278639" lon="12.777280952341693"><ele>464.0</ele><time>2026-03-30T10:17:31.001Z</time></trkpt><trkpt lat="42.07848200773099" lon="12.77737008585278"><ele>464.0</ele><time>2026-03-30T10:17:32.001Z</time></trkpt><trkpt lat="42.07856981755681" lon="12.777469088344883"><ele>463.99999999999994</ele><time>2026-03-30T10:17:33.001Z</time></trkpt><trkpt lat="42.07866137386211" lon="12.777558112844305"><ele>464.0</ele><time>2026-03-30T10:17:34.001Z</time></trkpt><trkpt lat="42.0787196876054" lon="12.777635726628818"><ele>464.0</ele><time>2026-03-30T10:17:35.001Z</time></trkpt><trkpt lat="42.07876142666988" lon="12.777701171084841"><ele>464.0</ele><time>2026-03-30T10:17:36.001Z</time></trkpt><trkpt lat="42.07882527204851" lon="12.777827509416325"><ele>463.99999999999994</ele><time>2026-03-30T10:17:38.001Z</time></trkpt><trkpt lat="42.07884911061044" lon="12.777909571526864"><ele>464.0</ele><time>2026-03-30T10:17:39.001Z</time></trkpt><trkpt lat="42.07886651817292" lon="12.77800287662518"><ele>467.3333333333333</ele><time>2026-03-30T10:17:40.001Z</time></trkpt><trkpt lat="42.078887472035184" lon="12.778091000573237"><ele>470.66666666666663</ele><time>2026-03-30T10:17:41.001Z</time></trkpt><trkpt lat="42.07890197568077" lon="12.77819604399925"><ele>474.0</ele><time>2026-03-30T10:17:42.001Z</time></trkpt><trkpt lat="42.07892739832509" lon="12.77831053937218"><ele>477.33333333333337</ele><time>2026-03-30T10:17:43.001Z</time></trkpt><trkpt lat="42.07895557919645" lon="12.778445833603692"><ele>480.6666666666667</ele><time>2026-03-30T10:17:44.001Z</time></trkpt><trkpt lat="42.078986311032814" lon="12.778574043865532"><ele>484.0</ele><time>2026-03-30T10:17:45.001Z</time></trkpt><trkpt lat="42.07901688210856" lon="12.77870290087642"><ele>486.33333333333337</ele><time>2026-03-30T10:17:46.001Z</time></trkpt><trkpt lat="42.07903244386372" lon="12.778820096664893"><ele>488.6666666666667</ele><time>2026-03-30T10:17:47.001Z</time></trkpt><trkpt lat="42.07906260266352" lon="12.778938744184364"><ele>491.0</ele><time>2026-03-30T10:17:48.001Z</time></trkpt><trkpt lat="42.079091914406426" lon="12.779054179818317"><ele>493.33333333333337</ele><time>2026-03-30T10:17:49.001Z</time></trkpt><trkpt lat="42.07911467090665" lon="12.779146015133975"><ele>495.6666666666667</ele><time>2026-03-30T10:17:50.001Z</time></trkpt><trkpt lat="42.07914603765527" lon="12.779242126841757"><ele>498.0</ele><time>2026-03-30T10:17:51.001Z</time></trkpt><trkpt lat="42.079184851607245" lon="12.779334992567954"><ele>489.4</ele><time>2026-03-30T10:17:52.001Z</time></trkpt><trkpt lat="42.07921418558307" lon="12.779435433764489"><ele>480.79999999999995</ele><time>2026-03-30T10:17:53.001Z</time></trkpt><trkpt lat="42.079239145629955" lon="12.77952666863588"><ele>472.2</ele><time>2026-03-30T10:17:54.001Z</time></trkpt><trkpt lat="42.079238618470555" lon="12.779691797037355"><ele>463.6</ele><time>2026-03-30T10:17:56.001Z</time></trkpt><trkpt lat="42.079226969064656" lon="12.779777161289433"><ele>455.0</ele><time>2026-03-30T10:17:57.001Z</time></trkpt><trkpt lat="42.079214018252905" lon="12.779964709597062"><ele>455.0</ele><time>2026-03-30T10:17:59.001Z</time></trkpt><trkpt lat="42.07920309863516" lon="12.78007998332505"><ele>455.0</ele><time>2026-03-30T10:18:00.001Z</time></trkpt><trkpt lat="42.079207915900724" lon="12.780220636621943"><ele>455.0</ele><time>2026-03-30T10:18:01.001Z</time></trkpt><trkpt lat="42.079212623485496" lon="12.780351394603864"><ele>455.0</ele><time>2026-03-30T10:18:02.001Z</time></trkpt><trkpt lat="42.079207013703346" lon="12.78047602774687"><ele>455.0</ele><time>2026-03-30T10:18:03.001Z</time></trkpt><trkpt lat="42.07921177375041" lon="12.78058611542167"><ele>454.8</ele><time>2026-03-30T10:18:04.001Z</time></trkpt><trkpt lat="42.07918410458512" lon="12.780725882021136"><ele>454.6</ele><time>2026-03-30T10:18:05.001Z</time></trkpt><trkpt lat="42.07917628321407" lon="12.780872812979155"><ele>454.4</ele><time>2026-03-30T10:18:06.001Z</time></trkpt><trkpt lat="42.07917191833816" lon="12.780996549729142"><ele>454.2</ele><time>2026-03-30T10:18:07.001Z</time></trkpt><trkpt lat="42.07915086556797" lon="12.781145785205107"><ele>454.0</ele><time>2026-03-30T10:18:08.001Z</time></trkpt><trkpt lat="42.07913940339632" lon="12.781300314431887"><ele>452.79999999999995</ele><time>2026-03-30T10:18:09.001Z</time></trkpt><trkpt lat="42.07912103338036" lon="12.78145937989728"><ele>451.59999999999997</ele><time>2026-03-30T10:18:10.001Z</time></trkpt><trkpt lat="42.07911398139668" lon="12.781608032904872"><ele>450.4</ele><time>2026-03-30T10:18:11.001Z</time></trkpt><trkpt lat="42.07908882787029" lon="12.78172506179939"><ele>449.2</ele><time>2026-03-30T10:18:12.001Z</time></trkpt><trkpt lat="42.079063205136805" lon="12.781842596529222"><ele>448.0</ele><time>2026-03-30T10:18:13.001Z</time></trkpt><trkpt lat="42.07905378828837" lon="12.781966890624743"><ele>457.79999999999995</ele><time>2026-03-30T10:18:14.001Z</time></trkpt><trkpt lat="42.07906291411848" lon="12.78208935550169"><ele>467.59999999999997</ele><time>2026-03-30T10:18:15.001Z</time></trkpt><trkpt lat="42.07902989827132" lon="12.782238337622756"><ele>477.40000000000003</ele><time>2026-03-30T10:18:16.001Z</time></trkpt><trkpt lat="42.078993642710365" lon="12.782370378264739"><ele>487.20000000000005</ele><time>2026-03-30T10:18:17.001Z</time></trkpt><trkpt lat="42.07897630065806" lon="12.78249144829529"><ele>497.0</ele><time>2026-03-30T10:18:18.001Z</time></trkpt><trkpt lat="42.078970857419534" lon="12.782593358020948"><ele>494.8</ele><time>2026-03-30T10:18:19.001Z</time></trkpt><trkpt lat="42.078975448568244" lon="12.782701920779187"><ele>492.6</ele><time>2026-03-30T10:18:20.001Z</time></trkpt><trkpt lat="42.07895556644409" lon="12.782823599895861"><ele>490.40000000000003</ele><time>2026-03-30T10:18:21.001Z</time></trkpt><trkpt lat="42.07893386567662" lon="12.782943480941508"><ele>488.20000000000005</ele><time>2026-03-30T10:18:22.001Z</time></trkpt><trkpt lat="42.078901294482726" lon="12.78308923929271"><ele>486.0</ele><time>2026-03-30T10:18:23.001Z</time></trkpt><trkpt lat="42.07888734532046" lon="12.783214462786"><ele>486.0</ele><time>2026-03-30T10:18:24.001Z</time></trkpt><trkpt lat="42.07888159649898" lon="12.783336387633536"><ele>486.0</ele><time>2026-03-30T10:18:25.001Z</time></trkpt><trkpt lat="42.0788573921723" lon="12.783479482637109"><ele>486.0</ele><time>2026-03-30T10:18:26.001Z</time></trkpt><trkpt lat="42.07882429566877" lon="12.783607006049778"><ele>486.0</ele><time>2026-03-30T10:18:27.001Z</time></trkpt><trkpt lat="42.07878634806923" lon="12.783728609527733"><ele>486.0</ele><time>2026-03-30T10:18:28.001Z</time></trkpt><trkpt lat="42.07875388444686" lon="12.783842992587477"><ele>484.6666666666667</ele><time>2026-03-30T10:18:29.001Z</time></trkpt><trkpt lat="42.07873109656988" lon="12.783945332750578"><ele>483.33333333333337</ele><time>2026-03-30T10:18:30.001Z</time></trkpt><trkpt lat="42.07871938453477" lon="12.784052794746763"><ele>482.0</ele><time>2026-03-30T10:18:31.001Z</time></trkpt><trkpt lat="42.078729154652024" lon="12.784178002045984"><ele>480.6666666666667</ele><time>2026-03-30T10:18:32.001Z</time></trkpt><trkpt lat="42.07875140158822" lon="12.784286186943698"><ele>479.33333333333337</ele><time>2026-03-30T10:18:33.001Z</time></trkpt><trkpt lat="42.07876432609005" lon="12.784397296726842"><ele>478.0</ele><time>2026-03-30T10:18:34.001Z</time></trkpt><trkpt lat="42.07875628871685" lon="12.78450441421083"><ele>476.83333333333337</ele><time>2026-03-30T10:18:35.001Z</time></trkpt><trkpt lat="42.07875168847505" lon="12.784596846721746"><ele>475.6666666666667</ele><time>2026-03-30T10:18:36.001Z</time></trkpt><trkpt lat="42.07872546592887" lon="12.784712233921063"><ele>474.5</ele><time>2026-03-30T10:18:37.001Z</time></trkpt><trkpt lat="42.07871273084947" lon="12.784832191172681"><ele>473.33333333333337</ele><time>2026-03-30T10:18:38.001Z</time></trkpt><trkpt lat="42.07866923324939" lon="12.784938667513485"><ele>472.1666666666667</ele><time>2026-03-30T10:18:39.001Z</time></trkpt><trkpt lat="42.07860237517635" lon="12.785054942023365"><ele>471.0</ele><time>2026-03-30T10:18:40.001Z</time></trkpt><trkpt lat="42.07856174489242" lon="12.785155971439288"><ele>470.5</ele><time>2026-03-30T10:18:41.001Z</time></trkpt><trkpt lat="42.078543040617554" lon="12.785246393757584"><ele>470.0</ele><time>2026-03-30T10:18:42.001Z</time></trkpt><trkpt lat="42.07852672086782" lon="12.785372041795531"><ele>469.5</ele><time>2026-03-30T10:18:43.001Z</time></trkpt><trkpt lat="42.078515681136494" lon="12.785477672619574"><ele>469.0</ele><time>2026-03-30T10:18:44.001Z</time></trkpt><trkpt lat="42.07850833924928" lon="12.785596203307145"><ele>468.5</ele><time>2026-03-30T10:18:45.001Z</time></trkpt><trkpt lat="42.07849327976288" lon="12.785727447373231"><ele>468.0</ele><time>2026-03-30T10:18:46.001Z</time></trkpt><trkpt lat="42.07847144758603" lon="12.78583518937867"><ele>468.0</ele><time>2026-03-30T10:18:47.001Z</time></trkpt><trkpt lat="42.0784557054537" lon="12.785953031314426"><ele>467.99999999999994</ele><time>2026-03-30T10:18:48.001Z</time></trkpt><trkpt lat="42.078436459162745" lon="12.786069903261815"><ele>467.99999999999994</ele><time>2026-03-30T10:18:49.001Z</time></trkpt><trkpt lat="42.07843561312538" lon="12.78620769346098"><ele>468.0</ele><time>2026-03-30T10:18:50.001Z</time></trkpt><trkpt lat="42.07844755177564" lon="12.786345912473811"><ele>468.0</ele><time>2026-03-30T10:18:51Z</time></trkpt><trkpt lat="42.07844568018765" lon="12.786473886081431"><ele>467.5</ele><time>2026-03-30T10:18:52Z</time></trkpt><trkpt lat="42.07845786823053" lon="12.786591565141261"><ele>467.0</ele><time>2026-03-30T10:18:53Z</time></trkpt><trkpt lat="42.07846779806232" lon="12.786708839226607"><ele>466.5</ele><time>2026-03-30T10:18:54Z</time></trkpt><trkpt lat="42.078462007639196" lon="12.786833900863995"><ele>466.0</ele><time>2026-03-30T10:18:55Z</time></trkpt><trkpt lat="42.07843102774107" lon="12.7869373365832"><ele>465.5</ele><time>2026-03-30T10:18:56Z</time></trkpt><trkpt lat="42.07838158864679" lon="12.787010020488632"><ele>465.0</ele><time>2026-03-30T10:18:57Z</time></trkpt><trkpt lat="42.07832102048118" lon="12.787082565500112"><ele>465.6666666666667</ele><time>2026-03-30T10:18:58Z</time></trkpt><trkpt lat="42.07826611704873" lon="12.787144906423535"><ele>466.33333333333337</ele><time>2026-03-30T10:18:59Z</time></trkpt><trkpt lat="42.0782035578816" lon="12.7872150672549"><ele>467.0</ele><time>2026-03-30T10:19:00Z</time></trkpt><trkpt lat="42.07811654453674" lon="12.787191064143414"><ele>467.6666666666667</ele><time>2026-03-30T10:19:01Z</time></trkpt><trkpt lat="42.078049204380584" lon="12.787248853872473"><ele>468.33333333333337</ele><time>2026-03-30T10:19:02Z</time></trkpt><trkpt lat="42.077997061204584" lon="12.787298177731595"><ele>469.0</ele><time>2026-03-30T10:19:03Z</time></trkpt><trkpt lat="42.07793787530719" lon="12.787341891441903"><ele>469.00000000000006</ele><time>2026-03-30T10:19:04Z</time></trkpt><trkpt lat="42.07788735686607" lon="12.787403935858505"><ele>469.0</ele><time>2026-03-30T10:19:05Z</time></trkpt><trkpt lat="42.077821076463785" lon="12.787470739006052"><ele>469.0</ele><time>2026-03-30T10:19:06Z</time></trkpt><trkpt lat="42.07775231593834" lon="12.787546805007006"><ele>469.0</ele><time>2026-03-30T10:19:07Z</time></trkpt><trkpt lat="42.07767794963601" lon="12.787636883716441"><ele>469.00000000000006</ele><time>2026-03-30T10:19:08Z</time></trkpt><trkpt lat="42.07761436262185" lon="12.78772180095342"><ele>469.0</ele><time>2026-03-30T10:19:09Z</time></trkpt><trkpt lat="42.07756767007389" lon="12.787812063329078"><ele>466.6666666666667</ele><time>2026-03-30T10:19:10Z</time></trkpt><trkpt lat="42.07752016615687" lon="12.787890935154595"><ele>464.33333333333337</ele><time>2026-03-30T10:19:11Z</time></trkpt><trkpt lat="42.077465573328574" lon="12.787953494404896"><ele>462.0</ele><time>2026-03-30T10:19:12Z</time></trkpt><trkpt lat="42.07743521120093" lon="12.788042576712405"><ele>459.66666666666663</ele><time>2026-03-30T10:19:13Z</time></trkpt><trkpt lat="42.07736917108722" lon="12.788129350643342"><ele>457.3333333333333</ele><time>2026-03-30T10:19:14Z</time></trkpt><trkpt lat="42.07733019660315" lon="12.78821621706315"><ele>455.0</ele><time>2026-03-30T10:19:15Z</time></trkpt><trkpt lat="42.07729748563687" lon="12.78829832339691"><ele>459.66666666666663</ele><time>2026-03-30T10:19:16Z</time></trkpt><trkpt lat="42.077272126896936" lon="12.78837630277111"><ele>464.3333333333333</ele><time>2026-03-30T10:19:17Z</time></trkpt><trkpt lat="42.07723904077432" lon="12.788531877541939"><ele>469.0</ele><time>2026-03-30T10:19:19Z</time></trkpt><trkpt lat="42.07722617185666" lon="12.78861599276495"><ele>473.66666666666663</ele><time>2026-03-30T10:19:20Z</time></trkpt><trkpt lat="42.077219647731" lon="12.788707525715328"><ele>478.3333333333333</ele><time>2026-03-30T10:19:21Z</time></trkpt><trkpt lat="42.07721805438261" lon="12.78879857266986"><ele>483.0</ele><time>2026-03-30T10:19:22Z</time></trkpt><trkpt lat="42.077230764935955" lon="12.788895367026164"><ele>483.0</ele><time>2026-03-30T10:19:23Z</time></trkpt><trkpt lat="42.07722548978073" lon="12.788983574403595"><ele>483.0</ele><time>2026-03-30T10:19:24Z</time></trkpt><trkpt lat="42.07720586513551" lon="12.789118691616318"><ele>483.0</ele><time>2026-03-30T10:19:26Z</time></trkpt><trkpt lat="42.07721019187953" lon="12.78923606399394"><ele>483.0</ele><time>2026-03-30T10:19:28Z</time></trkpt><trkpt lat="42.07719059781086" lon="12.789360043973534"><ele>483.0</ele><time>2026-03-30T10:19:30Z</time></trkpt><trkpt lat="42.07718371716668" lon="12.789493838691856"><ele>483.0</ele><time>2026-03-30T10:19:32.001Z</time></trkpt><trkpt lat="42.077203029453855" lon="12.789601543164634"><ele>483.8333333333333</ele><time>2026-03-30T10:19:34.001Z</time></trkpt><trkpt lat="42.07721631841775" lon="12.78975818806558"><ele>484.66666666666663</ele><time>2026-03-30T10:19:36.001Z</time></trkpt><trkpt lat="42.077229927642186" lon="12.789841827774321"><ele>485.5</ele><time>2026-03-30T10:19:37.001Z</time></trkpt><trkpt lat="42.077233761570845" lon="12.789953480543023"><ele>486.3333333333333</ele><time>2026-03-30T10:19:38.001Z</time></trkpt><trkpt lat="42.07725626779245" lon="12.79004242810731"><ele>487.16666666666663</ele><time>2026-03-30T10:19:39.001Z</time></trkpt><trkpt lat="42.07732634983356" lon="12.790163762885735"><ele>488.0</ele><time>2026-03-30T10:19:41.001Z</time></trkpt><trkpt lat="42.07739727597676" lon="12.790315427296743"><ele>483.8333333333333</ele><time>2026-03-30T10:19:43.001Z</time></trkpt><trkpt lat="42.07745512743819" lon="12.790375379562878"><ele>479.66666666666663</ele><time>2026-03-30T10:19:44.001Z</time></trkpt><trkpt lat="42.077484929365575" lon="12.790452864785491"><ele>475.5</ele><time>2026-03-30T10:19:45.001Z</time></trkpt><trkpt lat="42.07754427827619" lon="12.790521297952624"><ele>471.33333333333337</ele><time>2026-03-30T10:19:46.001Z</time></trkpt><trkpt lat="42.0776045741724" lon="12.790592943566555"><ele>467.1666666666667</ele><time>2026-03-30T10:19:47.001Z</time></trkpt><trkpt lat="42.07765045718918" lon="12.790657242349493"><ele>463.0</ele><time>2026-03-30T10:19:48.001Z</time></trkpt><trkpt lat="42.07770230622592" lon="12.79076829027742"><ele>463.0</ele><time>2026-03-30T10:19:50.001Z</time></trkpt><trkpt lat="42.077750553721174" lon="12.790888423078536"><ele>462.99999999999994</ele><time>2026-03-30T10:19:52.001Z</time></trkpt><trkpt lat="42.0777994527788" lon="12.791003577532189"><ele>462.99999999999994</ele><time>2026-03-30T10:19:54.001Z</time></trkpt><trkpt lat="42.07781902253817" lon="12.791148963169569"><ele>463.0</ele><time>2026-03-30T10:19:56.001Z</time></trkpt><trkpt lat="42.07784692207673" lon="12.79127548312911"><ele>463.0</ele><time>2026-03-30T10:19:58.001Z</time></trkpt><trkpt lat="42.07787325751951" lon="12.791397166540584"><ele>464.00000000000006</ele><time>2026-03-30T10:20:00Z</time></trkpt><trkpt lat="42.077918718854484" lon="12.791532185531977"><ele>465.0</ele><time>2026-03-30T10:20:02Z</time></trkpt><trkpt lat="42.077938564236085" lon="12.791668998347994"><ele>466.0</ele><time>2026-03-30T10:20:04Z</time></trkpt><trkpt lat="42.0779587210699" lon="12.791764439048963"><ele>467.0</ele><time>2026-03-30T10:20:05Z</time></trkpt><trkpt lat="42.07797662282095" lon="12.791853552308902"><ele>468.00000000000006</ele><time>2026-03-30T10:20:06Z</time></trkpt><trkpt lat="42.07799159374038" lon="12.791948839770491"><ele>469.0</ele><time>2026-03-30T10:20:07Z</time></trkpt><trkpt lat="42.07800605704122" lon="12.792034337360342"><ele>469.83333333333337</ele><time>2026-03-30T10:20:08Z</time></trkpt><trkpt lat="42.07801961140328" lon="12.792123966050445"><ele>470.6666666666667</ele><time>2026-03-30T10:20:09Z</time></trkpt><trkpt lat="42.07804756836793" lon="12.79226333050869"><ele>471.5</ele><time>2026-03-30T10:20:11Z</time></trkpt><trkpt lat="42.078065950468385" lon="12.792353537680722"><ele>472.33333333333337</ele><time>2026-03-30T10:20:13Z</time></trkpt><trkpt lat="42.07808864929198" lon="12.792441973906149"><ele>473.1666666666667</ele><time>2026-03-30T10:20:15Z</time></trkpt><trkpt lat="42.0781059807674" lon="12.792540692033135"><ele>474.0</ele><time>2026-03-30T10:20:17Z</time></trkpt><trkpt lat="42.07814500826953" lon="12.792641347154222"><ele>475.0</ele><time>2026-03-30T10:20:19Z</time></trkpt><trkpt lat="42.078168519781954" lon="12.792777301214818"><ele>476.0</ele><time>2026-03-30T10:20:22Z</time></trkpt><trkpt lat="42.07820002469006" lon="12.792898438066846"><ele>477.0</ele><time>2026-03-30T10:20:24Z</time></trkpt><trkpt lat="42.07822194931143" lon="12.792992018395552"><ele>478.0</ele><time>2026-03-30T10:20:27Z</time></trkpt><trkpt lat="42.07823884563979" lon="12.793104707181337"><ele>479.0</ele><time>2026-03-30T10:20:32Z</time></trkpt><trkpt lat="42.078260474203155" lon="12.793185143988598"><ele>480.0</ele><time>2026-03-30T10:20:34Z</time></trkpt><trkpt lat="42.07830558131031" lon="12.793344618247778"><ele>476.6666666666667</ele><time>2026-03-30T10:20:35Z</time></trkpt><trkpt lat="42.07833514396483" lon="12.793450666703928"><ele>473.33333333333337</ele><time>2026-03-30T10:20:38Z</time></trkpt><trkpt lat="42.07835944806731" lon="12.793550685650654"><ele>470.0</ele><time>2026-03-30T10:20:41Z</time></trkpt><trkpt lat="42.078381579098036" lon="12.793663081243322"><ele>466.6666666666667</ele><time>2026-03-30T10:20:44Z</time></trkpt><trkpt lat="42.078415562619625" lon="12.793783652069799"><ele>463.33333333333337</ele><time>2026-03-30T10:20:48Z</time></trkpt><trkpt lat="42.07842723976151" lon="12.793904241286546"><ele>460.0</ele><time>2026-03-30T10:20:51Z</time></trkpt><trkpt lat="42.078423213907556" lon="12.794015020624407"><ele>460.00000000000006</ele><time>2026-03-30T10:20:54Z</time></trkpt><trkpt lat="42.07842989826428" lon="12.794115285997355"><ele>460.0</ele><time>2026-03-30T10:20:57Z</time></trkpt><trkpt lat="42.07843448225705" lon="12.79420210546614"><ele>460.0</ele><time>2026-03-30T10:21:10Z</time></trkpt><trkpt lat="42.07845141452824" lon="12.794310657401995"><ele>460.0</ele><time>2026-03-30T10:21:13Z</time></trkpt><trkpt lat="42.078443445571764" lon="12.794418900442704"><ele>460.00000000000006</ele><time>2026-03-30T10:21:16Z</time></trkpt><trkpt lat="42.07844757093004" lon="12.794554146887398"><ele>460.0</ele><time>2026-03-30T10:21:19Z</time></trkpt><trkpt lat="42.07844120922214" lon="12.794674344720477"><ele>460.0</ele><time>2026-03-30T10:21:21Z</time></trkpt><trkpt lat="42.07845187378899" lon="12.794815302926994"><ele>460.0</ele><time>2026-03-30T10:21:23Z</time></trkpt><trkpt lat="42.078439834698806" lon="12.794968688283108"><ele>460.0</ele><time>2026-03-30T10:21:25Z</time></trkpt><trkpt lat="42.07844412143318" lon="12.795121837830363"><ele>460.0</ele><time>2026-03-30T10:21:27Z</time></trkpt><trkpt lat="42.0784502468203" lon="12.795224725754208"><ele>460.0</ele><time>2026-03-30T10:21:28Z</time></trkpt><trkpt lat="42.078478814519876" lon="12.795383869471491"><ele>460.0</ele><time>2026-03-30T10:21:30Z</time></trkpt><trkpt lat="42.078470222954195" lon="12.795472749130433"><ele>460.0</ele><time>2026-03-30T10:21:31Z</time></trkpt><trkpt lat="42.07848369632323" lon="12.795621429036379"><ele>460.0</ele><time>2026-03-30T10:21:33Z</time></trkpt><trkpt lat="42.078492435161785" lon="12.795717863269044"><ele>460.0</ele><time>2026-03-30T10:21:34Z</time></trkpt><trkpt lat="42.07850370669849" lon="12.795842246069526"><ele>460.0</ele><time>2026-03-30T10:21:36Z</time></trkpt><trkpt lat="42.07851842029067" lon="12.796004611245378"><ele>460.1666666666667</ele><time>2026-03-30T10:21:38.001Z</time></trkpt><trkpt lat="42.078525786058535" lon="12.796131307118234"><ele>460.33333333333337</ele><time>2026-03-30T10:21:40.001Z</time></trkpt><trkpt lat="42.07853046672004" lon="12.796252797563975"><ele>460.5</ele><time>2026-03-30T10:21:42.001Z</time></trkpt><trkpt lat="42.07853177444947" lon="12.79635971558431"><ele>460.66666666666663</ele><time>2026-03-30T10:21:44.001Z</time></trkpt><trkpt lat="42.07853211804689" lon="12.796445284107692"><ele>460.8333333333333</ele><time>2026-03-30T10:21:46.001Z</time></trkpt><trkpt lat="42.078529956527014" lon="12.79657288596675"><ele>461.0</ele><time>2026-03-30T10:21:48.001Z</time></trkpt><trkpt lat="42.07852699643986" lon="12.796717926095084"><ele>461.0</ele><time>2026-03-30T10:21:50.001Z</time></trkpt><trkpt lat="42.07854115040991" lon="12.79682053631781"><ele>461.0</ele><time>2026-03-30T10:21:52.001Z</time></trkpt><trkpt lat="42.078520739104" lon="12.796922482807695"><ele>460.0</ele><time>2026-03-30T10:21:55.001Z</time></trkpt></trkseg><trkseg><trkpt lat="42.07857269892154" lon="12.796774233790883"><ele>460.99999999999994</ele><time>2026-03-30T10:33:58Z</time></trkpt><trkpt lat="42.078574976418764" lon="12.796687664667838"><ele>461.0</ele><time>2026-03-30T10:34:01Z</time></trkpt><trkpt lat="42.07858656004575" lon="12.796563818498488"><ele>461.0</ele><time>2026-03-30T10:34:04Z</time></trkpt><trkpt lat="42.078609471385754" lon="12.796473205827017"><ele>461.0</ele><time>2026-03-30T10:34:06Z</time></trkpt><trkpt lat="42.07861964407001" lon="12.796388868087705"><ele>460.99999999999994</ele><time>2026-03-30T10:34:08Z</time></trkpt><trkpt lat="42.078611458225126" lon="12.796256602844453"><ele>461.0</ele><time>2026-03-30T10:34:12Z</time></trkpt><trkpt lat="42.07859733362627" lon="12.796138012046224"><ele>461.0</ele><time>2026-03-30T10:34:13.999Z</time></trkpt><trkpt lat="42.07856279740288" lon="12.796026376110595"><ele>461.0</ele><time>2026-03-30T10:34:15.999Z</time></trkpt><trkpt lat="42.07855312804877" lon="12.795934185551985"><ele>461.0</ele><time>2026-03-30T10:34:17.999Z</time></trkpt><trkpt lat="42.078536705079806" lon="12.795800566577277"><ele>461.0</ele><time>2026-03-30T10:34:19.999Z</time></trkpt><trkpt lat="42.07851735845181" lon="12.795666542822266"><ele>461.0</ele><time>2026-03-30T10:34:21.999Z</time></trkpt><trkpt lat="42.07848889322926" lon="12.79553314754571"><ele>460.8</ele><time>2026-03-30T10:34:23.999Z</time></trkpt><trkpt lat="42.07848010222524" lon="12.795430451081222"><ele>460.6</ele><time>2026-03-30T10:34:25.999Z</time></trkpt><trkpt lat="42.078476720732844" lon="12.795329408652808"><ele>460.4</ele><time>2026-03-30T10:34:27.999Z</time></trkpt><trkpt lat="42.078464155223514" lon="12.79519964638369"><ele>460.2</ele><time>2026-03-30T10:34:29.999Z</time></trkpt><trkpt lat="42.07845318646713" lon="12.795074656929923"><ele>460.0</ele><time>2026-03-30T10:34:31.999Z</time></trkpt><trkpt lat="42.07846212844859" lon="12.794911652095806"><ele>460.00000000000006</ele><time>2026-03-30T10:34:33.999Z</time></trkpt><trkpt lat="42.078454392620586" lon="12.794759039172972"><ele>460.0</ele><time>2026-03-30T10:34:35.999Z</time></trkpt><trkpt lat="42.078474779498855" lon="12.794642284496748"><ele>460.0</ele><time>2026-03-30T10:34:37.999Z</time></trkpt><trkpt lat="42.07845918324904" lon="12.79454301232082"><ele>460.0</ele><time>2026-03-30T10:34:39.999Z</time></trkpt><trkpt lat="42.0784612858468" lon="12.794451126604718"><ele>460.00000000000006</ele><time>2026-03-30T10:34:41.999Z</time></trkpt><trkpt lat="42.07846367503846" lon="12.794344269104313"><ele>460.0</ele><time>2026-03-30T10:34:43.999Z</time></trkpt><trkpt lat="42.07845981780343" lon="12.794251277094595"><ele>460.00000000000006</ele><time>2026-03-30T10:34:45.999Z</time></trkpt><trkpt lat="42.07845183869622" lon="12.794154854341414"><ele>460.0</ele><time>2026-03-30T10:34:48.999Z</time></trkpt><trkpt lat="42.078443877859684" lon="12.79404412538643"><ele>460.0</ele><time>2026-03-30T10:34:53Z</time></trkpt><trkpt lat="42.07843533717275" lon="12.793942217988318"><ele>460.0</ele><time>2026-03-30T10:34:56Z</time></trkpt><trkpt lat="42.07844181966183" lon="12.793853660678657"><ele>460.00000000000006</ele><time>2026-03-30T10:34:59Z</time></trkpt><trkpt lat="42.078426567340834" lon="12.793732958765245"><ele>460.0</ele><time>2026-03-30T10:35:01Z</time></trkpt><trkpt lat="42.07841244918395" lon="12.793644258215831"><ele>460.00000000000006</ele><time>2026-03-30T10:35:03Z</time></trkpt><trkpt lat="42.078396742509064" lon="12.793561766926024"><ele>460.0</ele><time>2026-03-30T10:35:05Z</time></trkpt><trkpt lat="42.07836035655266" lon="12.793465685807384"><ele>460.0</ele><time>2026-03-30T10:35:07Z</time></trkpt><trkpt lat="42.07834375838777" lon="12.793353629594145"><ele>460.0</ele><time>2026-03-30T10:35:09Z</time></trkpt><trkpt lat="42.07831587513408" lon="12.79325504934854"><ele>460.00000000000006</ele><time>2026-03-30T10:35:11Z</time></trkpt><trkpt lat="42.07828780582145" lon="12.793155811437273"><ele>460.0</ele><time>2026-03-30T10:35:13.999Z</time></trkpt><trkpt lat="42.078240859353635" lon="12.793041840992448"><ele>463.5</ele><time>2026-03-30T10:35:16.999Z</time></trkpt><trkpt lat="42.07821806106108" lon="12.79292763514181"><ele>467.0</ele><time>2026-03-30T10:35:18.999Z</time></trkpt><trkpt lat="42.07818598020977" lon="12.79279676054553"><ele>470.5</ele><time>2026-03-30T10:35:21.999Z</time></trkpt><trkpt lat="42.07812419941779" lon="12.792465257147382"><ele>474.0</ele><time>2026-03-30T10:35:25.999Z</time></trkpt><trkpt lat="42.078101079241264" lon="12.79235501718596"><ele>474.0</ele><time>2026-03-30T10:35:27.999Z</time></trkpt><trkpt lat="42.078077500209695" lon="12.792240595287133"><ele>474.0</ele><time>2026-03-30T10:35:29.999Z</time></trkpt><trkpt lat="42.078056563045294" lon="12.792136329663192"><ele>474.0</ele><time>2026-03-30T10:35:31.999Z</time></trkpt><trkpt lat="42.0780303988685" lon="12.792003882717514"><ele>474.0</ele><time>2026-03-30T10:35:33.999Z</time></trkpt><trkpt lat="42.07799731301328" lon="12.79183600879609"><ele>474.0</ele><time>2026-03-30T10:35:35.999Z</time></trkpt><trkpt lat="42.077966881490546" lon="12.791759556762475"><ele>472.75</ele><time>2026-03-30T10:35:36.999Z</time></trkpt><trkpt lat="42.07794459995838" lon="12.7916210410509"><ele>471.5</ele><time>2026-03-30T10:35:39.999Z</time></trkpt><trkpt lat="42.07791498044388" lon="12.791483229143624"><ele>470.25</ele><time>2026-03-30T10:35:41.999Z</time></trkpt><trkpt lat="42.07788026012318" lon="12.791323568815082"><ele>469.0</ele><time>2026-03-30T10:35:43.999Z</time></trkpt><trkpt lat="42.077842094217864" lon="12.791160877190768"><ele>469.00000000000006</ele><time>2026-03-30T10:35:45.998Z</time></trkpt><trkpt lat="42.07781718141" lon="12.791063719798998"><ele>469.0</ele><time>2026-03-30T10:35:46.998Z</time></trkpt><trkpt lat="42.07780365573431" lon="12.790945045211398"><ele>469.0</ele><time>2026-03-30T10:35:48.998Z</time></trkpt><trkpt lat="42.07777692543971" lon="12.790859367589812"><ele>469.0</ele><time>2026-03-30T10:35:50.998Z</time></trkpt><trkpt lat="42.07773874309308" lon="12.790762442009937"><ele>469.00000000000006</ele><time>2026-03-30T10:35:53.998Z</time></trkpt><trkpt lat="42.07768794647468" lon="12.790668573843012"><ele>469.0</ele><time>2026-03-30T10:35:55.998Z</time></trkpt><trkpt lat="42.07762009717029" lon="12.790574449538395"><ele>468.00000000000006</ele><time>2026-03-30T10:35:57.998Z</time></trkpt><trkpt lat="42.07753795934982" lon="12.790482855262164"><ele>467.0</ele><time>2026-03-30T10:35:59.998Z</time></trkpt><trkpt lat="42.077495815020896" lon="12.7904011836248"><ele>466.0</ele><time>2026-03-30T10:36:00.998Z</time></trkpt><trkpt lat="42.07743554371082" lon="12.790340940738623"><ele>465.0</ele><time>2026-03-30T10:36:01.998Z</time></trkpt><trkpt lat="42.07739770899235" lon="12.790245142592902"><ele>464.00000000000006</ele><time>2026-03-30T10:36:02.998Z</time></trkpt><trkpt lat="42.07733353180073" lon="12.79013328716573"><ele>463.0</ele><time>2026-03-30T10:36:04.998Z</time></trkpt><trkpt lat="42.07728002204643" lon="12.790048654373086"><ele>467.1666666666667</ele><time>2026-03-30T10:36:06.998Z</time></trkpt><trkpt lat="42.07726013513586" lon="12.789883164507874"><ele>471.33333333333337</ele><time>2026-03-30T10:36:08.998Z</time></trkpt><trkpt lat="42.07724639086474" lon="12.789796324504055"><ele>475.5</ele><time>2026-03-30T10:36:09.998Z</time></trkpt><trkpt lat="42.07722495353126" lon="12.78969960959292"><ele>479.66666666666663</ele><time>2026-03-30T10:36:10.998Z</time></trkpt><trkpt lat="42.077218180124135" lon="12.789596840575795"><ele>483.8333333333333</ele><time>2026-03-30T10:36:11.998Z</time></trkpt><trkpt lat="42.077209356761394" lon="12.789510145089066"><ele>488.0</ele><time>2026-03-30T10:36:12.998Z</time></trkpt><trkpt lat="42.07720961333841" lon="12.789421747648042"><ele>487.0</ele><time>2026-03-30T10:36:13.998Z</time></trkpt><trkpt lat="42.07721617484049" lon="12.789293719885604"><ele>485.99999999999994</ele><time>2026-03-30T10:36:15.998Z</time></trkpt><trkpt lat="42.07722745099646" lon="12.789163600836813"><ele>484.99999999999994</ele><time>2026-03-30T10:36:17.998Z</time></trkpt><trkpt lat="42.077242615956116" lon="12.789043194604334"><ele>484.0</ele><time>2026-03-30T10:36:19.998Z</time></trkpt><trkpt lat="42.0772332470819" lon="12.78889170675335"><ele>483.0</ele><time>2026-03-30T10:36:21.998Z</time></trkpt><trkpt lat="42.077236109725796" lon="12.78879039859868"><ele>483.0</ele><time>2026-03-30T10:36:22.998Z</time></trkpt><trkpt lat="42.07724354189086" lon="12.788692202039227"><ele>483.0</ele><time>2026-03-30T10:36:23.998Z</time></trkpt><trkpt lat="42.077249682000264" lon="12.788606193586379"><ele>483.0</ele><time>2026-03-30T10:36:24.998Z</time></trkpt><trkpt lat="42.07728614342668" lon="12.788468318918257"><ele>483.0</ele><time>2026-03-30T10:36:26.998Z</time></trkpt><trkpt lat="42.07731389703957" lon="12.788349664231877"><ele>483.0</ele><time>2026-03-30T10:36:28.998Z</time></trkpt><trkpt lat="42.07736297012102" lon="12.78822108117672"><ele>483.0</ele><time>2026-03-30T10:36:30.998Z</time></trkpt><trkpt lat="42.07747058806901" lon="12.788010790032363"><ele>480.6666666666667</ele><time>2026-03-30T10:36:33.998Z</time></trkpt><trkpt lat="42.07751467330736" lon="12.787930418681308"><ele>478.33333333333337</ele><time>2026-03-30T10:36:34.998Z</time></trkpt><trkpt lat="42.077571089726106" lon="12.787851978528037"><ele>476.0</ele><time>2026-03-30T10:36:35.998Z</time></trkpt><trkpt lat="42.077615226698235" lon="12.787786007591373"><ele>473.6666666666667</ele><time>2026-03-30T10:36:36.998Z</time></trkpt><trkpt lat="42.077677234382925" lon="12.787669228863741"><ele>471.33333333333337</ele><time>2026-03-30T10:36:37.998Z</time></trkpt><trkpt lat="42.077763572509" lon="12.78756863023993"><ele>469.0</ele><time>2026-03-30T10:36:38.998Z</time></trkpt><trkpt lat="42.07783161698032" lon="12.787490424849413"><ele>469.00000000000006</ele><time>2026-03-30T10:36:39.998Z</time></trkpt><trkpt lat="42.07789170880384" lon="12.78745515942083"><ele>469.0</ele><time>2026-03-30T10:36:41.998Z</time></trkpt><trkpt lat="42.07794429171179" lon="12.787402026275648"><ele>469.0</ele><time>2026-03-30T10:36:44.998Z</time></trkpt><trkpt lat="42.07802138183167" lon="12.787328262193576"><ele>469.0</ele><time>2026-03-30T10:36:46.998Z</time></trkpt><trkpt lat="42.078074777923526" lon="12.787279972332124"><ele>469.00000000000006</ele><time>2026-03-30T10:36:47.998Z</time></trkpt><trkpt lat="42.07816695390321" lon="12.787200868079802"><ele>469.0</ele><time>2026-03-30T10:36:49.998Z</time></trkpt><trkpt lat="42.078220889570304" lon="12.78715458026376"><ele>469.0</ele><time>2026-03-30T10:36:50.998Z</time></trkpt><trkpt lat="42.078314157556754" lon="12.78707453730037"><ele>469.0</ele><time>2026-03-30T10:36:52.998Z</time></trkpt><trkpt lat="42.078153397020664" lon="12.786963489594035"><ele>469.0</ele><time>2026-03-30T10:36:54.998Z</time></trkpt><trkpt lat="42.07815020182795" lon="12.786846033670555"><ele>469.0</ele><time>2026-03-30T10:36:56.998Z</time></trkpt><trkpt lat="42.078145898457514" lon="12.786687839679631"><ele>468.0</ele><time>2026-03-30T10:36:58.999Z</time></trkpt><trkpt lat="42.07814141858177" lon="12.786523156047567"><ele>467.0</ele><time>2026-03-30T10:37:00.999Z</time></trkpt><trkpt lat="42.07832378843652" lon="12.786415121946183"><ele>466.0</ele><time>2026-03-30T10:37:01.999Z</time></trkpt><trkpt lat="42.0783237480769" lon="12.786323458482563"><ele>465.0</ele><time>2026-03-30T10:37:02.999Z</time></trkpt><trkpt lat="42.07832828349957" lon="12.7862375528029"><ele>465.0</ele><time>2026-03-30T10:37:03.999Z</time></trkpt><trkpt lat="42.07832037524097" lon="12.786134206401321"><ele>465.0</ele><time>2026-03-30T10:37:04.999Z</time></trkpt><trkpt lat="42.078360329864275" lon="12.785957480039835"><ele>465.0</ele><time>2026-03-30T10:37:06.999Z</time></trkpt><trkpt lat="42.078388745797476" lon="12.78585084222512"><ele>465.0</ele><time>2026-03-30T10:37:07.999Z</time></trkpt><trkpt lat="42.07841142562467" lon="12.7857428695686"><ele>465.0</ele><time>2026-03-30T10:37:08.999Z</time></trkpt><trkpt lat="42.078425616971" lon="12.78563885502583"><ele>465.6</ele><time>2026-03-30T10:37:09.999Z</time></trkpt><trkpt lat="42.07842601930159" lon="12.78549054784163"><ele>466.2</ele><time>2026-03-30T10:37:10.999Z</time></trkpt><trkpt lat="42.07844600761468" lon="12.785359757568168"><ele>466.79999999999995</ele><time>2026-03-30T10:37:11.999Z</time></trkpt><trkpt lat="42.0784755241182" lon="12.78524240479302"><ele>467.4</ele><time>2026-03-30T10:37:12.999Z</time></trkpt><trkpt lat="42.078512211135745" lon="12.785134685102742"><ele>468.0</ele><time>2026-03-30T10:37:13.999Z</time></trkpt><trkpt lat="42.07857001758223" lon="12.785025944846385"><ele>468.59999999999997</ele><time>2026-03-30T10:37:14.999Z</time></trkpt><trkpt lat="42.07861056182347" lon="12.78489287721746"><ele>469.19999999999993</ele><time>2026-03-30T10:37:15.999Z</time></trkpt><trkpt lat="42.07864488461005" lon="12.784768708998183"><ele>469.8</ele><time>2026-03-30T10:37:16.999Z</time></trkpt><trkpt lat="42.07865722526696" lon="12.784645786522242"><ele>470.4</ele><time>2026-03-30T10:37:17.999Z</time></trkpt><trkpt lat="42.07866223915073" lon="12.78451804888596"><ele>471.0</ele><time>2026-03-30T10:37:18.999Z</time></trkpt><trkpt lat="42.078655580700506" lon="12.784394666966014"><ele>472.75</ele><time>2026-03-30T10:37:19.999Z</time></trkpt><trkpt lat="42.078649827997296" lon="12.784267575819056"><ele>474.5</ele><time>2026-03-30T10:37:20.999Z</time></trkpt><trkpt lat="42.07864807443647" lon="12.784111626400367"><ele>476.25</ele><time>2026-03-30T10:37:21.999Z</time></trkpt><trkpt lat="42.078672895259125" lon="12.783941071871107"><ele>478.0</ele><time>2026-03-30T10:37:22.999Z</time></trkpt><trkpt lat="42.07870617504201" lon="12.783764953780054"><ele>478.0</ele><time>2026-03-30T10:37:23.999Z</time></trkpt><trkpt lat="42.078768497516194" lon="12.783588615810038"><ele>478.0</ele><time>2026-03-30T10:37:24.999Z</time></trkpt><trkpt lat="42.078802870382475" lon="12.783419576542693"><ele>478.0</ele><time>2026-03-30T10:37:25.999Z</time></trkpt><trkpt lat="42.07882596917545" lon="12.783267346801058"><ele>478.0</ele><time>2026-03-30T10:37:26.999Z</time></trkpt><trkpt lat="42.07885189905283" lon="12.783111778599618"><ele>480.0</ele><time>2026-03-30T10:37:27.999Z</time></trkpt><trkpt lat="42.078877194494005" lon="12.782958165059432"><ele>482.0</ele><time>2026-03-30T10:37:28.999Z</time></trkpt><trkpt lat="42.07890212923455" lon="12.782810054164093"><ele>484.0</ele><time>2026-03-30T10:37:29.999Z</time></trkpt><trkpt lat="42.078914156231775" lon="12.78266046109304"><ele>486.0</ele><time>2026-03-30T10:37:30.999Z</time></trkpt><trkpt lat="42.07893015123525" lon="12.782511900395145"><ele>488.75</ele><time>2026-03-30T10:37:31.999Z</time></trkpt><trkpt lat="42.078944517189164" lon="12.782367906952068"><ele>491.5</ele><time>2026-03-30T10:37:32.999Z</time></trkpt><trkpt lat="42.078966040964104" lon="12.782203107490265"><ele>494.25</ele><time>2026-03-30T10:37:33.999Z</time></trkpt><trkpt lat="42.078994872376626" lon="12.782049033373996"><ele>497.0</ele><time>2026-03-30T10:37:34.999Z</time></trkpt><trkpt lat="42.07901910967153" lon="12.781904246882382"><ele>497.8</ele><time>2026-03-30T10:37:35.999Z</time></trkpt><trkpt lat="42.07904302815715" lon="12.781767247411514"><ele>498.6</ele><time>2026-03-30T10:37:36.999Z</time></trkpt><trkpt lat="42.079073735170404" lon="12.781638472392268"><ele>499.40000000000003</ele><time>2026-03-30T10:37:37.999Z</time></trkpt><trkpt lat="42.07908431646289" lon="12.781489487593896"><ele>500.20000000000005</ele><time>2026-03-30T10:37:38.999Z</time></trkpt><trkpt lat="42.07910950137174" lon="12.7813228360156"><ele>501.0</ele><time>2026-03-30T10:37:39.999Z</time></trkpt><trkpt lat="42.07912775857296" lon="12.78115062109435"><ele>489.25</ele><time>2026-03-30T10:37:40.999Z</time></trkpt><trkpt lat="42.07914823271642" lon="12.780985821339929"><ele>477.5</ele><time>2026-03-30T10:37:41.999Z</time></trkpt><trkpt lat="42.079161092639104" lon="12.780827535353694"><ele>465.75</ele><time>2026-03-30T10:37:42.999Z</time></trkpt><trkpt lat="42.07917436617475" lon="12.780682419187697"><ele>454.0</ele><time>2026-03-30T10:37:43.999Z</time></trkpt><trkpt lat="42.0791920272545" lon="12.780514989328777"><ele>454.0</ele><time>2026-03-30T10:37:44.999Z</time></trkpt><trkpt lat="42.07918921251472" lon="12.780339489851105"><ele>454.0</ele><time>2026-03-30T10:37:45.999Z</time></trkpt><trkpt lat="42.079196296647616" lon="12.780187724547474"><ele>454.0</ele><time>2026-03-30T10:37:46.999Z</time></trkpt><trkpt lat="42.07920624650315" lon="12.780046330356848"><ele>454.0</ele><time>2026-03-30T10:37:47.999Z</time></trkpt><trkpt lat="42.07921661838852" lon="12.77992569074177"><ele>454.0</ele><time>2026-03-30T10:37:48.999Z</time></trkpt><trkpt lat="42.079234224090776" lon="12.77983433355944"><ele>454.1666666666667</ele><time>2026-03-30T10:37:49.999Z</time></trkpt><trkpt lat="42.07925598454338" lon="12.779741370144292"><ele>454.33333333333337</ele><time>2026-03-30T10:37:50.999Z</time></trkpt><trkpt lat="42.07926481995557" lon="12.779651377576524"><ele>454.5</ele><time>2026-03-30T10:37:51.999Z</time></trkpt><trkpt lat="42.079244372671994" lon="12.779497785298535"><ele>454.66666666666663</ele><time>2026-03-30T10:37:53.999Z</time></trkpt><trkpt lat="42.07921100111207" lon="12.779417693962616"><ele>454.8333333333333</ele><time>2026-03-30T10:37:54.999Z</time></trkpt><trkpt lat="42.07916156398369" lon="12.779312283677545"><ele>455.0</ele><time>2026-03-30T10:37:55.999Z</time></trkpt><trkpt lat="42.07912553939034" lon="12.779199839981743"><ele>460.8</ele><time>2026-03-30T10:37:56.999Z</time></trkpt><trkpt lat="42.079087646986565" lon="12.77906622038625"><ele>466.6</ele><time>2026-03-30T10:37:57.999Z</time></trkpt><trkpt lat="42.0790685037451" lon="12.778921930574239"><ele>472.4</ele><time>2026-03-30T10:37:58.999Z</time></trkpt><trkpt lat="42.07903759496155" lon="12.77877305230892"><ele>478.2</ele><time>2026-03-30T10:37:59.999Z</time></trkpt><trkpt lat="42.07899874766729" lon="12.778621913919462"><ele>484.0</ele><time>2026-03-30T10:38:00.999Z</time></trkpt><trkpt lat="42.078970789967805" lon="12.7784591826906"><ele>484.0</ele><time>2026-03-30T10:38:01.999Z</time></trkpt><trkpt lat="42.07893099660847" lon="12.778299471969374"><ele>484.0</ele><time>2026-03-30T10:38:02.999Z</time></trkpt><trkpt lat="42.07889680209317" lon="12.77815674265328"><ele>484.0</ele><time>2026-03-30T10:38:03.999Z</time></trkpt><trkpt lat="42.078879331656154" lon="12.77803903694801"><ele>484.0</ele><time>2026-03-30T10:38:04.999Z</time></trkpt><trkpt lat="42.07887759629417" lon="12.777940616080391"><ele>484.0</ele><time>2026-03-30T10:38:05.999Z</time></trkpt><trkpt lat="42.07884289925386" lon="12.777855760752578"><ele>484.0</ele><time>2026-03-30T10:38:06.999Z</time></trkpt><trkpt lat="42.078752910415474" lon="12.777710235726412"><ele>484.0</ele><time>2026-03-30T10:38:08.999Z</time></trkpt><trkpt lat="42.078675548486714" lon="12.777626178691941"><ele>484.0</ele><time>2026-03-30T10:38:09.999Z</time></trkpt><trkpt lat="42.0785757954104" lon="12.77749912080604"><ele>484.0</ele><time>2026-03-30T10:38:10.999Z</time></trkpt><trkpt lat="42.07847119258215" lon="12.777380535683736"><ele>485.2</ele><time>2026-03-30T10:38:11.999Z</time></trkpt><trkpt lat="42.078376259862075" lon="12.777265123144215"><ele>486.4</ele><time>2026-03-30T10:38:12.999Z</time></trkpt><trkpt lat="42.078290816910865" lon="12.77716267375759"><ele>487.6</ele><time>2026-03-30T10:38:13.999Z</time></trkpt><trkpt lat="42.078212155857386" lon="12.777076509273618"><ele>488.8</ele><time>2026-03-30T10:38:14.999Z</time></trkpt><trkpt lat="42.07812795122781" lon="12.776997237120092"><ele>490.0</ele><time>2026-03-30T10:38:15.999Z</time></trkpt><trkpt lat="42.07803172343736" lon="12.776934556496524"><ele>490.0</ele><time>2026-03-30T10:38:16.999Z</time></trkpt><trkpt lat="42.07795204322532" lon="12.776879375946027"><ele>490.0</ele><time>2026-03-30T10:38:17.999Z</time></trkpt><trkpt lat="42.077871213802275" lon="12.776773804468295"><ele>490.0</ele><time>2026-03-30T10:38:18.999Z</time></trkpt><trkpt lat="42.077799961441166" lon="12.77664648381647"><ele>490.0</ele><time>2026-03-30T10:38:19.999Z</time></trkpt><trkpt lat="42.07772825202492" lon="12.776530514815086"><ele>490.0</ele><time>2026-03-30T10:38:20.999Z</time></trkpt><trkpt lat="42.07767570624102" lon="12.7764481617538"><ele>488.00000000000006</ele><time>2026-03-30T10:38:21.999Z</time></trkpt><trkpt lat="42.0776326065189" lon="12.77636319685135"><ele>486.0</ele><time>2026-03-30T10:38:22.999Z</time></trkpt><trkpt lat="42.07758665001802" lon="12.776285540343894"><ele>484.0</ele><time>2026-03-30T10:38:23.999Z</time></trkpt><trkpt lat="42.077540501850734" lon="12.776225620123405"><ele>482.0</ele><time>2026-03-30T10:38:24.999Z</time></trkpt><trkpt lat="42.077454272509826" lon="12.77612059854454"><ele>480.00000000000006</ele><time>2026-03-30T10:38:26.999Z</time></trkpt><trkpt lat="42.077380167918896" lon="12.77602200292578"><ele>478.0</ele><time>2026-03-30T10:38:28.999Z</time></trkpt><trkpt lat="42.077303597039645" lon="12.775925235074972"><ele>472.79999999999995</ele><time>2026-03-30T10:38:30.999Z</time></trkpt><trkpt lat="42.07723155341311" lon="12.775843511082924"><ele>467.59999999999997</ele><time>2026-03-30T10:38:32.999Z</time></trkpt><trkpt lat="42.07715671104622" lon="12.775766953421234"><ele>462.40000000000003</ele><time>2026-03-30T10:38:34.999Z</time></trkpt><trkpt lat="42.07707570481043" lon="12.775697883376077"><ele>457.20000000000005</ele><time>2026-03-30T10:38:36.999Z</time></trkpt><trkpt lat="42.07700938257002" lon="12.775615538808141"><ele>452.0</ele><time>2026-03-30T10:38:38.999Z</time></trkpt><trkpt lat="42.076945256497226" lon="12.775521247675528"><ele>451.99999999999994</ele><time>2026-03-30T10:38:40.999Z</time></trkpt><trkpt lat="42.07688076494139" lon="12.775450177411466"><ele>452.0</ele><time>2026-03-30T10:38:42.999Z</time></trkpt><trkpt lat="42.07682629987875" lon="12.775357383823676"><ele>452.0</ele><time>2026-03-30T10:38:44.999Z</time></trkpt><trkpt lat="42.076771585414996" lon="12.775288687367013"><ele>452.0</ele><time>2026-03-30T10:38:46.999Z</time></trkpt><trkpt lat="42.076759634260085" lon="12.775173338237233"><ele>451.99999999999994</ele><time>2026-03-30T10:38:49.999Z</time></trkpt><trkpt lat="42.07678370969384" lon="12.775031641931367"><ele>452.0</ele><time>2026-03-30T10:38:51.999Z</time></trkpt><trkpt lat="42.07681236513315" lon="12.774861471401476"><ele>449.99999999999994</ele><time>2026-03-30T10:38:53.999Z</time></trkpt><trkpt lat="42.07680396916865" lon="12.774710571141316"><ele>448.0</ele><time>2026-03-30T10:38:55.999Z</time></trkpt><trkpt lat="42.07676746527807" lon="12.77455517891316"><ele>446.0</ele><time>2026-03-30T10:38:57.999Z</time></trkpt><trkpt lat="42.07675168110694" lon="12.774469618848935"><ele>444.0</ele><time>2026-03-30T10:38:58.999Z</time></trkpt><trkpt lat="42.076732827554814" lon="12.774381172734275"><ele>441.99999999999994</ele><time>2026-03-30T10:38:59.999Z</time></trkpt><trkpt lat="42.076722059942064" lon="12.774293450736321"><ele>440.0</ele><time>2026-03-30T10:39:00.999Z</time></trkpt><trkpt lat="42.07669422240378" lon="12.774117850747965"><ele>439.66666666666663</ele><time>2026-03-30T10:39:03Z</time></trkpt><trkpt lat="42.076686168679466" lon="12.774026067203918"><ele>439.3333333333333</ele><time>2026-03-30T10:39:04Z</time></trkpt><trkpt lat="42.07669276856915" lon="12.773853939150605"><ele>439.0</ele><time>2026-03-30T10:39:06Z</time></trkpt><trkpt lat="42.076703207106306" lon="12.773754798335016"><ele>438.66666666666663</ele><time>2026-03-30T10:39:07Z</time></trkpt><trkpt lat="42.076724575659505" lon="12.773665381696366"><ele>438.3333333333333</ele><time>2026-03-30T10:39:08Z</time></trkpt><trkpt lat="42.07675291648952" lon="12.77358668376152"><ele>438.0</ele><time>2026-03-30T10:39:09Z</time></trkpt><trkpt lat="42.07678740380833" lon="12.773515490394184"><ele>438.0</ele><time>2026-03-30T10:39:10Z</time></trkpt><trkpt lat="42.07685628306713" lon="12.77342245504953"><ele>438.0</ele><time>2026-03-30T10:39:12Z</time></trkpt><trkpt lat="42.076939864050644" lon="12.773425512469178"><ele>438.0</ele><time>2026-03-30T10:39:16Z</time></trkpt><trkpt lat="42.076964364025166" lon="12.773509746558574"><ele>438.0</ele><time>2026-03-30T10:39:20Z</time></trkpt><trkpt lat="42.07695616975633" lon="12.77362036181936"><ele>438.0</ele><time>2026-03-30T10:39:22Z</time></trkpt><trkpt lat="42.07700426000354" lon="12.773728313649052"><ele>438.0</ele><time>2026-03-30T10:39:24Z</time></trkpt><trkpt lat="42.07702753578496" lon="12.773863170323141"><ele>438.0</ele><time>2026-03-30T10:39:26Z</time></trkpt><trkpt lat="42.077051378714295" lon="12.773978896396985"><ele>438.0</ele><time>2026-03-30T10:39:28Z</time></trkpt><trkpt lat="42.077074233265044" lon="12.77407825908351"><ele>438.0</ele><time>2026-03-30T10:39:30Z</time></trkpt><trkpt lat="42.07710717047155" lon="12.774154983652856"><ele>438.0</ele><time>2026-03-30T10:39:33Z</time></trkpt><trkpt lat="42.07719213189374" lon="12.774189091056726"><ele>438.0</ele><time>2026-03-30T10:39:35Z</time></trkpt><trkpt lat="42.07731036508291" lon="12.774179750844722"><ele>438.0</ele><time>2026-03-30T10:39:37Z</time></trkpt><trkpt lat="42.077410715102886" lon="12.77419143820689"><ele>441.3333333333333</ele><time>2026-03-30T10:39:39Z</time></trkpt><trkpt lat="42.07749525134364" lon="12.774234238859917"><ele>444.66666666666663</ele><time>2026-03-30T10:39:41Z</time></trkpt><trkpt lat="42.07755328452057" lon="12.774312394042475"><ele>448.0</ele><time>2026-03-30T10:39:43Z</time></trkpt><trkpt lat="42.07762175160262" lon="12.774401499741769"><ele>451.3333333333333</ele><time>2026-03-30T10:39:45Z</time></trkpt><trkpt lat="42.0777035547811" lon="12.774412360578026"><ele>454.66666666666663</ele><time>2026-03-30T10:39:47Z</time></trkpt><trkpt lat="42.07778410818421" lon="12.774449183452946"><ele>458.0</ele><time>2026-03-30T10:39:50Z</time></trkpt><trkpt lat="42.077861708669445" lon="12.774494108369515"><ele>462.0</ele><time>2026-03-30T10:39:53Z</time></trkpt><trkpt lat="42.0779085572294" lon="12.774593133583707"><ele>462.0</ele><time>2026-03-30T10:39:55.999Z</time></trkpt><trkpt lat="42.077918798372714" lon="12.774678344141396"><ele>462.0</ele><time>2026-03-30T10:39:57.999Z</time></trkpt><trkpt lat="42.07789243766595" lon="12.774806436985548"><ele>462.0</ele><time>2026-03-30T10:40:00.999Z</time></trkpt><trkpt lat="42.0778934456812" lon="12.774897911830806"><ele>462.0</ele><time>2026-03-30T10:40:02.999Z</time></trkpt></trkseg></trk></gpx>